<?xml version="1.0" encoding="UTF-8" standalone="no" ?>
<gpx xmlns="http://www.topografix.com/GPX/1/1" xmlns:xsi="http://www.w3.org/2001/XMLSchema-instance" xsi:schemaLocation="http://www.topografix.com/GPX/1/1 http://www.topografix.com/GPX/1/1/gpx.xsd" version="1.1" creator="VisuGPX - https://www.visugpx.com">
  <metadata>
    <name>Chapelle - Bagnoles - St michel</name>
    <desc><![CDATA[Vtt en forêt d\'andaine]]></desc>
  </metadata>
  <trk>
    <name><![CDATA[Chapelle - Bagnoles - St michel_1]]></name>
    <trkseg>
      <trkpt lat="48.53012" lon="-0.48025">
        <ele>129.91528320312</ele>
        <time>2013-07-17T12:47:09Z</time>
      </trkpt>
      <trkpt lat="48.53001" lon="-0.48014">
        <ele>130.39599609375</ele>
        <time>2013-07-17T12:47:14Z</time>
      </trkpt>
      <trkpt lat="48.52962" lon="-0.48012">
        <ele>131.35729980469</ele>
        <time>2013-07-17T12:47:24Z</time>
      </trkpt>
      <trkpt lat="48.52921" lon="-0.48013">
        <ele>132.79931640625</ele>
        <time>2013-07-17T12:47:34Z</time>
      </trkpt>
      <trkpt lat="48.52909" lon="-0.48014">
        <ele>133.27990722656</ele>
        <time>2013-07-17T12:47:37Z</time>
      </trkpt>
      <trkpt lat="48.5289" lon="-0.48005">
        <ele>133.76049804688</ele>
        <time>2013-07-17T12:47:42Z</time>
      </trkpt>
      <trkpt lat="48.52887" lon="-0.47991">
        <ele>134.2412109375</ele>
        <time>2013-07-17T12:47:45Z</time>
      </trkpt>
      <trkpt lat="48.52887" lon="-0.47956">
        <ele>134.72192382812</ele>
        <time>2013-07-17T12:47:51Z</time>
      </trkpt>
      <trkpt lat="48.52888" lon="-0.47927">
        <ele>134.72192382812</ele>
        <time>2013-07-17T12:47:56Z</time>
      </trkpt>
      <trkpt lat="48.5289" lon="-0.47895">
        <ele>135.68310546875</ele>
        <time>2013-07-17T12:48:02Z</time>
      </trkpt>
      <trkpt lat="48.52893" lon="-0.47856">
        <ele>136.16394042969</ele>
        <time>2013-07-17T12:48:08Z</time>
      </trkpt>
      <trkpt lat="48.52895" lon="-0.47832">
        <ele>136.64465332031</ele>
        <time>2013-07-17T12:48:12Z</time>
      </trkpt>
      <trkpt lat="48.52898" lon="-0.47798">
        <ele>136.16394042969</ele>
        <time>2013-07-17T12:48:18Z</time>
      </trkpt>
      <trkpt lat="48.52902" lon="-0.47768">
        <ele>137.12524414062</ele>
        <time>2013-07-17T12:48:23Z</time>
      </trkpt>
      <trkpt lat="48.52906" lon="-0.47739">
        <ele>137.12524414062</ele>
        <time>2013-07-17T12:48:28Z</time>
      </trkpt>
      <trkpt lat="48.5291" lon="-0.47717">
        <ele>137.12524414062</ele>
        <time>2013-07-17T12:48:32Z</time>
      </trkpt>
      <trkpt lat="48.52919" lon="-0.47666">
        <ele>136.16394042969</ele>
        <time>2013-07-17T12:48:39Z</time>
      </trkpt>
      <trkpt lat="48.52922" lon="-0.47645">
        <ele>136.16394042969</ele>
        <time>2013-07-17T12:48:42Z</time>
      </trkpt>
      <trkpt lat="48.52932" lon="-0.47611">
        <ele>136.16394042969</ele>
        <time>2013-07-17T12:48:47Z</time>
      </trkpt>
      <trkpt lat="48.52942" lon="-0.4758">
        <ele>136.16394042969</ele>
        <time>2013-07-17T12:48:53Z</time>
      </trkpt>
      <trkpt lat="48.52949" lon="-0.47562">
        <ele>136.64465332031</ele>
        <time>2013-07-17T12:48:57Z</time>
      </trkpt>
      <trkpt lat="48.52944" lon="-0.47534">
        <ele>136.64465332031</ele>
        <time>2013-07-17T12:49:02Z</time>
      </trkpt>
      <trkpt lat="48.52942" lon="-0.47528">
        <ele>136.64465332031</ele>
        <time>2013-07-17T12:49:03Z</time>
      </trkpt>
      <trkpt lat="48.52924" lon="-0.47492">
        <ele>136.64465332031</ele>
        <time>2013-07-17T12:49:10Z</time>
      </trkpt>
      <trkpt lat="48.52922" lon="-0.47486">
        <ele>136.64465332031</ele>
        <time>2013-07-17T12:49:11Z</time>
      </trkpt>
      <trkpt lat="48.52906" lon="-0.47457">
        <ele>136.16394042969</ele>
        <time>2013-07-17T12:49:17Z</time>
      </trkpt>
      <trkpt lat="48.52894" lon="-0.47438">
        <ele>136.16394042969</ele>
        <time>2013-07-17T12:49:21Z</time>
      </trkpt>
      <trkpt lat="48.52879" lon="-0.47418">
        <ele>135.68310546875</ele>
        <time>2013-07-17T12:49:26Z</time>
      </trkpt>
      <trkpt lat="48.52875" lon="-0.47415">
        <ele>136.16394042969</ele>
        <time>2013-07-17T12:49:27Z</time>
      </trkpt>
      <trkpt lat="48.52851" lon="-0.47393">
        <ele>135.20251464844</ele>
        <time>2013-07-17T12:49:33Z</time>
      </trkpt>
      <trkpt lat="48.52836" lon="-0.47379">
        <ele>135.20251464844</ele>
        <time>2013-07-17T12:49:37Z</time>
      </trkpt>
      <trkpt lat="48.52821" lon="-0.47363">
        <ele>135.68310546875</ele>
        <time>2013-07-17T12:49:41Z</time>
      </trkpt>
      <trkpt lat="48.52803" lon="-0.47345">
        <ele>135.68310546875</ele>
        <time>2013-07-17T12:49:46Z</time>
      </trkpt>
      <trkpt lat="48.52789" lon="-0.47327">
        <ele>136.16394042969</ele>
        <time>2013-07-17T12:49:51Z</time>
      </trkpt>
      <trkpt lat="48.5278" lon="-0.47314">
        <ele>136.64465332031</ele>
        <time>2013-07-17T12:49:55Z</time>
      </trkpt>
      <trkpt lat="48.52785" lon="-0.473">
        <ele>138.56726074219</ele>
        <time>2013-07-17T12:50:00Z</time>
      </trkpt>
      <trkpt lat="48.528" lon="-0.47276">
        <ele>139.0478515625</ele>
        <time>2013-07-17T12:50:07Z</time>
      </trkpt>
      <trkpt lat="48.52818" lon="-0.47246">
        <ele>139.52844238281</ele>
        <time>2013-07-17T12:50:16Z</time>
      </trkpt>
      <trkpt lat="48.52839" lon="-0.47214">
        <ele>140.48986816406</ele>
        <time>2013-07-17T12:50:26Z</time>
      </trkpt>
      <trkpt lat="48.5285" lon="-0.47195">
        <ele>140.97045898438</ele>
        <time>2013-07-17T12:50:33Z</time>
      </trkpt>
      <trkpt lat="48.52861" lon="-0.47179">
        <ele>141.93176269531</ele>
        <time>2013-07-17T12:50:40Z</time>
      </trkpt>
      <trkpt lat="48.52869" lon="-0.47166">
        <ele>142.41247558594</ele>
        <time>2013-07-17T12:50:45Z</time>
      </trkpt>
      <trkpt lat="48.52883" lon="-0.47143">
        <ele>142.41247558594</ele>
        <time>2013-07-17T12:50:53Z</time>
      </trkpt>
      <trkpt lat="48.52884" lon="-0.47141">
        <ele>142.41247558594</ele>
        <time>2013-07-17T12:50:54Z</time>
      </trkpt>
      <trkpt lat="48.52882" lon="-0.47129">
        <ele>142.89306640625</ele>
        <time>2013-07-17T12:50:59Z</time>
      </trkpt>
      <trkpt lat="48.52868" lon="-0.47102">
        <ele>143.85437011719</ele>
        <time>2013-07-17T12:51:07Z</time>
      </trkpt>
      <trkpt lat="48.52861" lon="-0.47089">
        <ele>144.33520507812</ele>
        <time>2013-07-17T12:51:11Z</time>
      </trkpt>
      <trkpt lat="48.52864" lon="-0.47079">
        <ele>144.81579589844</ele>
        <time>2013-07-17T12:51:15Z</time>
      </trkpt>
      <trkpt lat="48.52879" lon="-0.47055">
        <ele>145.29638671875</ele>
        <time>2013-07-17T12:51:24Z</time>
      </trkpt>
      <trkpt lat="48.52896" lon="-0.47035">
        <ele>145.29638671875</ele>
        <time>2013-07-17T12:51:32Z</time>
      </trkpt>
      <trkpt lat="48.52902" lon="-0.4703">
        <ele>146.2578125</ele>
        <time>2013-07-17T12:51:37Z</time>
      </trkpt>
      <trkpt lat="48.52908" lon="-0.47024">
        <ele>145.77709960938</ele>
        <time>2013-07-17T12:51:41Z</time>
      </trkpt>
      <trkpt lat="48.52906" lon="-0.47011">
        <ele>146.2578125</ele>
        <time>2013-07-17T12:51:45Z</time>
      </trkpt>
      <trkpt lat="48.52892" lon="-0.4698">
        <ele>147.21899414062</ele>
        <time>2013-07-17T12:51:53Z</time>
      </trkpt>
      <trkpt lat="48.52879" lon="-0.46951">
        <ele>147.21899414062</ele>
        <time>2013-07-17T12:52:00Z</time>
      </trkpt>
      <trkpt lat="48.5286" lon="-0.46905">
        <ele>147.21899414062</ele>
        <time>2013-07-17T12:52:10Z</time>
      </trkpt>
      <trkpt lat="48.52842" lon="-0.46864">
        <ele>147.21899414062</ele>
        <time>2013-07-17T12:52:19Z</time>
      </trkpt>
      <trkpt lat="48.5284" lon="-0.46849">
        <ele>147.21899414062</ele>
        <time>2013-07-17T12:52:23Z</time>
      </trkpt>
      <trkpt lat="48.52845" lon="-0.46836">
        <ele>147.21899414062</ele>
        <time>2013-07-17T12:52:28Z</time>
      </trkpt>
      <trkpt lat="48.52874" lon="-0.46808">
        <ele>147.69970703125</ele>
        <time>2013-07-17T12:52:38Z</time>
      </trkpt>
      <trkpt lat="48.52882" lon="-0.46798">
        <ele>147.21899414062</ele>
        <time>2013-07-17T12:52:41Z</time>
      </trkpt>
      <trkpt lat="48.52892" lon="-0.46798">
        <ele>148.66101074219</ele>
        <time>2013-07-17T12:52:45Z</time>
      </trkpt>
      <trkpt lat="48.52903" lon="-0.46791">
        <ele>149.1416015625</ele>
        <time>2013-07-17T12:52:49Z</time>
      </trkpt>
      <trkpt lat="48.52926" lon="-0.46766">
        <ele>149.1416015625</ele>
        <time>2013-07-17T12:52:57Z</time>
      </trkpt>
      <trkpt lat="48.52944" lon="-0.46744">
        <ele>149.62231445312</ele>
        <time>2013-07-17T12:53:03Z</time>
      </trkpt>
      <trkpt lat="48.5297" lon="-0.46718">
        <ele>149.62231445312</ele>
        <time>2013-07-17T12:53:11Z</time>
      </trkpt>
      <trkpt lat="48.52991" lon="-0.46702">
        <ele>150.10302734375</ele>
        <time>2013-07-17T12:53:18Z</time>
      </trkpt>
      <trkpt lat="48.53005" lon="-0.46679">
        <ele>150.58361816406</ele>
        <time>2013-07-17T12:53:24Z</time>
      </trkpt>
      <trkpt lat="48.5302" lon="-0.46644">
        <ele>150.10302734375</ele>
        <time>2013-07-17T12:53:31Z</time>
      </trkpt>
      <trkpt lat="48.53031" lon="-0.46638">
        <ele>149.62231445312</ele>
        <time>2013-07-17T12:53:34Z</time>
      </trkpt>
      <trkpt lat="48.53054" lon="-0.46647">
        <ele>150.10302734375</ele>
        <time>2013-07-17T12:53:40Z</time>
      </trkpt>
      <trkpt lat="48.53083" lon="-0.46657">
        <ele>151.06420898438</ele>
        <time>2013-07-17T12:53:47Z</time>
      </trkpt>
      <trkpt lat="48.53091" lon="-0.46656">
        <ele>151.544921875</ele>
        <time>2013-07-17T12:53:49Z</time>
      </trkpt>
      <trkpt lat="48.53103" lon="-0.46651">
        <ele>151.544921875</ele>
        <time>2013-07-17T12:53:52Z</time>
      </trkpt>
      <trkpt lat="48.53126" lon="-0.46628">
        <ele>152.02575683594</ele>
        <time>2013-07-17T12:53:59Z</time>
      </trkpt>
      <trkpt lat="48.53149" lon="-0.466">
        <ele>152.98693847656</ele>
        <time>2013-07-17T12:54:06Z</time>
      </trkpt>
      <trkpt lat="48.53172" lon="-0.46571">
        <ele>152.98693847656</ele>
        <time>2013-07-17T12:54:13Z</time>
      </trkpt>
      <trkpt lat="48.53193" lon="-0.46548">
        <ele>152.98693847656</ele>
        <time>2013-07-17T12:54:19Z</time>
      </trkpt>
      <trkpt lat="48.53213" lon="-0.46526">
        <ele>153.94836425781</ele>
        <time>2013-07-17T12:54:25Z</time>
      </trkpt>
      <trkpt lat="48.53235" lon="-0.46508">
        <ele>154.42895507812</ele>
        <time>2013-07-17T12:54:31Z</time>
      </trkpt>
      <trkpt lat="48.5325" lon="-0.46494">
        <ele>154.90954589844</ele>
        <time>2013-07-17T12:54:35Z</time>
      </trkpt>
      <trkpt lat="48.53279" lon="-0.46463">
        <ele>154.90954589844</ele>
        <time>2013-07-17T12:54:43Z</time>
      </trkpt>
      <trkpt lat="48.53296" lon="-0.46448">
        <ele>154.90954589844</ele>
        <time>2013-07-17T12:54:48Z</time>
      </trkpt>
      <trkpt lat="48.53317" lon="-0.4643">
        <ele>154.90954589844</ele>
        <time>2013-07-17T12:54:53Z</time>
      </trkpt>
      <trkpt lat="48.5334" lon="-0.46411">
        <ele>154.42895507812</ele>
        <time>2013-07-17T12:54:59Z</time>
      </trkpt>
      <trkpt lat="48.53374" lon="-0.46384">
        <ele>154.42895507812</ele>
        <time>2013-07-17T12:55:08Z</time>
      </trkpt>
      <trkpt lat="48.53394" lon="-0.46368">
        <ele>154.90954589844</ele>
        <time>2013-07-17T12:55:14Z</time>
      </trkpt>
      <trkpt lat="48.53411" lon="-0.46355">
        <ele>154.90954589844</ele>
        <time>2013-07-17T12:55:20Z</time>
      </trkpt>
      <trkpt lat="48.53418" lon="-0.46349">
        <ele>154.90954589844</ele>
        <time>2013-07-17T12:55:22Z</time>
      </trkpt>
      <trkpt lat="48.53424" lon="-0.4633">
        <ele>154.90954589844</ele>
        <time>2013-07-17T12:55:26Z</time>
      </trkpt>
      <trkpt lat="48.53423" lon="-0.46325">
        <ele>154.90954589844</ele>
        <time>2013-07-17T12:55:27Z</time>
      </trkpt>
      <trkpt lat="48.5341" lon="-0.46275">
        <ele>155.87097167969</ele>
        <time>2013-07-17T12:55:36Z</time>
      </trkpt>
      <trkpt lat="48.53393" lon="-0.46202">
        <ele>156.3515625</ele>
        <time>2013-07-17T12:55:47Z</time>
      </trkpt>
      <trkpt lat="48.53387" lon="-0.46145">
        <ele>155.87097167969</ele>
        <time>2013-07-17T12:55:54Z</time>
      </trkpt>
      <trkpt lat="48.53384" lon="-0.46094">
        <ele>155.87097167969</ele>
        <time>2013-07-17T12:56:01Z</time>
      </trkpt>
      <trkpt lat="48.53382" lon="-0.4603">
        <ele>156.3515625</ele>
        <time>2013-07-17T12:56:09Z</time>
      </trkpt>
      <trkpt lat="48.53382" lon="-0.45979">
        <ele>155.39025878906</ele>
        <time>2013-07-17T12:56:16Z</time>
      </trkpt>
      <trkpt lat="48.53384" lon="-0.45946">
        <ele>155.87097167969</ele>
        <time>2013-07-17T12:56:21Z</time>
      </trkpt>
      <trkpt lat="48.53398" lon="-0.45931">
        <ele>156.83215332031</ele>
        <time>2013-07-17T12:56:26Z</time>
      </trkpt>
      <trkpt lat="48.53408" lon="-0.45926">
        <ele>157.79357910156</ele>
        <time>2013-07-17T12:56:29Z</time>
      </trkpt>
      <trkpt lat="48.53432" lon="-0.45916">
        <ele>159.23547363281</ele>
        <time>2013-07-17T12:56:36Z</time>
      </trkpt>
      <trkpt lat="48.53448" lon="-0.45909">
        <ele>161.158203125</ele>
        <time>2013-07-17T12:56:42Z</time>
      </trkpt>
      <trkpt lat="48.53468" lon="-0.45902">
        <ele>163.5615234375</ele>
        <time>2013-07-17T12:56:49Z</time>
      </trkpt>
      <trkpt lat="48.53477" lon="-0.45899">
        <ele>163.5615234375</ele>
        <time>2013-07-17T12:56:52Z</time>
      </trkpt>
      <trkpt lat="48.53495" lon="-0.45907">
        <ele>165.48413085938</ele>
        <time>2013-07-17T12:56:58Z</time>
      </trkpt>
      <trkpt lat="48.53502" lon="-0.45927">
        <ele>166.4453125</ele>
        <time>2013-07-17T12:57:03Z</time>
      </trkpt>
      <trkpt lat="48.53515" lon="-0.45955">
        <ele>167.88732910156</ele>
        <time>2013-07-17T12:57:10Z</time>
      </trkpt>
      <trkpt lat="48.53535" lon="-0.4597">
        <ele>168.84875488281</ele>
        <time>2013-07-17T12:57:17Z</time>
      </trkpt>
      <trkpt lat="48.53553" lon="-0.45981">
        <ele>169.32946777344</ele>
        <time>2013-07-17T12:57:23Z</time>
      </trkpt>
      <trkpt lat="48.53574" lon="-0.45992">
        <ele>171.73266601562</ele>
        <time>2013-07-17T12:57:30Z</time>
      </trkpt>
      <trkpt lat="48.53592" lon="-0.46006">
        <ele>172.69396972656</ele>
        <time>2013-07-17T12:57:36Z</time>
      </trkpt>
      <trkpt lat="48.53606" lon="-0.46016">
        <ele>173.6552734375</ele>
        <time>2013-07-17T12:57:41Z</time>
      </trkpt>
      <trkpt lat="48.53628" lon="-0.46024">
        <ele>174.61657714844</ele>
        <time>2013-07-17T12:57:48Z</time>
      </trkpt>
      <trkpt lat="48.53646" lon="-0.46026">
        <ele>175.57788085938</ele>
        <time>2013-07-17T12:57:54Z</time>
      </trkpt>
      <trkpt lat="48.53669" lon="-0.4603">
        <ele>177.02001953125</ele>
        <time>2013-07-17T12:58:01Z</time>
      </trkpt>
      <trkpt lat="48.53687" lon="-0.46034">
        <ele>177.98120117188</ele>
        <time>2013-07-17T12:58:07Z</time>
      </trkpt>
      <trkpt lat="48.53707" lon="-0.4604">
        <ele>178.4619140625</ele>
        <time>2013-07-17T12:58:15Z</time>
      </trkpt>
      <trkpt lat="48.53724" lon="-0.46046">
        <ele>179.90380859375</ele>
        <time>2013-07-17T12:58:22Z</time>
      </trkpt>
      <trkpt lat="48.53745" lon="-0.46051">
        <ele>180.865234375</ele>
        <time>2013-07-17T12:58:30Z</time>
      </trkpt>
      <trkpt lat="48.53762" lon="-0.46049">
        <ele>181.82641601562</ele>
        <time>2013-07-17T12:58:36Z</time>
      </trkpt>
      <trkpt lat="48.53786" lon="-0.46045">
        <ele>183.26843261719</ele>
        <time>2013-07-17T12:58:44Z</time>
      </trkpt>
      <trkpt lat="48.53806" lon="-0.46037">
        <ele>183.7490234375</ele>
        <time>2013-07-17T12:58:52Z</time>
      </trkpt>
      <trkpt lat="48.53825" lon="-0.46026">
        <ele>185.19116210938</ele>
        <time>2013-07-17T12:59:00Z</time>
      </trkpt>
      <trkpt lat="48.53834" lon="-0.46034">
        <ele>184.71057128906</ele>
        <time>2013-07-17T12:59:05Z</time>
      </trkpt>
      <trkpt lat="48.53837" lon="-0.4604">
        <ele>184.71057128906</ele>
        <time>2013-07-17T12:59:07Z</time>
      </trkpt>
      <trkpt lat="48.53845" lon="-0.46065">
        <ele>184.71057128906</ele>
        <time>2013-07-17T12:59:13Z</time>
      </trkpt>
      <trkpt lat="48.53855" lon="-0.46089">
        <ele>185.19116210938</ele>
        <time>2013-07-17T12:59:18Z</time>
      </trkpt>
      <trkpt lat="48.53868" lon="-0.46109">
        <ele>184.71057128906</ele>
        <time>2013-07-17T12:59:23Z</time>
      </trkpt>
      <trkpt lat="48.53893" lon="-0.46137">
        <ele>185.19116210938</ele>
        <time>2013-07-17T12:59:30Z</time>
      </trkpt>
      <trkpt lat="48.53916" lon="-0.46159">
        <ele>185.19116210938</ele>
        <time>2013-07-17T12:59:36Z</time>
      </trkpt>
      <trkpt lat="48.53931" lon="-0.46176">
        <ele>186.15246582031</ele>
        <time>2013-07-17T12:59:41Z</time>
      </trkpt>
      <trkpt lat="48.53956" lon="-0.46205">
        <ele>186.15246582031</ele>
        <time>2013-07-17T12:59:49Z</time>
      </trkpt>
      <trkpt lat="48.5398" lon="-0.46241">
        <ele>186.15246582031</ele>
        <time>2013-07-17T12:59:57Z</time>
      </trkpt>
      <trkpt lat="48.53995" lon="-0.46265">
        <ele>186.15246582031</ele>
        <time>2013-07-17T13:00:02Z</time>
      </trkpt>
      <trkpt lat="48.54" lon="-0.46274">
        <ele>185.67175292969</ele>
        <time>2013-07-17T13:00:04Z</time>
      </trkpt>
      <trkpt lat="48.54018" lon="-0.4632">
        <ele>185.67175292969</ele>
        <time>2013-07-17T13:00:12Z</time>
      </trkpt>
      <trkpt lat="48.54032" lon="-0.46357">
        <ele>186.15246582031</ele>
        <time>2013-07-17T13:00:18Z</time>
      </trkpt>
      <trkpt lat="48.54046" lon="-0.46393">
        <ele>187.11376953125</ele>
        <time>2013-07-17T13:00:24Z</time>
      </trkpt>
      <trkpt lat="48.54057" lon="-0.46419">
        <ele>187.59436035156</ele>
        <time>2013-07-17T13:00:29Z</time>
      </trkpt>
      <trkpt lat="48.54069" lon="-0.46446">
        <ele>188.07507324219</ele>
        <time>2013-07-17T13:00:35Z</time>
      </trkpt>
      <trkpt lat="48.54079" lon="-0.46467">
        <ele>188.55578613281</ele>
        <time>2013-07-17T13:00:41Z</time>
      </trkpt>
      <trkpt lat="48.54097" lon="-0.46511">
        <ele>188.55578613281</ele>
        <time>2013-07-17T13:00:50Z</time>
      </trkpt>
      <trkpt lat="48.54121" lon="-0.46555">
        <ele>188.55578613281</ele>
        <time>2013-07-17T13:00:58Z</time>
      </trkpt>
      <trkpt lat="48.54135" lon="-0.4658">
        <ele>189.03637695312</ele>
        <time>2013-07-17T13:01:03Z</time>
      </trkpt>
      <trkpt lat="48.5415" lon="-0.46612">
        <ele>189.99768066406</ele>
        <time>2013-07-17T13:01:10Z</time>
      </trkpt>
      <trkpt lat="48.54155" lon="-0.46618">
        <ele>189.51696777344</ele>
        <time>2013-07-17T13:01:13Z</time>
      </trkpt>
      <trkpt lat="48.54168" lon="-0.46609">
        <ele>190.958984375</ele>
        <time>2013-07-17T13:01:18Z</time>
      </trkpt>
      <trkpt lat="48.54188" lon="-0.46588">
        <ele>191.92028808594</ele>
        <time>2013-07-17T13:01:25Z</time>
      </trkpt>
      <trkpt lat="48.54205" lon="-0.46568">
        <ele>192.40112304688</ele>
        <time>2013-07-17T13:01:31Z</time>
      </trkpt>
      <trkpt lat="48.54219" lon="-0.46565">
        <ele>192.88171386719</ele>
        <time>2013-07-17T13:01:35Z</time>
      </trkpt>
      <trkpt lat="48.54227" lon="-0.46587">
        <ele>192.88171386719</ele>
        <time>2013-07-17T13:01:40Z</time>
      </trkpt>
      <trkpt lat="48.54235" lon="-0.46622">
        <ele>192.40112304688</ele>
        <time>2013-07-17T13:01:46Z</time>
      </trkpt>
      <trkpt lat="48.54239" lon="-0.46633">
        <ele>192.40112304688</ele>
        <time>2013-07-17T13:01:48Z</time>
      </trkpt>
      <trkpt lat="48.54261" lon="-0.46682">
        <ele>191.43957519531</ele>
        <time>2013-07-17T13:01:56Z</time>
      </trkpt>
      <trkpt lat="48.54288" lon="-0.46742">
        <ele>190.958984375</ele>
        <time>2013-07-17T13:02:04Z</time>
      </trkpt>
      <trkpt lat="48.54307" lon="-0.46788">
        <ele>190.958984375</ele>
        <time>2013-07-17T13:02:10Z</time>
      </trkpt>
      <trkpt lat="48.54314" lon="-0.46819">
        <ele>190.958984375</ele>
        <time>2013-07-17T13:02:14Z</time>
      </trkpt>
      <trkpt lat="48.54321" lon="-0.46854">
        <ele>189.99768066406</ele>
        <time>2013-07-17T13:02:18Z</time>
      </trkpt>
      <trkpt lat="48.54325" lon="-0.46882">
        <ele>190.47839355469</ele>
        <time>2013-07-17T13:02:21Z</time>
      </trkpt>
      <trkpt lat="48.54336" lon="-0.46946">
        <ele>189.51696777344</ele>
        <time>2013-07-17T13:02:28Z</time>
      </trkpt>
      <trkpt lat="48.54351" lon="-0.47023">
        <ele>188.07507324219</ele>
        <time>2013-07-17T13:02:37Z</time>
      </trkpt>
      <trkpt lat="48.54354" lon="-0.4704">
        <ele>188.07507324219</ele>
        <time>2013-07-17T13:02:39Z</time>
      </trkpt>
      <trkpt lat="48.54364" lon="-0.47087">
        <ele>188.07507324219</ele>
        <time>2013-07-17T13:02:46Z</time>
      </trkpt>
      <trkpt lat="48.54365" lon="-0.47093">
        <ele>188.07507324219</ele>
        <time>2013-07-17T13:02:50Z</time>
      </trkpt>
      <trkpt lat="48.54365" lon="-0.47093">
        <ele>188.07507324219</ele>
        <time>2013-07-17T13:02:54Z</time>
      </trkpt>
      <trkpt lat="48.54366" lon="-0.47107">
        <ele>188.07507324219</ele>
        <time>2013-07-17T13:02:58Z</time>
      </trkpt>
      <trkpt lat="48.54371" lon="-0.47134">
        <ele>188.07507324219</ele>
        <time>2013-07-17T13:03:03Z</time>
      </trkpt>
      <trkpt lat="48.5438" lon="-0.47181">
        <ele>188.07507324219</ele>
        <time>2013-07-17T13:03:10Z</time>
      </trkpt>
      <trkpt lat="48.54381" lon="-0.47188">
        <ele>187.59436035156</ele>
        <time>2013-07-17T13:03:11Z</time>
      </trkpt>
      <trkpt lat="48.54383" lon="-0.47202">
        <ele>188.07507324219</ele>
        <time>2013-07-17T13:03:13Z</time>
      </trkpt>
      <trkpt lat="48.54396" lon="-0.47261">
        <ele>189.03637695312</ele>
        <time>2013-07-17T13:03:21Z</time>
      </trkpt>
      <trkpt lat="48.54406" lon="-0.47311">
        <ele>190.47839355469</ele>
        <time>2013-07-17T13:03:28Z</time>
      </trkpt>
      <trkpt lat="48.54408" lon="-0.47344">
        <ele>190.958984375</ele>
        <time>2013-07-17T13:03:33Z</time>
      </trkpt>
      <trkpt lat="48.54408" lon="-0.47353">
        <ele>190.958984375</ele>
        <time>2013-07-17T13:03:35Z</time>
      </trkpt>
      <trkpt lat="48.54418" lon="-0.4736">
        <ele>191.43957519531</ele>
        <time>2013-07-17T13:03:39Z</time>
      </trkpt>
      <trkpt lat="48.54442" lon="-0.4736">
        <ele>193.3623046875</ele>
        <time>2013-07-17T13:03:46Z</time>
      </trkpt>
      <trkpt lat="48.54462" lon="-0.47357">
        <ele>193.3623046875</ele>
        <time>2013-07-17T13:03:51Z</time>
      </trkpt>
      <trkpt lat="48.54487" lon="-0.47345">
        <ele>192.88171386719</ele>
        <time>2013-07-17T13:03:58Z</time>
      </trkpt>
      <trkpt lat="48.54504" lon="-0.47336">
        <ele>192.88171386719</ele>
        <time>2013-07-17T13:04:03Z</time>
      </trkpt>
      <trkpt lat="48.54515" lon="-0.47321">
        <ele>192.40112304688</ele>
        <time>2013-07-17T13:04:08Z</time>
      </trkpt>
      <trkpt lat="48.54526" lon="-0.47308">
        <ele>191.92028808594</ele>
        <time>2013-07-17T13:04:12Z</time>
      </trkpt>
      <trkpt lat="48.54536" lon="-0.47295">
        <ele>190.958984375</ele>
        <time>2013-07-17T13:04:15Z</time>
      </trkpt>
      <trkpt lat="48.54567" lon="-0.47262">
        <ele>189.03637695312</ele>
        <time>2013-07-17T13:04:22Z</time>
      </trkpt>
      <trkpt lat="48.5458" lon="-0.47244">
        <ele>189.03637695312</ele>
        <time>2013-07-17T13:04:26Z</time>
      </trkpt>
      <trkpt lat="48.54573" lon="-0.47222">
        <ele>188.07507324219</ele>
        <time>2013-07-17T13:04:30Z</time>
      </trkpt>
      <trkpt lat="48.54556" lon="-0.47203">
        <ele>186.63317871094</ele>
        <time>2013-07-17T13:04:34Z</time>
      </trkpt>
      <trkpt lat="48.54527" lon="-0.47155">
        <ele>185.67175292969</ele>
        <time>2013-07-17T13:04:41Z</time>
      </trkpt>
      <trkpt lat="48.54501" lon="-0.4711">
        <ele>184.22985839844</ele>
        <time>2013-07-17T13:04:47Z</time>
      </trkpt>
      <trkpt lat="48.54479" lon="-0.4707">
        <ele>184.22985839844</ele>
        <time>2013-07-17T13:04:53Z</time>
      </trkpt>
      <trkpt lat="48.54474" lon="-0.47062">
        <ele>185.19116210938</ele>
        <time>2013-07-17T13:04:56Z</time>
      </trkpt>
      <trkpt lat="48.54469" lon="-0.4705">
        <ele>185.19116210938</ele>
        <time>2013-07-17T13:05:01Z</time>
      </trkpt>
      <trkpt lat="48.54464" lon="-0.47037">
        <ele>185.19116210938</ele>
        <time>2013-07-17T13:05:04Z</time>
      </trkpt>
      <trkpt lat="48.54465" lon="-0.47014">
        <ele>185.67175292969</ele>
        <time>2013-07-17T13:05:08Z</time>
      </trkpt>
      <trkpt lat="48.54492" lon="-0.46976">
        <ele>184.71057128906</ele>
        <time>2013-07-17T13:05:15Z</time>
      </trkpt>
      <trkpt lat="48.54502" lon="-0.46958">
        <ele>184.22985839844</ele>
        <time>2013-07-17T13:05:18Z</time>
      </trkpt>
      <trkpt lat="48.54514" lon="-0.46931">
        <ele>183.26843261719</ele>
        <time>2013-07-17T13:05:22Z</time>
      </trkpt>
      <trkpt lat="48.54526" lon="-0.46893">
        <ele>183.7490234375</ele>
        <time>2013-07-17T13:05:27Z</time>
      </trkpt>
      <trkpt lat="48.54534" lon="-0.46871">
        <ele>184.71057128906</ele>
        <time>2013-07-17T13:05:30Z</time>
      </trkpt>
      <trkpt lat="48.54538" lon="-0.46854">
        <ele>184.71057128906</ele>
        <time>2013-07-17T13:05:32Z</time>
      </trkpt>
      <trkpt lat="48.54533" lon="-0.46825">
        <ele>184.71057128906</ele>
        <time>2013-07-17T13:05:36Z</time>
      </trkpt>
      <trkpt lat="48.54532" lon="-0.46797">
        <ele>185.67175292969</ele>
        <time>2013-07-17T13:05:40Z</time>
      </trkpt>
      <trkpt lat="48.54532" lon="-0.46777">
        <ele>185.19116210938</ele>
        <time>2013-07-17T13:05:43Z</time>
      </trkpt>
      <trkpt lat="48.5453" lon="-0.46736">
        <ele>184.71057128906</ele>
        <time>2013-07-17T13:05:48Z</time>
      </trkpt>
      <trkpt lat="48.54521" lon="-0.46682">
        <ele>185.19116210938</ele>
        <time>2013-07-17T13:05:53Z</time>
      </trkpt>
      <trkpt lat="48.54509" lon="-0.46616">
        <ele>185.67175292969</ele>
        <time>2013-07-17T13:06:00Z</time>
      </trkpt>
      <trkpt lat="48.54509" lon="-0.46609">
        <ele>185.19116210938</ele>
        <time>2013-07-17T13:06:01Z</time>
      </trkpt>
      <trkpt lat="48.54513" lon="-0.46585">
        <ele>184.71057128906</ele>
        <time>2013-07-17T13:06:05Z</time>
      </trkpt>
      <trkpt lat="48.54519" lon="-0.46548">
        <ele>184.22985839844</ele>
        <time>2013-07-17T13:06:10Z</time>
      </trkpt>
      <trkpt lat="48.54527" lon="-0.46507">
        <ele>182.30712890625</ele>
        <time>2013-07-17T13:06:15Z</time>
      </trkpt>
      <trkpt lat="48.54536" lon="-0.46484">
        <ele>181.82641601562</ele>
        <time>2013-07-17T13:06:17Z</time>
      </trkpt>
      <trkpt lat="48.54556" lon="-0.46451">
        <ele>179.42321777344</ele>
        <time>2013-07-17T13:06:21Z</time>
      </trkpt>
      <trkpt lat="48.54562" lon="-0.46424">
        <ele>178.4619140625</ele>
        <time>2013-07-17T13:06:24Z</time>
      </trkpt>
      <trkpt lat="48.54564" lon="-0.46413">
        <ele>178.4619140625</ele>
        <time>2013-07-17T13:06:25Z</time>
      </trkpt>
      <trkpt lat="48.54564" lon="-0.46352">
        <ele>177.02001953125</ele>
        <time>2013-07-17T13:06:31Z</time>
      </trkpt>
      <trkpt lat="48.54555" lon="-0.46308">
        <ele>177.02001953125</ele>
        <time>2013-07-17T13:06:36Z</time>
      </trkpt>
      <trkpt lat="48.5455" lon="-0.4627">
        <ele>177.02001953125</ele>
        <time>2013-07-17T13:06:41Z</time>
      </trkpt>
      <trkpt lat="48.54547" lon="-0.46245">
        <ele>177.50061035156</ele>
        <time>2013-07-17T13:06:46Z</time>
      </trkpt>
      <trkpt lat="48.54556" lon="-0.46236">
        <ele>177.02001953125</ele>
        <time>2013-07-17T13:06:50Z</time>
      </trkpt>
      <trkpt lat="48.5456" lon="-0.46238">
        <ele>176.53930664062</ele>
        <time>2013-07-17T13:06:51Z</time>
      </trkpt>
      <trkpt lat="48.5457" lon="-0.46248">
        <ele>176.53930664062</ele>
        <time>2013-07-17T13:06:54Z</time>
      </trkpt>
      <trkpt lat="48.54586" lon="-0.46262">
        <ele>175.57788085938</ele>
        <time>2013-07-17T13:06:58Z</time>
      </trkpt>
      <trkpt lat="48.54594" lon="-0.46269">
        <ele>175.57788085938</ele>
        <time>2013-07-17T13:07:00Z</time>
      </trkpt>
      <trkpt lat="48.54615" lon="-0.46288">
        <ele>175.09729003906</ele>
        <time>2013-07-17T13:07:05Z</time>
      </trkpt>
      <trkpt lat="48.5462" lon="-0.4629">
        <ele>174.13586425781</ele>
        <time>2013-07-17T13:07:06Z</time>
      </trkpt>
      <trkpt lat="48.54642" lon="-0.46305">
        <ele>170.77136230469</ele>
        <time>2013-07-17T13:07:10Z</time>
      </trkpt>
      <trkpt lat="48.54656" lon="-0.46316">
        <ele>169.32946777344</ele>
        <time>2013-07-17T13:07:12Z</time>
      </trkpt>
      <trkpt lat="48.54671" lon="-0.46323">
        <ele>168.36804199219</ele>
        <time>2013-07-17T13:07:14Z</time>
      </trkpt>
      <trkpt lat="48.54696" lon="-0.46333">
        <ele>167.88732910156</ele>
        <time>2013-07-17T13:07:17Z</time>
      </trkpt>
      <trkpt lat="48.54721" lon="-0.46354">
        <ele>168.84875488281</ele>
        <time>2013-07-17T13:07:21Z</time>
      </trkpt>
      <trkpt lat="48.5474" lon="-0.46375">
        <ele>170.29064941406</ele>
        <time>2013-07-17T13:07:26Z</time>
      </trkpt>
      <trkpt lat="48.54756" lon="-0.46387">
        <ele>171.25207519531</ele>
        <time>2013-07-17T13:07:31Z</time>
      </trkpt>
      <trkpt lat="48.54774" lon="-0.46409">
        <ele>171.73266601562</ele>
        <time>2013-07-17T13:07:37Z</time>
      </trkpt>
      <trkpt lat="48.54802" lon="-0.46437">
        <ele>171.73266601562</ele>
        <time>2013-07-17T13:07:45Z</time>
      </trkpt>
      <trkpt lat="48.54826" lon="-0.46455">
        <ele>173.17468261719</ele>
        <time>2013-07-17T13:07:52Z</time>
      </trkpt>
      <trkpt lat="48.54853" lon="-0.46473">
        <ele>174.61657714844</ele>
        <time>2013-07-17T13:08:00Z</time>
      </trkpt>
      <trkpt lat="48.54879" lon="-0.46492">
        <ele>174.13586425781</ele>
        <time>2013-07-17T13:08:08Z</time>
      </trkpt>
      <trkpt lat="48.54882" lon="-0.46493">
        <ele>174.13586425781</ele>
        <time>2013-07-17T13:08:09Z</time>
      </trkpt>
      <trkpt lat="48.54903" lon="-0.46476">
        <ele>173.6552734375</ele>
        <time>2013-07-17T13:08:16Z</time>
      </trkpt>
      <trkpt lat="48.54919" lon="-0.46461">
        <ele>174.13586425781</ele>
        <time>2013-07-17T13:08:21Z</time>
      </trkpt>
      <trkpt lat="48.54932" lon="-0.4645">
        <ele>174.61657714844</ele>
        <time>2013-07-17T13:08:25Z</time>
      </trkpt>
      <trkpt lat="48.54946" lon="-0.46434">
        <ele>175.09729003906</ele>
        <time>2013-07-17T13:08:30Z</time>
      </trkpt>
      <trkpt lat="48.54959" lon="-0.46424">
        <ele>175.57788085938</ele>
        <time>2013-07-17T13:08:35Z</time>
      </trkpt>
      <trkpt lat="48.54972" lon="-0.46413">
        <ele>176.53930664062</ele>
        <time>2013-07-17T13:08:41Z</time>
      </trkpt>
      <trkpt lat="48.54987" lon="-0.46405">
        <ele>176.53930664062</ele>
        <time>2013-07-17T13:08:47Z</time>
      </trkpt>
      <trkpt lat="48.55003" lon="-0.46395">
        <ele>176.53930664062</ele>
        <time>2013-07-17T13:08:52Z</time>
      </trkpt>
      <trkpt lat="48.55021" lon="-0.46384">
        <ele>176.53930664062</ele>
        <time>2013-07-17T13:08:58Z</time>
      </trkpt>
      <trkpt lat="48.55037" lon="-0.46372">
        <ele>176.05859375</ele>
        <time>2013-07-17T13:09:03Z</time>
      </trkpt>
      <trkpt lat="48.55051" lon="-0.46375">
        <ele>176.05859375</ele>
        <time>2013-07-17T13:09:08Z</time>
      </trkpt>
      <trkpt lat="48.55062" lon="-0.46387">
        <ele>176.05859375</ele>
        <time>2013-07-17T13:09:12Z</time>
      </trkpt>
      <trkpt lat="48.55069" lon="-0.46391">
        <ele>176.05859375</ele>
        <time>2013-07-17T13:09:14Z</time>
      </trkpt>
      <trkpt lat="48.55086" lon="-0.46404">
        <ele>175.57788085938</ele>
        <time>2013-07-17T13:09:19Z</time>
      </trkpt>
      <trkpt lat="48.55109" lon="-0.46427">
        <ele>176.05859375</ele>
        <time>2013-07-17T13:09:26Z</time>
      </trkpt>
      <trkpt lat="48.55128" lon="-0.46444">
        <ele>176.53930664062</ele>
        <time>2013-07-17T13:09:32Z</time>
      </trkpt>
      <trkpt lat="48.55152" lon="-0.4646">
        <ele>177.50061035156</ele>
        <time>2013-07-17T13:09:39Z</time>
      </trkpt>
      <trkpt lat="48.55172" lon="-0.46476">
        <ele>177.98120117188</ele>
        <time>2013-07-17T13:09:45Z</time>
      </trkpt>
      <trkpt lat="48.55181" lon="-0.46486">
        <ele>179.42321777344</ele>
        <time>2013-07-17T13:09:50Z</time>
      </trkpt>
      <trkpt lat="48.5519" lon="-0.46481">
        <ele>179.90380859375</ele>
        <time>2013-07-17T13:09:55Z</time>
      </trkpt>
      <trkpt lat="48.55193" lon="-0.46478">
        <ele>179.90380859375</ele>
        <time>2013-07-17T13:09:56Z</time>
      </trkpt>
      <trkpt lat="48.55217" lon="-0.46453">
        <ele>180.38452148438</ele>
        <time>2013-07-17T13:10:05Z</time>
      </trkpt>
      <trkpt lat="48.55239" lon="-0.46428">
        <ele>180.38452148438</ele>
        <time>2013-07-17T13:10:13Z</time>
      </trkpt>
      <trkpt lat="48.55254" lon="-0.4641">
        <ele>180.38452148438</ele>
        <time>2013-07-17T13:10:18Z</time>
      </trkpt>
      <trkpt lat="48.55276" lon="-0.46385">
        <ele>180.38452148438</ele>
        <time>2013-07-17T13:10:26Z</time>
      </trkpt>
      <trkpt lat="48.55289" lon="-0.4638">
        <ele>180.865234375</ele>
        <time>2013-07-17T13:10:32Z</time>
      </trkpt>
      <trkpt lat="48.55304" lon="-0.4639">
        <ele>181.82641601562</ele>
        <time>2013-07-17T13:10:37Z</time>
      </trkpt>
      <trkpt lat="48.55317" lon="-0.46413">
        <ele>183.26843261719</ele>
        <time>2013-07-17T13:10:44Z</time>
      </trkpt>
      <trkpt lat="48.55322" lon="-0.46422">
        <ele>183.7490234375</ele>
        <time>2013-07-17T13:10:50Z</time>
      </trkpt>
      <trkpt lat="48.55313" lon="-0.46415">
        <ele>183.26843261719</ele>
        <time>2013-07-17T13:11:01Z</time>
      </trkpt>
      <trkpt lat="48.5531" lon="-0.46411">
        <ele>183.26843261719</ele>
        <time>2013-07-17T13:11:03Z</time>
      </trkpt>
      <trkpt lat="48.55315" lon="-0.46417">
        <ele>183.26843261719</ele>
        <time>2013-07-17T13:11:36Z</time>
      </trkpt>
      <trkpt lat="48.55316" lon="-0.46419">
        <ele>183.26843261719</ele>
        <time>2013-07-17T13:11:37Z</time>
      </trkpt>
      <trkpt lat="48.55327" lon="-0.46429">
        <ele>183.26843261719</ele>
        <time>2013-07-17T13:11:42Z</time>
      </trkpt>
      <trkpt lat="48.55343" lon="-0.46445">
        <ele>182.78784179688</ele>
        <time>2013-07-17T13:11:47Z</time>
      </trkpt>
      <trkpt lat="48.55361" lon="-0.46464">
        <ele>182.30712890625</ele>
        <time>2013-07-17T13:11:52Z</time>
      </trkpt>
      <trkpt lat="48.55401" lon="-0.4651">
        <ele>181.34582519531</ele>
        <time>2013-07-17T13:12:03Z</time>
      </trkpt>
      <trkpt lat="48.55432" lon="-0.46541">
        <ele>180.865234375</ele>
        <time>2013-07-17T13:12:10Z</time>
      </trkpt>
      <trkpt lat="48.55468" lon="-0.46557">
        <ele>181.34582519531</ele>
        <time>2013-07-17T13:12:17Z</time>
      </trkpt>
      <trkpt lat="48.55508" lon="-0.46561">
        <ele>180.38452148438</ele>
        <time>2013-07-17T13:12:25Z</time>
      </trkpt>
      <trkpt lat="48.55538" lon="-0.46564">
        <ele>180.38452148438</ele>
        <time>2013-07-17T13:12:32Z</time>
      </trkpt>
      <trkpt lat="48.55571" lon="-0.46568">
        <ele>179.42321777344</ele>
        <time>2013-07-17T13:12:39Z</time>
      </trkpt>
      <trkpt lat="48.55592" lon="-0.46571">
        <ele>179.90380859375</ele>
        <time>2013-07-17T13:12:43Z</time>
      </trkpt>
      <trkpt lat="48.55631" lon="-0.46576">
        <ele>179.42321777344</ele>
        <time>2013-07-17T13:12:51Z</time>
      </trkpt>
      <trkpt lat="48.55674" lon="-0.46582">
        <ele>179.42321777344</ele>
        <time>2013-07-17T13:13:00Z</time>
      </trkpt>
      <trkpt lat="48.55678" lon="-0.46583">
        <ele>179.90380859375</ele>
        <time>2013-07-17T13:13:01Z</time>
      </trkpt>
      <trkpt lat="48.55697" lon="-0.4659">
        <ele>179.42321777344</ele>
        <time>2013-07-17T13:13:05Z</time>
      </trkpt>
      <trkpt lat="48.55714" lon="-0.46605">
        <ele>179.90380859375</ele>
        <time>2013-07-17T13:13:09Z</time>
      </trkpt>
      <trkpt lat="48.55754" lon="-0.46645">
        <ele>179.42321777344</ele>
        <time>2013-07-17T13:13:19Z</time>
      </trkpt>
      <trkpt lat="48.55758" lon="-0.46649">
        <ele>179.42321777344</ele>
        <time>2013-07-17T13:13:20Z</time>
      </trkpt>
      <trkpt lat="48.5578" lon="-0.46654">
        <ele>178.94262695312</ele>
        <time>2013-07-17T13:13:25Z</time>
      </trkpt>
      <trkpt lat="48.55787" lon="-0.46647">
        <ele>179.42321777344</ele>
        <time>2013-07-17T13:13:27Z</time>
      </trkpt>
      <trkpt lat="48.55815" lon="-0.46608">
        <ele>179.42321777344</ele>
        <time>2013-07-17T13:13:35Z</time>
      </trkpt>
      <trkpt lat="48.5584" lon="-0.46565">
        <ele>181.34582519531</ele>
        <time>2013-07-17T13:13:44Z</time>
      </trkpt>
      <trkpt lat="48.55856" lon="-0.46537">
        <ele>182.30712890625</ele>
        <time>2013-07-17T13:13:50Z</time>
      </trkpt>
      <trkpt lat="48.55877" lon="-0.465">
        <ele>183.7490234375</ele>
        <time>2013-07-17T13:13:58Z</time>
      </trkpt>
      <trkpt lat="48.55902" lon="-0.46463">
        <ele>184.22985839844</ele>
        <time>2013-07-17T13:14:06Z</time>
      </trkpt>
      <trkpt lat="48.55907" lon="-0.46454">
        <ele>184.22985839844</ele>
        <time>2013-07-17T13:14:08Z</time>
      </trkpt>
      <trkpt lat="48.55932" lon="-0.4643">
        <ele>186.63317871094</ele>
        <time>2013-07-17T13:14:16Z</time>
      </trkpt>
      <trkpt lat="48.55948" lon="-0.46425">
        <ele>189.03637695312</ele>
        <time>2013-07-17T13:14:23Z</time>
      </trkpt>
      <trkpt lat="48.55961" lon="-0.46411">
        <ele>190.47839355469</ele>
        <time>2013-07-17T13:14:30Z</time>
      </trkpt>
      <trkpt lat="48.5596" lon="-0.46395">
        <ele>191.92028808594</ele>
        <time>2013-07-17T13:14:35Z</time>
      </trkpt>
      <trkpt lat="48.55963" lon="-0.46374">
        <ele>192.40112304688</ele>
        <time>2013-07-17T13:14:41Z</time>
      </trkpt>
      <trkpt lat="48.55976" lon="-0.46357">
        <ele>194.32373046875</ele>
        <time>2013-07-17T13:14:48Z</time>
      </trkpt>
      <trkpt lat="48.55989" lon="-0.46341">
        <ele>196.24633789062</ele>
        <time>2013-07-17T13:14:55Z</time>
      </trkpt>
      <trkpt lat="48.56009" lon="-0.46324">
        <ele>198.64953613281</ele>
        <time>2013-07-17T13:15:05Z</time>
      </trkpt>
      <trkpt lat="48.5603" lon="-0.46312">
        <ele>201.53356933594</ele>
        <time>2013-07-17T13:15:15Z</time>
      </trkpt>
      <trkpt lat="48.56051" lon="-0.463">
        <ele>203.93688964844</ele>
        <time>2013-07-17T13:15:25Z</time>
      </trkpt>
      <trkpt lat="48.56064" lon="-0.46287">
        <ele>205.37878417969</ele>
        <time>2013-07-17T13:15:33Z</time>
      </trkpt>
      <trkpt lat="48.56065" lon="-0.46285">
        <ele>205.85949707031</ele>
        <time>2013-07-17T13:15:34Z</time>
      </trkpt>
      <trkpt lat="48.56059" lon="-0.4626">
        <ele>205.85949707031</ele>
        <time>2013-07-17T13:15:42Z</time>
      </trkpt>
      <trkpt lat="48.5605" lon="-0.46222">
        <ele>205.85949707031</ele>
        <time>2013-07-17T13:15:50Z</time>
      </trkpt>
      <trkpt lat="48.56043" lon="-0.46182">
        <ele>206.34008789062</ele>
        <time>2013-07-17T13:15:57Z</time>
      </trkpt>
      <trkpt lat="48.56033" lon="-0.4613">
        <ele>206.34008789062</ele>
        <time>2013-07-17T13:16:05Z</time>
      </trkpt>
      <trkpt lat="48.56027" lon="-0.46082">
        <ele>206.82067871094</ele>
        <time>2013-07-17T13:16:13Z</time>
      </trkpt>
      <trkpt lat="48.56022" lon="-0.46034">
        <ele>206.82067871094</ele>
        <time>2013-07-17T13:16:21Z</time>
      </trkpt>
      <trkpt lat="48.56017" lon="-0.45986">
        <ele>207.30139160156</ele>
        <time>2013-07-17T13:16:29Z</time>
      </trkpt>
      <trkpt lat="48.56014" lon="-0.45957">
        <ele>207.30139160156</ele>
        <time>2013-07-17T13:16:35Z</time>
      </trkpt>
      <trkpt lat="48.56009" lon="-0.45914">
        <ele>207.78210449219</ele>
        <time>2013-07-17T13:16:43Z</time>
      </trkpt>
      <trkpt lat="48.56004" lon="-0.45877">
        <ele>207.78210449219</ele>
        <time>2013-07-17T13:16:49Z</time>
      </trkpt>
      <trkpt lat="48.55998" lon="-0.45827">
        <ele>207.78210449219</ele>
        <time>2013-07-17T13:16:57Z</time>
      </trkpt>
      <trkpt lat="48.55991" lon="-0.45777">
        <ele>208.26281738281</ele>
        <time>2013-07-17T13:17:05Z</time>
      </trkpt>
      <trkpt lat="48.55988" lon="-0.45747">
        <ele>208.74340820312</ele>
        <time>2013-07-17T13:17:11Z</time>
      </trkpt>
      <trkpt lat="48.5598" lon="-0.45726">
        <ele>208.74340820312</ele>
        <time>2013-07-17T13:17:17Z</time>
      </trkpt>
      <trkpt lat="48.55975" lon="-0.45707">
        <ele>208.74340820312</ele>
        <time>2013-07-17T13:17:21Z</time>
      </trkpt>
      <trkpt lat="48.55975" lon="-0.45684">
        <ele>209.70483398438</ele>
        <time>2013-07-17T13:17:25Z</time>
      </trkpt>
      <trkpt lat="48.55964" lon="-0.45674">
        <ele>208.74340820312</ele>
        <time>2013-07-17T13:17:29Z</time>
      </trkpt>
      <trkpt lat="48.5596" lon="-0.45677">
        <ele>208.26281738281</ele>
        <time>2013-07-17T13:17:30Z</time>
      </trkpt>
      <trkpt lat="48.55949" lon="-0.45682">
        <ele>207.30139160156</ele>
        <time>2013-07-17T13:17:32Z</time>
      </trkpt>
      <trkpt lat="48.55939" lon="-0.45682">
        <ele>206.34008789062</ele>
        <time>2013-07-17T13:17:34Z</time>
      </trkpt>
      <trkpt lat="48.5593" lon="-0.45666">
        <ele>206.34008789062</ele>
        <time>2013-07-17T13:17:37Z</time>
      </trkpt>
      <trkpt lat="48.55928" lon="-0.45648">
        <ele>207.30139160156</ele>
        <time>2013-07-17T13:17:40Z</time>
      </trkpt>
      <trkpt lat="48.55926" lon="-0.45637">
        <ele>207.30139160156</ele>
        <time>2013-07-17T13:17:42Z</time>
      </trkpt>
      <trkpt lat="48.55919" lon="-0.45611">
        <ele>207.78210449219</ele>
        <time>2013-07-17T13:17:46Z</time>
      </trkpt>
      <trkpt lat="48.55909" lon="-0.45574">
        <ele>208.74340820312</ele>
        <time>2013-07-17T13:17:52Z</time>
      </trkpt>
      <trkpt lat="48.55894" lon="-0.45544">
        <ele>208.26281738281</ele>
        <time>2013-07-17T13:17:58Z</time>
      </trkpt>
      <trkpt lat="48.55886" lon="-0.45527">
        <ele>207.78210449219</ele>
        <time>2013-07-17T13:18:01Z</time>
      </trkpt>
      <trkpt lat="48.55877" lon="-0.45485">
        <ele>208.74340820312</ele>
        <time>2013-07-17T13:18:07Z</time>
      </trkpt>
      <trkpt lat="48.55872" lon="-0.45451">
        <ele>209.22412109375</ele>
        <time>2013-07-17T13:18:12Z</time>
      </trkpt>
      <trkpt lat="48.55866" lon="-0.45409">
        <ele>210.18542480469</ele>
        <time>2013-07-17T13:18:18Z</time>
      </trkpt>
      <trkpt lat="48.55862" lon="-0.45385">
        <ele>210.666015625</ele>
        <time>2013-07-17T13:18:21Z</time>
      </trkpt>
      <trkpt lat="48.55857" lon="-0.45337">
        <ele>211.14672851562</ele>
        <time>2013-07-17T13:18:28Z</time>
      </trkpt>
      <trkpt lat="48.55848" lon="-0.45295">
        <ele>211.14672851562</ele>
        <time>2013-07-17T13:18:34Z</time>
      </trkpt>
      <trkpt lat="48.55841" lon="-0.45272">
        <ele>210.666015625</ele>
        <time>2013-07-17T13:18:38Z</time>
      </trkpt>
      <trkpt lat="48.55828" lon="-0.4523">
        <ele>210.18542480469</ele>
        <time>2013-07-17T13:18:44Z</time>
      </trkpt>
      <trkpt lat="48.55823" lon="-0.45209">
        <ele>210.18542480469</ele>
        <time>2013-07-17T13:18:47Z</time>
      </trkpt>
      <trkpt lat="48.55816" lon="-0.45176">
        <ele>209.70483398438</ele>
        <time>2013-07-17T13:18:52Z</time>
      </trkpt>
      <trkpt lat="48.55813" lon="-0.45138">
        <ele>210.18542480469</ele>
        <time>2013-07-17T13:18:58Z</time>
      </trkpt>
      <trkpt lat="48.55814" lon="-0.45131">
        <ele>209.70483398438</ele>
        <time>2013-07-17T13:18:59Z</time>
      </trkpt>
      <trkpt lat="48.55828" lon="-0.45089">
        <ele>210.666015625</ele>
        <time>2013-07-17T13:19:06Z</time>
      </trkpt>
      <trkpt lat="48.55837" lon="-0.45061">
        <ele>210.666015625</ele>
        <time>2013-07-17T13:19:10Z</time>
      </trkpt>
      <trkpt lat="48.55841" lon="-0.45047">
        <ele>210.666015625</ele>
        <time>2013-07-17T13:19:12Z</time>
      </trkpt>
      <trkpt lat="48.55855" lon="-0.45005">
        <ele>212.10803222656</ele>
        <time>2013-07-17T13:19:18Z</time>
      </trkpt>
      <trkpt lat="48.55861" lon="-0.44972">
        <ele>213.55004882812</ele>
        <time>2013-07-17T13:19:24Z</time>
      </trkpt>
      <trkpt lat="48.55864" lon="-0.44946">
        <ele>212.10803222656</ele>
        <time>2013-07-17T13:19:29Z</time>
      </trkpt>
      <trkpt lat="48.55867" lon="-0.44917">
        <ele>211.62744140625</ele>
        <time>2013-07-17T13:19:34Z</time>
      </trkpt>
      <trkpt lat="48.55864" lon="-0.44891">
        <ele>210.666015625</ele>
        <time>2013-07-17T13:19:38Z</time>
      </trkpt>
      <trkpt lat="48.55854" lon="-0.44854">
        <ele>210.666015625</ele>
        <time>2013-07-17T13:19:44Z</time>
      </trkpt>
      <trkpt lat="48.55844" lon="-0.44832">
        <ele>210.666015625</ele>
        <time>2013-07-17T13:19:49Z</time>
      </trkpt>
      <trkpt lat="48.55836" lon="-0.44813">
        <ele>210.18542480469</ele>
        <time>2013-07-17T13:19:53Z</time>
      </trkpt>
      <trkpt lat="48.55836" lon="-0.4479">
        <ele>211.62744140625</ele>
        <time>2013-07-17T13:19:57Z</time>
      </trkpt>
      <trkpt lat="48.55843" lon="-0.4477">
        <ele>212.58862304688</ele>
        <time>2013-07-17T13:20:01Z</time>
      </trkpt>
      <trkpt lat="48.55849" lon="-0.44752">
        <ele>213.0693359375</ele>
        <time>2013-07-17T13:20:05Z</time>
      </trkpt>
      <trkpt lat="48.55849" lon="-0.4473">
        <ele>214.03063964844</ele>
        <time>2013-07-17T13:20:09Z</time>
      </trkpt>
      <trkpt lat="48.55844" lon="-0.44705">
        <ele>214.03063964844</ele>
        <time>2013-07-17T13:20:13Z</time>
      </trkpt>
      <trkpt lat="48.55842" lon="-0.44697">
        <ele>214.03063964844</ele>
        <time>2013-07-17T13:20:14Z</time>
      </trkpt>
      <trkpt lat="48.5584" lon="-0.44674">
        <ele>214.99194335938</ele>
        <time>2013-07-17T13:20:18Z</time>
      </trkpt>
      <trkpt lat="48.55837" lon="-0.44649">
        <ele>214.99194335938</ele>
        <time>2013-07-17T13:20:24Z</time>
      </trkpt>
      <trkpt lat="48.55836" lon="-0.44634">
        <ele>214.99194335938</ele>
        <time>2013-07-17T13:20:28Z</time>
      </trkpt>
      <trkpt lat="48.55835" lon="-0.44613">
        <ele>214.99194335938</ele>
        <time>2013-07-17T13:20:32Z</time>
      </trkpt>
      <trkpt lat="48.55838" lon="-0.44589">
        <ele>215.47265625</ele>
        <time>2013-07-17T13:20:36Z</time>
      </trkpt>
      <trkpt lat="48.55842" lon="-0.44559">
        <ele>215.95324707031</ele>
        <time>2013-07-17T13:20:41Z</time>
      </trkpt>
      <trkpt lat="48.55843" lon="-0.44533">
        <ele>216.43395996094</ele>
        <time>2013-07-17T13:20:45Z</time>
      </trkpt>
      <trkpt lat="48.55848" lon="-0.44504">
        <ele>216.91467285156</ele>
        <time>2013-07-17T13:20:50Z</time>
      </trkpt>
      <trkpt lat="48.5585" lon="-0.44477">
        <ele>217.39538574219</ele>
        <time>2013-07-17T13:20:55Z</time>
      </trkpt>
      <trkpt lat="48.55848" lon="-0.44454">
        <ele>217.39538574219</ele>
        <time>2013-07-17T13:21:01Z</time>
      </trkpt>
      <trkpt lat="48.55849" lon="-0.44438">
        <ele>217.39538574219</ele>
        <time>2013-07-17T13:21:05Z</time>
      </trkpt>
      <trkpt lat="48.55848" lon="-0.44428">
        <ele>217.8759765625</ele>
        <time>2013-07-17T13:21:07Z</time>
      </trkpt>
      <trkpt lat="48.55847" lon="-0.44398">
        <ele>217.39538574219</ele>
        <time>2013-07-17T13:21:14Z</time>
      </trkpt>
      <trkpt lat="48.55847" lon="-0.44373">
        <ele>216.91467285156</ele>
        <time>2013-07-17T13:21:20Z</time>
      </trkpt>
      <trkpt lat="48.55846" lon="-0.44366">
        <ele>217.39538574219</ele>
        <time>2013-07-17T13:21:22Z</time>
      </trkpt>
      <trkpt lat="48.55847" lon="-0.4435">
        <ele>217.39538574219</ele>
        <time>2013-07-17T13:21:27Z</time>
      </trkpt>
      <trkpt lat="48.55845" lon="-0.44332">
        <ele>217.39538574219</ele>
        <time>2013-07-17T13:21:31Z</time>
      </trkpt>
      <trkpt lat="48.55843" lon="-0.4432">
        <ele>217.39538574219</ele>
        <time>2013-07-17T13:21:34Z</time>
      </trkpt>
      <trkpt lat="48.55842" lon="-0.44311">
        <ele>217.8759765625</ele>
        <time>2013-07-17T13:21:37Z</time>
      </trkpt>
      <trkpt lat="48.5584" lon="-0.44296">
        <ele>217.8759765625</ele>
        <time>2013-07-17T13:21:43Z</time>
      </trkpt>
      <trkpt lat="48.55838" lon="-0.44283">
        <ele>217.39538574219</ele>
        <time>2013-07-17T13:23:24Z</time>
      </trkpt>
      <trkpt lat="48.5584" lon="-0.44274">
        <ele>217.8759765625</ele>
        <time>2013-07-17T13:23:27Z</time>
      </trkpt>
      <trkpt lat="48.55843" lon="-0.44252">
        <ele>217.8759765625</ele>
        <time>2013-07-17T13:23:33Z</time>
      </trkpt>
      <trkpt lat="48.55841" lon="-0.44219">
        <ele>218.83728027344</ele>
        <time>2013-07-17T13:23:38Z</time>
      </trkpt>
      <trkpt lat="48.55843" lon="-0.44188">
        <ele>219.79858398438</ele>
        <time>2013-07-17T13:23:43Z</time>
      </trkpt>
      <trkpt lat="48.5584" lon="-0.44159">
        <ele>219.31799316406</ele>
        <time>2013-07-17T13:23:48Z</time>
      </trkpt>
      <trkpt lat="48.55834" lon="-0.44126">
        <ele>219.79858398438</ele>
        <time>2013-07-17T13:23:54Z</time>
      </trkpt>
      <trkpt lat="48.55826" lon="-0.44102">
        <ele>220.27917480469</ele>
        <time>2013-07-17T13:23:59Z</time>
      </trkpt>
      <trkpt lat="48.55825" lon="-0.44087">
        <ele>220.75988769531</ele>
        <time>2013-07-17T13:24:04Z</time>
      </trkpt>
      <trkpt lat="48.55826" lon="-0.44089">
        <ele>221.24060058594</ele>
        <time>2013-07-17T13:24:05Z</time>
      </trkpt>
      <trkpt lat="48.55829" lon="-0.44091">
        <ele>221.24060058594</ele>
        <time>2013-07-17T13:24:08Z</time>
      </trkpt>
      <trkpt lat="48.55842" lon="-0.44103">
        <ele>221.72119140625</ele>
        <time>2013-07-17T13:24:11Z</time>
      </trkpt>
      <trkpt lat="48.55857" lon="-0.44115">
        <ele>224.60522460938</ele>
        <time>2013-07-17T13:24:18Z</time>
      </trkpt>
      <trkpt lat="48.55866" lon="-0.44121">
        <ele>225.56652832031</ele>
        <time>2013-07-17T13:24:22Z</time>
      </trkpt>
      <trkpt lat="48.55879" lon="-0.44129">
        <ele>227.48913574219</ele>
        <time>2013-07-17T13:24:28Z</time>
      </trkpt>
      <trkpt lat="48.55891" lon="-0.44141">
        <ele>228.93115234375</ele>
        <time>2013-07-17T13:24:34Z</time>
      </trkpt>
      <trkpt lat="48.55906" lon="-0.4415">
        <ele>230.85375976562</ele>
        <time>2013-07-17T13:24:41Z</time>
      </trkpt>
      <trkpt lat="48.55916" lon="-0.44151">
        <ele>232.29577636719</ele>
        <time>2013-07-17T13:24:45Z</time>
      </trkpt>
      <trkpt lat="48.55925" lon="-0.44153">
        <ele>233.25708007812</ele>
        <time>2013-07-17T13:24:50Z</time>
      </trkpt>
      <trkpt lat="48.55933" lon="-0.44167">
        <ele>233.73767089844</ele>
        <time>2013-07-17T13:24:57Z</time>
      </trkpt>
      <trkpt lat="48.55941" lon="-0.44194">
        <ele>234.21838378906</ele>
        <time>2013-07-17T13:25:05Z</time>
      </trkpt>
      <trkpt lat="48.55947" lon="-0.44228">
        <ele>233.73767089844</ele>
        <time>2013-07-17T13:25:13Z</time>
      </trkpt>
      <trkpt lat="48.55954" lon="-0.44257">
        <ele>234.21838378906</ele>
        <time>2013-07-17T13:25:20Z</time>
      </trkpt>
      <trkpt lat="48.55962" lon="-0.4429">
        <ele>234.69909667969</ele>
        <time>2013-07-17T13:25:27Z</time>
      </trkpt>
      <trkpt lat="48.55965" lon="-0.44317">
        <ele>235.1796875</ele>
        <time>2013-07-17T13:25:32Z</time>
      </trkpt>
      <trkpt lat="48.55965" lon="-0.44353">
        <ele>235.66027832031</ele>
        <time>2013-07-17T13:25:38Z</time>
      </trkpt>
      <trkpt lat="48.5597" lon="-0.44374">
        <ele>235.66027832031</ele>
        <time>2013-07-17T13:25:42Z</time>
      </trkpt>
      <trkpt lat="48.55976" lon="-0.44399">
        <ele>236.14099121094</ele>
        <time>2013-07-17T13:25:47Z</time>
      </trkpt>
      <trkpt lat="48.55993" lon="-0.44423">
        <ele>236.14099121094</ele>
        <time>2013-07-17T13:25:53Z</time>
      </trkpt>
      <trkpt lat="48.56016" lon="-0.44428">
        <ele>236.62170410156</ele>
        <time>2013-07-17T13:25:59Z</time>
      </trkpt>
      <trkpt lat="48.56046" lon="-0.44431">
        <ele>236.62170410156</ele>
        <time>2013-07-17T13:26:06Z</time>
      </trkpt>
      <trkpt lat="48.56063" lon="-0.44433">
        <ele>236.62170410156</ele>
        <time>2013-07-17T13:26:11Z</time>
      </trkpt>
      <trkpt lat="48.56079" lon="-0.44439">
        <ele>236.62170410156</ele>
        <time>2013-07-17T13:26:16Z</time>
      </trkpt>
      <trkpt lat="48.56104" lon="-0.44442">
        <ele>237.10229492188</ele>
        <time>2013-07-17T13:26:23Z</time>
      </trkpt>
      <trkpt lat="48.56129" lon="-0.44445">
        <ele>237.10229492188</ele>
        <time>2013-07-17T13:26:30Z</time>
      </trkpt>
      <trkpt lat="48.56146" lon="-0.44446">
        <ele>237.10229492188</ele>
        <time>2013-07-17T13:26:37Z</time>
      </trkpt>
      <trkpt lat="48.56161" lon="-0.44448">
        <ele>237.10229492188</ele>
        <time>2013-07-17T13:26:43Z</time>
      </trkpt>
      <trkpt lat="48.56174" lon="-0.44447">
        <ele>237.10229492188</ele>
        <time>2013-07-17T13:26:49Z</time>
      </trkpt>
      <trkpt lat="48.56175" lon="-0.44447">
        <ele>237.10229492188</ele>
        <time>2013-07-17T13:26:51Z</time>
      </trkpt>
      <trkpt lat="48.56178" lon="-0.44446">
        <ele>237.10229492188</ele>
        <time>2013-07-17T13:26:58Z</time>
      </trkpt>
      <trkpt lat="48.56183" lon="-0.44456">
        <ele>237.10229492188</ele>
        <time>2013-07-17T13:27:02Z</time>
      </trkpt>
      <trkpt lat="48.56189" lon="-0.44463">
        <ele>237.58288574219</ele>
        <time>2013-07-17T13:27:05Z</time>
      </trkpt>
      <trkpt lat="48.56198" lon="-0.44468">
        <ele>236.62170410156</ele>
        <time>2013-07-17T13:27:09Z</time>
      </trkpt>
      <trkpt lat="48.56209" lon="-0.44484">
        <ele>237.10229492188</ele>
        <time>2013-07-17T13:27:16Z</time>
      </trkpt>
      <trkpt lat="48.56214" lon="-0.44488">
        <ele>236.62170410156</ele>
        <time>2013-07-17T13:27:21Z</time>
      </trkpt>
      <trkpt lat="48.56214" lon="-0.44488">
        <ele>236.62170410156</ele>
        <time>2013-07-17T13:27:22Z</time>
      </trkpt>
      <trkpt lat="48.56219" lon="-0.44493">
        <ele>236.62170410156</ele>
        <time>2013-07-17T13:27:57Z</time>
      </trkpt>
      <trkpt lat="48.56222" lon="-0.44475">
        <ele>236.14099121094</ele>
        <time>2013-07-17T13:28:03Z</time>
      </trkpt>
      <trkpt lat="48.56226" lon="-0.44469">
        <ele>235.66027832031</ele>
        <time>2013-07-17T13:28:06Z</time>
      </trkpt>
      <trkpt lat="48.56234" lon="-0.44455">
        <ele>236.14099121094</ele>
        <time>2013-07-17T13:28:12Z</time>
      </trkpt>
      <trkpt lat="48.56244" lon="-0.44438">
        <ele>235.1796875</ele>
        <time>2013-07-17T13:28:18Z</time>
      </trkpt>
      <trkpt lat="48.56254" lon="-0.44421">
        <ele>234.21838378906</ele>
        <time>2013-07-17T13:28:22Z</time>
      </trkpt>
      <trkpt lat="48.5627" lon="-0.44399">
        <ele>232.29577636719</ele>
        <time>2013-07-17T13:28:26Z</time>
      </trkpt>
      <trkpt lat="48.56281" lon="-0.44384">
        <ele>231.81494140625</ele>
        <time>2013-07-17T13:28:29Z</time>
      </trkpt>
      <trkpt lat="48.56296" lon="-0.44367">
        <ele>229.89233398438</ele>
        <time>2013-07-17T13:28:33Z</time>
      </trkpt>
      <trkpt lat="48.56311" lon="-0.4435">
        <ele>226.52783203125</ele>
        <time>2013-07-17T13:28:37Z</time>
      </trkpt>
      <trkpt lat="48.56325" lon="-0.44332">
        <ele>221.72119140625</ele>
        <time>2013-07-17T13:28:40Z</time>
      </trkpt>
      <trkpt lat="48.5633" lon="-0.44324">
        <ele>218.83728027344</ele>
        <time>2013-07-17T13:28:41Z</time>
      </trkpt>
      <trkpt lat="48.5634" lon="-0.44303">
        <ele>215.47265625</ele>
        <time>2013-07-17T13:28:43Z</time>
      </trkpt>
      <trkpt lat="48.56347" lon="-0.44291">
        <ele>214.51123046875</ele>
        <time>2013-07-17T13:28:44Z</time>
      </trkpt>
      <trkpt lat="48.56382" lon="-0.44243">
        <ele>209.70483398438</ele>
        <time>2013-07-17T13:28:48Z</time>
      </trkpt>
      <trkpt lat="48.5642" lon="-0.44192">
        <ele>205.85949707031</ele>
        <time>2013-07-17T13:28:52Z</time>
      </trkpt>
      <trkpt lat="48.56461" lon="-0.44134">
        <ele>201.53356933594</ele>
        <time>2013-07-17T13:28:56Z</time>
      </trkpt>
      <trkpt lat="48.56496" lon="-0.44086">
        <ele>198.1689453125</ele>
        <time>2013-07-17T13:29:00Z</time>
      </trkpt>
      <trkpt lat="48.56531" lon="-0.44035">
        <ele>195.765625</ele>
        <time>2013-07-17T13:29:05Z</time>
      </trkpt>
      <trkpt lat="48.56551" lon="-0.44007">
        <ele>194.80432128906</ele>
        <time>2013-07-17T13:29:08Z</time>
      </trkpt>
      <trkpt lat="48.56573" lon="-0.43971">
        <ele>194.32373046875</ele>
        <time>2013-07-17T13:29:12Z</time>
      </trkpt>
      <trkpt lat="48.56596" lon="-0.4394">
        <ele>196.24633789062</ele>
        <time>2013-07-17T13:29:17Z</time>
      </trkpt>
      <trkpt lat="48.56608" lon="-0.43923">
        <ele>196.72692871094</ele>
        <time>2013-07-17T13:29:22Z</time>
      </trkpt>
      <trkpt lat="48.56618" lon="-0.43908">
        <ele>197.68823242188</ele>
        <time>2013-07-17T13:29:27Z</time>
      </trkpt>
      <trkpt lat="48.5663" lon="-0.4389">
        <ele>199.61083984375</ele>
        <time>2013-07-17T13:29:33Z</time>
      </trkpt>
      <trkpt lat="48.56643" lon="-0.43871">
        <ele>200.572265625</ele>
        <time>2013-07-17T13:29:40Z</time>
      </trkpt>
      <trkpt lat="48.56641" lon="-0.43858">
        <ele>200.572265625</ele>
        <time>2013-07-17T13:29:44Z</time>
      </trkpt>
      <trkpt lat="48.56631" lon="-0.43835">
        <ele>200.09167480469</ele>
        <time>2013-07-17T13:29:49Z</time>
      </trkpt>
      <trkpt lat="48.56618" lon="-0.43802">
        <ele>199.13012695312</ele>
        <time>2013-07-17T13:29:55Z</time>
      </trkpt>
      <trkpt lat="48.56616" lon="-0.43796">
        <ele>199.13012695312</ele>
        <time>2013-07-17T13:29:56Z</time>
      </trkpt>
      <trkpt lat="48.566" lon="-0.43759">
        <ele>198.1689453125</ele>
        <time>2013-07-17T13:30:02Z</time>
      </trkpt>
      <trkpt lat="48.56586" lon="-0.43724">
        <ele>196.72692871094</ele>
        <time>2013-07-17T13:30:07Z</time>
      </trkpt>
      <trkpt lat="48.56566" lon="-0.43678">
        <ele>194.80432128906</ele>
        <time>2013-07-17T13:30:12Z</time>
      </trkpt>
      <trkpt lat="48.56551" lon="-0.43641">
        <ele>194.32373046875</ele>
        <time>2013-07-17T13:30:16Z</time>
      </trkpt>
      <trkpt lat="48.56528" lon="-0.43586">
        <ele>193.84301757812</ele>
        <time>2013-07-17T13:30:22Z</time>
      </trkpt>
      <trkpt lat="48.56506" lon="-0.43534">
        <ele>193.84301757812</ele>
        <time>2013-07-17T13:30:28Z</time>
      </trkpt>
      <trkpt lat="48.56485" lon="-0.43485">
        <ele>192.88171386719</ele>
        <time>2013-07-17T13:30:34Z</time>
      </trkpt>
      <trkpt lat="48.56466" lon="-0.43439">
        <ele>192.40112304688</ele>
        <time>2013-07-17T13:30:40Z</time>
      </trkpt>
      <trkpt lat="48.56459" lon="-0.43424">
        <ele>192.40112304688</ele>
        <time>2013-07-17T13:30:42Z</time>
      </trkpt>
      <trkpt lat="48.56462" lon="-0.434">
        <ele>191.92028808594</ele>
        <time>2013-07-17T13:30:46Z</time>
      </trkpt>
      <trkpt lat="48.56478" lon="-0.43401">
        <ele>192.88171386719</ele>
        <time>2013-07-17T13:30:50Z</time>
      </trkpt>
      <trkpt lat="48.56512" lon="-0.43396">
        <ele>193.84301757812</ele>
        <time>2013-07-17T13:30:58Z</time>
      </trkpt>
      <trkpt lat="48.56516" lon="-0.43396">
        <ele>194.32373046875</ele>
        <time>2013-07-17T13:30:59Z</time>
      </trkpt>
      <trkpt lat="48.56555" lon="-0.4339">
        <ele>195.765625</ele>
        <time>2013-07-17T13:31:08Z</time>
      </trkpt>
      <trkpt lat="48.56569" lon="-0.43386">
        <ele>196.24633789062</ele>
        <time>2013-07-17T13:31:11Z</time>
      </trkpt>
      <trkpt lat="48.56602" lon="-0.43381">
        <ele>198.64953613281</ele>
        <time>2013-07-17T13:31:18Z</time>
      </trkpt>
      <trkpt lat="48.5663" lon="-0.43377">
        <ele>198.64953613281</ele>
        <time>2013-07-17T13:31:24Z</time>
      </trkpt>
      <trkpt lat="48.56644" lon="-0.43374">
        <ele>199.13012695312</ele>
        <time>2013-07-17T13:31:27Z</time>
      </trkpt>
      <trkpt lat="48.56674" lon="-0.43368">
        <ele>200.09167480469</ele>
        <time>2013-07-17T13:31:33Z</time>
      </trkpt>
      <trkpt lat="48.56712" lon="-0.43361">
        <ele>201.53356933594</ele>
        <time>2013-07-17T13:31:41Z</time>
      </trkpt>
      <trkpt lat="48.56744" lon="-0.43354">
        <ele>202.97546386719</ele>
        <time>2013-07-17T13:31:48Z</time>
      </trkpt>
      <trkpt lat="48.56783" lon="-0.43346">
        <ele>204.41748046875</ele>
        <time>2013-07-17T13:31:56Z</time>
      </trkpt>
      <trkpt lat="48.56816" lon="-0.43339">
        <ele>205.37878417969</ele>
        <time>2013-07-17T13:32:03Z</time>
      </trkpt>
      <trkpt lat="48.56831" lon="-0.43336">
        <ele>205.37878417969</ele>
        <time>2013-07-17T13:32:06Z</time>
      </trkpt>
      <trkpt lat="48.56861" lon="-0.43331">
        <ele>206.82067871094</ele>
        <time>2013-07-17T13:32:13Z</time>
      </trkpt>
      <trkpt lat="48.5687" lon="-0.43329">
        <ele>206.82067871094</ele>
        <time>2013-07-17T13:32:15Z</time>
      </trkpt>
      <trkpt lat="48.56887" lon="-0.43326">
        <ele>207.30139160156</ele>
        <time>2013-07-17T13:32:19Z</time>
      </trkpt>
      <trkpt lat="48.56917" lon="-0.43321">
        <ele>208.26281738281</ele>
        <time>2013-07-17T13:32:27Z</time>
      </trkpt>
      <trkpt lat="48.56957" lon="-0.43309">
        <ele>209.70483398438</ele>
        <time>2013-07-17T13:32:37Z</time>
      </trkpt>
      <trkpt lat="48.56986" lon="-0.43294">
        <ele>209.70483398438</ele>
        <time>2013-07-17T13:32:44Z</time>
      </trkpt>
      <trkpt lat="48.5702" lon="-0.43271">
        <ele>210.666015625</ele>
        <time>2013-07-17T13:32:53Z</time>
      </trkpt>
      <trkpt lat="48.57043" lon="-0.43253">
        <ele>211.14672851562</ele>
        <time>2013-07-17T13:33:00Z</time>
      </trkpt>
      <trkpt lat="48.57062" lon="-0.43234">
        <ele>211.14672851562</ele>
        <time>2013-07-17T13:33:07Z</time>
      </trkpt>
      <trkpt lat="48.57084" lon="-0.43206">
        <ele>210.666015625</ele>
        <time>2013-07-17T13:33:14Z</time>
      </trkpt>
      <trkpt lat="48.57115" lon="-0.43158">
        <ele>209.70483398438</ele>
        <time>2013-07-17T13:33:23Z</time>
      </trkpt>
      <trkpt lat="48.57129" lon="-0.43136">
        <ele>209.70483398438</ele>
        <time>2013-07-17T13:33:27Z</time>
      </trkpt>
      <trkpt lat="48.57154" lon="-0.43099">
        <ele>209.70483398438</ele>
        <time>2013-07-17T13:33:34Z</time>
      </trkpt>
      <trkpt lat="48.57177" lon="-0.4306">
        <ele>209.70483398438</ele>
        <time>2013-07-17T13:33:41Z</time>
      </trkpt>
      <trkpt lat="48.57209" lon="-0.43006">
        <ele>211.14672851562</ele>
        <time>2013-07-17T13:33:51Z</time>
      </trkpt>
      <trkpt lat="48.5722" lon="-0.42987">
        <ele>212.58862304688</ele>
        <time>2013-07-17T13:33:55Z</time>
      </trkpt>
      <trkpt lat="48.57241" lon="-0.42959">
        <ele>212.58862304688</ele>
        <time>2013-07-17T13:34:02Z</time>
      </trkpt>
      <trkpt lat="48.57267" lon="-0.42922">
        <ele>214.99194335938</ele>
        <time>2013-07-17T13:34:11Z</time>
      </trkpt>
      <trkpt lat="48.57277" lon="-0.42909">
        <ele>215.47265625</ele>
        <time>2013-07-17T13:34:16Z</time>
      </trkpt>
      <trkpt lat="48.5729" lon="-0.42893">
        <ele>215.47265625</ele>
        <time>2013-07-17T13:34:22Z</time>
      </trkpt>
      <trkpt lat="48.573" lon="-0.42895">
        <ele>215.47265625</ele>
        <time>2013-07-17T13:34:26Z</time>
      </trkpt>
      <trkpt lat="48.57303" lon="-0.42898">
        <ele>215.47265625</ele>
        <time>2013-07-17T13:34:27Z</time>
      </trkpt>
      <trkpt lat="48.5733" lon="-0.42937">
        <ele>215.95324707031</ele>
        <time>2013-07-17T13:34:37Z</time>
      </trkpt>
      <trkpt lat="48.57354" lon="-0.42972">
        <ele>215.95324707031</ele>
        <time>2013-07-17T13:34:45Z</time>
      </trkpt>
      <trkpt lat="48.5739" lon="-0.43025">
        <ele>216.91467285156</ele>
        <time>2013-07-17T13:34:56Z</time>
      </trkpt>
      <trkpt lat="48.57421" lon="-0.43072">
        <ele>216.43395996094</ele>
        <time>2013-07-17T13:35:05Z</time>
      </trkpt>
      <trkpt lat="48.57454" lon="-0.43122">
        <ele>216.91467285156</ele>
        <time>2013-07-17T13:35:14Z</time>
      </trkpt>
      <trkpt lat="48.57483" lon="-0.4317">
        <ele>217.39538574219</ele>
        <time>2013-07-17T13:35:23Z</time>
      </trkpt>
      <trkpt lat="48.57499" lon="-0.43194">
        <ele>217.39538574219</ele>
        <time>2013-07-17T13:35:28Z</time>
      </trkpt>
      <trkpt lat="48.57516" lon="-0.43217">
        <ele>217.39538574219</ele>
        <time>2013-07-17T13:35:34Z</time>
      </trkpt>
      <trkpt lat="48.57526" lon="-0.43236">
        <ele>217.8759765625</ele>
        <time>2013-07-17T13:35:39Z</time>
      </trkpt>
      <trkpt lat="48.57539" lon="-0.43254">
        <ele>218.35656738281</ele>
        <time>2013-07-17T13:35:43Z</time>
      </trkpt>
      <trkpt lat="48.57556" lon="-0.43273">
        <ele>218.35656738281</ele>
        <time>2013-07-17T13:35:47Z</time>
      </trkpt>
      <trkpt lat="48.57573" lon="-0.433">
        <ele>217.8759765625</ele>
        <time>2013-07-17T13:35:52Z</time>
      </trkpt>
      <trkpt lat="48.57576" lon="-0.43306">
        <ele>217.8759765625</ele>
        <time>2013-07-17T13:35:53Z</time>
      </trkpt>
      <trkpt lat="48.57592" lon="-0.43328">
        <ele>217.8759765625</ele>
        <time>2013-07-17T13:35:57Z</time>
      </trkpt>
      <trkpt lat="48.57604" lon="-0.43346">
        <ele>217.8759765625</ele>
        <time>2013-07-17T13:36:00Z</time>
      </trkpt>
      <trkpt lat="48.57611" lon="-0.43359">
        <ele>217.39538574219</ele>
        <time>2013-07-17T13:36:02Z</time>
      </trkpt>
      <trkpt lat="48.5762" lon="-0.43371">
        <ele>217.8759765625</ele>
        <time>2013-07-17T13:36:04Z</time>
      </trkpt>
      <trkpt lat="48.57644" lon="-0.43412">
        <ele>217.39538574219</ele>
        <time>2013-07-17T13:36:11Z</time>
      </trkpt>
      <trkpt lat="48.57666" lon="-0.43447">
        <ele>217.8759765625</ele>
        <time>2013-07-17T13:36:18Z</time>
      </trkpt>
      <trkpt lat="48.57674" lon="-0.43459">
        <ele>217.39538574219</ele>
        <time>2013-07-17T13:36:20Z</time>
      </trkpt>
      <trkpt lat="48.57696" lon="-0.43494">
        <ele>217.8759765625</ele>
        <time>2013-07-17T13:36:26Z</time>
      </trkpt>
      <trkpt lat="48.57731" lon="-0.4355">
        <ele>217.8759765625</ele>
        <time>2013-07-17T13:36:35Z</time>
      </trkpt>
      <trkpt lat="48.57762" lon="-0.43602">
        <ele>217.8759765625</ele>
        <time>2013-07-17T13:36:43Z</time>
      </trkpt>
      <trkpt lat="48.57785" lon="-0.43635">
        <ele>217.8759765625</ele>
        <time>2013-07-17T13:36:49Z</time>
      </trkpt>
      <trkpt lat="48.57796" lon="-0.43651">
        <ele>217.8759765625</ele>
        <time>2013-07-17T13:36:52Z</time>
      </trkpt>
      <trkpt lat="48.57804" lon="-0.43662">
        <ele>217.8759765625</ele>
        <time>2013-07-17T13:36:54Z</time>
      </trkpt>
      <trkpt lat="48.57835" lon="-0.43713">
        <ele>217.39538574219</ele>
        <time>2013-07-17T13:37:02Z</time>
      </trkpt>
      <trkpt lat="48.57861" lon="-0.43753">
        <ele>216.91467285156</ele>
        <time>2013-07-17T13:37:08Z</time>
      </trkpt>
      <trkpt lat="48.57865" lon="-0.4376">
        <ele>217.39538574219</ele>
        <time>2013-07-17T13:37:09Z</time>
      </trkpt>
      <trkpt lat="48.57884" lon="-0.43791">
        <ele>216.91467285156</ele>
        <time>2013-07-17T13:37:14Z</time>
      </trkpt>
      <trkpt lat="48.579" lon="-0.43815">
        <ele>216.91467285156</ele>
        <time>2013-07-17T13:37:19Z</time>
      </trkpt>
      <trkpt lat="48.57915" lon="-0.43836">
        <ele>217.39538574219</ele>
        <time>2013-07-17T13:37:25Z</time>
      </trkpt>
      <trkpt lat="48.57927" lon="-0.43858">
        <ele>217.39538574219</ele>
        <time>2013-07-17T13:37:30Z</time>
      </trkpt>
      <trkpt lat="48.57942" lon="-0.43878">
        <ele>217.39538574219</ele>
        <time>2013-07-17T13:37:35Z</time>
      </trkpt>
      <trkpt lat="48.57954" lon="-0.43894">
        <ele>217.8759765625</ele>
        <time>2013-07-17T13:37:39Z</time>
      </trkpt>
      <trkpt lat="48.57971" lon="-0.43922">
        <ele>218.83728027344</ele>
        <time>2013-07-17T13:37:45Z</time>
      </trkpt>
      <trkpt lat="48.57989" lon="-0.43951">
        <ele>218.83728027344</ele>
        <time>2013-07-17T13:37:51Z</time>
      </trkpt>
      <trkpt lat="48.57993" lon="-0.43956">
        <ele>219.79858398438</ele>
        <time>2013-07-17T13:37:52Z</time>
      </trkpt>
      <trkpt lat="48.58009" lon="-0.43982">
        <ele>220.27917480469</ele>
        <time>2013-07-17T13:37:57Z</time>
      </trkpt>
      <trkpt lat="48.58028" lon="-0.44013">
        <ele>220.75988769531</ele>
        <time>2013-07-17T13:38:03Z</time>
      </trkpt>
      <trkpt lat="48.58036" lon="-0.44023">
        <ele>221.24060058594</ele>
        <time>2013-07-17T13:38:05Z</time>
      </trkpt>
      <trkpt lat="48.5805" lon="-0.44044">
        <ele>221.72119140625</ele>
        <time>2013-07-17T13:38:09Z</time>
      </trkpt>
      <trkpt lat="48.58075" lon="-0.44084">
        <ele>222.68249511719</ele>
        <time>2013-07-17T13:38:16Z</time>
      </trkpt>
      <trkpt lat="48.58102" lon="-0.44123">
        <ele>223.16320800781</ele>
        <time>2013-07-17T13:38:23Z</time>
      </trkpt>
      <trkpt lat="48.58119" lon="-0.44147">
        <ele>223.64379882812</ele>
        <time>2013-07-17T13:38:29Z</time>
      </trkpt>
      <trkpt lat="48.5813" lon="-0.44165">
        <ele>224.12451171875</ele>
        <time>2013-07-17T13:38:35Z</time>
      </trkpt>
      <trkpt lat="48.58145" lon="-0.44187">
        <ele>224.60522460938</ele>
        <time>2013-07-17T13:38:41Z</time>
      </trkpt>
      <trkpt lat="48.5816" lon="-0.44206">
        <ele>225.56652832031</ele>
        <time>2013-07-17T13:38:47Z</time>
      </trkpt>
      <trkpt lat="48.58163" lon="-0.44211">
        <ele>225.56652832031</ele>
        <time>2013-07-17T13:38:49Z</time>
      </trkpt>
      <trkpt lat="48.58163" lon="-0.44221">
        <ele>225.56652832031</ele>
        <time>2013-07-17T13:38:55Z</time>
      </trkpt>
      <trkpt lat="48.58163" lon="-0.44222">
        <ele>225.56652832031</ele>
        <time>2013-07-17T13:38:56Z</time>
      </trkpt>
      <trkpt lat="48.58151" lon="-0.44204">
        <ele>227.48913574219</ele>
        <time>2013-07-17T13:40:55Z</time>
      </trkpt>
      <trkpt lat="48.58143" lon="-0.44214">
        <ele>228.45043945312</ele>
        <time>2013-07-17T13:41:01Z</time>
      </trkpt>
      <trkpt lat="48.58142" lon="-0.44222">
        <ele>228.45043945312</ele>
        <time>2013-07-17T13:41:05Z</time>
      </trkpt>
      <trkpt lat="48.58139" lon="-0.44225">
        <ele>228.45043945312</ele>
        <time>2013-07-17T13:41:13Z</time>
      </trkpt>
      <trkpt lat="48.58138" lon="-0.44227">
        <ele>228.93115234375</ele>
        <time>2013-07-17T13:41:15Z</time>
      </trkpt>
      <trkpt lat="48.58125" lon="-0.4424">
        <ele>228.93115234375</ele>
        <time>2013-07-17T13:41:21Z</time>
      </trkpt>
      <trkpt lat="48.58118" lon="-0.44248">
        <ele>229.89233398438</ele>
        <time>2013-07-17T13:41:25Z</time>
      </trkpt>
      <trkpt lat="48.58113" lon="-0.44255">
        <ele>229.89233398438</ele>
        <time>2013-07-17T13:41:28Z</time>
      </trkpt>
      <trkpt lat="48.58103" lon="-0.44267">
        <ele>230.85375976562</ele>
        <time>2013-07-17T13:41:34Z</time>
      </trkpt>
      <trkpt lat="48.58094" lon="-0.44284">
        <ele>230.85375976562</ele>
        <time>2013-07-17T13:41:40Z</time>
      </trkpt>
      <trkpt lat="48.58086" lon="-0.44299">
        <ele>230.373046875</ele>
        <time>2013-07-17T13:41:45Z</time>
      </trkpt>
      <trkpt lat="48.58074" lon="-0.44311">
        <ele>230.373046875</ele>
        <time>2013-07-17T13:41:49Z</time>
      </trkpt>
      <trkpt lat="48.58066" lon="-0.44324">
        <ele>229.41174316406</ele>
        <time>2013-07-17T13:41:53Z</time>
      </trkpt>
      <trkpt lat="48.58056" lon="-0.44339">
        <ele>228.45043945312</ele>
        <time>2013-07-17T13:41:58Z</time>
      </trkpt>
      <trkpt lat="48.58055" lon="-0.44342">
        <ele>228.45043945312</ele>
        <time>2013-07-17T13:41:59Z</time>
      </trkpt>
      <trkpt lat="48.58046" lon="-0.44352">
        <ele>227.00854492188</ele>
        <time>2013-07-17T13:42:03Z</time>
      </trkpt>
      <trkpt lat="48.58034" lon="-0.44375">
        <ele>225.56652832031</ele>
        <time>2013-07-17T13:42:08Z</time>
      </trkpt>
      <trkpt lat="48.58031" lon="-0.4438">
        <ele>225.0859375</ele>
        <time>2013-07-17T13:42:09Z</time>
      </trkpt>
      <trkpt lat="48.58017" lon="-0.44396">
        <ele>223.64379882812</ele>
        <time>2013-07-17T13:42:13Z</time>
      </trkpt>
      <trkpt lat="48.57993" lon="-0.44426">
        <ele>220.27917480469</ele>
        <time>2013-07-17T13:42:18Z</time>
      </trkpt>
      <trkpt lat="48.5797" lon="-0.44447">
        <ele>218.83728027344</ele>
        <time>2013-07-17T13:42:23Z</time>
      </trkpt>
      <trkpt lat="48.57961" lon="-0.44463">
        <ele>219.31799316406</ele>
        <time>2013-07-17T13:42:27Z</time>
      </trkpt>
      <trkpt lat="48.57954" lon="-0.44475">
        <ele>219.31799316406</ele>
        <time>2013-07-17T13:42:32Z</time>
      </trkpt>
      <trkpt lat="48.5794" lon="-0.44472">
        <ele>219.31799316406</ele>
        <time>2013-07-17T13:42:38Z</time>
      </trkpt>
      <trkpt lat="48.57928" lon="-0.44462">
        <ele>218.35656738281</ele>
        <time>2013-07-17T13:42:43Z</time>
      </trkpt>
      <trkpt lat="48.57923" lon="-0.44466">
        <ele>217.39538574219</ele>
        <time>2013-07-17T13:42:46Z</time>
      </trkpt>
      <trkpt lat="48.57919" lon="-0.4447">
        <ele>216.43395996094</ele>
        <time>2013-07-17T13:42:48Z</time>
      </trkpt>
      <trkpt lat="48.57909" lon="-0.44486">
        <ele>216.43395996094</ele>
        <time>2013-07-17T13:42:54Z</time>
      </trkpt>
      <trkpt lat="48.57904" lon="-0.44493">
        <ele>216.43395996094</ele>
        <time>2013-07-17T13:43:00Z</time>
      </trkpt>
      <trkpt lat="48.57901" lon="-0.44498">
        <ele>216.91467285156</ele>
        <time>2013-07-17T13:43:02Z</time>
      </trkpt>
      <trkpt lat="48.57883" lon="-0.44512">
        <ele>216.91467285156</ele>
        <time>2013-07-17T13:43:15Z</time>
      </trkpt>
      <trkpt lat="48.57875" lon="-0.44521">
        <ele>217.39538574219</ele>
        <time>2013-07-17T13:43:18Z</time>
      </trkpt>
      <trkpt lat="48.57862" lon="-0.44532">
        <ele>217.8759765625</ele>
        <time>2013-07-17T13:43:24Z</time>
      </trkpt>
      <trkpt lat="48.57856" lon="-0.44538">
        <ele>218.35656738281</ele>
        <time>2013-07-17T13:43:27Z</time>
      </trkpt>
      <trkpt lat="48.57843" lon="-0.44553">
        <ele>219.31799316406</ele>
        <time>2013-07-17T13:43:34Z</time>
      </trkpt>
      <trkpt lat="48.57834" lon="-0.44559">
        <ele>219.79858398438</ele>
        <time>2013-07-17T13:43:38Z</time>
      </trkpt>
      <trkpt lat="48.57822" lon="-0.44569">
        <ele>220.75988769531</ele>
        <time>2013-07-17T13:43:44Z</time>
      </trkpt>
      <trkpt lat="48.57809" lon="-0.44582">
        <ele>222.20178222656</ele>
        <time>2013-07-17T13:43:51Z</time>
      </trkpt>
      <trkpt lat="48.57799" lon="-0.4459">
        <ele>223.64379882812</ele>
        <time>2013-07-17T13:43:57Z</time>
      </trkpt>
      <trkpt lat="48.57785" lon="-0.44601">
        <ele>225.0859375</ele>
        <time>2013-07-17T13:44:04Z</time>
      </trkpt>
      <trkpt lat="48.5776" lon="-0.44611">
        <ele>226.04711914062</ele>
        <time>2013-07-17T13:44:10Z</time>
      </trkpt>
      <trkpt lat="48.57743" lon="-0.44623">
        <ele>227.48913574219</ele>
        <time>2013-07-17T13:44:18Z</time>
      </trkpt>
      <trkpt lat="48.57733" lon="-0.44634">
        <ele>228.45043945312</ele>
        <time>2013-07-17T13:44:24Z</time>
      </trkpt>
      <trkpt lat="48.57728" lon="-0.44646">
        <ele>228.45043945312</ele>
        <time>2013-07-17T13:44:28Z</time>
      </trkpt>
      <trkpt lat="48.57722" lon="-0.44667">
        <ele>228.93115234375</ele>
        <time>2013-07-17T13:44:35Z</time>
      </trkpt>
      <trkpt lat="48.57714" lon="-0.44685">
        <ele>228.93115234375</ele>
        <time>2013-07-17T13:44:40Z</time>
      </trkpt>
      <trkpt lat="48.57712" lon="-0.44704">
        <ele>228.45043945312</ele>
        <time>2013-07-17T13:44:44Z</time>
      </trkpt>
      <trkpt lat="48.57712" lon="-0.44723">
        <ele>227.48913574219</ele>
        <time>2013-07-17T13:44:48Z</time>
      </trkpt>
      <trkpt lat="48.5772" lon="-0.44752">
        <ele>227.48913574219</ele>
        <time>2013-07-17T13:44:54Z</time>
      </trkpt>
      <trkpt lat="48.57727" lon="-0.44784">
        <ele>226.52783203125</ele>
        <time>2013-07-17T13:45:00Z</time>
      </trkpt>
      <trkpt lat="48.57733" lon="-0.44797">
        <ele>225.56652832031</ele>
        <time>2013-07-17T13:45:02Z</time>
      </trkpt>
      <trkpt lat="48.57743" lon="-0.44835">
        <ele>225.0859375</ele>
        <time>2013-07-17T13:45:07Z</time>
      </trkpt>
      <trkpt lat="48.57761" lon="-0.44888">
        <ele>224.60522460938</ele>
        <time>2013-07-17T13:45:14Z</time>
      </trkpt>
      <trkpt lat="48.57765" lon="-0.44895">
        <ele>224.12451171875</ele>
        <time>2013-07-17T13:45:15Z</time>
      </trkpt>
      <trkpt lat="48.57776" lon="-0.44928">
        <ele>223.64379882812</ele>
        <time>2013-07-17T13:45:19Z</time>
      </trkpt>
      <trkpt lat="48.57787" lon="-0.44968">
        <ele>222.20178222656</ele>
        <time>2013-07-17T13:45:24Z</time>
      </trkpt>
      <trkpt lat="48.57804" lon="-0.44999">
        <ele>222.20178222656</ele>
        <time>2013-07-17T13:45:28Z</time>
      </trkpt>
      <trkpt lat="48.57827" lon="-0.45053">
        <ele>221.72119140625</ele>
        <time>2013-07-17T13:45:35Z</time>
      </trkpt>
      <trkpt lat="48.57846" lon="-0.45099">
        <ele>221.72119140625</ele>
        <time>2013-07-17T13:45:41Z</time>
      </trkpt>
      <trkpt lat="48.57859" lon="-0.45131">
        <ele>220.75988769531</ele>
        <time>2013-07-17T13:45:45Z</time>
      </trkpt>
      <trkpt lat="48.57878" lon="-0.45181">
        <ele>220.27917480469</ele>
        <time>2013-07-17T13:45:51Z</time>
      </trkpt>
      <trkpt lat="48.57886" lon="-0.45204">
        <ele>220.27917480469</ele>
        <time>2013-07-17T13:45:54Z</time>
      </trkpt>
      <trkpt lat="48.57892" lon="-0.45217">
        <ele>220.27917480469</ele>
        <time>2013-07-17T13:45:56Z</time>
      </trkpt>
      <trkpt lat="48.57911" lon="-0.45267">
        <ele>220.27917480469</ele>
        <time>2013-07-17T13:46:03Z</time>
      </trkpt>
      <trkpt lat="48.57924" lon="-0.45311">
        <ele>220.75988769531</ele>
        <time>2013-07-17T13:46:09Z</time>
      </trkpt>
      <trkpt lat="48.57932" lon="-0.4534">
        <ele>221.24060058594</ele>
        <time>2013-07-17T13:46:14Z</time>
      </trkpt>
      <trkpt lat="48.57943" lon="-0.45363">
        <ele>222.20178222656</ele>
        <time>2013-07-17T13:46:20Z</time>
      </trkpt>
      <trkpt lat="48.57952" lon="-0.45389">
        <ele>223.64379882812</ele>
        <time>2013-07-17T13:46:26Z</time>
      </trkpt>
      <trkpt lat="48.57962" lon="-0.45415">
        <ele>224.12451171875</ele>
        <time>2013-07-17T13:46:32Z</time>
      </trkpt>
      <trkpt lat="48.57971" lon="-0.45439">
        <ele>224.60522460938</ele>
        <time>2013-07-17T13:46:37Z</time>
      </trkpt>
      <trkpt lat="48.57982" lon="-0.45467">
        <ele>225.56652832031</ele>
        <time>2013-07-17T13:46:43Z</time>
      </trkpt>
      <trkpt lat="48.57994" lon="-0.45495">
        <ele>226.04711914062</ele>
        <time>2013-07-17T13:46:49Z</time>
      </trkpt>
      <trkpt lat="48.58003" lon="-0.45518">
        <ele>227.00854492188</ele>
        <time>2013-07-17T13:46:54Z</time>
      </trkpt>
      <trkpt lat="48.58013" lon="-0.4554">
        <ele>227.48913574219</ele>
        <time>2013-07-17T13:46:59Z</time>
      </trkpt>
      <trkpt lat="48.58027" lon="-0.45574">
        <ele>227.9697265625</ele>
        <time>2013-07-17T13:47:06Z</time>
      </trkpt>
      <trkpt lat="48.58038" lon="-0.45603">
        <ele>228.93115234375</ele>
        <time>2013-07-17T13:47:12Z</time>
      </trkpt>
      <trkpt lat="48.58049" lon="-0.45633">
        <ele>228.93115234375</ele>
        <time>2013-07-17T13:47:18Z</time>
      </trkpt>
      <trkpt lat="48.58058" lon="-0.45662">
        <ele>229.41174316406</ele>
        <time>2013-07-17T13:47:24Z</time>
      </trkpt>
      <trkpt lat="48.58071" lon="-0.45693">
        <ele>228.93115234375</ele>
        <time>2013-07-17T13:47:31Z</time>
      </trkpt>
      <trkpt lat="48.58084" lon="-0.45716">
        <ele>228.45043945312</ele>
        <time>2013-07-17T13:47:37Z</time>
      </trkpt>
      <trkpt lat="48.58089" lon="-0.45727">
        <ele>228.45043945312</ele>
        <time>2013-07-17T13:47:40Z</time>
      </trkpt>
      <trkpt lat="48.58092" lon="-0.45738">
        <ele>227.9697265625</ele>
        <time>2013-07-17T13:47:45Z</time>
      </trkpt>
      <trkpt lat="48.58097" lon="-0.45757">
        <ele>227.48913574219</ele>
        <time>2013-07-17T13:47:52Z</time>
      </trkpt>
      <trkpt lat="48.58107" lon="-0.45775">
        <ele>227.48913574219</ele>
        <time>2013-07-17T13:47:56Z</time>
      </trkpt>
      <trkpt lat="48.58109" lon="-0.4578">
        <ele>227.48913574219</ele>
        <time>2013-07-17T13:47:57Z</time>
      </trkpt>
      <trkpt lat="48.58114" lon="-0.45796">
        <ele>227.48913574219</ele>
        <time>2013-07-17T13:48:00Z</time>
      </trkpt>
      <trkpt lat="48.58126" lon="-0.45819">
        <ele>227.48913574219</ele>
        <time>2013-07-17T13:48:04Z</time>
      </trkpt>
      <trkpt lat="48.58138" lon="-0.45852">
        <ele>227.00854492188</ele>
        <time>2013-07-17T13:48:10Z</time>
      </trkpt>
      <trkpt lat="48.5815" lon="-0.45885">
        <ele>227.9697265625</ele>
        <time>2013-07-17T13:48:16Z</time>
      </trkpt>
      <trkpt lat="48.5816" lon="-0.45924">
        <ele>228.93115234375</ele>
        <time>2013-07-17T13:48:23Z</time>
      </trkpt>
      <trkpt lat="48.58172" lon="-0.45961">
        <ele>229.89233398438</ele>
        <time>2013-07-17T13:48:30Z</time>
      </trkpt>
      <trkpt lat="48.58182" lon="-0.45986">
        <ele>230.373046875</ele>
        <time>2013-07-17T13:48:35Z</time>
      </trkpt>
      <trkpt lat="48.58195" lon="-0.46019">
        <ele>231.33435058594</ele>
        <time>2013-07-17T13:48:42Z</time>
      </trkpt>
      <trkpt lat="48.58204" lon="-0.46043">
        <ele>231.81494140625</ele>
        <time>2013-07-17T13:48:47Z</time>
      </trkpt>
      <trkpt lat="48.58212" lon="-0.46066">
        <ele>232.77648925781</ele>
        <time>2013-07-17T13:48:52Z</time>
      </trkpt>
      <trkpt lat="48.58223" lon="-0.46093">
        <ele>233.25708007812</ele>
        <time>2013-07-17T13:48:58Z</time>
      </trkpt>
      <trkpt lat="48.58232" lon="-0.46116">
        <ele>233.73767089844</ele>
        <time>2013-07-17T13:49:03Z</time>
      </trkpt>
      <trkpt lat="48.58239" lon="-0.4614">
        <ele>234.21838378906</ele>
        <time>2013-07-17T13:49:08Z</time>
      </trkpt>
      <trkpt lat="48.58244" lon="-0.46153">
        <ele>234.69909667969</ele>
        <time>2013-07-17T13:49:12Z</time>
      </trkpt>
      <trkpt lat="48.5825" lon="-0.46172">
        <ele>235.1796875</ele>
        <time>2013-07-17T13:49:20Z</time>
      </trkpt>
      <trkpt lat="48.5826" lon="-0.46192">
        <ele>236.14099121094</ele>
        <time>2013-07-17T13:49:27Z</time>
      </trkpt>
      <trkpt lat="48.58269" lon="-0.46209">
        <ele>236.14099121094</ele>
        <time>2013-07-17T13:49:33Z</time>
      </trkpt>
      <trkpt lat="48.58281" lon="-0.46235">
        <ele>237.10229492188</ele>
        <time>2013-07-17T13:49:41Z</time>
      </trkpt>
      <trkpt lat="48.58286" lon="-0.46254">
        <ele>237.58288574219</ele>
        <time>2013-07-17T13:49:48Z</time>
      </trkpt>
      <trkpt lat="48.58295" lon="-0.46272">
        <ele>237.58288574219</ele>
        <time>2013-07-17T13:49:54Z</time>
      </trkpt>
      <trkpt lat="48.58299" lon="-0.46287">
        <ele>237.58288574219</ele>
        <time>2013-07-17T13:49:59Z</time>
      </trkpt>
      <trkpt lat="48.583" lon="-0.4629">
        <ele>238.06359863281</ele>
        <time>2013-07-17T13:50:00Z</time>
      </trkpt>
      <trkpt lat="48.58306" lon="-0.46305">
        <ele>238.06359863281</ele>
        <time>2013-07-17T13:50:07Z</time>
      </trkpt>
      <trkpt lat="48.58313" lon="-0.46323">
        <ele>239.02490234375</ele>
        <time>2013-07-17T13:50:13Z</time>
      </trkpt>
      <trkpt lat="48.58322" lon="-0.46349">
        <ele>239.50549316406</ele>
        <time>2013-07-17T13:50:21Z</time>
      </trkpt>
      <trkpt lat="48.58329" lon="-0.46364">
        <ele>239.98620605469</ele>
        <time>2013-07-17T13:50:27Z</time>
      </trkpt>
      <trkpt lat="48.58333" lon="-0.46372">
        <ele>240.46704101562</ele>
        <time>2013-07-17T13:50:32Z</time>
      </trkpt>
      <trkpt lat="48.58338" lon="-0.46388">
        <ele>240.94763183594</ele>
        <time>2013-07-17T13:50:38Z</time>
      </trkpt>
      <trkpt lat="48.58347" lon="-0.46407">
        <ele>240.94763183594</ele>
        <time>2013-07-17T13:50:45Z</time>
      </trkpt>
      <trkpt lat="48.58355" lon="-0.46424">
        <ele>242.3896484375</ele>
        <time>2013-07-17T13:50:53Z</time>
      </trkpt>
      <trkpt lat="48.58363" lon="-0.46447">
        <ele>242.3896484375</ele>
        <time>2013-07-17T13:51:01Z</time>
      </trkpt>
      <trkpt lat="48.58369" lon="-0.46471">
        <ele>243.35083007812</ele>
        <time>2013-07-17T13:51:09Z</time>
      </trkpt>
      <trkpt lat="48.58374" lon="-0.46488">
        <ele>243.35083007812</ele>
        <time>2013-07-17T13:51:15Z</time>
      </trkpt>
      <trkpt lat="48.58381" lon="-0.46505">
        <ele>243.83154296875</ele>
        <time>2013-07-17T13:51:22Z</time>
      </trkpt>
      <trkpt lat="48.58385" lon="-0.46517">
        <ele>244.31225585938</ele>
        <time>2013-07-17T13:51:28Z</time>
      </trkpt>
      <trkpt lat="48.58389" lon="-0.46529">
        <ele>244.31225585938</ele>
        <time>2013-07-17T13:51:33Z</time>
      </trkpt>
      <trkpt lat="48.58395" lon="-0.46542">
        <ele>244.79284667969</ele>
        <time>2013-07-17T13:51:39Z</time>
      </trkpt>
      <trkpt lat="48.58401" lon="-0.46556">
        <ele>244.79284667969</ele>
        <time>2013-07-17T13:51:45Z</time>
      </trkpt>
      <trkpt lat="48.58406" lon="-0.46569">
        <ele>244.79284667969</ele>
        <time>2013-07-17T13:51:51Z</time>
      </trkpt>
      <trkpt lat="48.58406" lon="-0.46573">
        <ele>245.2734375</ele>
        <time>2013-07-17T13:51:53Z</time>
      </trkpt>
      <trkpt lat="48.58411" lon="-0.46585">
        <ele>245.2734375</ele>
        <time>2013-07-17T13:51:58Z</time>
      </trkpt>
      <trkpt lat="48.5842" lon="-0.46609">
        <ele>245.75415039062</ele>
        <time>2013-07-17T13:52:07Z</time>
      </trkpt>
      <trkpt lat="48.58429" lon="-0.46627">
        <ele>246.23486328125</ele>
        <time>2013-07-17T13:52:14Z</time>
      </trkpt>
      <trkpt lat="48.5844" lon="-0.46654">
        <ele>247.6767578125</ele>
        <time>2013-07-17T13:52:23Z</time>
      </trkpt>
      <trkpt lat="48.58447" lon="-0.46671">
        <ele>248.63818359375</ele>
        <time>2013-07-17T13:52:30Z</time>
      </trkpt>
      <trkpt lat="48.58455" lon="-0.46688">
        <ele>248.63818359375</ele>
        <time>2013-07-17T13:52:37Z</time>
      </trkpt>
      <trkpt lat="48.58459" lon="-0.46702">
        <ele>249.11877441406</ele>
        <time>2013-07-17T13:52:42Z</time>
      </trkpt>
      <trkpt lat="48.58465" lon="-0.46719">
        <ele>250.08020019531</ele>
        <time>2013-07-17T13:52:48Z</time>
      </trkpt>
      <trkpt lat="48.58467" lon="-0.46728">
        <ele>250.08020019531</ele>
        <time>2013-07-17T13:52:51Z</time>
      </trkpt>
      <trkpt lat="48.58471" lon="-0.46747">
        <ele>250.56079101562</ele>
        <time>2013-07-17T13:52:57Z</time>
      </trkpt>
      <trkpt lat="48.58472" lon="-0.46751">
        <ele>250.56079101562</ele>
        <time>2013-07-17T13:52:58Z</time>
      </trkpt>
      <trkpt lat="48.58478" lon="-0.46764">
        <ele>251.04138183594</ele>
        <time>2013-07-17T13:53:03Z</time>
      </trkpt>
      <trkpt lat="48.58483" lon="-0.46778">
        <ele>251.52209472656</ele>
        <time>2013-07-17T13:53:08Z</time>
      </trkpt>
      <trkpt lat="48.5849" lon="-0.46796">
        <ele>252.00280761719</ele>
        <time>2013-07-17T13:53:14Z</time>
      </trkpt>
      <trkpt lat="48.58493" lon="-0.46802">
        <ele>252.00280761719</ele>
        <time>2013-07-17T13:53:16Z</time>
      </trkpt>
      <trkpt lat="48.58501" lon="-0.46821">
        <ele>252.4833984375</ele>
        <time>2013-07-17T13:53:22Z</time>
      </trkpt>
      <trkpt lat="48.58503" lon="-0.46828">
        <ele>252.96398925781</ele>
        <time>2013-07-17T13:53:24Z</time>
      </trkpt>
      <trkpt lat="48.58511" lon="-0.46851">
        <ele>253.44470214844</ele>
        <time>2013-07-17T13:53:31Z</time>
      </trkpt>
      <trkpt lat="48.58524" lon="-0.46878">
        <ele>253.92541503906</ele>
        <time>2013-07-17T13:53:38Z</time>
      </trkpt>
      <trkpt lat="48.58533" lon="-0.469">
        <ele>254.40600585938</ele>
        <time>2013-07-17T13:53:45Z</time>
      </trkpt>
      <trkpt lat="48.58537" lon="-0.46907">
        <ele>254.88659667969</ele>
        <time>2013-07-17T13:53:50Z</time>
      </trkpt>
      <trkpt lat="48.58542" lon="-0.46922">
        <ele>254.88659667969</ele>
        <time>2013-07-17T13:53:55Z</time>
      </trkpt>
      <trkpt lat="48.58553" lon="-0.46945">
        <ele>255.84802246094</ele>
        <time>2013-07-17T13:54:02Z</time>
      </trkpt>
      <trkpt lat="48.58556" lon="-0.4696">
        <ele>255.84802246094</ele>
        <time>2013-07-17T13:54:08Z</time>
      </trkpt>
      <trkpt lat="48.58562" lon="-0.46976">
        <ele>256.32873535156</ele>
        <time>2013-07-17T13:54:13Z</time>
      </trkpt>
      <trkpt lat="48.58571" lon="-0.46999">
        <ele>257.2900390625</ele>
        <time>2013-07-17T13:54:19Z</time>
      </trkpt>
      <trkpt lat="48.5858" lon="-0.47026">
        <ele>258.25134277344</ele>
        <time>2013-07-17T13:54:25Z</time>
      </trkpt>
      <trkpt lat="48.58592" lon="-0.4705">
        <ele>258.25134277344</ele>
        <time>2013-07-17T13:54:30Z</time>
      </trkpt>
      <trkpt lat="48.58607" lon="-0.47085">
        <ele>258.25134277344</ele>
        <time>2013-07-17T13:54:37Z</time>
      </trkpt>
      <trkpt lat="48.58615" lon="-0.47106">
        <ele>258.73193359375</ele>
        <time>2013-07-17T13:54:42Z</time>
      </trkpt>
      <trkpt lat="48.58624" lon="-0.47127">
        <ele>258.73193359375</ele>
        <time>2013-07-17T13:54:48Z</time>
      </trkpt>
      <trkpt lat="48.5863" lon="-0.47142">
        <ele>258.73193359375</ele>
        <time>2013-07-17T13:54:52Z</time>
      </trkpt>
      <trkpt lat="48.58638" lon="-0.47166">
        <ele>259.21264648438</ele>
        <time>2013-07-17T13:54:57Z</time>
      </trkpt>
      <trkpt lat="48.58648" lon="-0.47192">
        <ele>259.21264648438</ele>
        <time>2013-07-17T13:55:02Z</time>
      </trkpt>
      <trkpt lat="48.58658" lon="-0.47217">
        <ele>259.21264648438</ele>
        <time>2013-07-17T13:55:08Z</time>
      </trkpt>
      <trkpt lat="48.58666" lon="-0.47242">
        <ele>258.73193359375</ele>
        <time>2013-07-17T13:55:13Z</time>
      </trkpt>
      <trkpt lat="48.58677" lon="-0.4727">
        <ele>258.73193359375</ele>
        <time>2013-07-17T13:55:19Z</time>
      </trkpt>
      <trkpt lat="48.58683" lon="-0.47287">
        <ele>258.73193359375</ele>
        <time>2013-07-17T13:55:25Z</time>
      </trkpt>
      <trkpt lat="48.58702" lon="-0.47288">
        <ele>259.21264648438</ele>
        <time>2013-07-17T13:56:10Z</time>
      </trkpt>
      <trkpt lat="48.587" lon="-0.47287">
        <ele>259.693359375</ele>
        <time>2013-07-17T13:56:11Z</time>
      </trkpt>
      <trkpt lat="48.58699" lon="-0.47286">
        <ele>259.21264648438</ele>
        <time>2013-07-17T13:56:12Z</time>
      </trkpt>
      <trkpt lat="48.58692" lon="-0.47267">
        <ele>259.693359375</ele>
        <time>2013-07-17T13:56:17Z</time>
      </trkpt>
      <trkpt lat="48.58689" lon="-0.47237">
        <ele>260.65454101562</ele>
        <time>2013-07-17T13:56:23Z</time>
      </trkpt>
      <trkpt lat="48.58685" lon="-0.47191">
        <ele>261.13525390625</ele>
        <time>2013-07-17T13:56:31Z</time>
      </trkpt>
      <trkpt lat="48.58684" lon="-0.47179">
        <ele>261.13525390625</ele>
        <time>2013-07-17T13:56:33Z</time>
      </trkpt>
      <trkpt lat="48.5868" lon="-0.47147">
        <ele>261.61596679688</ele>
        <time>2013-07-17T13:56:38Z</time>
      </trkpt>
      <trkpt lat="48.58679" lon="-0.47116">
        <ele>261.61596679688</ele>
        <time>2013-07-17T13:56:43Z</time>
      </trkpt>
      <trkpt lat="48.58678" lon="-0.47096">
        <ele>262.09655761719</ele>
        <time>2013-07-17T13:56:46Z</time>
      </trkpt>
      <trkpt lat="48.58676" lon="-0.47056">
        <ele>262.09655761719</ele>
        <time>2013-07-17T13:56:52Z</time>
      </trkpt>
      <trkpt lat="48.58674" lon="-0.47018">
        <ele>262.09655761719</ele>
        <time>2013-07-17T13:56:57Z</time>
      </trkpt>
      <trkpt lat="48.58675" lon="-0.47003">
        <ele>262.5771484375</ele>
        <time>2013-07-17T13:56:59Z</time>
      </trkpt>
      <trkpt lat="48.58672" lon="-0.46953">
        <ele>262.09655761719</ele>
        <time>2013-07-17T13:57:06Z</time>
      </trkpt>
      <trkpt lat="48.5867" lon="-0.46926">
        <ele>262.09655761719</ele>
        <time>2013-07-17T13:57:10Z</time>
      </trkpt>
      <trkpt lat="48.5867" lon="-0.46877">
        <ele>261.13525390625</ele>
        <time>2013-07-17T13:57:17Z</time>
      </trkpt>
      <trkpt lat="48.58665" lon="-0.4681">
        <ele>261.13525390625</ele>
        <time>2013-07-17T13:57:25Z</time>
      </trkpt>
      <trkpt lat="48.58661" lon="-0.46753">
        <ele>260.65454101562</ele>
        <time>2013-07-17T13:57:31Z</time>
      </trkpt>
      <trkpt lat="48.58658" lon="-0.46701">
        <ele>259.693359375</ele>
        <time>2013-07-17T13:57:36Z</time>
      </trkpt>
      <trkpt lat="48.58654" lon="-0.46635">
        <ele>259.693359375</ele>
        <time>2013-07-17T13:57:42Z</time>
      </trkpt>
      <trkpt lat="48.58652" lon="-0.46603">
        <ele>259.21264648438</ele>
        <time>2013-07-17T13:57:45Z</time>
      </trkpt>
      <trkpt lat="48.5865" lon="-0.46563">
        <ele>259.21264648438</ele>
        <time>2013-07-17T13:57:49Z</time>
      </trkpt>
      <trkpt lat="48.58646" lon="-0.46509">
        <ele>258.25134277344</ele>
        <time>2013-07-17T13:57:55Z</time>
      </trkpt>
      <trkpt lat="48.58645" lon="-0.46493">
        <ele>258.73193359375</ele>
        <time>2013-07-17T13:57:57Z</time>
      </trkpt>
      <trkpt lat="48.58647" lon="-0.46455">
        <ele>258.73193359375</ele>
        <time>2013-07-17T13:58:02Z</time>
      </trkpt>
      <trkpt lat="48.58644" lon="-0.46426">
        <ele>258.25134277344</ele>
        <time>2013-07-17T13:58:06Z</time>
      </trkpt>
      <trkpt lat="48.58642" lon="-0.46407">
        <ele>258.25134277344</ele>
        <time>2013-07-17T13:58:09Z</time>
      </trkpt>
      <trkpt lat="48.58654" lon="-0.46397">
        <ele>257.77075195312</ele>
        <time>2013-07-17T13:58:13Z</time>
      </trkpt>
      <trkpt lat="48.58672" lon="-0.46405">
        <ele>257.77075195312</ele>
        <time>2013-07-17T13:58:17Z</time>
      </trkpt>
      <trkpt lat="48.58674" lon="-0.46409">
        <ele>257.77075195312</ele>
        <time>2013-07-17T13:58:20Z</time>
      </trkpt>
      <trkpt lat="48.5868" lon="-0.46423">
        <ele>257.77075195312</ele>
        <time>2013-07-17T13:58:33Z</time>
      </trkpt>
      <trkpt lat="48.58689" lon="-0.4644">
        <ele>257.77075195312</ele>
        <time>2013-07-17T13:58:39Z</time>
      </trkpt>
      <trkpt lat="48.58696" lon="-0.46445">
        <ele>257.77075195312</ele>
        <time>2013-07-17T13:58:48Z</time>
      </trkpt>
      <trkpt lat="48.58698" lon="-0.46449">
        <ele>257.77075195312</ele>
        <time>2013-07-17T13:58:49Z</time>
      </trkpt>
      <trkpt lat="48.58693" lon="-0.4644">
        <ele>257.77075195312</ele>
        <time>2013-07-17T13:59:52Z</time>
      </trkpt>
      <trkpt lat="48.58694" lon="-0.46445">
        <ele>257.2900390625</ele>
        <time>2013-07-17T13:59:57Z</time>
      </trkpt>
      <trkpt lat="48.58699" lon="-0.46453">
        <ele>257.2900390625</ele>
        <time>2013-07-17T14:00:01Z</time>
      </trkpt>
      <trkpt lat="48.58715" lon="-0.4646">
        <ele>255.84802246094</ele>
        <time>2013-07-17T14:00:06Z</time>
      </trkpt>
      <trkpt lat="48.58723" lon="-0.46461">
        <ele>255.84802246094</ele>
        <time>2013-07-17T14:00:08Z</time>
      </trkpt>
      <trkpt lat="48.58734" lon="-0.46462">
        <ele>255.36730957031</ele>
        <time>2013-07-17T14:00:10Z</time>
      </trkpt>
      <trkpt lat="48.58749" lon="-0.46465">
        <ele>255.36730957031</ele>
        <time>2013-07-17T14:00:13Z</time>
      </trkpt>
      <trkpt lat="48.58769" lon="-0.4647">
        <ele>255.84802246094</ele>
        <time>2013-07-17T14:00:17Z</time>
      </trkpt>
      <trkpt lat="48.58796" lon="-0.46478">
        <ele>256.80932617188</ele>
        <time>2013-07-17T14:00:22Z</time>
      </trkpt>
      <trkpt lat="48.58821" lon="-0.46473">
        <ele>257.2900390625</ele>
        <time>2013-07-17T14:00:28Z</time>
      </trkpt>
      <trkpt lat="48.58835" lon="-0.46468">
        <ele>258.25134277344</ele>
        <time>2013-07-17T14:00:32Z</time>
      </trkpt>
      <trkpt lat="48.58855" lon="-0.46463">
        <ele>259.693359375</ele>
        <time>2013-07-17T14:00:37Z</time>
      </trkpt>
      <trkpt lat="48.58878" lon="-0.46463">
        <ele>260.65454101562</ele>
        <time>2013-07-17T14:00:42Z</time>
      </trkpt>
      <trkpt lat="48.5889" lon="-0.46467">
        <ele>261.13525390625</ele>
        <time>2013-07-17T14:00:46Z</time>
      </trkpt>
      <trkpt lat="48.58902" lon="-0.46469">
        <ele>262.09655761719</ele>
        <time>2013-07-17T14:00:50Z</time>
      </trkpt>
      <trkpt lat="48.58919" lon="-0.46475">
        <ele>263.53857421875</ele>
        <time>2013-07-17T14:00:56Z</time>
      </trkpt>
      <trkpt lat="48.58935" lon="-0.46482">
        <ele>264.49987792969</ele>
        <time>2013-07-17T14:01:01Z</time>
      </trkpt>
      <trkpt lat="48.58957" lon="-0.46497">
        <ele>265.94189453125</ele>
        <time>2013-07-17T14:01:08Z</time>
      </trkpt>
      <trkpt lat="48.58981" lon="-0.46513">
        <ele>266.90319824219</ele>
        <time>2013-07-17T14:01:16Z</time>
      </trkpt>
      <trkpt lat="48.5899" lon="-0.4652">
        <ele>267.38391113281</ele>
        <time>2013-07-17T14:01:20Z</time>
      </trkpt>
      <trkpt lat="48.59001" lon="-0.46521">
        <ele>267.38391113281</ele>
        <time>2013-07-17T14:01:25Z</time>
      </trkpt>
      <trkpt lat="48.59" lon="-0.46507">
        <ele>267.38391113281</ele>
        <time>2013-07-17T14:01:29Z</time>
      </trkpt>
      <trkpt lat="48.58998" lon="-0.46481">
        <ele>266.90319824219</ele>
        <time>2013-07-17T14:01:34Z</time>
      </trkpt>
      <trkpt lat="48.58998" lon="-0.4647">
        <ele>266.42248535156</ele>
        <time>2013-07-17T14:01:36Z</time>
      </trkpt>
      <trkpt lat="48.58997" lon="-0.46439">
        <ele>265.94189453125</ele>
        <time>2013-07-17T14:01:42Z</time>
      </trkpt>
      <trkpt lat="48.58993" lon="-0.46405">
        <ele>265.94189453125</ele>
        <time>2013-07-17T14:01:48Z</time>
      </trkpt>
      <trkpt lat="48.58992" lon="-0.46361">
        <ele>264.98059082031</ele>
        <time>2013-07-17T14:01:55Z</time>
      </trkpt>
      <trkpt lat="48.5899" lon="-0.46324">
        <ele>264.49987792969</ele>
        <time>2013-07-17T14:02:01Z</time>
      </trkpt>
      <trkpt lat="48.58987" lon="-0.46286">
        <ele>264.01928710938</ele>
        <time>2013-07-17T14:02:07Z</time>
      </trkpt>
      <trkpt lat="48.58985" lon="-0.46265">
        <ele>263.53857421875</ele>
        <time>2013-07-17T14:02:10Z</time>
      </trkpt>
      <trkpt lat="48.58982" lon="-0.46221">
        <ele>262.5771484375</ele>
        <time>2013-07-17T14:02:16Z</time>
      </trkpt>
      <trkpt lat="48.58978" lon="-0.46184">
        <ele>262.09655761719</ele>
        <time>2013-07-17T14:02:21Z</time>
      </trkpt>
      <trkpt lat="48.58976" lon="-0.46162">
        <ele>261.13525390625</ele>
        <time>2013-07-17T14:02:24Z</time>
      </trkpt>
      <trkpt lat="48.58972" lon="-0.46135">
        <ele>259.21264648438</ele>
        <time>2013-07-17T14:02:29Z</time>
      </trkpt>
      <trkpt lat="48.5897" lon="-0.46119">
        <ele>258.25134277344</ele>
        <time>2013-07-17T14:02:32Z</time>
      </trkpt>
      <trkpt lat="48.5897" lon="-0.46105">
        <ele>256.80932617188</ele>
        <time>2013-07-17T14:02:34Z</time>
      </trkpt>
      <trkpt lat="48.58972" lon="-0.4606">
        <ele>256.80932617188</ele>
        <time>2013-07-17T14:02:41Z</time>
      </trkpt>
      <trkpt lat="48.58973" lon="-0.46033">
        <ele>256.32873535156</ele>
        <time>2013-07-17T14:02:48Z</time>
      </trkpt>
      <trkpt lat="48.58972" lon="-0.46006">
        <ele>256.32873535156</ele>
        <time>2013-07-17T14:02:54Z</time>
      </trkpt>
      <trkpt lat="48.58969" lon="-0.45987">
        <ele>256.80932617188</ele>
        <time>2013-07-17T14:02:59Z</time>
      </trkpt>
      <trkpt lat="48.58967" lon="-0.4596">
        <ele>256.80932617188</ele>
        <time>2013-07-17T14:03:06Z</time>
      </trkpt>
      <trkpt lat="48.58966" lon="-0.45934">
        <ele>258.25134277344</ele>
        <time>2013-07-17T14:03:14Z</time>
      </trkpt>
      <trkpt lat="48.58967" lon="-0.45905">
        <ele>259.693359375</ele>
        <time>2013-07-17T14:03:22Z</time>
      </trkpt>
      <trkpt lat="48.58965" lon="-0.45878">
        <ele>260.17395019531</ele>
        <time>2013-07-17T14:03:29Z</time>
      </trkpt>
      <trkpt lat="48.58964" lon="-0.45833">
        <ele>260.65454101562</ele>
        <time>2013-07-17T14:03:38Z</time>
      </trkpt>
      <trkpt lat="48.5896" lon="-0.45791">
        <ele>260.65454101562</ele>
        <time>2013-07-17T14:03:46Z</time>
      </trkpt>
      <trkpt lat="48.58957" lon="-0.45752">
        <ele>260.17395019531</ele>
        <time>2013-07-17T14:03:53Z</time>
      </trkpt>
      <trkpt lat="48.58956" lon="-0.45746">
        <ele>259.693359375</ele>
        <time>2013-07-17T14:03:54Z</time>
      </trkpt>
      <trkpt lat="48.58953" lon="-0.45703">
        <ele>257.77075195312</ele>
        <time>2013-07-17T14:04:00Z</time>
      </trkpt>
      <trkpt lat="48.58952" lon="-0.45682">
        <ele>256.80932617188</ele>
        <time>2013-07-17T14:04:03Z</time>
      </trkpt>
      <trkpt lat="48.58945" lon="-0.45635">
        <ele>254.88659667969</ele>
        <time>2013-07-17T14:04:09Z</time>
      </trkpt>
      <trkpt lat="48.58945" lon="-0.45606">
        <ele>253.44470214844</ele>
        <time>2013-07-17T14:04:14Z</time>
      </trkpt>
      <trkpt lat="48.58947" lon="-0.4559">
        <ele>252.96398925781</ele>
        <time>2013-07-17T14:04:19Z</time>
      </trkpt>
      <trkpt lat="48.58948" lon="-0.45575">
        <ele>252.00280761719</ele>
        <time>2013-07-17T14:04:25Z</time>
      </trkpt>
      <trkpt lat="48.5895" lon="-0.45556">
        <ele>252.00280761719</ele>
        <time>2013-07-17T14:04:31Z</time>
      </trkpt>
      <trkpt lat="48.5895" lon="-0.45544">
        <ele>251.52209472656</ele>
        <time>2013-07-17T14:04:34Z</time>
      </trkpt>
      <trkpt lat="48.58949" lon="-0.45517">
        <ele>250.08020019531</ele>
        <time>2013-07-17T14:04:38Z</time>
      </trkpt>
      <trkpt lat="48.58945" lon="-0.45485">
        <ele>249.11877441406</ele>
        <time>2013-07-17T14:04:42Z</time>
      </trkpt>
      <trkpt lat="48.58944" lon="-0.45459">
        <ele>248.15759277344</ele>
        <time>2013-07-17T14:04:45Z</time>
      </trkpt>
      <trkpt lat="48.58939" lon="-0.45418">
        <ele>247.6767578125</ele>
        <time>2013-07-17T14:04:50Z</time>
      </trkpt>
      <trkpt lat="48.58935" lon="-0.45384">
        <ele>246.71545410156</ele>
        <time>2013-07-17T14:04:54Z</time>
      </trkpt>
      <trkpt lat="48.58932" lon="-0.45352">
        <ele>245.2734375</ele>
        <time>2013-07-17T14:04:58Z</time>
      </trkpt>
      <trkpt lat="48.5893" lon="-0.45332">
        <ele>245.2734375</ele>
        <time>2013-07-17T14:05:01Z</time>
      </trkpt>
      <trkpt lat="48.58929" lon="-0.45281">
        <ele>243.35083007812</ele>
        <time>2013-07-17T14:05:08Z</time>
      </trkpt>
      <trkpt lat="48.58929" lon="-0.45266">
        <ele>242.87023925781</ele>
        <time>2013-07-17T14:05:10Z</time>
      </trkpt>
      <trkpt lat="48.58931" lon="-0.45244">
        <ele>241.90893554688</ele>
        <time>2013-07-17T14:05:13Z</time>
      </trkpt>
      <trkpt lat="48.5893" lon="-0.45222">
        <ele>241.42822265625</ele>
        <time>2013-07-17T14:05:16Z</time>
      </trkpt>
      <trkpt lat="48.58925" lon="-0.45183">
        <ele>239.98620605469</ele>
        <time>2013-07-17T14:05:22Z</time>
      </trkpt>
      <trkpt lat="48.58923" lon="-0.45173">
        <ele>239.50549316406</ele>
        <time>2013-07-17T14:05:27Z</time>
      </trkpt>
      <trkpt lat="48.58922" lon="-0.45173">
        <ele>239.50549316406</ele>
        <time>2013-07-17T14:05:28Z</time>
      </trkpt>
      <trkpt lat="48.58927" lon="-0.45183">
        <ele>239.98620605469</ele>
        <time>2013-07-17T14:05:43Z</time>
      </trkpt>
      <trkpt lat="48.58927" lon="-0.45183">
        <ele>239.50549316406</ele>
        <time>2013-07-17T14:05:44Z</time>
      </trkpt>
      <trkpt lat="48.58927" lon="-0.45181">
        <ele>239.50549316406</ele>
        <time>2013-07-17T14:05:45Z</time>
      </trkpt>
      <trkpt lat="48.58931" lon="-0.45176">
        <ele>239.98620605469</ele>
        <time>2013-07-17T14:05:49Z</time>
      </trkpt>
      <trkpt lat="48.58934" lon="-0.45176">
        <ele>239.98620605469</ele>
        <time>2013-07-17T14:05:53Z</time>
      </trkpt>
      <trkpt lat="48.58934" lon="-0.45176">
        <ele>240.46704101562</ele>
        <time>2013-07-17T14:05:54Z</time>
      </trkpt>
      <trkpt lat="48.58947" lon="-0.45185">
        <ele>240.94763183594</ele>
        <time>2013-07-17T14:06:00Z</time>
      </trkpt>
      <trkpt lat="48.5896" lon="-0.45193">
        <ele>241.90893554688</ele>
        <time>2013-07-17T14:06:06Z</time>
      </trkpt>
      <trkpt lat="48.58972" lon="-0.45203">
        <ele>242.87023925781</ele>
        <time>2013-07-17T14:06:12Z</time>
      </trkpt>
      <trkpt lat="48.58983" lon="-0.45209">
        <ele>243.83154296875</ele>
        <time>2013-07-17T14:06:16Z</time>
      </trkpt>
      <trkpt lat="48.58999" lon="-0.4522">
        <ele>244.79284667969</ele>
        <time>2013-07-17T14:06:22Z</time>
      </trkpt>
      <trkpt lat="48.59011" lon="-0.45229">
        <ele>245.75415039062</ele>
        <time>2013-07-17T14:06:28Z</time>
      </trkpt>
      <trkpt lat="48.59026" lon="-0.45236">
        <ele>247.6767578125</ele>
        <time>2013-07-17T14:06:34Z</time>
      </trkpt>
      <trkpt lat="48.5903" lon="-0.45234">
        <ele>248.63818359375</ele>
        <time>2013-07-17T14:06:38Z</time>
      </trkpt>
      <trkpt lat="48.59033" lon="-0.45233">
        <ele>249.11877441406</ele>
        <time>2013-07-17T14:06:40Z</time>
      </trkpt>
      <trkpt lat="48.5904" lon="-0.45225">
        <ele>250.08020019531</ele>
        <time>2013-07-17T14:06:47Z</time>
      </trkpt>
      <trkpt lat="48.59046" lon="-0.45214">
        <ele>252.00280761719</ele>
        <time>2013-07-17T14:06:54Z</time>
      </trkpt>
      <trkpt lat="48.59045" lon="-0.45211">
        <ele>251.52209472656</ele>
        <time>2013-07-17T14:06:57Z</time>
      </trkpt>
      <trkpt lat="48.59047" lon="-0.45205">
        <ele>252.4833984375</ele>
        <time>2013-07-17T14:07:41Z</time>
      </trkpt>
      <trkpt lat="48.59047" lon="-0.45204">
        <ele>252.00280761719</ele>
        <time>2013-07-17T14:07:42Z</time>
      </trkpt>
      <trkpt lat="48.59053" lon="-0.4519">
        <ele>251.04138183594</ele>
        <time>2013-07-17T14:07:45Z</time>
      </trkpt>
      <trkpt lat="48.59055" lon="-0.45171">
        <ele>249.11877441406</ele>
        <time>2013-07-17T14:07:49Z</time>
      </trkpt>
      <trkpt lat="48.59055" lon="-0.45148">
        <ele>247.19604492188</ele>
        <time>2013-07-17T14:07:52Z</time>
      </trkpt>
      <trkpt lat="48.59056" lon="-0.45139">
        <ele>246.71545410156</ele>
        <time>2013-07-17T14:07:53Z</time>
      </trkpt>
      <trkpt lat="48.59067" lon="-0.45102">
        <ele>245.2734375</ele>
        <time>2013-07-17T14:07:57Z</time>
      </trkpt>
      <trkpt lat="48.59069" lon="-0.45082">
        <ele>243.83154296875</ele>
        <time>2013-07-17T14:08:00Z</time>
      </trkpt>
      <trkpt lat="48.59074" lon="-0.45062">
        <ele>243.35083007812</ele>
        <time>2013-07-17T14:08:03Z</time>
      </trkpt>
      <trkpt lat="48.59083" lon="-0.45031">
        <ele>241.90893554688</ele>
        <time>2013-07-17T14:08:08Z</time>
      </trkpt>
      <trkpt lat="48.59084" lon="-0.45024">
        <ele>241.90893554688</ele>
        <time>2013-07-17T14:08:09Z</time>
      </trkpt>
      <trkpt lat="48.59095" lon="-0.44999">
        <ele>240.94763183594</ele>
        <time>2013-07-17T14:08:13Z</time>
      </trkpt>
      <trkpt lat="48.59103" lon="-0.44987">
        <ele>239.50549316406</ele>
        <time>2013-07-17T14:08:15Z</time>
      </trkpt>
      <trkpt lat="48.5911" lon="-0.44964">
        <ele>238.54431152344</ele>
        <time>2013-07-17T14:08:18Z</time>
      </trkpt>
      <trkpt lat="48.59114" lon="-0.44932">
        <ele>237.10229492188</ele>
        <time>2013-07-17T14:08:22Z</time>
      </trkpt>
      <trkpt lat="48.59114" lon="-0.44909">
        <ele>235.66027832031</ele>
        <time>2013-07-17T14:08:25Z</time>
      </trkpt>
      <trkpt lat="48.59114" lon="-0.4489">
        <ele>234.21838378906</ele>
        <time>2013-07-17T14:08:29Z</time>
      </trkpt>
      <trkpt lat="48.59114" lon="-0.44887">
        <ele>234.21838378906</ele>
        <time>2013-07-17T14:08:30Z</time>
      </trkpt>
      <trkpt lat="48.59116" lon="-0.44869">
        <ele>232.29577636719</ele>
        <time>2013-07-17T14:08:36Z</time>
      </trkpt>
      <trkpt lat="48.59121" lon="-0.44854">
        <ele>231.81494140625</ele>
        <time>2013-07-17T14:08:39Z</time>
      </trkpt>
      <trkpt lat="48.59124" lon="-0.44836">
        <ele>230.85375976562</ele>
        <time>2013-07-17T14:08:42Z</time>
      </trkpt>
      <trkpt lat="48.59131" lon="-0.44801">
        <ele>229.89233398438</ele>
        <time>2013-07-17T14:08:47Z</time>
      </trkpt>
      <trkpt lat="48.59136" lon="-0.44779">
        <ele>228.45043945312</ele>
        <time>2013-07-17T14:08:50Z</time>
      </trkpt>
      <trkpt lat="48.59148" lon="-0.44727">
        <ele>227.48913574219</ele>
        <time>2013-07-17T14:08:58Z</time>
      </trkpt>
      <trkpt lat="48.59148" lon="-0.44714">
        <ele>227.48913574219</ele>
        <time>2013-07-17T14:09:00Z</time>
      </trkpt>
      <trkpt lat="48.59152" lon="-0.44679">
        <ele>227.00854492188</ele>
        <time>2013-07-17T14:09:06Z</time>
      </trkpt>
      <trkpt lat="48.59157" lon="-0.44664">
        <ele>227.00854492188</ele>
        <time>2013-07-17T14:09:11Z</time>
      </trkpt>
      <trkpt lat="48.59165" lon="-0.44652">
        <ele>227.48913574219</ele>
        <time>2013-07-17T14:09:15Z</time>
      </trkpt>
      <trkpt lat="48.59171" lon="-0.44636">
        <ele>227.9697265625</ele>
        <time>2013-07-17T14:09:20Z</time>
      </trkpt>
      <trkpt lat="48.59171" lon="-0.44627">
        <ele>228.45043945312</ele>
        <time>2013-07-17T14:09:23Z</time>
      </trkpt>
      <trkpt lat="48.59172" lon="-0.44613">
        <ele>228.93115234375</ele>
        <time>2013-07-17T14:09:28Z</time>
      </trkpt>
      <trkpt lat="48.5917" lon="-0.44601">
        <ele>228.93115234375</ele>
        <time>2013-07-17T14:09:32Z</time>
      </trkpt>
      <trkpt lat="48.59171" lon="-0.44584">
        <ele>230.373046875</ele>
        <time>2013-07-17T14:09:38Z</time>
      </trkpt>
      <trkpt lat="48.59174" lon="-0.44562">
        <ele>230.85375976562</ele>
        <time>2013-07-17T14:09:45Z</time>
      </trkpt>
      <trkpt lat="48.59177" lon="-0.44554">
        <ele>231.33435058594</ele>
        <time>2013-07-17T14:09:48Z</time>
      </trkpt>
      <trkpt lat="48.59178" lon="-0.44539">
        <ele>232.29577636719</ele>
        <time>2013-07-17T14:09:54Z</time>
      </trkpt>
      <trkpt lat="48.5918" lon="-0.44522">
        <ele>233.25708007812</ele>
        <time>2013-07-17T14:10:00Z</time>
      </trkpt>
      <trkpt lat="48.59181" lon="-0.44519">
        <ele>233.73767089844</ele>
        <time>2013-07-17T14:10:01Z</time>
      </trkpt>
      <trkpt lat="48.59183" lon="-0.44501">
        <ele>234.69909667969</ele>
        <time>2013-07-17T14:10:07Z</time>
      </trkpt>
      <trkpt lat="48.5919" lon="-0.4448">
        <ele>236.62170410156</ele>
        <time>2013-07-17T14:10:15Z</time>
      </trkpt>
      <trkpt lat="48.59194" lon="-0.44465">
        <ele>237.58288574219</ele>
        <time>2013-07-17T14:10:20Z</time>
      </trkpt>
      <trkpt lat="48.59199" lon="-0.44439">
        <ele>238.54431152344</ele>
        <time>2013-07-17T14:10:28Z</time>
      </trkpt>
      <trkpt lat="48.59205" lon="-0.44422">
        <ele>239.50549316406</ele>
        <time>2013-07-17T14:10:34Z</time>
      </trkpt>
      <trkpt lat="48.59208" lon="-0.44408">
        <ele>240.46704101562</ele>
        <time>2013-07-17T14:10:39Z</time>
      </trkpt>
      <trkpt lat="48.59211" lon="-0.4439">
        <ele>241.42822265625</ele>
        <time>2013-07-17T14:10:45Z</time>
      </trkpt>
      <trkpt lat="48.59213" lon="-0.44381">
        <ele>241.90893554688</ele>
        <time>2013-07-17T14:10:48Z</time>
      </trkpt>
      <trkpt lat="48.59216" lon="-0.4437">
        <ele>242.3896484375</ele>
        <time>2013-07-17T14:10:54Z</time>
      </trkpt>
      <trkpt lat="48.59216" lon="-0.44369">
        <ele>242.3896484375</ele>
        <time>2013-07-17T14:10:57Z</time>
      </trkpt>
      <trkpt lat="48.59215" lon="-0.44367">
        <ele>242.3896484375</ele>
        <time>2013-07-17T14:10:59Z</time>
      </trkpt>
      <trkpt lat="48.59216" lon="-0.44366">
        <ele>243.35083007812</ele>
        <time>2013-07-17T14:11:02Z</time>
      </trkpt>
      <trkpt lat="48.59217" lon="-0.44361">
        <ele>243.35083007812</ele>
        <time>2013-07-17T14:11:04Z</time>
      </trkpt>
      <trkpt lat="48.59223" lon="-0.44369">
        <ele>242.87023925781</ele>
        <time>2013-07-17T14:11:24Z</time>
      </trkpt>
      <trkpt lat="48.59224" lon="-0.44369">
        <ele>243.35083007812</ele>
        <time>2013-07-17T14:11:25Z</time>
      </trkpt>
      <trkpt lat="48.59226" lon="-0.44365">
        <ele>243.83154296875</ele>
        <time>2013-07-17T14:11:46Z</time>
      </trkpt>
      <trkpt lat="48.59227" lon="-0.44364">
        <ele>243.83154296875</ele>
        <time>2013-07-17T14:11:47Z</time>
      </trkpt>
      <trkpt lat="48.59232" lon="-0.44346">
        <ele>244.31225585938</ele>
        <time>2013-07-17T14:11:53Z</time>
      </trkpt>
      <trkpt lat="48.59239" lon="-0.44316">
        <ele>245.75415039062</ele>
        <time>2013-07-17T14:12:02Z</time>
      </trkpt>
      <trkpt lat="48.59245" lon="-0.44296">
        <ele>247.19604492188</ele>
        <time>2013-07-17T14:12:08Z</time>
      </trkpt>
      <trkpt lat="48.59246" lon="-0.44272">
        <ele>249.11877441406</ele>
        <time>2013-07-17T14:12:15Z</time>
      </trkpt>
      <trkpt lat="48.59247" lon="-0.44252">
        <ele>251.04138183594</ele>
        <time>2013-07-17T14:12:22Z</time>
      </trkpt>
      <trkpt lat="48.59247" lon="-0.44238">
        <ele>252.96398925781</ele>
        <time>2013-07-17T14:12:29Z</time>
      </trkpt>
      <trkpt lat="48.59249" lon="-0.44224">
        <ele>254.40600585938</ele>
        <time>2013-07-17T14:12:37Z</time>
      </trkpt>
      <trkpt lat="48.59251" lon="-0.44218">
        <ele>255.36730957031</ele>
        <time>2013-07-17T14:12:40Z</time>
      </trkpt>
      <trkpt lat="48.59254" lon="-0.44203">
        <ele>256.32873535156</ele>
        <time>2013-07-17T14:12:48Z</time>
      </trkpt>
      <trkpt lat="48.59259" lon="-0.44193">
        <ele>258.25134277344</ele>
        <time>2013-07-17T14:12:54Z</time>
      </trkpt>
      <trkpt lat="48.59262" lon="-0.4418">
        <ele>259.21264648438</ele>
        <time>2013-07-17T14:13:01Z</time>
      </trkpt>
      <trkpt lat="48.59265" lon="-0.44169">
        <ele>260.17395019531</ele>
        <time>2013-07-17T14:13:08Z</time>
      </trkpt>
      <trkpt lat="48.59264" lon="-0.44159">
        <ele>260.65454101562</ele>
        <time>2013-07-17T14:13:13Z</time>
      </trkpt>
      <trkpt lat="48.59266" lon="-0.44138">
        <ele>261.61596679688</ele>
        <time>2013-07-17T14:13:23Z</time>
      </trkpt>
      <trkpt lat="48.59266" lon="-0.44133">
        <ele>262.09655761719</ele>
        <time>2013-07-17T14:13:25Z</time>
      </trkpt>
      <trkpt lat="48.59274" lon="-0.44117">
        <ele>261.61596679688</ele>
        <time>2013-07-17T14:13:33Z</time>
      </trkpt>
      <trkpt lat="48.59278" lon="-0.44107">
        <ele>262.09655761719</ele>
        <time>2013-07-17T14:13:37Z</time>
      </trkpt>
      <trkpt lat="48.59284" lon="-0.44089">
        <ele>262.09655761719</ele>
        <time>2013-07-17T14:13:44Z</time>
      </trkpt>
      <trkpt lat="48.59289" lon="-0.44072">
        <ele>261.61596679688</ele>
        <time>2013-07-17T14:13:49Z</time>
      </trkpt>
      <trkpt lat="48.59295" lon="-0.44037">
        <ele>261.61596679688</ele>
        <time>2013-07-17T14:13:56Z</time>
      </trkpt>
      <trkpt lat="48.59299" lon="-0.44017">
        <ele>260.17395019531</ele>
        <time>2013-07-17T14:13:59Z</time>
      </trkpt>
      <trkpt lat="48.59309" lon="-0.43973">
        <ele>258.25134277344</ele>
        <time>2013-07-17T14:14:04Z</time>
      </trkpt>
      <trkpt lat="48.59311" lon="-0.43964">
        <ele>256.80932617188</ele>
        <time>2013-07-17T14:14:05Z</time>
      </trkpt>
      <trkpt lat="48.59319" lon="-0.43929">
        <ele>253.44470214844</ele>
        <time>2013-07-17T14:14:09Z</time>
      </trkpt>
      <trkpt lat="48.59324" lon="-0.43904">
        <ele>250.08020019531</ele>
        <time>2013-07-17T14:14:12Z</time>
      </trkpt>
      <trkpt lat="48.59333" lon="-0.43866">
        <ele>245.75415039062</ele>
        <time>2013-07-17T14:14:15Z</time>
      </trkpt>
      <trkpt lat="48.59338" lon="-0.43813">
        <ele>243.83154296875</ele>
        <time>2013-07-17T14:14:18Z</time>
      </trkpt>
      <trkpt lat="48.59356" lon="-0.43723">
        <ele>240.94763183594</ele>
        <time>2013-07-17T14:14:24Z</time>
      </trkpt>
      <trkpt lat="48.59372" lon="-0.43644">
        <ele>238.54431152344</ele>
        <time>2013-07-17T14:14:30Z</time>
      </trkpt>
      <trkpt lat="48.59385" lon="-0.43562">
        <ele>235.66027832031</ele>
        <time>2013-07-17T14:14:36Z</time>
      </trkpt>
      <trkpt lat="48.59397" lon="-0.435">
        <ele>234.69909667969</ele>
        <time>2013-07-17T14:14:41Z</time>
      </trkpt>
      <trkpt lat="48.59412" lon="-0.43447">
        <ele>233.73767089844</ele>
        <time>2013-07-17T14:14:46Z</time>
      </trkpt>
      <trkpt lat="48.59415" lon="-0.43437">
        <ele>233.73767089844</ele>
        <time>2013-07-17T14:14:47Z</time>
      </trkpt>
      <trkpt lat="48.59426" lon="-0.43381">
        <ele>233.25708007812</ele>
        <time>2013-07-17T14:14:53Z</time>
      </trkpt>
      <trkpt lat="48.59428" lon="-0.43373">
        <ele>233.73767089844</ele>
        <time>2013-07-17T14:14:54Z</time>
      </trkpt>
      <trkpt lat="48.59439" lon="-0.4333">
        <ele>234.69909667969</ele>
        <time>2013-07-17T14:15:01Z</time>
      </trkpt>
      <trkpt lat="48.59441" lon="-0.43315">
        <ele>235.1796875</ele>
        <time>2013-07-17T14:15:06Z</time>
      </trkpt>
      <trkpt lat="48.59444" lon="-0.43305">
        <ele>234.69909667969</ele>
        <time>2013-07-17T14:15:09Z</time>
      </trkpt>
      <trkpt lat="48.59444" lon="-0.43279">
        <ele>234.21838378906</ele>
        <time>2013-07-17T14:15:14Z</time>
      </trkpt>
      <trkpt lat="48.5945" lon="-0.43249">
        <ele>233.25708007812</ele>
        <time>2013-07-17T14:15:19Z</time>
      </trkpt>
      <trkpt lat="48.5946" lon="-0.43216">
        <ele>232.29577636719</ele>
        <time>2013-07-17T14:15:24Z</time>
      </trkpt>
      <trkpt lat="48.59464" lon="-0.43172">
        <ele>230.85375976562</ele>
        <time>2013-07-17T14:15:30Z</time>
      </trkpt>
      <trkpt lat="48.59474" lon="-0.43113">
        <ele>230.373046875</ele>
        <time>2013-07-17T14:15:38Z</time>
      </trkpt>
      <trkpt lat="48.59487" lon="-0.43055">
        <ele>230.85375976562</ele>
        <time>2013-07-17T14:15:46Z</time>
      </trkpt>
      <trkpt lat="48.59503" lon="-0.43011">
        <ele>232.77648925781</ele>
        <time>2013-07-17T14:15:53Z</time>
      </trkpt>
      <trkpt lat="48.59513" lon="-0.42966">
        <ele>233.73767089844</ele>
        <time>2013-07-17T14:16:00Z</time>
      </trkpt>
      <trkpt lat="48.59525" lon="-0.42916">
        <ele>234.69909667969</ele>
        <time>2013-07-17T14:16:08Z</time>
      </trkpt>
      <trkpt lat="48.59531" lon="-0.42886">
        <ele>235.66027832031</ele>
        <time>2013-07-17T14:16:14Z</time>
      </trkpt>
      <trkpt lat="48.59536" lon="-0.42854">
        <ele>236.62170410156</ele>
        <time>2013-07-17T14:16:22Z</time>
      </trkpt>
      <trkpt lat="48.59541" lon="-0.42822">
        <ele>237.58288574219</ele>
        <time>2013-07-17T14:16:30Z</time>
      </trkpt>
      <trkpt lat="48.59546" lon="-0.4279">
        <ele>239.02490234375</ele>
        <time>2013-07-17T14:16:37Z</time>
      </trkpt>
      <trkpt lat="48.59549" lon="-0.42763">
        <ele>239.50549316406</ele>
        <time>2013-07-17T14:16:44Z</time>
      </trkpt>
      <trkpt lat="48.59552" lon="-0.42737">
        <ele>240.46704101562</ele>
        <time>2013-07-17T14:16:51Z</time>
      </trkpt>
      <trkpt lat="48.59556" lon="-0.42718">
        <ele>241.90893554688</ele>
        <time>2013-07-17T14:16:57Z</time>
      </trkpt>
      <trkpt lat="48.59556" lon="-0.427">
        <ele>241.90893554688</ele>
        <time>2013-07-17T14:17:03Z</time>
      </trkpt>
      <trkpt lat="48.59562" lon="-0.42678">
        <ele>242.3896484375</ele>
        <time>2013-07-17T14:17:10Z</time>
      </trkpt>
      <trkpt lat="48.59561" lon="-0.42661">
        <ele>242.87023925781</ele>
        <time>2013-07-17T14:17:15Z</time>
      </trkpt>
      <trkpt lat="48.59553" lon="-0.42638">
        <ele>242.3896484375</ele>
        <time>2013-07-17T14:17:22Z</time>
      </trkpt>
      <trkpt lat="48.59544" lon="-0.42616">
        <ele>242.87023925781</ele>
        <time>2013-07-17T14:17:29Z</time>
      </trkpt>
      <trkpt lat="48.59539" lon="-0.42606">
        <ele>241.90893554688</ele>
        <time>2013-07-17T14:17:32Z</time>
      </trkpt>
      <trkpt lat="48.59528" lon="-0.42596">
        <ele>240.94763183594</ele>
        <time>2013-07-17T14:17:35Z</time>
      </trkpt>
      <trkpt lat="48.5952" lon="-0.42586">
        <ele>240.46704101562</ele>
        <time>2013-07-17T14:17:37Z</time>
      </trkpt>
      <trkpt lat="48.59505" lon="-0.42565">
        <ele>239.02490234375</ele>
        <time>2013-07-17T14:17:41Z</time>
      </trkpt>
      <trkpt lat="48.59496" lon="-0.42556">
        <ele>238.54431152344</ele>
        <time>2013-07-17T14:17:43Z</time>
      </trkpt>
      <trkpt lat="48.59482" lon="-0.42539">
        <ele>238.06359863281</ele>
        <time>2013-07-17T14:17:46Z</time>
      </trkpt>
      <trkpt lat="48.59469" lon="-0.42523">
        <ele>238.06359863281</ele>
        <time>2013-07-17T14:17:49Z</time>
      </trkpt>
      <trkpt lat="48.59447" lon="-0.42503">
        <ele>237.10229492188</ele>
        <time>2013-07-17T14:17:55Z</time>
      </trkpt>
      <trkpt lat="48.59436" lon="-0.42482">
        <ele>237.10229492188</ele>
        <time>2013-07-17T14:18:00Z</time>
      </trkpt>
      <trkpt lat="48.59429" lon="-0.42467">
        <ele>237.10229492188</ele>
        <time>2013-07-17T14:18:04Z</time>
      </trkpt>
      <trkpt lat="48.59422" lon="-0.42448">
        <ele>236.62170410156</ele>
        <time>2013-07-17T14:18:09Z</time>
      </trkpt>
      <trkpt lat="48.5942" lon="-0.42444">
        <ele>237.10229492188</ele>
        <time>2013-07-17T14:18:10Z</time>
      </trkpt>
      <trkpt lat="48.59406" lon="-0.42416">
        <ele>234.69909667969</ele>
        <time>2013-07-17T14:18:15Z</time>
      </trkpt>
      <trkpt lat="48.59404" lon="-0.42409">
        <ele>234.69909667969</ele>
        <time>2013-07-17T14:18:16Z</time>
      </trkpt>
      <trkpt lat="48.594" lon="-0.42393">
        <ele>233.73767089844</ele>
        <time>2013-07-17T14:18:18Z</time>
      </trkpt>
      <trkpt lat="48.59393" lon="-0.4237">
        <ele>231.81494140625</ele>
        <time>2013-07-17T14:18:21Z</time>
      </trkpt>
      <trkpt lat="48.59383" lon="-0.42328">
        <ele>230.373046875</ele>
        <time>2013-07-17T14:18:25Z</time>
      </trkpt>
      <trkpt lat="48.59371" lon="-0.42286">
        <ele>228.93115234375</ele>
        <time>2013-07-17T14:18:30Z</time>
      </trkpt>
      <trkpt lat="48.59363" lon="-0.42264">
        <ele>227.00854492188</ele>
        <time>2013-07-17T14:18:33Z</time>
      </trkpt>
      <trkpt lat="48.59362" lon="-0.42248">
        <ele>227.00854492188</ele>
        <time>2013-07-17T14:18:35Z</time>
      </trkpt>
      <trkpt lat="48.59361" lon="-0.42234">
        <ele>226.04711914062</ele>
        <time>2013-07-17T14:18:37Z</time>
      </trkpt>
      <trkpt lat="48.59375" lon="-0.42209">
        <ele>224.60522460938</ele>
        <time>2013-07-17T14:18:41Z</time>
      </trkpt>
      <trkpt lat="48.59398" lon="-0.42207">
        <ele>222.68249511719</ele>
        <time>2013-07-17T14:18:44Z</time>
      </trkpt>
      <trkpt lat="48.5941" lon="-0.4221">
        <ele>222.68249511719</ele>
        <time>2013-07-17T14:18:46Z</time>
      </trkpt>
      <trkpt lat="48.5943" lon="-0.42217">
        <ele>222.20178222656</ele>
        <time>2013-07-17T14:18:50Z</time>
      </trkpt>
      <trkpt lat="48.59451" lon="-0.4223">
        <ele>221.72119140625</ele>
        <time>2013-07-17T14:18:54Z</time>
      </trkpt>
      <trkpt lat="48.59472" lon="-0.42244">
        <ele>221.72119140625</ele>
        <time>2013-07-17T14:18:58Z</time>
      </trkpt>
      <trkpt lat="48.59489" lon="-0.42257">
        <ele>222.20178222656</ele>
        <time>2013-07-17T14:19:01Z</time>
      </trkpt>
      <trkpt lat="48.59512" lon="-0.42269">
        <ele>222.68249511719</ele>
        <time>2013-07-17T14:19:06Z</time>
      </trkpt>
      <trkpt lat="48.59516" lon="-0.42272">
        <ele>222.68249511719</ele>
        <time>2013-07-17T14:19:07Z</time>
      </trkpt>
      <trkpt lat="48.59534" lon="-0.42282">
        <ele>223.16320800781</ele>
        <time>2013-07-17T14:19:12Z</time>
      </trkpt>
      <trkpt lat="48.5955" lon="-0.42295">
        <ele>223.64379882812</ele>
        <time>2013-07-17T14:19:17Z</time>
      </trkpt>
      <trkpt lat="48.59568" lon="-0.42303">
        <ele>224.60522460938</ele>
        <time>2013-07-17T14:19:22Z</time>
      </trkpt>
      <trkpt lat="48.59587" lon="-0.4231">
        <ele>225.0859375</ele>
        <time>2013-07-17T14:19:27Z</time>
      </trkpt>
      <trkpt lat="48.596" lon="-0.42308">
        <ele>224.60522460938</ele>
        <time>2013-07-17T14:19:30Z</time>
      </trkpt>
      <trkpt lat="48.5962" lon="-0.42307">
        <ele>225.0859375</ele>
        <time>2013-07-17T14:19:35Z</time>
      </trkpt>
      <trkpt lat="48.59631" lon="-0.42302">
        <ele>224.12451171875</ele>
        <time>2013-07-17T14:19:39Z</time>
      </trkpt>
      <trkpt lat="48.59635" lon="-0.42288">
        <ele>222.68249511719</ele>
        <time>2013-07-17T14:19:43Z</time>
      </trkpt>
      <trkpt lat="48.59636" lon="-0.42282">
        <ele>222.20178222656</ele>
        <time>2013-07-17T14:19:44Z</time>
      </trkpt>
      <trkpt lat="48.59652" lon="-0.42252">
        <ele>220.75988769531</ele>
        <time>2013-07-17T14:19:48Z</time>
      </trkpt>
      <trkpt lat="48.5967" lon="-0.42227">
        <ele>220.27917480469</ele>
        <time>2013-07-17T14:19:52Z</time>
      </trkpt>
      <trkpt lat="48.59681" lon="-0.4222">
        <ele>219.79858398438</ele>
        <time>2013-07-17T14:19:54Z</time>
      </trkpt>
      <trkpt lat="48.59721" lon="-0.42206">
        <ele>219.79858398438</ele>
        <time>2013-07-17T14:20:01Z</time>
      </trkpt>
      <trkpt lat="48.5974" lon="-0.42202">
        <ele>219.79858398438</ele>
        <time>2013-07-17T14:20:06Z</time>
      </trkpt>
      <trkpt lat="48.59753" lon="-0.42201">
        <ele>219.79858398438</ele>
        <time>2013-07-17T14:20:09Z</time>
      </trkpt>
      <trkpt lat="48.59783" lon="-0.42201">
        <ele>219.79858398438</ele>
        <time>2013-07-17T14:20:15Z</time>
      </trkpt>
      <trkpt lat="48.59802" lon="-0.42202">
        <ele>220.27917480469</ele>
        <time>2013-07-17T14:20:19Z</time>
      </trkpt>
      <trkpt lat="48.59824" lon="-0.42205">
        <ele>219.79858398438</ele>
        <time>2013-07-17T14:20:24Z</time>
      </trkpt>
      <trkpt lat="48.59843" lon="-0.42206">
        <ele>219.79858398438</ele>
        <time>2013-07-17T14:20:30Z</time>
      </trkpt>
      <trkpt lat="48.59859" lon="-0.42205">
        <ele>219.79858398438</ele>
        <time>2013-07-17T14:20:35Z</time>
      </trkpt>
      <trkpt lat="48.59883" lon="-0.42208">
        <ele>219.79858398438</ele>
        <time>2013-07-17T14:20:41Z</time>
      </trkpt>
      <trkpt lat="48.59902" lon="-0.42212">
        <ele>219.31799316406</ele>
        <time>2013-07-17T14:20:47Z</time>
      </trkpt>
      <trkpt lat="48.5992" lon="-0.42221">
        <ele>219.79858398438</ele>
        <time>2013-07-17T14:20:53Z</time>
      </trkpt>
      <trkpt lat="48.59949" lon="-0.42233">
        <ele>218.83728027344</ele>
        <time>2013-07-17T14:21:00Z</time>
      </trkpt>
      <trkpt lat="48.59959" lon="-0.42247">
        <ele>219.31799316406</ele>
        <time>2013-07-17T14:21:04Z</time>
      </trkpt>
      <trkpt lat="48.59964" lon="-0.42268">
        <ele>220.75988769531</ele>
        <time>2013-07-17T14:21:08Z</time>
      </trkpt>
      <trkpt lat="48.59973" lon="-0.42296">
        <ele>222.20178222656</ele>
        <time>2013-07-17T14:21:13Z</time>
      </trkpt>
      <trkpt lat="48.59988" lon="-0.42314">
        <ele>222.68249511719</ele>
        <time>2013-07-17T14:21:18Z</time>
      </trkpt>
      <trkpt lat="48.60007" lon="-0.42324">
        <ele>222.68249511719</ele>
        <time>2013-07-17T14:21:24Z</time>
      </trkpt>
      <trkpt lat="48.6002" lon="-0.42346">
        <ele>222.68249511719</ele>
        <time>2013-07-17T14:21:29Z</time>
      </trkpt>
      <trkpt lat="48.60032" lon="-0.42364">
        <ele>222.68249511719</ele>
        <time>2013-07-17T14:21:34Z</time>
      </trkpt>
      <trkpt lat="48.60049" lon="-0.4237">
        <ele>222.20178222656</ele>
        <time>2013-07-17T14:21:39Z</time>
      </trkpt>
      <trkpt lat="48.60062" lon="-0.42373">
        <ele>220.75988769531</ele>
        <time>2013-07-17T14:21:42Z</time>
      </trkpt>
      <trkpt lat="48.60071" lon="-0.42378">
        <ele>219.79858398438</ele>
        <time>2013-07-17T14:21:46Z</time>
      </trkpt>
      <trkpt lat="48.60073" lon="-0.42378">
        <ele>219.79858398438</ele>
        <time>2013-07-17T14:21:47Z</time>
      </trkpt>
      <trkpt lat="48.60084" lon="-0.42377">
        <ele>219.31799316406</ele>
        <time>2013-07-17T14:21:50Z</time>
      </trkpt>
      <trkpt lat="48.60098" lon="-0.4236">
        <ele>218.35656738281</ele>
        <time>2013-07-17T14:21:54Z</time>
      </trkpt>
      <trkpt lat="48.60106" lon="-0.42325">
        <ele>218.35656738281</ele>
        <time>2013-07-17T14:22:01Z</time>
      </trkpt>
      <trkpt lat="48.60121" lon="-0.42298">
        <ele>218.83728027344</ele>
        <time>2013-07-17T14:22:07Z</time>
      </trkpt>
      <trkpt lat="48.60127" lon="-0.42288">
        <ele>218.83728027344</ele>
        <time>2013-07-17T14:22:09Z</time>
      </trkpt>
      <trkpt lat="48.60134" lon="-0.4227">
        <ele>219.79858398438</ele>
        <time>2013-07-17T14:22:12Z</time>
      </trkpt>
      <trkpt lat="48.60147" lon="-0.42241">
        <ele>218.83728027344</ele>
        <time>2013-07-17T14:22:17Z</time>
      </trkpt>
      <trkpt lat="48.60157" lon="-0.42216">
        <ele>219.79858398438</ele>
        <time>2013-07-17T14:22:23Z</time>
      </trkpt>
      <trkpt lat="48.60157" lon="-0.42197">
        <ele>220.75988769531</ele>
        <time>2013-07-17T14:22:27Z</time>
      </trkpt>
      <trkpt lat="48.60151" lon="-0.42173">
        <ele>221.72119140625</ele>
        <time>2013-07-17T14:22:32Z</time>
      </trkpt>
      <trkpt lat="48.60149" lon="-0.4216">
        <ele>221.72119140625</ele>
        <time>2013-07-17T14:22:37Z</time>
      </trkpt>
      <trkpt lat="48.60148" lon="-0.42158">
        <ele>221.72119140625</ele>
        <time>2013-07-17T14:22:39Z</time>
      </trkpt>
      <trkpt lat="48.60142" lon="-0.42152">
        <ele>221.72119140625</ele>
        <time>2013-07-17T14:24:17Z</time>
      </trkpt>
      <trkpt lat="48.60141" lon="-0.42138">
        <ele>221.72119140625</ele>
        <time>2013-07-17T14:24:21Z</time>
      </trkpt>
      <trkpt lat="48.6014" lon="-0.42121">
        <ele>221.24060058594</ele>
        <time>2013-07-17T14:24:24Z</time>
      </trkpt>
      <trkpt lat="48.60136" lon="-0.42087">
        <ele>219.79858398438</ele>
        <time>2013-07-17T14:24:29Z</time>
      </trkpt>
      <trkpt lat="48.60135" lon="-0.42079">
        <ele>220.27917480469</ele>
        <time>2013-07-17T14:24:30Z</time>
      </trkpt>
      <trkpt lat="48.60127" lon="-0.4205">
        <ele>218.83728027344</ele>
        <time>2013-07-17T14:24:34Z</time>
      </trkpt>
      <trkpt lat="48.60126" lon="-0.42027">
        <ele>219.31799316406</ele>
        <time>2013-07-17T14:24:37Z</time>
      </trkpt>
      <trkpt lat="48.60122" lon="-0.41998">
        <ele>220.75988769531</ele>
        <time>2013-07-17T14:24:42Z</time>
      </trkpt>
      <trkpt lat="48.6012" lon="-0.4199">
        <ele>220.75988769531</ele>
        <time>2013-07-17T14:24:44Z</time>
      </trkpt>
      <trkpt lat="48.60115" lon="-0.41959">
        <ele>222.68249511719</ele>
        <time>2013-07-17T14:24:51Z</time>
      </trkpt>
      <trkpt lat="48.60111" lon="-0.41934">
        <ele>225.0859375</ele>
        <time>2013-07-17T14:24:57Z</time>
      </trkpt>
      <trkpt lat="48.6011" lon="-0.41913">
        <ele>226.04711914062</ele>
        <time>2013-07-17T14:25:01Z</time>
      </trkpt>
      <trkpt lat="48.60103" lon="-0.41882">
        <ele>227.48913574219</ele>
        <time>2013-07-17T14:25:08Z</time>
      </trkpt>
      <trkpt lat="48.60099" lon="-0.41861">
        <ele>227.9697265625</ele>
        <time>2013-07-17T14:25:14Z</time>
      </trkpt>
      <trkpt lat="48.60094" lon="-0.41844">
        <ele>227.9697265625</ele>
        <time>2013-07-17T14:25:18Z</time>
      </trkpt>
      <trkpt lat="48.60086" lon="-0.41815">
        <ele>228.45043945312</ele>
        <time>2013-07-17T14:25:24Z</time>
      </trkpt>
      <trkpt lat="48.60079" lon="-0.41776">
        <ele>228.45043945312</ele>
        <time>2013-07-17T14:25:30Z</time>
      </trkpt>
      <trkpt lat="48.60071" lon="-0.41726">
        <ele>228.45043945312</ele>
        <time>2013-07-17T14:25:38Z</time>
      </trkpt>
      <trkpt lat="48.60069" lon="-0.41702">
        <ele>228.93115234375</ele>
        <time>2013-07-17T14:25:42Z</time>
      </trkpt>
      <trkpt lat="48.60061" lon="-0.41651">
        <ele>229.41174316406</ele>
        <time>2013-07-17T14:25:50Z</time>
      </trkpt>
      <trkpt lat="48.60054" lon="-0.41602">
        <ele>230.85375976562</ele>
        <time>2013-07-17T14:25:58Z</time>
      </trkpt>
      <trkpt lat="48.60044" lon="-0.41541">
        <ele>231.81494140625</ele>
        <time>2013-07-17T14:26:08Z</time>
      </trkpt>
      <trkpt lat="48.60036" lon="-0.41494">
        <ele>232.77648925781</ele>
        <time>2013-07-17T14:26:16Z</time>
      </trkpt>
      <trkpt lat="48.6003" lon="-0.41453">
        <ele>233.25708007812</ele>
        <time>2013-07-17T14:26:23Z</time>
      </trkpt>
      <trkpt lat="48.60019" lon="-0.41393">
        <ele>232.77648925781</ele>
        <time>2013-07-17T14:26:32Z</time>
      </trkpt>
      <trkpt lat="48.60017" lon="-0.41387">
        <ele>232.77648925781</ele>
        <time>2013-07-17T14:26:33Z</time>
      </trkpt>
      <trkpt lat="48.60012" lon="-0.4135">
        <ele>233.25708007812</ele>
        <time>2013-07-17T14:26:39Z</time>
      </trkpt>
      <trkpt lat="48.60004" lon="-0.41305">
        <ele>233.73767089844</ele>
        <time>2013-07-17T14:26:46Z</time>
      </trkpt>
      <trkpt lat="48.59998" lon="-0.41267">
        <ele>234.69909667969</ele>
        <time>2013-07-17T14:26:52Z</time>
      </trkpt>
      <trkpt lat="48.59986" lon="-0.41203">
        <ele>235.66027832031</ele>
        <time>2013-07-17T14:27:02Z</time>
      </trkpt>
      <trkpt lat="48.59978" lon="-0.41159">
        <ele>235.66027832031</ele>
        <time>2013-07-17T14:27:10Z</time>
      </trkpt>
      <trkpt lat="48.59976" lon="-0.4115">
        <ele>235.1796875</ele>
        <time>2013-07-17T14:27:12Z</time>
      </trkpt>
      <trkpt lat="48.59967" lon="-0.41146">
        <ele>235.1796875</ele>
        <time>2013-07-17T14:27:16Z</time>
      </trkpt>
      <trkpt lat="48.59953" lon="-0.41151">
        <ele>235.66027832031</ele>
        <time>2013-07-17T14:27:21Z</time>
      </trkpt>
      <trkpt lat="48.59927" lon="-0.41155">
        <ele>235.66027832031</ele>
        <time>2013-07-17T14:27:28Z</time>
      </trkpt>
      <trkpt lat="48.59922" lon="-0.41155">
        <ele>235.66027832031</ele>
        <time>2013-07-17T14:27:29Z</time>
      </trkpt>
      <trkpt lat="48.59897" lon="-0.41155">
        <ele>236.14099121094</ele>
        <time>2013-07-17T14:27:35Z</time>
      </trkpt>
      <trkpt lat="48.59876" lon="-0.4116">
        <ele>235.1796875</ele>
        <time>2013-07-17T14:27:41Z</time>
      </trkpt>
      <trkpt lat="48.59852" lon="-0.41162">
        <ele>234.69909667969</ele>
        <time>2013-07-17T14:27:47Z</time>
      </trkpt>
      <trkpt lat="48.59829" lon="-0.41164">
        <ele>234.21838378906</ele>
        <time>2013-07-17T14:27:53Z</time>
      </trkpt>
      <trkpt lat="48.59813" lon="-0.41165">
        <ele>234.21838378906</ele>
        <time>2013-07-17T14:27:57Z</time>
      </trkpt>
      <trkpt lat="48.59788" lon="-0.41166">
        <ele>233.73767089844</ele>
        <time>2013-07-17T14:28:02Z</time>
      </trkpt>
      <trkpt lat="48.59769" lon="-0.41167">
        <ele>233.25708007812</ele>
        <time>2013-07-17T14:28:06Z</time>
      </trkpt>
      <trkpt lat="48.59752" lon="-0.4117">
        <ele>233.25708007812</ele>
        <time>2013-07-17T14:28:10Z</time>
      </trkpt>
      <trkpt lat="48.59721" lon="-0.41174">
        <ele>233.25708007812</ele>
        <time>2013-07-17T14:28:16Z</time>
      </trkpt>
      <trkpt lat="48.59697" lon="-0.41177">
        <ele>233.25708007812</ele>
        <time>2013-07-17T14:28:21Z</time>
      </trkpt>
      <trkpt lat="48.59687" lon="-0.41178">
        <ele>233.73767089844</ele>
        <time>2013-07-17T14:28:23Z</time>
      </trkpt>
      <trkpt lat="48.59659" lon="-0.41181">
        <ele>233.25708007812</ele>
        <time>2013-07-17T14:28:29Z</time>
      </trkpt>
      <trkpt lat="48.59632" lon="-0.41184">
        <ele>233.73767089844</ele>
        <time>2013-07-17T14:28:34Z</time>
      </trkpt>
      <trkpt lat="48.59604" lon="-0.41188">
        <ele>234.21838378906</ele>
        <time>2013-07-17T14:28:39Z</time>
      </trkpt>
      <trkpt lat="48.59581" lon="-0.41189">
        <ele>234.21838378906</ele>
        <time>2013-07-17T14:28:45Z</time>
      </trkpt>
      <trkpt lat="48.5957" lon="-0.41189">
        <ele>234.21838378906</ele>
        <time>2013-07-17T14:28:50Z</time>
      </trkpt>
      <trkpt lat="48.59555" lon="-0.4119">
        <ele>234.69909667969</ele>
        <time>2013-07-17T14:28:55Z</time>
      </trkpt>
      <trkpt lat="48.59542" lon="-0.41191">
        <ele>234.69909667969</ele>
        <time>2013-07-17T14:28:59Z</time>
      </trkpt>
      <trkpt lat="48.59529" lon="-0.41191">
        <ele>235.1796875</ele>
        <time>2013-07-17T14:29:03Z</time>
      </trkpt>
      <trkpt lat="48.59506" lon="-0.41193">
        <ele>235.1796875</ele>
        <time>2013-07-17T14:29:09Z</time>
      </trkpt>
      <trkpt lat="48.59483" lon="-0.41195">
        <ele>235.66027832031</ele>
        <time>2013-07-17T14:29:15Z</time>
      </trkpt>
      <trkpt lat="48.59462" lon="-0.41196">
        <ele>236.14099121094</ele>
        <time>2013-07-17T14:29:20Z</time>
      </trkpt>
      <trkpt lat="48.59443" lon="-0.41198">
        <ele>236.62170410156</ele>
        <time>2013-07-17T14:29:25Z</time>
      </trkpt>
      <trkpt lat="48.59425" lon="-0.41199">
        <ele>236.62170410156</ele>
        <time>2013-07-17T14:29:29Z</time>
      </trkpt>
      <trkpt lat="48.59398" lon="-0.41199">
        <ele>236.62170410156</ele>
        <time>2013-07-17T14:29:35Z</time>
      </trkpt>
      <trkpt lat="48.59373" lon="-0.41201">
        <ele>236.14099121094</ele>
        <time>2013-07-17T14:29:40Z</time>
      </trkpt>
      <trkpt lat="48.59348" lon="-0.41203">
        <ele>236.14099121094</ele>
        <time>2013-07-17T14:29:45Z</time>
      </trkpt>
      <trkpt lat="48.59343" lon="-0.41204">
        <ele>235.1796875</ele>
        <time>2013-07-17T14:29:46Z</time>
      </trkpt>
      <trkpt lat="48.59318" lon="-0.41207">
        <ele>235.1796875</ele>
        <time>2013-07-17T14:29:51Z</time>
      </trkpt>
      <trkpt lat="48.59291" lon="-0.41209">
        <ele>233.73767089844</ele>
        <time>2013-07-17T14:29:56Z</time>
      </trkpt>
      <trkpt lat="48.59261" lon="-0.4121">
        <ele>233.25708007812</ele>
        <time>2013-07-17T14:30:01Z</time>
      </trkpt>
      <trkpt lat="48.5923" lon="-0.41214">
        <ele>231.81494140625</ele>
        <time>2013-07-17T14:30:07Z</time>
      </trkpt>
      <trkpt lat="48.59193" lon="-0.41217">
        <ele>231.33435058594</ele>
        <time>2013-07-17T14:30:13Z</time>
      </trkpt>
      <trkpt lat="48.59159" lon="-0.41219">
        <ele>230.85375976562</ele>
        <time>2013-07-17T14:30:18Z</time>
      </trkpt>
      <trkpt lat="48.59127" lon="-0.41222">
        <ele>230.85375976562</ele>
        <time>2013-07-17T14:30:24Z</time>
      </trkpt>
      <trkpt lat="48.59115" lon="-0.41222">
        <ele>230.373046875</ele>
        <time>2013-07-17T14:30:27Z</time>
      </trkpt>
      <trkpt lat="48.59084" lon="-0.41225">
        <ele>229.41174316406</ele>
        <time>2013-07-17T14:30:33Z</time>
      </trkpt>
      <trkpt lat="48.59064" lon="-0.41227">
        <ele>228.93115234375</ele>
        <time>2013-07-17T14:30:37Z</time>
      </trkpt>
      <trkpt lat="48.59043" lon="-0.41232">
        <ele>227.9697265625</ele>
        <time>2013-07-17T14:30:41Z</time>
      </trkpt>
      <trkpt lat="48.59016" lon="-0.41234">
        <ele>226.04711914062</ele>
        <time>2013-07-17T14:30:45Z</time>
      </trkpt>
      <trkpt lat="48.5901" lon="-0.41236">
        <ele>226.04711914062</ele>
        <time>2013-07-17T14:30:46Z</time>
      </trkpt>
      <trkpt lat="48.58999" lon="-0.4124">
        <ele>225.56652832031</ele>
        <time>2013-07-17T14:30:48Z</time>
      </trkpt>
      <trkpt lat="48.58955" lon="-0.41243">
        <ele>224.12451171875</ele>
        <time>2013-07-17T14:30:55Z</time>
      </trkpt>
      <trkpt lat="48.58936" lon="-0.41246">
        <ele>223.16320800781</ele>
        <time>2013-07-17T14:30:58Z</time>
      </trkpt>
      <trkpt lat="48.58901" lon="-0.41267">
        <ele>219.79858398438</ele>
        <time>2013-07-17T14:31:03Z</time>
      </trkpt>
      <trkpt lat="48.58879" lon="-0.41277">
        <ele>218.35656738281</ele>
        <time>2013-07-17T14:31:06Z</time>
      </trkpt>
      <trkpt lat="48.58855" lon="-0.41267">
        <ele>217.39538574219</ele>
        <time>2013-07-17T14:31:10Z</time>
      </trkpt>
      <trkpt lat="48.58846" lon="-0.41255">
        <ele>217.39538574219</ele>
        <time>2013-07-17T14:31:12Z</time>
      </trkpt>
      <trkpt lat="48.58825" lon="-0.41221">
        <ele>217.39538574219</ele>
        <time>2013-07-17T14:31:18Z</time>
      </trkpt>
      <trkpt lat="48.58809" lon="-0.41196">
        <ele>217.39538574219</ele>
        <time>2013-07-17T14:31:24Z</time>
      </trkpt>
      <trkpt lat="48.58804" lon="-0.41188">
        <ele>217.39538574219</ele>
        <time>2013-07-17T14:31:26Z</time>
      </trkpt>
      <trkpt lat="48.58794" lon="-0.41174">
        <ele>216.91467285156</ele>
        <time>2013-07-17T14:31:29Z</time>
      </trkpt>
      <trkpt lat="48.58766" lon="-0.41135">
        <ele>216.91467285156</ele>
        <time>2013-07-17T14:31:38Z</time>
      </trkpt>
      <trkpt lat="48.58746" lon="-0.41103">
        <ele>215.47265625</ele>
        <time>2013-07-17T14:31:45Z</time>
      </trkpt>
      <trkpt lat="48.58725" lon="-0.41051">
        <ele>213.55004882812</ele>
        <time>2013-07-17T14:31:53Z</time>
      </trkpt>
      <trkpt lat="48.58708" lon="-0.41005">
        <ele>209.70483398438</ele>
        <time>2013-07-17T14:31:58Z</time>
      </trkpt>
      <trkpt lat="48.58702" lon="-0.40976">
        <ele>207.78210449219</ele>
        <time>2013-07-17T14:32:01Z</time>
      </trkpt>
      <trkpt lat="48.58707" lon="-0.40957">
        <ele>206.82067871094</ele>
        <time>2013-07-17T14:32:03Z</time>
      </trkpt>
      <trkpt lat="48.58715" lon="-0.40935">
        <ele>207.30139160156</ele>
        <time>2013-07-17T14:32:06Z</time>
      </trkpt>
      <trkpt lat="48.58709" lon="-0.40912">
        <ele>207.30139160156</ele>
        <time>2013-07-17T14:32:10Z</time>
      </trkpt>
      <trkpt lat="48.58701" lon="-0.40907">
        <ele>207.30139160156</ele>
        <time>2013-07-17T14:32:13Z</time>
      </trkpt>
      <trkpt lat="48.58696" lon="-0.40909">
        <ele>207.30139160156</ele>
        <time>2013-07-17T14:32:15Z</time>
      </trkpt>
      <trkpt lat="48.58684" lon="-0.40917">
        <ele>207.30139160156</ele>
        <time>2013-07-17T14:32:23Z</time>
      </trkpt>
      <trkpt lat="48.58675" lon="-0.40921">
        <ele>207.30139160156</ele>
        <time>2013-07-17T14:32:29Z</time>
      </trkpt>
      <trkpt lat="48.58657" lon="-0.40929">
        <ele>207.30139160156</ele>
        <time>2013-07-17T14:32:35Z</time>
      </trkpt>
      <trkpt lat="48.58643" lon="-0.40928">
        <ele>209.22412109375</ele>
        <time>2013-07-17T14:32:40Z</time>
      </trkpt>
      <trkpt lat="48.58631" lon="-0.40913">
        <ele>210.666015625</ele>
        <time>2013-07-17T14:32:45Z</time>
      </trkpt>
      <trkpt lat="48.58627" lon="-0.4089">
        <ele>212.10803222656</ele>
        <time>2013-07-17T14:32:50Z</time>
      </trkpt>
      <trkpt lat="48.5862" lon="-0.40865">
        <ele>213.0693359375</ele>
        <time>2013-07-17T14:32:56Z</time>
      </trkpt>
      <trkpt lat="48.58606" lon="-0.40846">
        <ele>213.55004882812</ele>
        <time>2013-07-17T14:33:02Z</time>
      </trkpt>
      <trkpt lat="48.586" lon="-0.4084">
        <ele>213.55004882812</ele>
        <time>2013-07-17T14:33:04Z</time>
      </trkpt>
      <trkpt lat="48.5857" lon="-0.40793">
        <ele>214.03063964844</ele>
        <time>2013-07-17T14:33:14Z</time>
      </trkpt>
      <trkpt lat="48.58548" lon="-0.40744">
        <ele>214.51123046875</ele>
        <time>2013-07-17T14:33:23Z</time>
      </trkpt>
      <trkpt lat="48.58527" lon="-0.40694">
        <ele>214.99194335938</ele>
        <time>2013-07-17T14:33:32Z</time>
      </trkpt>
      <trkpt lat="48.58514" lon="-0.40664">
        <ele>214.99194335938</ele>
        <time>2013-07-17T14:33:39Z</time>
      </trkpt>
      <trkpt lat="48.58505" lon="-0.40648">
        <ele>214.51123046875</ele>
        <time>2013-07-17T14:33:43Z</time>
      </trkpt>
      <trkpt lat="48.58488" lon="-0.40639">
        <ele>213.0693359375</ele>
        <time>2013-07-17T14:33:47Z</time>
      </trkpt>
      <trkpt lat="48.58473" lon="-0.40651">
        <ele>212.58862304688</ele>
        <time>2013-07-17T14:33:50Z</time>
      </trkpt>
      <trkpt lat="48.5844" lon="-0.40699">
        <ele>211.14672851562</ele>
        <time>2013-07-17T14:33:57Z</time>
      </trkpt>
      <trkpt lat="48.5842" lon="-0.40713">
        <ele>210.666015625</ele>
        <time>2013-07-17T14:34:01Z</time>
      </trkpt>
      <trkpt lat="48.58406" lon="-0.40707">
        <ele>212.10803222656</ele>
        <time>2013-07-17T14:34:04Z</time>
      </trkpt>
      <trkpt lat="48.58397" lon="-0.40696">
        <ele>212.10803222656</ele>
        <time>2013-07-17T14:34:07Z</time>
      </trkpt>
      <trkpt lat="48.58369" lon="-0.40665">
        <ele>214.03063964844</ele>
        <time>2013-07-17T14:34:16Z</time>
      </trkpt>
      <trkpt lat="48.58347" lon="-0.40641">
        <ele>215.47265625</ele>
        <time>2013-07-17T14:34:23Z</time>
      </trkpt>
      <trkpt lat="48.58324" lon="-0.40615">
        <ele>216.91467285156</ele>
        <time>2013-07-17T14:34:31Z</time>
      </trkpt>
      <trkpt lat="48.58299" lon="-0.40587">
        <ele>218.35656738281</ele>
        <time>2013-07-17T14:34:39Z</time>
      </trkpt>
      <trkpt lat="48.58283" lon="-0.40571">
        <ele>218.83728027344</ele>
        <time>2013-07-17T14:34:45Z</time>
      </trkpt>
      <trkpt lat="48.58264" lon="-0.40558">
        <ele>219.31799316406</ele>
        <time>2013-07-17T14:34:51Z</time>
      </trkpt>
      <trkpt lat="48.58243" lon="-0.40556">
        <ele>219.79858398438</ele>
        <time>2013-07-17T14:34:57Z</time>
      </trkpt>
      <trkpt lat="48.58231" lon="-0.40554">
        <ele>219.31799316406</ele>
        <time>2013-07-17T14:35:00Z</time>
      </trkpt>
      <trkpt lat="48.58198" lon="-0.40528">
        <ele>219.79858398438</ele>
        <time>2013-07-17T14:35:09Z</time>
      </trkpt>
      <trkpt lat="48.58177" lon="-0.40506">
        <ele>219.79858398438</ele>
        <time>2013-07-17T14:35:15Z</time>
      </trkpt>
      <trkpt lat="48.58152" lon="-0.40483">
        <ele>220.27917480469</ele>
        <time>2013-07-17T14:35:23Z</time>
      </trkpt>
      <trkpt lat="48.58143" lon="-0.40477">
        <ele>220.75988769531</ele>
        <time>2013-07-17T14:35:28Z</time>
      </trkpt>
      <trkpt lat="48.58126" lon="-0.40477">
        <ele>219.79858398438</ele>
        <time>2013-07-17T14:35:34Z</time>
      </trkpt>
      <trkpt lat="48.58107" lon="-0.40475">
        <ele>219.31799316406</ele>
        <time>2013-07-17T14:35:39Z</time>
      </trkpt>
      <trkpt lat="48.58086" lon="-0.40469">
        <ele>218.83728027344</ele>
        <time>2013-07-17T14:35:44Z</time>
      </trkpt>
      <trkpt lat="48.58077" lon="-0.40465">
        <ele>218.35656738281</ele>
        <time>2013-07-17T14:35:46Z</time>
      </trkpt>
      <trkpt lat="48.58055" lon="-0.40458">
        <ele>218.35656738281</ele>
        <time>2013-07-17T14:35:51Z</time>
      </trkpt>
      <trkpt lat="48.58046" lon="-0.40459">
        <ele>218.83728027344</ele>
        <time>2013-07-17T14:35:53Z</time>
      </trkpt>
      <trkpt lat="48.58042" lon="-0.4046">
        <ele>218.35656738281</ele>
        <time>2013-07-17T14:35:54Z</time>
      </trkpt>
      <trkpt lat="48.58012" lon="-0.40469">
        <ele>217.39538574219</ele>
        <time>2013-07-17T14:36:00Z</time>
      </trkpt>
      <trkpt lat="48.57995" lon="-0.40476">
        <ele>216.43395996094</ele>
        <time>2013-07-17T14:36:03Z</time>
      </trkpt>
      <trkpt lat="48.57978" lon="-0.40482">
        <ele>215.47265625</ele>
        <time>2013-07-17T14:36:06Z</time>
      </trkpt>
      <trkpt lat="48.57945" lon="-0.40492">
        <ele>214.99194335938</ele>
        <time>2013-07-17T14:36:11Z</time>
      </trkpt>
      <trkpt lat="48.5791" lon="-0.40499">
        <ele>213.55004882812</ele>
        <time>2013-07-17T14:36:16Z</time>
      </trkpt>
      <trkpt lat="48.57898" lon="-0.40503">
        <ele>213.55004882812</ele>
        <time>2013-07-17T14:36:18Z</time>
      </trkpt>
      <trkpt lat="48.5788" lon="-0.40509">
        <ele>212.58862304688</ele>
        <time>2013-07-17T14:36:21Z</time>
      </trkpt>
      <trkpt lat="48.57847" lon="-0.4052">
        <ele>212.58862304688</ele>
        <time>2013-07-17T14:36:27Z</time>
      </trkpt>
      <trkpt lat="48.5782" lon="-0.40531">
        <ele>212.10803222656</ele>
        <time>2013-07-17T14:36:32Z</time>
      </trkpt>
      <trkpt lat="48.57782" lon="-0.40542">
        <ele>212.10803222656</ele>
        <time>2013-07-17T14:36:38Z</time>
      </trkpt>
      <trkpt lat="48.57758" lon="-0.40549">
        <ele>213.0693359375</ele>
        <time>2013-07-17T14:36:42Z</time>
      </trkpt>
      <trkpt lat="48.57747" lon="-0.40553">
        <ele>213.0693359375</ele>
        <time>2013-07-17T14:36:44Z</time>
      </trkpt>
      <trkpt lat="48.57731" lon="-0.40554">
        <ele>213.55004882812</ele>
        <time>2013-07-17T14:36:48Z</time>
      </trkpt>
      <trkpt lat="48.57726" lon="-0.40546">
        <ele>213.0693359375</ele>
        <time>2013-07-17T14:36:52Z</time>
      </trkpt>
      <trkpt lat="48.57722" lon="-0.40531">
        <ele>213.55004882812</ele>
        <time>2013-07-17T14:36:56Z</time>
      </trkpt>
      <trkpt lat="48.57711" lon="-0.40511">
        <ele>213.55004882812</ele>
        <time>2013-07-17T14:37:02Z</time>
      </trkpt>
      <trkpt lat="48.57699" lon="-0.4049">
        <ele>213.55004882812</ele>
        <time>2013-07-17T14:37:06Z</time>
      </trkpt>
      <trkpt lat="48.57677" lon="-0.40451">
        <ele>212.10803222656</ele>
        <time>2013-07-17T14:37:12Z</time>
      </trkpt>
      <trkpt lat="48.5765" lon="-0.40403">
        <ele>211.14672851562</ele>
        <time>2013-07-17T14:37:18Z</time>
      </trkpt>
      <trkpt lat="48.57625" lon="-0.40355">
        <ele>209.70483398438</ele>
        <time>2013-07-17T14:37:24Z</time>
      </trkpt>
      <trkpt lat="48.57597" lon="-0.40305">
        <ele>209.22412109375</ele>
        <time>2013-07-17T14:37:31Z</time>
      </trkpt>
      <trkpt lat="48.57568" lon="-0.40248">
        <ele>208.26281738281</ele>
        <time>2013-07-17T14:37:39Z</time>
      </trkpt>
      <trkpt lat="48.57545" lon="-0.40207">
        <ele>209.22412109375</ele>
        <time>2013-07-17T14:37:45Z</time>
      </trkpt>
      <trkpt lat="48.57532" lon="-0.40182">
        <ele>209.70483398438</ele>
        <time>2013-07-17T14:37:50Z</time>
      </trkpt>
      <trkpt lat="48.57518" lon="-0.40155">
        <ele>209.70483398438</ele>
        <time>2013-07-17T14:37:56Z</time>
      </trkpt>
      <trkpt lat="48.57512" lon="-0.40143">
        <ele>210.666015625</ele>
        <time>2013-07-17T14:38:00Z</time>
      </trkpt>
      <trkpt lat="48.57512" lon="-0.40143">
        <ele>210.18542480469</ele>
        <time>2013-07-17T14:38:01Z</time>
      </trkpt>
      <trkpt lat="48.57512" lon="-0.4014">
        <ele>209.70483398438</ele>
        <time>2013-07-17T14:38:26Z</time>
      </trkpt>
      <trkpt lat="48.57513" lon="-0.40145">
        <ele>209.70483398438</ele>
        <time>2013-07-17T14:38:28Z</time>
      </trkpt>
      <trkpt lat="48.57522" lon="-0.40162">
        <ele>209.22412109375</ele>
        <time>2013-07-17T14:38:34Z</time>
      </trkpt>
      <trkpt lat="48.57528" lon="-0.40175">
        <ele>209.22412109375</ele>
        <time>2013-07-17T14:38:37Z</time>
      </trkpt>
      <trkpt lat="48.57533" lon="-0.40187">
        <ele>208.74340820312</ele>
        <time>2013-07-17T14:38:40Z</time>
      </trkpt>
      <trkpt lat="48.57544" lon="-0.40211">
        <ele>208.26281738281</ele>
        <time>2013-07-17T14:38:44Z</time>
      </trkpt>
      <trkpt lat="48.57557" lon="-0.40227">
        <ele>208.74340820312</ele>
        <time>2013-07-17T14:38:48Z</time>
      </trkpt>
      <trkpt lat="48.57572" lon="-0.40214">
        <ele>208.74340820312</ele>
        <time>2013-07-17T14:38:54Z</time>
      </trkpt>
      <trkpt lat="48.57592" lon="-0.40192">
        <ele>210.18542480469</ele>
        <time>2013-07-17T14:39:01Z</time>
      </trkpt>
      <trkpt lat="48.57605" lon="-0.40179">
        <ele>210.666015625</ele>
        <time>2013-07-17T14:39:06Z</time>
      </trkpt>
      <trkpt lat="48.57618" lon="-0.40165">
        <ele>212.10803222656</ele>
        <time>2013-07-17T14:39:11Z</time>
      </trkpt>
      <trkpt lat="48.57637" lon="-0.4014">
        <ele>213.0693359375</ele>
        <time>2013-07-17T14:39:19Z</time>
      </trkpt>
      <trkpt lat="48.57652" lon="-0.40123">
        <ele>213.55004882812</ele>
        <time>2013-07-17T14:39:25Z</time>
      </trkpt>
      <trkpt lat="48.57665" lon="-0.40107">
        <ele>214.99194335938</ele>
        <time>2013-07-17T14:39:31Z</time>
      </trkpt>
      <trkpt lat="48.57681" lon="-0.40089">
        <ele>215.95324707031</ele>
        <time>2013-07-17T14:39:38Z</time>
      </trkpt>
      <trkpt lat="48.57693" lon="-0.40075">
        <ele>217.39538574219</ele>
        <time>2013-07-17T14:39:44Z</time>
      </trkpt>
      <trkpt lat="48.57707" lon="-0.40059">
        <ele>218.35656738281</ele>
        <time>2013-07-17T14:39:51Z</time>
      </trkpt>
      <trkpt lat="48.57711" lon="-0.40054">
        <ele>218.35656738281</ele>
        <time>2013-07-17T14:39:55Z</time>
      </trkpt>
      <trkpt lat="48.57718" lon="-0.40054">
        <ele>218.83728027344</ele>
        <time>2013-07-17T14:40:57Z</time>
      </trkpt>
      <trkpt lat="48.57717" lon="-0.40055">
        <ele>217.39538574219</ele>
        <time>2013-07-17T14:40:58Z</time>
      </trkpt>
      <trkpt lat="48.57715" lon="-0.40057">
        <ele>221.72119140625</ele>
        <time>2013-07-17T14:40:59Z</time>
      </trkpt>
      <trkpt lat="48.57715" lon="-0.40057">
        <ele>216.91467285156</ele>
        <time>2013-07-17T14:41:00Z</time>
      </trkpt>
      <trkpt lat="48.57716" lon="-0.40053">
        <ele>219.31799316406</ele>
        <time>2013-07-17T14:41:11Z</time>
      </trkpt>
      <trkpt lat="48.57719" lon="-0.40048">
        <ele>220.27917480469</ele>
        <time>2013-07-17T14:41:13Z</time>
      </trkpt>
      <trkpt lat="48.57733" lon="-0.40033">
        <ele>221.72119140625</ele>
        <time>2013-07-17T14:41:20Z</time>
      </trkpt>
      <trkpt lat="48.57745" lon="-0.40019">
        <ele>222.20178222656</ele>
        <time>2013-07-17T14:41:26Z</time>
      </trkpt>
      <trkpt lat="48.57758" lon="-0.40003">
        <ele>223.64379882812</ele>
        <time>2013-07-17T14:41:32Z</time>
      </trkpt>
      <trkpt lat="48.57772" lon="-0.39985">
        <ele>224.12451171875</ele>
        <time>2013-07-17T14:41:39Z</time>
      </trkpt>
      <trkpt lat="48.57786" lon="-0.39967">
        <ele>226.04711914062</ele>
        <time>2013-07-17T14:41:46Z</time>
      </trkpt>
      <trkpt lat="48.57801" lon="-0.39947">
        <ele>227.00854492188</ele>
        <time>2013-07-17T14:41:54Z</time>
      </trkpt>
      <trkpt lat="48.57821" lon="-0.39922">
        <ele>227.9697265625</ele>
        <time>2013-07-17T14:42:04Z</time>
      </trkpt>
      <trkpt lat="48.57828" lon="-0.39913">
        <ele>228.45043945312</ele>
        <time>2013-07-17T14:42:09Z</time>
      </trkpt>
      <trkpt lat="48.57836" lon="-0.39902">
        <ele>229.41174316406</ele>
        <time>2013-07-17T14:42:14Z</time>
      </trkpt>
      <trkpt lat="48.5785" lon="-0.39887">
        <ele>230.373046875</ele>
        <time>2013-07-17T14:42:21Z</time>
      </trkpt>
      <trkpt lat="48.57862" lon="-0.3987">
        <ele>231.33435058594</ele>
        <time>2013-07-17T14:42:29Z</time>
      </trkpt>
      <trkpt lat="48.57872" lon="-0.39858">
        <ele>232.29577636719</ele>
        <time>2013-07-17T14:42:36Z</time>
      </trkpt>
      <trkpt lat="48.57882" lon="-0.39852">
        <ele>235.1796875</ele>
        <time>2013-07-17T14:42:44Z</time>
      </trkpt>
      <trkpt lat="48.57883" lon="-0.3985">
        <ele>235.1796875</ele>
        <time>2013-07-17T14:42:47Z</time>
      </trkpt>
      <trkpt lat="48.57886" lon="-0.39848">
        <ele>235.66027832031</ele>
        <time>2013-07-17T14:42:53Z</time>
      </trkpt>
      <trkpt lat="48.5789" lon="-0.39842">
        <ele>237.10229492188</ele>
        <time>2013-07-17T14:43:00Z</time>
      </trkpt>
      <trkpt lat="48.57893" lon="-0.39835">
        <ele>238.54431152344</ele>
        <time>2013-07-17T14:43:07Z</time>
      </trkpt>
      <trkpt lat="48.57893" lon="-0.39832">
        <ele>239.02490234375</ele>
        <time>2013-07-17T14:43:11Z</time>
      </trkpt>
      <trkpt lat="48.57893" lon="-0.39831">
        <ele>239.50549316406</ele>
        <time>2013-07-17T14:43:16Z</time>
      </trkpt>
      <trkpt lat="48.57899" lon="-0.39825">
        <ele>239.98620605469</ele>
        <time>2013-07-17T14:43:22Z</time>
      </trkpt>
      <trkpt lat="48.57903" lon="-0.39819">
        <ele>240.94763183594</ele>
        <time>2013-07-17T14:43:29Z</time>
      </trkpt>
      <trkpt lat="48.57904" lon="-0.39818">
        <ele>240.46704101562</ele>
        <time>2013-07-17T14:43:51Z</time>
      </trkpt>
      <trkpt lat="48.57905" lon="-0.39818">
        <ele>240.46704101562</ele>
        <time>2013-07-17T14:43:52Z</time>
      </trkpt>
      <trkpt lat="48.57905" lon="-0.39818">
        <ele>239.98620605469</ele>
        <time>2013-07-17T14:43:53Z</time>
      </trkpt>
      <trkpt lat="48.57906" lon="-0.39817">
        <ele>240.46704101562</ele>
        <time>2013-07-17T14:43:57Z</time>
      </trkpt>
      <trkpt lat="48.57906" lon="-0.39816">
        <ele>240.46704101562</ele>
        <time>2013-07-17T14:43:58Z</time>
      </trkpt>
      <trkpt lat="48.57907" lon="-0.39811">
        <ele>240.46704101562</ele>
        <time>2013-07-17T14:44:00Z</time>
      </trkpt>
      <trkpt lat="48.57903" lon="-0.39793">
        <ele>239.50549316406</ele>
        <time>2013-07-17T14:44:07Z</time>
      </trkpt>
      <trkpt lat="48.57892" lon="-0.39773">
        <ele>239.50549316406</ele>
        <time>2013-07-17T14:44:13Z</time>
      </trkpt>
      <trkpt lat="48.57883" lon="-0.39754">
        <ele>238.06359863281</ele>
        <time>2013-07-17T14:44:18Z</time>
      </trkpt>
      <trkpt lat="48.57874" lon="-0.39732">
        <ele>238.06359863281</ele>
        <time>2013-07-17T14:44:23Z</time>
      </trkpt>
      <trkpt lat="48.57863" lon="-0.39709">
        <ele>238.06359863281</ele>
        <time>2013-07-17T14:44:29Z</time>
      </trkpt>
      <trkpt lat="48.57853" lon="-0.39691">
        <ele>238.06359863281</ele>
        <time>2013-07-17T14:44:33Z</time>
      </trkpt>
      <trkpt lat="48.57845" lon="-0.39667">
        <ele>238.06359863281</ele>
        <time>2013-07-17T14:44:38Z</time>
      </trkpt>
      <trkpt lat="48.57842" lon="-0.39645">
        <ele>238.54431152344</ele>
        <time>2013-07-17T14:44:42Z</time>
      </trkpt>
      <trkpt lat="48.5784" lon="-0.39617">
        <ele>239.50549316406</ele>
        <time>2013-07-17T14:44:47Z</time>
      </trkpt>
      <trkpt lat="48.57834" lon="-0.39589">
        <ele>239.98620605469</ele>
        <time>2013-07-17T14:44:52Z</time>
      </trkpt>
      <trkpt lat="48.57825" lon="-0.39558">
        <ele>240.94763183594</ele>
        <time>2013-07-17T14:44:58Z</time>
      </trkpt>
      <trkpt lat="48.57811" lon="-0.39536">
        <ele>241.90893554688</ele>
        <time>2013-07-17T14:45:03Z</time>
      </trkpt>
      <trkpt lat="48.57797" lon="-0.39524">
        <ele>242.3896484375</ele>
        <time>2013-07-17T14:45:07Z</time>
      </trkpt>
      <trkpt lat="48.57788" lon="-0.39518">
        <ele>241.90893554688</ele>
        <time>2013-07-17T14:45:10Z</time>
      </trkpt>
      <trkpt lat="48.57781" lon="-0.3951">
        <ele>241.90893554688</ele>
        <time>2013-07-17T14:45:14Z</time>
      </trkpt>
      <trkpt lat="48.57767" lon="-0.39488">
        <ele>239.98620605469</ele>
        <time>2013-07-17T14:45:20Z</time>
      </trkpt>
      <trkpt lat="48.57758" lon="-0.39465">
        <ele>240.46704101562</ele>
        <time>2013-07-17T14:45:25Z</time>
      </trkpt>
      <trkpt lat="48.57745" lon="-0.39435">
        <ele>242.87023925781</ele>
        <time>2013-07-17T14:45:32Z</time>
      </trkpt>
      <trkpt lat="48.57737" lon="-0.39414">
        <ele>241.90893554688</ele>
        <time>2013-07-17T14:45:37Z</time>
      </trkpt>
      <trkpt lat="48.57729" lon="-0.3938">
        <ele>241.42822265625</ele>
        <time>2013-07-17T14:45:43Z</time>
      </trkpt>
      <trkpt lat="48.57721" lon="-0.39356">
        <ele>241.42822265625</ele>
        <time>2013-07-17T14:45:47Z</time>
      </trkpt>
      <trkpt lat="48.57714" lon="-0.39333">
        <ele>242.3896484375</ele>
        <time>2013-07-17T14:45:52Z</time>
      </trkpt>
      <trkpt lat="48.57705" lon="-0.3931">
        <ele>241.42822265625</ele>
        <time>2013-07-17T14:45:57Z</time>
      </trkpt>
      <trkpt lat="48.57696" lon="-0.39279">
        <ele>239.98620605469</ele>
        <time>2013-07-17T14:46:02Z</time>
      </trkpt>
      <trkpt lat="48.57692" lon="-0.39265">
        <ele>239.02490234375</ele>
        <time>2013-07-17T14:46:05Z</time>
      </trkpt>
      <trkpt lat="48.57679" lon="-0.39241">
        <ele>235.66027832031</ele>
        <time>2013-07-17T14:46:10Z</time>
      </trkpt>
      <trkpt lat="48.57672" lon="-0.39224">
        <ele>234.21838378906</ele>
        <time>2013-07-17T14:46:13Z</time>
      </trkpt>
      <trkpt lat="48.57668" lon="-0.39216">
        <ele>232.77648925781</ele>
        <time>2013-07-17T14:46:15Z</time>
      </trkpt>
      <trkpt lat="48.57663" lon="-0.39225">
        <ele>230.85375976562</ele>
        <time>2013-07-17T14:46:19Z</time>
      </trkpt>
      <trkpt lat="48.57662" lon="-0.39247">
        <ele>230.85375976562</ele>
        <time>2013-07-17T14:46:23Z</time>
      </trkpt>
      <trkpt lat="48.57658" lon="-0.39281">
        <ele>230.85375976562</ele>
        <time>2013-07-17T14:46:29Z</time>
      </trkpt>
      <trkpt lat="48.57654" lon="-0.39314">
        <ele>230.85375976562</ele>
        <time>2013-07-17T14:46:35Z</time>
      </trkpt>
      <trkpt lat="48.57654" lon="-0.39338">
        <ele>229.89233398438</ele>
        <time>2013-07-17T14:46:39Z</time>
      </trkpt>
      <trkpt lat="48.57654" lon="-0.39344">
        <ele>229.89233398438</ele>
        <time>2013-07-17T14:46:40Z</time>
      </trkpt>
      <trkpt lat="48.57658" lon="-0.39383">
        <ele>229.41174316406</ele>
        <time>2013-07-17T14:46:45Z</time>
      </trkpt>
      <trkpt lat="48.57669" lon="-0.3943">
        <ele>228.45043945312</ele>
        <time>2013-07-17T14:46:51Z</time>
      </trkpt>
      <trkpt lat="48.57671" lon="-0.39438">
        <ele>227.9697265625</ele>
        <time>2013-07-17T14:46:52Z</time>
      </trkpt>
      <trkpt lat="48.57681" lon="-0.39475">
        <ele>227.00854492188</ele>
        <time>2013-07-17T14:46:58Z</time>
      </trkpt>
      <trkpt lat="48.57685" lon="-0.39503">
        <ele>226.04711914062</ele>
        <time>2013-07-17T14:47:02Z</time>
      </trkpt>
      <trkpt lat="48.57691" lon="-0.3954">
        <ele>225.56652832031</ele>
        <time>2013-07-17T14:47:07Z</time>
      </trkpt>
      <trkpt lat="48.57697" lon="-0.39574">
        <ele>225.56652832031</ele>
        <time>2013-07-17T14:47:12Z</time>
      </trkpt>
      <trkpt lat="48.57706" lon="-0.39585">
        <ele>225.0859375</ele>
        <time>2013-07-17T14:47:14Z</time>
      </trkpt>
      <trkpt lat="48.57722" lon="-0.39603">
        <ele>226.04711914062</ele>
        <time>2013-07-17T14:47:18Z</time>
      </trkpt>
      <trkpt lat="48.5773" lon="-0.39627">
        <ele>226.52783203125</ele>
        <time>2013-07-17T14:47:24Z</time>
      </trkpt>
      <trkpt lat="48.57743" lon="-0.39654">
        <ele>227.00854492188</ele>
        <time>2013-07-17T14:47:29Z</time>
      </trkpt>
      <trkpt lat="48.57751" lon="-0.39673">
        <ele>227.48913574219</ele>
        <time>2013-07-17T14:47:33Z</time>
      </trkpt>
      <trkpt lat="48.57759" lon="-0.39704">
        <ele>227.9697265625</ele>
        <time>2013-07-17T14:47:38Z</time>
      </trkpt>
      <trkpt lat="48.57774" lon="-0.39742">
        <ele>228.45043945312</ele>
        <time>2013-07-17T14:47:44Z</time>
      </trkpt>
      <trkpt lat="48.57786" lon="-0.39754">
        <ele>228.93115234375</ele>
        <time>2013-07-17T14:47:47Z</time>
      </trkpt>
      <trkpt lat="48.57803" lon="-0.39778">
        <ele>229.89233398438</ele>
        <time>2013-07-17T14:47:55Z</time>
      </trkpt>
      <trkpt lat="48.57822" lon="-0.39799">
        <ele>230.85375976562</ele>
        <time>2013-07-17T14:48:01Z</time>
      </trkpt>
      <trkpt lat="48.57825" lon="-0.39802">
        <ele>230.85375976562</ele>
        <time>2013-07-17T14:48:02Z</time>
      </trkpt>
      <trkpt lat="48.57837" lon="-0.39815">
        <ele>231.33435058594</ele>
        <time>2013-07-17T14:48:08Z</time>
      </trkpt>
      <trkpt lat="48.57841" lon="-0.39828">
        <ele>231.33435058594</ele>
        <time>2013-07-17T14:48:12Z</time>
      </trkpt>
      <trkpt lat="48.57851" lon="-0.39848">
        <ele>231.81494140625</ele>
        <time>2013-07-17T14:48:17Z</time>
      </trkpt>
      <trkpt lat="48.57855" lon="-0.39866">
        <ele>231.81494140625</ele>
        <time>2013-07-17T14:48:22Z</time>
      </trkpt>
      <trkpt lat="48.57848" lon="-0.39881">
        <ele>230.373046875</ele>
        <time>2013-07-17T14:48:27Z</time>
      </trkpt>
      <trkpt lat="48.57845" lon="-0.39884">
        <ele>230.373046875</ele>
        <time>2013-07-17T14:48:28Z</time>
      </trkpt>
      <trkpt lat="48.57836" lon="-0.39897">
        <ele>229.89233398438</ele>
        <time>2013-07-17T14:48:31Z</time>
      </trkpt>
      <trkpt lat="48.57814" lon="-0.39924">
        <ele>228.45043945312</ele>
        <time>2013-07-17T14:48:36Z</time>
      </trkpt>
      <trkpt lat="48.57809" lon="-0.3993">
        <ele>227.9697265625</ele>
        <time>2013-07-17T14:48:37Z</time>
      </trkpt>
      <trkpt lat="48.57779" lon="-0.39969">
        <ele>226.04711914062</ele>
        <time>2013-07-17T14:48:43Z</time>
      </trkpt>
      <trkpt lat="48.57745" lon="-0.40009">
        <ele>223.16320800781</ele>
        <time>2013-07-17T14:48:49Z</time>
      </trkpt>
      <trkpt lat="48.57728" lon="-0.40032">
        <ele>221.24060058594</ele>
        <time>2013-07-17T14:48:52Z</time>
      </trkpt>
      <trkpt lat="48.57714" lon="-0.40048">
        <ele>220.75988769531</ele>
        <time>2013-07-17T14:48:54Z</time>
      </trkpt>
      <trkpt lat="48.57681" lon="-0.40087">
        <ele>217.8759765625</ele>
        <time>2013-07-17T14:48:59Z</time>
      </trkpt>
      <trkpt lat="48.57674" lon="-0.40095">
        <ele>217.39538574219</ele>
        <time>2013-07-17T14:49:00Z</time>
      </trkpt>
      <trkpt lat="48.57659" lon="-0.40112">
        <ele>216.43395996094</ele>
        <time>2013-07-17T14:49:02Z</time>
      </trkpt>
      <trkpt lat="48.57629" lon="-0.40148">
        <ele>214.03063964844</ele>
        <time>2013-07-17T14:49:06Z</time>
      </trkpt>
      <trkpt lat="48.57598" lon="-0.40192">
        <ele>212.10803222656</ele>
        <time>2013-07-17T14:49:11Z</time>
      </trkpt>
      <trkpt lat="48.57568" lon="-0.40229">
        <ele>210.18542480469</ele>
        <time>2013-07-17T14:49:16Z</time>
      </trkpt>
      <trkpt lat="48.57563" lon="-0.40235">
        <ele>210.18542480469</ele>
        <time>2013-07-17T14:49:17Z</time>
      </trkpt>
      <trkpt lat="48.57553" lon="-0.40231">
        <ele>210.18542480469</ele>
        <time>2013-07-17T14:49:20Z</time>
      </trkpt>
      <trkpt lat="48.57544" lon="-0.40204">
        <ele>210.666015625</ele>
        <time>2013-07-17T14:49:26Z</time>
      </trkpt>
      <trkpt lat="48.57526" lon="-0.40167">
        <ele>210.666015625</ele>
        <time>2013-07-17T14:49:33Z</time>
      </trkpt>
      <trkpt lat="48.57512" lon="-0.40142">
        <ele>211.14672851562</ele>
        <time>2013-07-17T14:49:37Z</time>
      </trkpt>
      <trkpt lat="48.57481" lon="-0.40086">
        <ele>210.666015625</ele>
        <time>2013-07-17T14:49:45Z</time>
      </trkpt>
      <trkpt lat="48.57455" lon="-0.40038">
        <ele>210.18542480469</ele>
        <time>2013-07-17T14:49:52Z</time>
      </trkpt>
      <trkpt lat="48.57426" lon="-0.39984">
        <ele>209.22412109375</ele>
        <time>2013-07-17T14:50:00Z</time>
      </trkpt>
      <trkpt lat="48.57405" lon="-0.39945">
        <ele>208.26281738281</ele>
        <time>2013-07-17T14:50:06Z</time>
      </trkpt>
      <trkpt lat="48.57392" lon="-0.39921">
        <ele>207.30139160156</ele>
        <time>2013-07-17T14:50:10Z</time>
      </trkpt>
      <trkpt lat="48.57372" lon="-0.39882">
        <ele>206.34008789062</ele>
        <time>2013-07-17T14:50:15Z</time>
      </trkpt>
      <trkpt lat="48.57359" lon="-0.39859">
        <ele>205.85949707031</ele>
        <time>2013-07-17T14:50:18Z</time>
      </trkpt>
      <trkpt lat="48.57349" lon="-0.39842">
        <ele>205.37878417969</ele>
        <time>2013-07-17T14:50:20Z</time>
      </trkpt>
      <trkpt lat="48.57315" lon="-0.39778">
        <ele>204.89807128906</ele>
        <time>2013-07-17T14:50:27Z</time>
      </trkpt>
      <trkpt lat="48.57288" lon="-0.39725">
        <ele>204.41748046875</ele>
        <time>2013-07-17T14:50:33Z</time>
      </trkpt>
      <trkpt lat="48.57269" lon="-0.3969">
        <ele>203.93688964844</ele>
        <time>2013-07-17T14:50:37Z</time>
      </trkpt>
      <trkpt lat="48.57243" lon="-0.39642">
        <ele>203.93688964844</ele>
        <time>2013-07-17T14:50:43Z</time>
      </trkpt>
      <trkpt lat="48.57228" lon="-0.39612">
        <ele>202.97546386719</ele>
        <time>2013-07-17T14:50:47Z</time>
      </trkpt>
      <trkpt lat="48.57208" lon="-0.39601">
        <ele>202.49487304688</ele>
        <time>2013-07-17T14:50:51Z</time>
      </trkpt>
      <trkpt lat="48.57197" lon="-0.39614">
        <ele>202.97546386719</ele>
        <time>2013-07-17T14:50:54Z</time>
      </trkpt>
      <trkpt lat="48.57194" lon="-0.39618">
        <ele>202.97546386719</ele>
        <time>2013-07-17T14:50:55Z</time>
      </trkpt>
      <trkpt lat="48.57177" lon="-0.39632">
        <ele>203.93688964844</ele>
        <time>2013-07-17T14:51:00Z</time>
      </trkpt>
      <trkpt lat="48.57161" lon="-0.39645">
        <ele>204.41748046875</ele>
        <time>2013-07-17T14:51:05Z</time>
      </trkpt>
      <trkpt lat="48.57142" lon="-0.39658">
        <ele>205.37878417969</ele>
        <time>2013-07-17T14:51:10Z</time>
      </trkpt>
      <trkpt lat="48.5713" lon="-0.39672">
        <ele>205.37878417969</ele>
        <time>2013-07-17T14:51:14Z</time>
      </trkpt>
      <trkpt lat="48.57125" lon="-0.39691">
        <ele>206.34008789062</ele>
        <time>2013-07-17T14:51:18Z</time>
      </trkpt>
      <trkpt lat="48.57124" lon="-0.39722">
        <ele>207.30139160156</ele>
        <time>2013-07-17T14:51:23Z</time>
      </trkpt>
      <trkpt lat="48.57118" lon="-0.39764">
        <ele>207.30139160156</ele>
        <time>2013-07-17T14:51:30Z</time>
      </trkpt>
      <trkpt lat="48.57111" lon="-0.39791">
        <ele>207.78210449219</ele>
        <time>2013-07-17T14:51:34Z</time>
      </trkpt>
      <trkpt lat="48.57102" lon="-0.39827">
        <ele>206.82067871094</ele>
        <time>2013-07-17T14:51:40Z</time>
      </trkpt>
      <trkpt lat="48.57099" lon="-0.39841">
        <ele>206.82067871094</ele>
        <time>2013-07-17T14:51:42Z</time>
      </trkpt>
      <trkpt lat="48.57091" lon="-0.39877">
        <ele>206.34008789062</ele>
        <time>2013-07-17T14:51:47Z</time>
      </trkpt>
      <trkpt lat="48.57088" lon="-0.39889">
        <ele>205.85949707031</ele>
        <time>2013-07-17T14:51:49Z</time>
      </trkpt>
      <trkpt lat="48.57071" lon="-0.39931">
        <ele>204.89807128906</ele>
        <time>2013-07-17T14:51:56Z</time>
      </trkpt>
      <trkpt lat="48.57062" lon="-0.39936">
        <ele>205.37878417969</ele>
        <time>2013-07-17T14:51:59Z</time>
      </trkpt>
      <trkpt lat="48.57051" lon="-0.39932">
        <ele>204.41748046875</ele>
        <time>2013-07-17T14:52:03Z</time>
      </trkpt>
      <trkpt lat="48.5704" lon="-0.39949">
        <ele>204.41748046875</ele>
        <time>2013-07-17T14:52:07Z</time>
      </trkpt>
      <trkpt lat="48.57025" lon="-0.39979">
        <ele>203.45617675781</ele>
        <time>2013-07-17T14:52:12Z</time>
      </trkpt>
      <trkpt lat="48.57017" lon="-0.39999">
        <ele>202.97546386719</ele>
        <time>2013-07-17T14:52:15Z</time>
      </trkpt>
      <trkpt lat="48.57009" lon="-0.40016">
        <ele>202.97546386719</ele>
        <time>2013-07-17T14:52:18Z</time>
      </trkpt>
      <trkpt lat="48.56987" lon="-0.40052">
        <ele>201.05285644531</ele>
        <time>2013-07-17T14:52:25Z</time>
      </trkpt>
      <trkpt lat="48.56965" lon="-0.40085">
        <ele>200.572265625</ele>
        <time>2013-07-17T14:52:31Z</time>
      </trkpt>
      <trkpt lat="48.56958" lon="-0.40096">
        <ele>200.09167480469</ele>
        <time>2013-07-17T14:52:33Z</time>
      </trkpt>
      <trkpt lat="48.56943" lon="-0.4012">
        <ele>199.61083984375</ele>
        <time>2013-07-17T14:52:39Z</time>
      </trkpt>
      <trkpt lat="48.5694" lon="-0.40133">
        <ele>199.13012695312</ele>
        <time>2013-07-17T14:52:43Z</time>
      </trkpt>
      <trkpt lat="48.56939" lon="-0.40143">
        <ele>199.13012695312</ele>
        <time>2013-07-17T14:52:47Z</time>
      </trkpt>
      <trkpt lat="48.56932" lon="-0.40166">
        <ele>200.09167480469</ele>
        <time>2013-07-17T14:52:53Z</time>
      </trkpt>
      <trkpt lat="48.56929" lon="-0.40184">
        <ele>200.09167480469</ele>
        <time>2013-07-17T14:52:57Z</time>
      </trkpt>
      <trkpt lat="48.5692" lon="-0.40207">
        <ele>200.09167480469</ele>
        <time>2013-07-17T14:53:02Z</time>
      </trkpt>
      <trkpt lat="48.56915" lon="-0.40219">
        <ele>200.09167480469</ele>
        <time>2013-07-17T14:53:05Z</time>
      </trkpt>
      <trkpt lat="48.56897" lon="-0.40241">
        <ele>201.05285644531</ele>
        <time>2013-07-17T14:53:12Z</time>
      </trkpt>
      <trkpt lat="48.56886" lon="-0.40261">
        <ele>201.53356933594</ele>
        <time>2013-07-17T14:53:19Z</time>
      </trkpt>
      <trkpt lat="48.56884" lon="-0.40263">
        <ele>200.572265625</ele>
        <time>2013-07-17T14:53:20Z</time>
      </trkpt>
      <trkpt lat="48.56884" lon="-0.40268">
        <ele>201.05285644531</ele>
        <time>2013-07-17T14:53:24Z</time>
      </trkpt>
      <trkpt lat="48.56884" lon="-0.40267">
        <ele>201.53356933594</ele>
        <time>2013-07-17T14:53:27Z</time>
      </trkpt>
      <trkpt lat="48.56885" lon="-0.4027">
        <ele>201.53356933594</ele>
        <time>2013-07-17T14:53:29Z</time>
      </trkpt>
      <trkpt lat="48.56886" lon="-0.40278">
        <ele>201.05285644531</ele>
        <time>2013-07-17T14:53:35Z</time>
      </trkpt>
      <trkpt lat="48.56884" lon="-0.40286">
        <ele>201.53356933594</ele>
        <time>2013-07-17T14:53:42Z</time>
      </trkpt>
      <trkpt lat="48.56883" lon="-0.40287">
        <ele>201.53356933594</ele>
        <time>2013-07-17T14:53:45Z</time>
      </trkpt>
      <trkpt lat="48.56882" lon="-0.4029">
        <ele>201.53356933594</ele>
        <time>2013-07-17T14:53:46Z</time>
      </trkpt>
      <trkpt lat="48.56874" lon="-0.40308">
        <ele>201.53356933594</ele>
        <time>2013-07-17T14:53:52Z</time>
      </trkpt>
      <trkpt lat="48.5687" lon="-0.4031">
        <ele>202.01428222656</ele>
        <time>2013-07-17T14:53:56Z</time>
      </trkpt>
      <trkpt lat="48.56865" lon="-0.40322">
        <ele>202.01428222656</ele>
        <time>2013-07-17T14:54:02Z</time>
      </trkpt>
      <trkpt lat="48.56863" lon="-0.40331">
        <ele>202.49487304688</ele>
        <time>2013-07-17T14:54:05Z</time>
      </trkpt>
      <trkpt lat="48.56857" lon="-0.40351">
        <ele>202.97546386719</ele>
        <time>2013-07-17T14:54:11Z</time>
      </trkpt>
      <trkpt lat="48.56856" lon="-0.40359">
        <ele>202.97546386719</ele>
        <time>2013-07-17T14:54:13Z</time>
      </trkpt>
      <trkpt lat="48.56848" lon="-0.40385">
        <ele>203.93688964844</ele>
        <time>2013-07-17T14:54:20Z</time>
      </trkpt>
      <trkpt lat="48.56843" lon="-0.40401">
        <ele>203.93688964844</ele>
        <time>2013-07-17T14:54:24Z</time>
      </trkpt>
      <trkpt lat="48.56833" lon="-0.40429">
        <ele>205.37878417969</ele>
        <time>2013-07-17T14:54:31Z</time>
      </trkpt>
      <trkpt lat="48.56825" lon="-0.40448">
        <ele>205.85949707031</ele>
        <time>2013-07-17T14:54:38Z</time>
      </trkpt>
      <trkpt lat="48.56828" lon="-0.40461">
        <ele>206.34008789062</ele>
        <time>2013-07-17T14:54:43Z</time>
      </trkpt>
      <trkpt lat="48.56838" lon="-0.40468">
        <ele>206.34008789062</ele>
        <time>2013-07-17T14:54:48Z</time>
      </trkpt>
      <trkpt lat="48.56841" lon="-0.4048">
        <ele>206.34008789062</ele>
        <time>2013-07-17T14:54:52Z</time>
      </trkpt>
      <trkpt lat="48.56832" lon="-0.40497">
        <ele>206.34008789062</ele>
        <time>2013-07-17T14:54:59Z</time>
      </trkpt>
      <trkpt lat="48.56824" lon="-0.40512">
        <ele>207.30139160156</ele>
        <time>2013-07-17T14:55:04Z</time>
      </trkpt>
      <trkpt lat="48.56824" lon="-0.40516">
        <ele>207.78210449219</ele>
        <time>2013-07-17T14:55:05Z</time>
      </trkpt>
      <trkpt lat="48.56817" lon="-0.40532">
        <ele>208.26281738281</ele>
        <time>2013-07-17T14:55:10Z</time>
      </trkpt>
      <trkpt lat="48.5681" lon="-0.40549">
        <ele>208.74340820312</ele>
        <time>2013-07-17T14:55:15Z</time>
      </trkpt>
      <trkpt lat="48.56799" lon="-0.40577">
        <ele>209.70483398438</ele>
        <time>2013-07-17T14:55:22Z</time>
      </trkpt>
      <trkpt lat="48.56792" lon="-0.40598">
        <ele>209.70483398438</ele>
        <time>2013-07-17T14:55:28Z</time>
      </trkpt>
      <trkpt lat="48.56784" lon="-0.4062">
        <ele>210.18542480469</ele>
        <time>2013-07-17T14:55:34Z</time>
      </trkpt>
      <trkpt lat="48.56777" lon="-0.40631">
        <ele>210.666015625</ele>
        <time>2013-07-17T14:55:40Z</time>
      </trkpt>
      <trkpt lat="48.56775" lon="-0.40633">
        <ele>210.666015625</ele>
        <time>2013-07-17T14:55:45Z</time>
      </trkpt>
      <trkpt lat="48.56774" lon="-0.40637">
        <ele>210.666015625</ele>
        <time>2013-07-17T14:55:49Z</time>
      </trkpt>
      <trkpt lat="48.56773" lon="-0.40649">
        <ele>210.666015625</ele>
        <time>2013-07-17T14:57:27Z</time>
      </trkpt>
      <trkpt lat="48.56768" lon="-0.40663">
        <ele>211.14672851562</ele>
        <time>2013-07-17T14:57:32Z</time>
      </trkpt>
      <trkpt lat="48.56761" lon="-0.40684">
        <ele>211.62744140625</ele>
        <time>2013-07-17T14:57:38Z</time>
      </trkpt>
      <trkpt lat="48.56752" lon="-0.40702">
        <ele>211.62744140625</ele>
        <time>2013-07-17T14:57:43Z</time>
      </trkpt>
      <trkpt lat="48.56742" lon="-0.40724">
        <ele>212.10803222656</ele>
        <time>2013-07-17T14:57:49Z</time>
      </trkpt>
      <trkpt lat="48.56728" lon="-0.40752">
        <ele>212.10803222656</ele>
        <time>2013-07-17T14:57:56Z</time>
      </trkpt>
      <trkpt lat="48.5672" lon="-0.40769">
        <ele>212.10803222656</ele>
        <time>2013-07-17T14:58:00Z</time>
      </trkpt>
      <trkpt lat="48.56712" lon="-0.40791">
        <ele>211.14672851562</ele>
        <time>2013-07-17T14:58:05Z</time>
      </trkpt>
      <trkpt lat="48.56704" lon="-0.40807">
        <ele>211.14672851562</ele>
        <time>2013-07-17T14:58:09Z</time>
      </trkpt>
      <trkpt lat="48.56692" lon="-0.40832">
        <ele>210.666015625</ele>
        <time>2013-07-17T14:58:15Z</time>
      </trkpt>
      <trkpt lat="48.56677" lon="-0.40863">
        <ele>209.70483398438</ele>
        <time>2013-07-17T14:58:21Z</time>
      </trkpt>
      <trkpt lat="48.56662" lon="-0.40896">
        <ele>208.74340820312</ele>
        <time>2013-07-17T14:58:26Z</time>
      </trkpt>
      <trkpt lat="48.56651" lon="-0.40917">
        <ele>207.30139160156</ele>
        <time>2013-07-17T14:58:29Z</time>
      </trkpt>
      <trkpt lat="48.56636" lon="-0.40955">
        <ele>203.93688964844</ele>
        <time>2013-07-17T14:58:33Z</time>
      </trkpt>
      <trkpt lat="48.56625" lon="-0.40984">
        <ele>202.49487304688</ele>
        <time>2013-07-17T14:58:36Z</time>
      </trkpt>
      <trkpt lat="48.5662" lon="-0.40999">
        <ele>201.53356933594</ele>
        <time>2013-07-17T14:58:38Z</time>
      </trkpt>
      <trkpt lat="48.56615" lon="-0.41018">
        <ele>200.09167480469</ele>
        <time>2013-07-17T14:58:42Z</time>
      </trkpt>
      <trkpt lat="48.56613" lon="-0.41022">
        <ele>199.61083984375</ele>
        <time>2013-07-17T14:58:45Z</time>
      </trkpt>
      <trkpt lat="48.56611" lon="-0.41025">
        <ele>200.09167480469</ele>
        <time>2013-07-17T14:58:49Z</time>
      </trkpt>
      <trkpt lat="48.56604" lon="-0.41042">
        <ele>199.61083984375</ele>
        <time>2013-07-17T14:58:54Z</time>
      </trkpt>
      <trkpt lat="48.56594" lon="-0.41059">
        <ele>200.09167480469</ele>
        <time>2013-07-17T14:59:01Z</time>
      </trkpt>
      <trkpt lat="48.56589" lon="-0.41072">
        <ele>200.572265625</ele>
        <time>2013-07-17T14:59:06Z</time>
      </trkpt>
      <trkpt lat="48.5658" lon="-0.41088">
        <ele>200.572265625</ele>
        <time>2013-07-17T14:59:12Z</time>
      </trkpt>
      <trkpt lat="48.56569" lon="-0.41114">
        <ele>200.572265625</ele>
        <time>2013-07-17T14:59:18Z</time>
      </trkpt>
      <trkpt lat="48.56559" lon="-0.41139">
        <ele>200.09167480469</ele>
        <time>2013-07-17T14:59:24Z</time>
      </trkpt>
      <trkpt lat="48.56548" lon="-0.41167">
        <ele>200.09167480469</ele>
        <time>2013-07-17T14:59:30Z</time>
      </trkpt>
      <trkpt lat="48.56536" lon="-0.41196">
        <ele>199.61083984375</ele>
        <time>2013-07-17T14:59:37Z</time>
      </trkpt>
      <trkpt lat="48.5653" lon="-0.41223">
        <ele>197.68823242188</ele>
        <time>2013-07-17T14:59:42Z</time>
      </trkpt>
      <trkpt lat="48.56524" lon="-0.41247">
        <ele>196.24633789062</ele>
        <time>2013-07-17T14:59:46Z</time>
      </trkpt>
      <trkpt lat="48.56512" lon="-0.41265">
        <ele>196.24633789062</ele>
        <time>2013-07-17T14:59:50Z</time>
      </trkpt>
      <trkpt lat="48.56501" lon="-0.41285">
        <ele>196.72692871094</ele>
        <time>2013-07-17T14:59:55Z</time>
      </trkpt>
      <trkpt lat="48.56495" lon="-0.41287">
        <ele>197.68823242188</ele>
        <time>2013-07-17T14:59:59Z</time>
      </trkpt>
      <trkpt lat="48.56493" lon="-0.41286">
        <ele>197.68823242188</ele>
        <time>2013-07-17T15:00:00Z</time>
      </trkpt>
      <trkpt lat="48.5649" lon="-0.41285">
        <ele>198.1689453125</ele>
        <time>2013-07-17T15:00:03Z</time>
      </trkpt>
      <trkpt lat="48.56483" lon="-0.41282">
        <ele>199.13012695312</ele>
        <time>2013-07-17T15:00:07Z</time>
      </trkpt>
      <trkpt lat="48.56476" lon="-0.41278">
        <ele>200.09167480469</ele>
        <time>2013-07-17T15:00:12Z</time>
      </trkpt>
      <trkpt lat="48.56467" lon="-0.41292">
        <ele>201.05285644531</ele>
        <time>2013-07-17T15:00:18Z</time>
      </trkpt>
      <trkpt lat="48.56463" lon="-0.413">
        <ele>201.05285644531</ele>
        <time>2013-07-17T15:00:21Z</time>
      </trkpt>
      <trkpt lat="48.56458" lon="-0.41307">
        <ele>201.53356933594</ele>
        <time>2013-07-17T15:00:26Z</time>
      </trkpt>
      <trkpt lat="48.56455" lon="-0.41315">
        <ele>202.01428222656</ele>
        <time>2013-07-17T15:00:30Z</time>
      </trkpt>
      <trkpt lat="48.56453" lon="-0.41313">
        <ele>202.01428222656</ele>
        <time>2013-07-17T15:00:32Z</time>
      </trkpt>
      <trkpt lat="48.56452" lon="-0.413">
        <ele>202.97546386719</ele>
        <time>2013-07-17T15:00:37Z</time>
      </trkpt>
      <trkpt lat="48.5645" lon="-0.41291">
        <ele>204.41748046875</ele>
        <time>2013-07-17T15:00:41Z</time>
      </trkpt>
      <trkpt lat="48.56446" lon="-0.41273">
        <ele>205.85949707031</ele>
        <time>2013-07-17T15:00:48Z</time>
      </trkpt>
      <trkpt lat="48.56446" lon="-0.41271">
        <ele>206.34008789062</ele>
        <time>2013-07-17T15:00:49Z</time>
      </trkpt>
      <trkpt lat="48.56444" lon="-0.41259">
        <ele>207.78210449219</ele>
        <time>2013-07-17T15:00:54Z</time>
      </trkpt>
      <trkpt lat="48.56441" lon="-0.41248">
        <ele>209.22412109375</ele>
        <time>2013-07-17T15:00:59Z</time>
      </trkpt>
      <trkpt lat="48.5644" lon="-0.41242">
        <ele>209.70483398438</ele>
        <time>2013-07-17T15:01:02Z</time>
      </trkpt>
      <trkpt lat="48.56432" lon="-0.41231">
        <ele>211.14672851562</ele>
        <time>2013-07-17T15:01:08Z</time>
      </trkpt>
      <trkpt lat="48.56423" lon="-0.41217">
        <ele>213.0693359375</ele>
        <time>2013-07-17T15:01:16Z</time>
      </trkpt>
      <trkpt lat="48.56418" lon="-0.41217">
        <ele>214.03063964844</ele>
        <time>2013-07-17T15:01:23Z</time>
      </trkpt>
      <trkpt lat="48.56414" lon="-0.41214">
        <ele>214.99194335938</ele>
        <time>2013-07-17T15:01:29Z</time>
      </trkpt>
      <trkpt lat="48.56409" lon="-0.41206">
        <ele>215.47265625</ele>
        <time>2013-07-17T15:01:35Z</time>
      </trkpt>
      <trkpt lat="48.56408" lon="-0.41203">
        <ele>215.95324707031</ele>
        <time>2013-07-17T15:01:37Z</time>
      </trkpt>
      <trkpt lat="48.56402" lon="-0.41198">
        <ele>215.95324707031</ele>
        <time>2013-07-17T15:01:41Z</time>
      </trkpt>
      <trkpt lat="48.56396" lon="-0.41183">
        <ele>216.91467285156</ele>
        <time>2013-07-17T15:01:48Z</time>
      </trkpt>
      <trkpt lat="48.56394" lon="-0.41178">
        <ele>217.39538574219</ele>
        <time>2013-07-17T15:01:51Z</time>
      </trkpt>
      <trkpt lat="48.56393" lon="-0.41176">
        <ele>216.91467285156</ele>
        <time>2013-07-17T15:01:54Z</time>
      </trkpt>
      <trkpt lat="48.56392" lon="-0.41156">
        <ele>215.95324707031</ele>
        <time>2013-07-17T15:01:57Z</time>
      </trkpt>
      <trkpt lat="48.56388" lon="-0.41137">
        <ele>215.95324707031</ele>
        <time>2013-07-17T15:02:01Z</time>
      </trkpt>
      <trkpt lat="48.56386" lon="-0.41122">
        <ele>216.43395996094</ele>
        <time>2013-07-17T15:02:04Z</time>
      </trkpt>
      <trkpt lat="48.5638" lon="-0.41106">
        <ele>216.91467285156</ele>
        <time>2013-07-17T15:02:08Z</time>
      </trkpt>
      <trkpt lat="48.56372" lon="-0.41088">
        <ele>217.39538574219</ele>
        <time>2013-07-17T15:02:12Z</time>
      </trkpt>
      <trkpt lat="48.56372" lon="-0.41058">
        <ele>215.47265625</ele>
        <time>2013-07-17T15:02:16Z</time>
      </trkpt>
      <trkpt lat="48.56376" lon="-0.41023">
        <ele>214.51123046875</ele>
        <time>2013-07-17T15:02:20Z</time>
      </trkpt>
      <trkpt lat="48.56382" lon="-0.40992">
        <ele>214.03063964844</ele>
        <time>2013-07-17T15:02:24Z</time>
      </trkpt>
      <trkpt lat="48.564" lon="-0.40975">
        <ele>213.0693359375</ele>
        <time>2013-07-17T15:02:28Z</time>
      </trkpt>
      <trkpt lat="48.56403" lon="-0.40973">
        <ele>213.0693359375</ele>
        <time>2013-07-17T15:02:29Z</time>
      </trkpt>
      <trkpt lat="48.56424" lon="-0.40964">
        <ele>212.10803222656</ele>
        <time>2013-07-17T15:02:35Z</time>
      </trkpt>
      <trkpt lat="48.56432" lon="-0.4096">
        <ele>211.14672851562</ele>
        <time>2013-07-17T15:02:37Z</time>
      </trkpt>
      <trkpt lat="48.56454" lon="-0.40949">
        <ele>209.70483398438</ele>
        <time>2013-07-17T15:02:42Z</time>
      </trkpt>
      <trkpt lat="48.56457" lon="-0.40936">
        <ele>209.70483398438</ele>
        <time>2013-07-17T15:02:45Z</time>
      </trkpt>
      <trkpt lat="48.56448" lon="-0.40923">
        <ele>210.18542480469</ele>
        <time>2013-07-17T15:02:49Z</time>
      </trkpt>
      <trkpt lat="48.56441" lon="-0.40918">
        <ele>210.666015625</ele>
        <time>2013-07-17T15:02:51Z</time>
      </trkpt>
      <trkpt lat="48.5643" lon="-0.40905">
        <ele>211.14672851562</ele>
        <time>2013-07-17T15:02:56Z</time>
      </trkpt>
      <trkpt lat="48.56415" lon="-0.40887">
        <ele>211.62744140625</ele>
        <time>2013-07-17T15:03:02Z</time>
      </trkpt>
      <trkpt lat="48.56399" lon="-0.40881">
        <ele>213.0693359375</ele>
        <time>2013-07-17T15:03:06Z</time>
      </trkpt>
      <trkpt lat="48.56386" lon="-0.40879">
        <ele>213.55004882812</ele>
        <time>2013-07-17T15:03:10Z</time>
      </trkpt>
      <trkpt lat="48.56368" lon="-0.40869">
        <ele>214.03063964844</ele>
        <time>2013-07-17T15:03:16Z</time>
      </trkpt>
      <trkpt lat="48.56358" lon="-0.40861">
        <ele>214.51123046875</ele>
        <time>2013-07-17T15:03:21Z</time>
      </trkpt>
      <trkpt lat="48.5635" lon="-0.40858">
        <ele>214.99194335938</ele>
        <time>2013-07-17T15:03:25Z</time>
      </trkpt>
      <trkpt lat="48.56335" lon="-0.40846">
        <ele>215.47265625</ele>
        <time>2013-07-17T15:03:31Z</time>
      </trkpt>
      <trkpt lat="48.56318" lon="-0.40826">
        <ele>214.99194335938</ele>
        <time>2013-07-17T15:03:37Z</time>
      </trkpt>
      <trkpt lat="48.56295" lon="-0.40803">
        <ele>215.47265625</ele>
        <time>2013-07-17T15:03:43Z</time>
      </trkpt>
      <trkpt lat="48.56282" lon="-0.40788">
        <ele>215.95324707031</ele>
        <time>2013-07-17T15:03:47Z</time>
      </trkpt>
      <trkpt lat="48.56271" lon="-0.4077">
        <ele>216.43395996094</ele>
        <time>2013-07-17T15:03:52Z</time>
      </trkpt>
      <trkpt lat="48.5626" lon="-0.40756">
        <ele>216.91467285156</ele>
        <time>2013-07-17T15:03:57Z</time>
      </trkpt>
      <trkpt lat="48.5625" lon="-0.40747">
        <ele>217.39538574219</ele>
        <time>2013-07-17T15:04:01Z</time>
      </trkpt>
      <trkpt lat="48.56239" lon="-0.4074">
        <ele>217.8759765625</ele>
        <time>2013-07-17T15:04:05Z</time>
      </trkpt>
      <trkpt lat="48.56221" lon="-0.40727">
        <ele>218.83728027344</ele>
        <time>2013-07-17T15:04:11Z</time>
      </trkpt>
      <trkpt lat="48.56206" lon="-0.40709">
        <ele>219.31799316406</ele>
        <time>2013-07-17T15:04:16Z</time>
      </trkpt>
      <trkpt lat="48.56189" lon="-0.40685">
        <ele>219.31799316406</ele>
        <time>2013-07-17T15:04:21Z</time>
      </trkpt>
      <trkpt lat="48.56168" lon="-0.40653">
        <ele>219.79858398438</ele>
        <time>2013-07-17T15:04:28Z</time>
      </trkpt>
      <trkpt lat="48.56157" lon="-0.40632">
        <ele>220.27917480469</ele>
        <time>2013-07-17T15:04:34Z</time>
      </trkpt>
      <trkpt lat="48.56142" lon="-0.40614">
        <ele>221.24060058594</ele>
        <time>2013-07-17T15:04:41Z</time>
      </trkpt>
      <trkpt lat="48.56127" lon="-0.40598">
        <ele>222.20178222656</ele>
        <time>2013-07-17T15:04:46Z</time>
      </trkpt>
      <trkpt lat="48.56115" lon="-0.40588">
        <ele>223.16320800781</ele>
        <time>2013-07-17T15:04:50Z</time>
      </trkpt>
      <trkpt lat="48.56097" lon="-0.4058">
        <ele>224.12451171875</ele>
        <time>2013-07-17T15:04:55Z</time>
      </trkpt>
      <trkpt lat="48.56079" lon="-0.40578">
        <ele>224.60522460938</ele>
        <time>2013-07-17T15:05:00Z</time>
      </trkpt>
      <trkpt lat="48.56063" lon="-0.40577">
        <ele>225.0859375</ele>
        <time>2013-07-17T15:05:05Z</time>
      </trkpt>
      <trkpt lat="48.56047" lon="-0.40574">
        <ele>225.56652832031</ele>
        <time>2013-07-17T15:05:10Z</time>
      </trkpt>
      <trkpt lat="48.5603" lon="-0.40563">
        <ele>225.56652832031</ele>
        <time>2013-07-17T15:05:16Z</time>
      </trkpt>
      <trkpt lat="48.56016" lon="-0.40557">
        <ele>226.04711914062</ele>
        <time>2013-07-17T15:05:21Z</time>
      </trkpt>
      <trkpt lat="48.55989" lon="-0.40545">
        <ele>225.56652832031</ele>
        <time>2013-07-17T15:05:28Z</time>
      </trkpt>
      <trkpt lat="48.55972" lon="-0.40543">
        <ele>226.04711914062</ele>
        <time>2013-07-17T15:05:33Z</time>
      </trkpt>
      <trkpt lat="48.55957" lon="-0.40543">
        <ele>226.04711914062</ele>
        <time>2013-07-17T15:05:38Z</time>
      </trkpt>
      <trkpt lat="48.5594" lon="-0.40545">
        <ele>226.52783203125</ele>
        <time>2013-07-17T15:05:44Z</time>
      </trkpt>
      <trkpt lat="48.55927" lon="-0.40545">
        <ele>226.04711914062</ele>
        <time>2013-07-17T15:05:49Z</time>
      </trkpt>
      <trkpt lat="48.55913" lon="-0.40535">
        <ele>226.04711914062</ele>
        <time>2013-07-17T15:05:54Z</time>
      </trkpt>
      <trkpt lat="48.55911" lon="-0.40516">
        <ele>225.0859375</ele>
        <time>2013-07-17T15:05:59Z</time>
      </trkpt>
      <trkpt lat="48.5591" lon="-0.40489">
        <ele>225.0859375</ele>
        <time>2013-07-17T15:06:03Z</time>
      </trkpt>
      <trkpt lat="48.55914" lon="-0.40474">
        <ele>225.0859375</ele>
        <time>2013-07-17T15:06:05Z</time>
      </trkpt>
      <trkpt lat="48.55924" lon="-0.40446">
        <ele>224.60522460938</ele>
        <time>2013-07-17T15:06:09Z</time>
      </trkpt>
      <trkpt lat="48.5593" lon="-0.40428">
        <ele>224.12451171875</ele>
        <time>2013-07-17T15:06:14Z</time>
      </trkpt>
      <trkpt lat="48.55924" lon="-0.40421">
        <ele>224.12451171875</ele>
        <time>2013-07-17T15:06:16Z</time>
      </trkpt>
      <trkpt lat="48.55908" lon="-0.40402">
        <ele>223.16320800781</ele>
        <time>2013-07-17T15:06:22Z</time>
      </trkpt>
      <trkpt lat="48.55891" lon="-0.40382">
        <ele>222.68249511719</ele>
        <time>2013-07-17T15:06:27Z</time>
      </trkpt>
      <trkpt lat="48.55876" lon="-0.40363">
        <ele>222.20178222656</ele>
        <time>2013-07-17T15:06:32Z</time>
      </trkpt>
      <trkpt lat="48.5587" lon="-0.40345">
        <ele>221.72119140625</ele>
        <time>2013-07-17T15:06:36Z</time>
      </trkpt>
      <trkpt lat="48.55867" lon="-0.40324">
        <ele>221.24060058594</ele>
        <time>2013-07-17T15:06:42Z</time>
      </trkpt>
      <trkpt lat="48.55861" lon="-0.40313">
        <ele>220.75988769531</ele>
        <time>2013-07-17T15:06:46Z</time>
      </trkpt>
      <trkpt lat="48.55857" lon="-0.40307">
        <ele>220.75988769531</ele>
        <time>2013-07-17T15:06:48Z</time>
      </trkpt>
      <trkpt lat="48.55844" lon="-0.40299">
        <ele>220.27917480469</ele>
        <time>2013-07-17T15:06:53Z</time>
      </trkpt>
      <trkpt lat="48.55822" lon="-0.40285">
        <ele>219.31799316406</ele>
        <time>2013-07-17T15:07:00Z</time>
      </trkpt>
      <trkpt lat="48.55807" lon="-0.40279">
        <ele>218.83728027344</ele>
        <time>2013-07-17T15:07:05Z</time>
      </trkpt>
      <trkpt lat="48.55791" lon="-0.4027">
        <ele>218.83728027344</ele>
        <time>2013-07-17T15:07:10Z</time>
      </trkpt>
      <trkpt lat="48.55785" lon="-0.40267">
        <ele>218.35656738281</ele>
        <time>2013-07-17T15:07:12Z</time>
      </trkpt>
      <trkpt lat="48.55772" lon="-0.40278">
        <ele>218.35656738281</ele>
        <time>2013-07-17T15:07:16Z</time>
      </trkpt>
      <trkpt lat="48.55759" lon="-0.40314">
        <ele>217.39538574219</ele>
        <time>2013-07-17T15:07:24Z</time>
      </trkpt>
      <trkpt lat="48.5575" lon="-0.40339">
        <ele>217.39538574219</ele>
        <time>2013-07-17T15:07:29Z</time>
      </trkpt>
      <trkpt lat="48.55735" lon="-0.40383">
        <ele>216.91467285156</ele>
        <time>2013-07-17T15:07:37Z</time>
      </trkpt>
      <trkpt lat="48.55727" lon="-0.40405">
        <ele>216.43395996094</ele>
        <time>2013-07-17T15:07:41Z</time>
      </trkpt>
      <trkpt lat="48.55724" lon="-0.40417">
        <ele>216.43395996094</ele>
        <time>2013-07-17T15:07:43Z</time>
      </trkpt>
      <trkpt lat="48.55708" lon="-0.40461">
        <ele>214.99194335938</ele>
        <time>2013-07-17T15:07:50Z</time>
      </trkpt>
      <trkpt lat="48.55693" lon="-0.40506">
        <ele>214.51123046875</ele>
        <time>2013-07-17T15:07:56Z</time>
      </trkpt>
      <trkpt lat="48.55687" lon="-0.40521">
        <ele>213.55004882812</ele>
        <time>2013-07-17T15:07:58Z</time>
      </trkpt>
      <trkpt lat="48.5567" lon="-0.40572">
        <ele>213.0693359375</ele>
        <time>2013-07-17T15:08:04Z</time>
      </trkpt>
      <trkpt lat="48.55661" lon="-0.40618">
        <ele>211.62744140625</ele>
        <time>2013-07-17T15:08:09Z</time>
      </trkpt>
      <trkpt lat="48.55654" lon="-0.40654">
        <ele>211.14672851562</ele>
        <time>2013-07-17T15:08:13Z</time>
      </trkpt>
      <trkpt lat="48.55649" lon="-0.40673">
        <ele>211.62744140625</ele>
        <time>2013-07-17T15:08:15Z</time>
      </trkpt>
      <trkpt lat="48.55645" lon="-0.40719">
        <ele>210.18542480469</ele>
        <time>2013-07-17T15:08:21Z</time>
      </trkpt>
      <trkpt lat="48.55643" lon="-0.40736">
        <ele>209.70483398438</ele>
        <time>2013-07-17T15:08:24Z</time>
      </trkpt>
      <trkpt lat="48.55642" lon="-0.40734">
        <ele>210.18542480469</ele>
        <time>2013-07-17T15:08:28Z</time>
      </trkpt>
      <trkpt lat="48.55643" lon="-0.40726">
        <ele>210.18542480469</ele>
        <time>2013-07-17T15:08:33Z</time>
      </trkpt>
      <trkpt lat="48.55638" lon="-0.40721">
        <ele>210.18542480469</ele>
        <time>2013-07-17T15:08:46Z</time>
      </trkpt>
      <trkpt lat="48.55639" lon="-0.40718">
        <ele>210.18542480469</ele>
        <time>2013-07-17T15:08:47Z</time>
      </trkpt>
      <trkpt lat="48.55637" lon="-0.40704">
        <ele>210.666015625</ele>
        <time>2013-07-17T15:08:53Z</time>
      </trkpt>
      <trkpt lat="48.55634" lon="-0.40691">
        <ele>210.18542480469</ele>
        <time>2013-07-17T15:08:57Z</time>
      </trkpt>
      <trkpt lat="48.55635" lon="-0.40668">
        <ele>210.666015625</ele>
        <time>2013-07-17T15:09:04Z</time>
      </trkpt>
      <trkpt lat="48.55634" lon="-0.40655">
        <ele>210.666015625</ele>
        <time>2013-07-17T15:09:08Z</time>
      </trkpt>
      <trkpt lat="48.55635" lon="-0.40644">
        <ele>210.18542480469</ele>
        <time>2013-07-17T15:09:11Z</time>
      </trkpt>
      <trkpt lat="48.55634" lon="-0.40623">
        <ele>210.666015625</ele>
        <time>2013-07-17T15:09:16Z</time>
      </trkpt>
      <trkpt lat="48.55624" lon="-0.40623">
        <ele>210.18542480469</ele>
        <time>2013-07-17T15:09:20Z</time>
      </trkpt>
      <trkpt lat="48.55604" lon="-0.40625">
        <ele>208.74340820312</ele>
        <time>2013-07-17T15:09:25Z</time>
      </trkpt>
      <trkpt lat="48.55587" lon="-0.40632">
        <ele>208.74340820312</ele>
        <time>2013-07-17T15:09:29Z</time>
      </trkpt>
      <trkpt lat="48.55576" lon="-0.40633">
        <ele>208.26281738281</ele>
        <time>2013-07-17T15:09:31Z</time>
      </trkpt>
      <trkpt lat="48.55549" lon="-0.40639">
        <ele>206.82067871094</ele>
        <time>2013-07-17T15:09:36Z</time>
      </trkpt>
      <trkpt lat="48.55517" lon="-0.40645">
        <ele>207.30139160156</ele>
        <time>2013-07-17T15:09:42Z</time>
      </trkpt>
      <trkpt lat="48.5551" lon="-0.40641">
        <ele>207.78210449219</ele>
        <time>2013-07-17T15:09:44Z</time>
      </trkpt>
      <trkpt lat="48.55503" lon="-0.40642">
        <ele>207.30139160156</ele>
        <time>2013-07-17T15:09:48Z</time>
      </trkpt>
      <trkpt lat="48.55489" lon="-0.40647">
        <ele>207.30139160156</ele>
        <time>2013-07-17T15:09:55Z</time>
      </trkpt>
      <trkpt lat="48.55484" lon="-0.4065">
        <ele>207.78210449219</ele>
        <time>2013-07-17T15:10:00Z</time>
      </trkpt>
      <trkpt lat="48.55475" lon="-0.40657">
        <ele>207.78210449219</ele>
        <time>2013-07-17T15:10:04Z</time>
      </trkpt>
      <trkpt lat="48.55462" lon="-0.40665">
        <ele>206.34008789062</ele>
        <time>2013-07-17T15:10:09Z</time>
      </trkpt>
      <trkpt lat="48.55455" lon="-0.40665">
        <ele>206.82067871094</ele>
        <time>2013-07-17T15:10:12Z</time>
      </trkpt>
      <trkpt lat="48.55447" lon="-0.40662">
        <ele>207.30139160156</ele>
        <time>2013-07-17T15:10:16Z</time>
      </trkpt>
      <trkpt lat="48.55447" lon="-0.40651">
        <ele>206.82067871094</ele>
        <time>2013-07-17T15:10:20Z</time>
      </trkpt>
      <trkpt lat="48.55456" lon="-0.40612">
        <ele>206.34008789062</ele>
        <time>2013-07-17T15:10:27Z</time>
      </trkpt>
      <trkpt lat="48.55468" lon="-0.40567">
        <ele>205.37878417969</ele>
        <time>2013-07-17T15:10:34Z</time>
      </trkpt>
      <trkpt lat="48.55475" lon="-0.40534">
        <ele>205.37878417969</ele>
        <time>2013-07-17T15:10:39Z</time>
      </trkpt>
      <trkpt lat="48.55484" lon="-0.40493">
        <ele>205.85949707031</ele>
        <time>2013-07-17T15:10:45Z</time>
      </trkpt>
      <trkpt lat="48.55488" lon="-0.40478">
        <ele>205.37878417969</ele>
        <time>2013-07-17T15:10:47Z</time>
      </trkpt>
      <trkpt lat="48.55498" lon="-0.40435">
        <ele>204.89807128906</ele>
        <time>2013-07-17T15:10:53Z</time>
      </trkpt>
      <trkpt lat="48.55506" lon="-0.40412">
        <ele>205.37878417969</ele>
        <time>2013-07-17T15:10:57Z</time>
      </trkpt>
      <trkpt lat="48.55515" lon="-0.40374">
        <ele>205.37878417969</ele>
        <time>2013-07-17T15:11:02Z</time>
      </trkpt>
      <trkpt lat="48.55517" lon="-0.40366">
        <ele>205.37878417969</ele>
        <time>2013-07-17T15:11:03Z</time>
      </trkpt>
      <trkpt lat="48.55534" lon="-0.40293">
        <ele>205.85949707031</ele>
        <time>2013-07-17T15:11:12Z</time>
      </trkpt>
      <trkpt lat="48.55539" lon="-0.40265">
        <ele>206.34008789062</ele>
        <time>2013-07-17T15:11:17Z</time>
      </trkpt>
      <trkpt lat="48.55544" lon="-0.40234">
        <ele>206.82067871094</ele>
        <time>2013-07-17T15:11:24Z</time>
      </trkpt>
      <trkpt lat="48.55546" lon="-0.40221">
        <ele>207.30139160156</ele>
        <time>2013-07-17T15:11:31Z</time>
      </trkpt>
      <trkpt lat="48.55546" lon="-0.4022">
        <ele>207.30139160156</ele>
        <time>2013-07-17T15:11:33Z</time>
      </trkpt>
      <trkpt lat="48.55542" lon="-0.40213">
        <ele>207.30139160156</ele>
        <time>2013-07-17T15:12:01Z</time>
      </trkpt>
      <trkpt lat="48.55542" lon="-0.40214">
        <ele>207.78210449219</ele>
        <time>2013-07-17T15:12:02Z</time>
      </trkpt>
      <trkpt lat="48.5554" lon="-0.40209">
        <ele>207.30139160156</ele>
        <time>2013-07-17T15:12:12Z</time>
      </trkpt>
      <trkpt lat="48.5554" lon="-0.40205">
        <ele>207.30139160156</ele>
        <time>2013-07-17T15:12:14Z</time>
      </trkpt>
      <trkpt lat="48.55548" lon="-0.40189">
        <ele>207.30139160156</ele>
        <time>2013-07-17T15:12:20Z</time>
      </trkpt>
      <trkpt lat="48.55554" lon="-0.40153">
        <ele>207.30139160156</ele>
        <time>2013-07-17T15:12:27Z</time>
      </trkpt>
      <trkpt lat="48.55555" lon="-0.40132">
        <ele>207.78210449219</ele>
        <time>2013-07-17T15:12:32Z</time>
      </trkpt>
      <trkpt lat="48.55552" lon="-0.40114">
        <ele>207.78210449219</ele>
        <time>2013-07-17T15:12:36Z</time>
      </trkpt>
      <trkpt lat="48.55538" lon="-0.40103">
        <ele>207.30139160156</ele>
        <time>2013-07-17T15:12:42Z</time>
      </trkpt>
      <trkpt lat="48.55527" lon="-0.40101">
        <ele>207.30139160156</ele>
        <time>2013-07-17T15:12:48Z</time>
      </trkpt>
      <trkpt lat="48.55516" lon="-0.40097">
        <ele>207.78210449219</ele>
        <time>2013-07-17T15:12:53Z</time>
      </trkpt>
      <trkpt lat="48.55495" lon="-0.40082">
        <ele>208.74340820312</ele>
        <time>2013-07-17T15:12:59Z</time>
      </trkpt>
      <trkpt lat="48.55479" lon="-0.40073">
        <ele>208.74340820312</ele>
        <time>2013-07-17T15:13:04Z</time>
      </trkpt>
      <trkpt lat="48.55459" lon="-0.40062">
        <ele>209.70483398438</ele>
        <time>2013-07-17T15:13:10Z</time>
      </trkpt>
      <trkpt lat="48.55445" lon="-0.40052">
        <ele>212.10803222656</ele>
        <time>2013-07-17T15:13:16Z</time>
      </trkpt>
      <trkpt lat="48.55435" lon="-0.40047">
        <ele>214.03063964844</ele>
        <time>2013-07-17T15:13:23Z</time>
      </trkpt>
      <trkpt lat="48.55423" lon="-0.4004">
        <ele>214.99194335938</ele>
        <time>2013-07-17T15:13:30Z</time>
      </trkpt>
      <trkpt lat="48.55409" lon="-0.40034">
        <ele>216.43395996094</ele>
        <time>2013-07-17T15:13:37Z</time>
      </trkpt>
      <trkpt lat="48.554" lon="-0.40029">
        <ele>217.8759765625</ele>
        <time>2013-07-17T15:13:43Z</time>
      </trkpt>
      <trkpt lat="48.5539" lon="-0.40024">
        <ele>218.83728027344</ele>
        <time>2013-07-17T15:13:49Z</time>
      </trkpt>
      <trkpt lat="48.55377" lon="-0.40017">
        <ele>219.31799316406</ele>
        <time>2013-07-17T15:13:56Z</time>
      </trkpt>
      <trkpt lat="48.55367" lon="-0.40013">
        <ele>220.75988769531</ele>
        <time>2013-07-17T15:14:02Z</time>
      </trkpt>
      <trkpt lat="48.55358" lon="-0.40009">
        <ele>221.24060058594</ele>
        <time>2013-07-17T15:14:07Z</time>
      </trkpt>
      <trkpt lat="48.55348" lon="-0.40006">
        <ele>221.72119140625</ele>
        <time>2013-07-17T15:14:13Z</time>
      </trkpt>
      <trkpt lat="48.55341" lon="-0.40002">
        <ele>222.68249511719</ele>
        <time>2013-07-17T15:14:17Z</time>
      </trkpt>
      <trkpt lat="48.55331" lon="-0.39998">
        <ele>222.68249511719</ele>
        <time>2013-07-17T15:14:22Z</time>
      </trkpt>
      <trkpt lat="48.55324" lon="-0.39995">
        <ele>223.16320800781</ele>
        <time>2013-07-17T15:14:26Z</time>
      </trkpt>
      <trkpt lat="48.55309" lon="-0.39986">
        <ele>223.64379882812</ele>
        <time>2013-07-17T15:14:32Z</time>
      </trkpt>
      <trkpt lat="48.55297" lon="-0.3998">
        <ele>224.12451171875</ele>
        <time>2013-07-17T15:14:37Z</time>
      </trkpt>
      <trkpt lat="48.55282" lon="-0.39969">
        <ele>224.60522460938</ele>
        <time>2013-07-17T15:14:42Z</time>
      </trkpt>
      <trkpt lat="48.55265" lon="-0.39959">
        <ele>224.60522460938</ele>
        <time>2013-07-17T15:14:47Z</time>
      </trkpt>
      <trkpt lat="48.55247" lon="-0.39949">
        <ele>225.0859375</ele>
        <time>2013-07-17T15:14:53Z</time>
      </trkpt>
      <trkpt lat="48.55227" lon="-0.39938">
        <ele>224.60522460938</ele>
        <time>2013-07-17T15:14:59Z</time>
      </trkpt>
      <trkpt lat="48.55207" lon="-0.39926">
        <ele>225.56652832031</ele>
        <time>2013-07-17T15:15:05Z</time>
      </trkpt>
      <trkpt lat="48.55191" lon="-0.39916">
        <ele>225.56652832031</ele>
        <time>2013-07-17T15:15:11Z</time>
      </trkpt>
      <trkpt lat="48.55173" lon="-0.39908">
        <ele>225.0859375</ele>
        <time>2013-07-17T15:15:17Z</time>
      </trkpt>
      <trkpt lat="48.55169" lon="-0.39903">
        <ele>225.0859375</ele>
        <time>2013-07-17T15:15:19Z</time>
      </trkpt>
      <trkpt lat="48.55158" lon="-0.39908">
        <ele>224.60522460938</ele>
        <time>2013-07-17T15:15:24Z</time>
      </trkpt>
      <trkpt lat="48.55151" lon="-0.39906">
        <ele>224.60522460938</ele>
        <time>2013-07-17T15:15:29Z</time>
      </trkpt>
      <trkpt lat="48.5514" lon="-0.39892">
        <ele>224.60522460938</ele>
        <time>2013-07-17T15:15:35Z</time>
      </trkpt>
      <trkpt lat="48.55135" lon="-0.39888">
        <ele>224.12451171875</ele>
        <time>2013-07-17T15:15:37Z</time>
      </trkpt>
      <trkpt lat="48.5513" lon="-0.39881">
        <ele>224.12451171875</ele>
        <time>2013-07-17T15:15:42Z</time>
      </trkpt>
      <trkpt lat="48.5512" lon="-0.39865">
        <ele>225.0859375</ele>
        <time>2013-07-17T15:15:48Z</time>
      </trkpt>
      <trkpt lat="48.55112" lon="-0.39852">
        <ele>225.0859375</ele>
        <time>2013-07-17T15:15:53Z</time>
      </trkpt>
      <trkpt lat="48.55108" lon="-0.39844">
        <ele>225.0859375</ele>
        <time>2013-07-17T15:15:56Z</time>
      </trkpt>
      <trkpt lat="48.551" lon="-0.39824">
        <ele>225.0859375</ele>
        <time>2013-07-17T15:16:02Z</time>
      </trkpt>
      <trkpt lat="48.55091" lon="-0.398">
        <ele>225.56652832031</ele>
        <time>2013-07-17T15:16:08Z</time>
      </trkpt>
      <trkpt lat="48.55087" lon="-0.39793">
        <ele>225.56652832031</ele>
        <time>2013-07-17T15:16:10Z</time>
      </trkpt>
      <trkpt lat="48.5508" lon="-0.39771">
        <ele>225.56652832031</ele>
        <time>2013-07-17T15:16:16Z</time>
      </trkpt>
      <trkpt lat="48.55076" lon="-0.39752">
        <ele>225.56652832031</ele>
        <time>2013-07-17T15:16:21Z</time>
      </trkpt>
      <trkpt lat="48.55071" lon="-0.3974">
        <ele>225.56652832031</ele>
        <time>2013-07-17T15:16:26Z</time>
      </trkpt>
      <trkpt lat="48.55064" lon="-0.39722">
        <ele>225.56652832031</ele>
        <time>2013-07-17T15:16:31Z</time>
      </trkpt>
      <trkpt lat="48.55057" lon="-0.39704">
        <ele>225.56652832031</ele>
        <time>2013-07-17T15:16:36Z</time>
      </trkpt>
      <trkpt lat="48.55056" lon="-0.39698">
        <ele>225.56652832031</ele>
        <time>2013-07-17T15:16:38Z</time>
      </trkpt>
      <trkpt lat="48.55044" lon="-0.39695">
        <ele>225.56652832031</ele>
        <time>2013-07-17T15:16:43Z</time>
      </trkpt>
      <trkpt lat="48.55028" lon="-0.39703">
        <ele>226.04711914062</ele>
        <time>2013-07-17T15:16:49Z</time>
      </trkpt>
      <trkpt lat="48.55016" lon="-0.39715">
        <ele>226.04711914062</ele>
        <time>2013-07-17T15:16:53Z</time>
      </trkpt>
      <trkpt lat="48.55005" lon="-0.3973">
        <ele>225.56652832031</ele>
        <time>2013-07-17T15:16:57Z</time>
      </trkpt>
      <trkpt lat="48.54997" lon="-0.39743">
        <ele>225.0859375</ele>
        <time>2013-07-17T15:17:01Z</time>
      </trkpt>
      <trkpt lat="48.54985" lon="-0.39758">
        <ele>224.60522460938</ele>
        <time>2013-07-17T15:17:06Z</time>
      </trkpt>
      <trkpt lat="48.54976" lon="-0.39768">
        <ele>224.60522460938</ele>
        <time>2013-07-17T15:17:10Z</time>
      </trkpt>
      <trkpt lat="48.54961" lon="-0.39779">
        <ele>223.64379882812</ele>
        <time>2013-07-17T15:17:15Z</time>
      </trkpt>
      <trkpt lat="48.54953" lon="-0.39782">
        <ele>223.16320800781</ele>
        <time>2013-07-17T15:17:17Z</time>
      </trkpt>
      <trkpt lat="48.54926" lon="-0.39795">
        <ele>219.79858398438</ele>
        <time>2013-07-17T15:17:22Z</time>
      </trkpt>
      <trkpt lat="48.54909" lon="-0.39815">
        <ele>218.83728027344</ele>
        <time>2013-07-17T15:17:26Z</time>
      </trkpt>
      <trkpt lat="48.54909" lon="-0.39822">
        <ele>218.83728027344</ele>
        <time>2013-07-17T15:17:27Z</time>
      </trkpt>
      <trkpt lat="48.54914" lon="-0.39848">
        <ele>218.83728027344</ele>
        <time>2013-07-17T15:17:32Z</time>
      </trkpt>
      <trkpt lat="48.54919" lon="-0.39857">
        <ele>218.35656738281</ele>
        <time>2013-07-17T15:17:34Z</time>
      </trkpt>
      <trkpt lat="48.5493" lon="-0.39878">
        <ele>217.8759765625</ele>
        <time>2013-07-17T15:17:39Z</time>
      </trkpt>
      <trkpt lat="48.5494" lon="-0.39898">
        <ele>217.39538574219</ele>
        <time>2013-07-17T15:17:43Z</time>
      </trkpt>
      <trkpt lat="48.54947" lon="-0.39914">
        <ele>216.91467285156</ele>
        <time>2013-07-17T15:17:46Z</time>
      </trkpt>
      <trkpt lat="48.54936" lon="-0.39938">
        <ele>213.55004882812</ele>
        <time>2013-07-17T15:17:50Z</time>
      </trkpt>
      <trkpt lat="48.54918" lon="-0.39986">
        <ele>210.18542480469</ele>
        <time>2013-07-17T15:17:55Z</time>
      </trkpt>
      <trkpt lat="48.54908" lon="-0.40021">
        <ele>207.30139160156</ele>
        <time>2013-07-17T15:17:58Z</time>
      </trkpt>
      <trkpt lat="48.54896" lon="-0.40053">
        <ele>206.82067871094</ele>
        <time>2013-07-17T15:18:01Z</time>
      </trkpt>
      <trkpt lat="48.54888" lon="-0.4007">
        <ele>205.37878417969</ele>
        <time>2013-07-17T15:18:05Z</time>
      </trkpt>
      <trkpt lat="48.5488" lon="-0.40094">
        <ele>204.89807128906</ele>
        <time>2013-07-17T15:18:11Z</time>
      </trkpt>
      <trkpt lat="48.54868" lon="-0.40119">
        <ele>202.49487304688</ele>
        <time>2013-07-17T15:18:15Z</time>
      </trkpt>
      <trkpt lat="48.54839" lon="-0.40161">
        <ele>200.09167480469</ele>
        <time>2013-07-17T15:18:21Z</time>
      </trkpt>
      <trkpt lat="48.54828" lon="-0.40174">
        <ele>199.13012695312</ele>
        <time>2013-07-17T15:18:23Z</time>
      </trkpt>
      <trkpt lat="48.54819" lon="-0.40191">
        <ele>198.1689453125</ele>
        <time>2013-07-17T15:18:27Z</time>
      </trkpt>
      <trkpt lat="48.54817" lon="-0.40197">
        <ele>198.64953613281</ele>
        <time>2013-07-17T15:18:31Z</time>
      </trkpt>
      <trkpt lat="48.54817" lon="-0.40197">
        <ele>198.1689453125</ele>
        <time>2013-07-17T15:18:32Z</time>
      </trkpt>
      <trkpt lat="48.54817" lon="-0.40198">
        <ele>198.1689453125</ele>
        <time>2013-07-17T15:18:35Z</time>
      </trkpt>
      <trkpt lat="48.54814" lon="-0.40201">
        <ele>197.68823242188</ele>
        <time>2013-07-17T15:18:36Z</time>
      </trkpt>
      <trkpt lat="48.54804" lon="-0.40217">
        <ele>197.20751953125</ele>
        <time>2013-07-17T15:18:41Z</time>
      </trkpt>
      <trkpt lat="48.54807" lon="-0.40242">
        <ele>195.765625</ele>
        <time>2013-07-17T15:18:45Z</time>
      </trkpt>
      <trkpt lat="48.54816" lon="-0.40247">
        <ele>196.24633789062</ele>
        <time>2013-07-17T15:18:47Z</time>
      </trkpt>
      <trkpt lat="48.54847" lon="-0.40255">
        <ele>196.72692871094</ele>
        <time>2013-07-17T15:18:55Z</time>
      </trkpt>
      <trkpt lat="48.54868" lon="-0.40262">
        <ele>197.20751953125</ele>
        <time>2013-07-17T15:19:00Z</time>
      </trkpt>
      <trkpt lat="48.54886" lon="-0.40268">
        <ele>197.68823242188</ele>
        <time>2013-07-17T15:19:04Z</time>
      </trkpt>
      <trkpt lat="48.54928" lon="-0.40284">
        <ele>198.1689453125</ele>
        <time>2013-07-17T15:19:13Z</time>
      </trkpt>
      <trkpt lat="48.54951" lon="-0.40292">
        <ele>198.64953613281</ele>
        <time>2013-07-17T15:19:18Z</time>
      </trkpt>
      <trkpt lat="48.54996" lon="-0.4031">
        <ele>199.13012695312</ele>
        <time>2013-07-17T15:19:27Z</time>
      </trkpt>
      <trkpt lat="48.55013" lon="-0.40316">
        <ele>199.61083984375</ele>
        <time>2013-07-17T15:19:32Z</time>
      </trkpt>
      <trkpt lat="48.55022" lon="-0.4032">
        <ele>200.09167480469</ele>
        <time>2013-07-17T15:19:37Z</time>
      </trkpt>
      <trkpt lat="48.55035" lon="-0.40325">
        <ele>200.09167480469</ele>
        <time>2013-07-17T15:19:42Z</time>
      </trkpt>
      <trkpt lat="48.55059" lon="-0.40335">
        <ele>201.05285644531</ele>
        <time>2013-07-17T15:19:49Z</time>
      </trkpt>
      <trkpt lat="48.55096" lon="-0.4035">
        <ele>201.05285644531</ele>
        <time>2013-07-17T15:19:59Z</time>
      </trkpt>
      <trkpt lat="48.55112" lon="-0.40365">
        <ele>201.53356933594</ele>
        <time>2013-07-17T15:20:04Z</time>
      </trkpt>
      <trkpt lat="48.55125" lon="-0.40377">
        <ele>201.53356933594</ele>
        <time>2013-07-17T15:20:09Z</time>
      </trkpt>
      <trkpt lat="48.55132" lon="-0.40395">
        <ele>201.05285644531</ele>
        <time>2013-07-17T15:20:14Z</time>
      </trkpt>
      <trkpt lat="48.55138" lon="-0.40414">
        <ele>201.53356933594</ele>
        <time>2013-07-17T15:20:19Z</time>
      </trkpt>
      <trkpt lat="48.55142" lon="-0.40433">
        <ele>201.53356933594</ele>
        <time>2013-07-17T15:20:24Z</time>
      </trkpt>
      <trkpt lat="48.55145" lon="-0.40447">
        <ele>202.49487304688</ele>
        <time>2013-07-17T15:20:27Z</time>
      </trkpt>
      <trkpt lat="48.55146" lon="-0.40462">
        <ele>202.49487304688</ele>
        <time>2013-07-17T15:20:32Z</time>
      </trkpt>
      <trkpt lat="48.5514" lon="-0.40475">
        <ele>202.49487304688</ele>
        <time>2013-07-17T15:20:36Z</time>
      </trkpt>
      <trkpt lat="48.5512" lon="-0.40485">
        <ele>202.97546386719</ele>
        <time>2013-07-17T15:20:42Z</time>
      </trkpt>
      <trkpt lat="48.55098" lon="-0.40502">
        <ele>203.93688964844</ele>
        <time>2013-07-17T15:20:49Z</time>
      </trkpt>
      <trkpt lat="48.55073" lon="-0.40525">
        <ele>204.89807128906</ele>
        <time>2013-07-17T15:20:57Z</time>
      </trkpt>
      <trkpt lat="48.55051" lon="-0.40544">
        <ele>205.37878417969</ele>
        <time>2013-07-17T15:21:04Z</time>
      </trkpt>
      <trkpt lat="48.5504" lon="-0.4056">
        <ele>205.37878417969</ele>
        <time>2013-07-17T15:21:09Z</time>
      </trkpt>
      <trkpt lat="48.55022" lon="-0.40596">
        <ele>204.89807128906</ele>
        <time>2013-07-17T15:21:16Z</time>
      </trkpt>
      <trkpt lat="48.55011" lon="-0.40626">
        <ele>205.85949707031</ele>
        <time>2013-07-17T15:21:21Z</time>
      </trkpt>
      <trkpt lat="48.55003" lon="-0.40642">
        <ele>205.37878417969</ele>
        <time>2013-07-17T15:21:24Z</time>
      </trkpt>
      <trkpt lat="48.54993" lon="-0.40659">
        <ele>204.89807128906</ele>
        <time>2013-07-17T15:21:27Z</time>
      </trkpt>
      <trkpt lat="48.54984" lon="-0.40676">
        <ele>205.85949707031</ele>
        <time>2013-07-17T15:21:30Z</time>
      </trkpt>
      <trkpt lat="48.54979" lon="-0.40688">
        <ele>205.37878417969</ele>
        <time>2013-07-17T15:21:32Z</time>
      </trkpt>
      <trkpt lat="48.54971" lon="-0.40728">
        <ele>206.34008789062</ele>
        <time>2013-07-17T15:21:38Z</time>
      </trkpt>
      <trkpt lat="48.54961" lon="-0.40783">
        <ele>208.26281738281</ele>
        <time>2013-07-17T15:21:46Z</time>
      </trkpt>
      <trkpt lat="48.5495" lon="-0.40834">
        <ele>208.26281738281</ele>
        <time>2013-07-17T15:21:53Z</time>
      </trkpt>
      <trkpt lat="48.5494" lon="-0.4088">
        <ele>207.30139160156</ele>
        <time>2013-07-17T15:21:59Z</time>
      </trkpt>
      <trkpt lat="48.54939" lon="-0.40892">
        <ele>207.30139160156</ele>
        <time>2013-07-17T15:22:00Z</time>
      </trkpt>
      <trkpt lat="48.54927" lon="-0.40955">
        <ele>205.37878417969</ele>
        <time>2013-07-17T15:22:07Z</time>
      </trkpt>
      <trkpt lat="48.5492" lon="-0.40989">
        <ele>205.37878417969</ele>
        <time>2013-07-17T15:22:11Z</time>
      </trkpt>
      <trkpt lat="48.54909" lon="-0.41037">
        <ele>206.34008789062</ele>
        <time>2013-07-17T15:22:17Z</time>
      </trkpt>
      <trkpt lat="48.54913" lon="-0.41079">
        <ele>206.82067871094</ele>
        <time>2013-07-17T15:22:22Z</time>
      </trkpt>
      <trkpt lat="48.54927" lon="-0.41141">
        <ele>208.26281738281</ele>
        <time>2013-07-17T15:22:30Z</time>
      </trkpt>
      <trkpt lat="48.54929" lon="-0.41155">
        <ele>208.74340820312</ele>
        <time>2013-07-17T15:22:32Z</time>
      </trkpt>
      <trkpt lat="48.54939" lon="-0.41199">
        <ele>207.78210449219</ele>
        <time>2013-07-17T15:22:39Z</time>
      </trkpt>
      <trkpt lat="48.54949" lon="-0.41245">
        <ele>205.85949707031</ele>
        <time>2013-07-17T15:22:45Z</time>
      </trkpt>
      <trkpt lat="48.54953" lon="-0.41264">
        <ele>205.37878417969</ele>
        <time>2013-07-17T15:22:47Z</time>
      </trkpt>
      <trkpt lat="48.54954" lon="-0.41274">
        <ele>204.41748046875</ele>
        <time>2013-07-17T15:22:48Z</time>
      </trkpt>
      <trkpt lat="48.54945" lon="-0.41327">
        <ele>202.01428222656</ele>
        <time>2013-07-17T15:22:53Z</time>
      </trkpt>
      <trkpt lat="48.54928" lon="-0.41354">
        <ele>200.572265625</ele>
        <time>2013-07-17T15:22:56Z</time>
      </trkpt>
      <trkpt lat="48.54882" lon="-0.41409">
        <ele>196.72692871094</ele>
        <time>2013-07-17T15:23:02Z</time>
      </trkpt>
      <trkpt lat="48.54859" lon="-0.41466">
        <ele>193.3623046875</ele>
        <time>2013-07-17T15:23:06Z</time>
      </trkpt>
      <trkpt lat="48.54858" lon="-0.41518">
        <ele>191.43957519531</ele>
        <time>2013-07-17T15:23:09Z</time>
      </trkpt>
      <trkpt lat="48.54871" lon="-0.41568">
        <ele>189.03637695312</ele>
        <time>2013-07-17T15:23:12Z</time>
      </trkpt>
      <trkpt lat="48.54878" lon="-0.41584">
        <ele>188.07507324219</ele>
        <time>2013-07-17T15:23:13Z</time>
      </trkpt>
      <trkpt lat="48.54892" lon="-0.41613">
        <ele>186.63317871094</ele>
        <time>2013-07-17T15:23:15Z</time>
      </trkpt>
      <trkpt lat="48.54917" lon="-0.41653">
        <ele>184.71057128906</ele>
        <time>2013-07-17T15:23:18Z</time>
      </trkpt>
      <trkpt lat="48.54936" lon="-0.41676">
        <ele>181.34582519531</ele>
        <time>2013-07-17T15:23:20Z</time>
      </trkpt>
      <trkpt lat="48.54954" lon="-0.41697">
        <ele>179.90380859375</ele>
        <time>2013-07-17T15:23:22Z</time>
      </trkpt>
      <trkpt lat="48.54975" lon="-0.41718">
        <ele>179.42321777344</ele>
        <time>2013-07-17T15:23:25Z</time>
      </trkpt>
      <trkpt lat="48.54982" lon="-0.41728">
        <ele>178.4619140625</ele>
        <time>2013-07-17T15:23:28Z</time>
      </trkpt>
      <trkpt lat="48.54985" lon="-0.41733">
        <ele>178.4619140625</ele>
        <time>2013-07-17T15:23:32Z</time>
      </trkpt>
      <trkpt lat="48.55" lon="-0.41735">
        <ele>178.4619140625</ele>
        <time>2013-07-17T15:23:37Z</time>
      </trkpt>
      <trkpt lat="48.55024" lon="-0.41737">
        <ele>178.4619140625</ele>
        <time>2013-07-17T15:23:42Z</time>
      </trkpt>
      <trkpt lat="48.55066" lon="-0.41743">
        <ele>177.02001953125</ele>
        <time>2013-07-17T15:23:49Z</time>
      </trkpt>
      <trkpt lat="48.55112" lon="-0.41747">
        <ele>177.02001953125</ele>
        <time>2013-07-17T15:23:56Z</time>
      </trkpt>
      <trkpt lat="48.55156" lon="-0.41752">
        <ele>177.98120117188</ele>
        <time>2013-07-17T15:24:03Z</time>
      </trkpt>
      <trkpt lat="48.55172" lon="-0.41753">
        <ele>178.4619140625</ele>
        <time>2013-07-17T15:24:06Z</time>
      </trkpt>
      <trkpt lat="48.55198" lon="-0.41756">
        <ele>179.42321777344</ele>
        <time>2013-07-17T15:24:12Z</time>
      </trkpt>
      <trkpt lat="48.55205" lon="-0.41755">
        <ele>180.865234375</ele>
        <time>2013-07-17T15:24:14Z</time>
      </trkpt>
      <trkpt lat="48.55209" lon="-0.41773">
        <ele>179.90380859375</ele>
        <time>2013-07-17T15:24:18Z</time>
      </trkpt>
      <trkpt lat="48.55201" lon="-0.41827">
        <ele>181.82641601562</ele>
        <time>2013-07-17T15:24:26Z</time>
      </trkpt>
      <trkpt lat="48.55195" lon="-0.41865">
        <ele>182.30712890625</ele>
        <time>2013-07-17T15:24:32Z</time>
      </trkpt>
      <trkpt lat="48.5519" lon="-0.41885">
        <ele>182.78784179688</ele>
        <time>2013-07-17T15:24:36Z</time>
      </trkpt>
      <trkpt lat="48.55186" lon="-0.41897">
        <ele>182.78784179688</ele>
        <time>2013-07-17T15:24:38Z</time>
      </trkpt>
      <trkpt lat="48.55177" lon="-0.41919">
        <ele>183.26843261719</ele>
        <time>2013-07-17T15:24:42Z</time>
      </trkpt>
      <trkpt lat="48.55165" lon="-0.4194">
        <ele>183.26843261719</ele>
        <time>2013-07-17T15:24:46Z</time>
      </trkpt>
      <trkpt lat="48.55129" lon="-0.41978">
        <ele>183.26843261719</ele>
        <time>2013-07-17T15:24:55Z</time>
      </trkpt>
      <trkpt lat="48.55113" lon="-0.42016">
        <ele>183.7490234375</ele>
        <time>2013-07-17T15:25:02Z</time>
      </trkpt>
      <trkpt lat="48.55108" lon="-0.42035">
        <ele>183.7490234375</ele>
        <time>2013-07-17T15:25:07Z</time>
      </trkpt>
      <trkpt lat="48.55103" lon="-0.42053">
        <ele>184.71057128906</ele>
        <time>2013-07-17T15:25:14Z</time>
      </trkpt>
      <trkpt lat="48.55104" lon="-0.42054">
        <ele>184.71057128906</ele>
        <time>2013-07-17T15:25:16Z</time>
      </trkpt>
      <trkpt lat="48.55106" lon="-0.4206">
        <ele>184.22985839844</ele>
        <time>2013-07-17T15:26:55Z</time>
      </trkpt>
      <trkpt lat="48.55105" lon="-0.42061">
        <ele>184.22985839844</ele>
        <time>2013-07-17T15:26:56Z</time>
      </trkpt>
      <trkpt lat="48.5511" lon="-0.42072">
        <ele>185.67175292969</ele>
        <time>2013-07-17T15:27:01Z</time>
      </trkpt>
      <trkpt lat="48.55115" lon="-0.42082">
        <ele>186.63317871094</ele>
        <time>2013-07-17T15:27:06Z</time>
      </trkpt>
      <trkpt lat="48.55116" lon="-0.42107">
        <ele>188.07507324219</ele>
        <time>2013-07-17T15:27:14Z</time>
      </trkpt>
      <trkpt lat="48.55109" lon="-0.4213">
        <ele>189.51696777344</ele>
        <time>2013-07-17T15:27:22Z</time>
      </trkpt>
      <trkpt lat="48.55103" lon="-0.42152">
        <ele>190.958984375</ele>
        <time>2013-07-17T15:27:30Z</time>
      </trkpt>
      <trkpt lat="48.55107" lon="-0.42169">
        <ele>192.40112304688</ele>
        <time>2013-07-17T15:27:36Z</time>
      </trkpt>
      <trkpt lat="48.55116" lon="-0.42181">
        <ele>193.84301757812</ele>
        <time>2013-07-17T15:27:42Z</time>
      </trkpt>
      <trkpt lat="48.55118" lon="-0.42182">
        <ele>193.84301757812</ele>
        <time>2013-07-17T15:27:43Z</time>
      </trkpt>
      <trkpt lat="48.55123" lon="-0.42177">
        <ele>193.84301757812</ele>
        <time>2013-07-17T15:27:47Z</time>
      </trkpt>
      <trkpt lat="48.55124" lon="-0.42152">
        <ele>192.88171386719</ele>
        <time>2013-07-17T15:27:53Z</time>
      </trkpt>
      <trkpt lat="48.55125" lon="-0.42135">
        <ele>192.88171386719</ele>
        <time>2013-07-17T15:27:56Z</time>
      </trkpt>
      <trkpt lat="48.55132" lon="-0.42098">
        <ele>191.92028808594</ele>
        <time>2013-07-17T15:28:02Z</time>
      </trkpt>
      <trkpt lat="48.55142" lon="-0.42072">
        <ele>191.92028808594</ele>
        <time>2013-07-17T15:28:07Z</time>
      </trkpt>
      <trkpt lat="48.55149" lon="-0.42055">
        <ele>192.88171386719</ele>
        <time>2013-07-17T15:28:12Z</time>
      </trkpt>
      <trkpt lat="48.55159" lon="-0.42037">
        <ele>193.84301757812</ele>
        <time>2013-07-17T15:28:18Z</time>
      </trkpt>
      <trkpt lat="48.55172" lon="-0.42015">
        <ele>194.80432128906</ele>
        <time>2013-07-17T15:28:26Z</time>
      </trkpt>
      <trkpt lat="48.55181" lon="-0.41999">
        <ele>196.24633789062</ele>
        <time>2013-07-17T15:28:32Z</time>
      </trkpt>
      <trkpt lat="48.55192" lon="-0.41983">
        <ele>196.72692871094</ele>
        <time>2013-07-17T15:28:38Z</time>
      </trkpt>
      <trkpt lat="48.55207" lon="-0.41963">
        <ele>198.64953613281</ele>
        <time>2013-07-17T15:28:47Z</time>
      </trkpt>
      <trkpt lat="48.55219" lon="-0.41947">
        <ele>201.05285644531</ele>
        <time>2013-07-17T15:28:57Z</time>
      </trkpt>
      <trkpt lat="48.55225" lon="-0.4193">
        <ele>202.49487304688</ele>
        <time>2013-07-17T15:29:05Z</time>
      </trkpt>
      <trkpt lat="48.55228" lon="-0.41921">
        <ele>202.97546386719</ele>
        <time>2013-07-17T15:29:11Z</time>
      </trkpt>
      <trkpt lat="48.55232" lon="-0.41913">
        <ele>203.45617675781</ele>
        <time>2013-07-17T15:29:16Z</time>
      </trkpt>
      <trkpt lat="48.55237" lon="-0.41902">
        <ele>204.41748046875</ele>
        <time>2013-07-17T15:29:22Z</time>
      </trkpt>
      <trkpt lat="48.55242" lon="-0.41892">
        <ele>205.37878417969</ele>
        <time>2013-07-17T15:29:28Z</time>
      </trkpt>
      <trkpt lat="48.5525" lon="-0.4188">
        <ele>206.82067871094</ele>
        <time>2013-07-17T15:29:34Z</time>
      </trkpt>
      <trkpt lat="48.55256" lon="-0.41869">
        <ele>207.78210449219</ele>
        <time>2013-07-17T15:29:39Z</time>
      </trkpt>
      <trkpt lat="48.5526" lon="-0.41871">
        <ele>207.78210449219</ele>
        <time>2013-07-17T15:29:43Z</time>
      </trkpt>
      <trkpt lat="48.55264" lon="-0.41884">
        <ele>208.26281738281</ele>
        <time>2013-07-17T15:29:50Z</time>
      </trkpt>
      <trkpt lat="48.55265" lon="-0.41896">
        <ele>209.70483398438</ele>
        <time>2013-07-17T15:29:56Z</time>
      </trkpt>
      <trkpt lat="48.55265" lon="-0.41897">
        <ele>209.70483398438</ele>
        <time>2013-07-17T15:29:57Z</time>
      </trkpt>
      <trkpt lat="48.55265" lon="-0.41907">
        <ele>210.18542480469</ele>
        <time>2013-07-17T15:30:01Z</time>
      </trkpt>
      <trkpt lat="48.55265" lon="-0.41922">
        <ele>210.666015625</ele>
        <time>2013-07-17T15:30:06Z</time>
      </trkpt>
      <trkpt lat="48.55272" lon="-0.41943">
        <ele>211.62744140625</ele>
        <time>2013-07-17T15:30:14Z</time>
      </trkpt>
      <trkpt lat="48.5528" lon="-0.4195">
        <ele>212.58862304688</ele>
        <time>2013-07-17T15:30:20Z</time>
      </trkpt>
      <trkpt lat="48.55283" lon="-0.41946">
        <ele>213.55004882812</ele>
        <time>2013-07-17T15:30:23Z</time>
      </trkpt>
      <trkpt lat="48.55285" lon="-0.41937">
        <ele>213.55004882812</ele>
        <time>2013-07-17T15:30:27Z</time>
      </trkpt>
      <trkpt lat="48.55283" lon="-0.41917">
        <ele>213.55004882812</ele>
        <time>2013-07-17T15:30:34Z</time>
      </trkpt>
      <trkpt lat="48.55282" lon="-0.41893">
        <ele>213.55004882812</ele>
        <time>2013-07-17T15:30:40Z</time>
      </trkpt>
      <trkpt lat="48.55279" lon="-0.41874">
        <ele>213.55004882812</ele>
        <time>2013-07-17T15:30:45Z</time>
      </trkpt>
      <trkpt lat="48.5528" lon="-0.41852">
        <ele>214.99194335938</ele>
        <time>2013-07-17T15:30:50Z</time>
      </trkpt>
      <trkpt lat="48.55287" lon="-0.41834">
        <ele>215.47265625</ele>
        <time>2013-07-17T15:30:55Z</time>
      </trkpt>
      <trkpt lat="48.55296" lon="-0.41815">
        <ele>215.47265625</ele>
        <time>2013-07-17T15:31:00Z</time>
      </trkpt>
      <trkpt lat="48.55312" lon="-0.41793">
        <ele>214.99194335938</ele>
        <time>2013-07-17T15:31:05Z</time>
      </trkpt>
      <trkpt lat="48.55326" lon="-0.41774">
        <ele>214.99194335938</ele>
        <time>2013-07-17T15:31:09Z</time>
      </trkpt>
      <trkpt lat="48.55345" lon="-0.41762">
        <ele>215.95324707031</ele>
        <time>2013-07-17T15:31:14Z</time>
      </trkpt>
      <trkpt lat="48.55357" lon="-0.41773">
        <ele>216.43395996094</ele>
        <time>2013-07-17T15:31:18Z</time>
      </trkpt>
      <trkpt lat="48.55367" lon="-0.41787">
        <ele>217.39538574219</ele>
        <time>2013-07-17T15:31:23Z</time>
      </trkpt>
      <trkpt lat="48.55376" lon="-0.41808">
        <ele>219.31799316406</ele>
        <time>2013-07-17T15:31:30Z</time>
      </trkpt>
      <trkpt lat="48.55386" lon="-0.4183">
        <ele>221.24060058594</ele>
        <time>2013-07-17T15:31:38Z</time>
      </trkpt>
      <trkpt lat="48.55393" lon="-0.41849">
        <ele>222.68249511719</ele>
        <time>2013-07-17T15:31:44Z</time>
      </trkpt>
      <trkpt lat="48.55405" lon="-0.41869">
        <ele>223.64379882812</ele>
        <time>2013-07-17T15:31:51Z</time>
      </trkpt>
      <trkpt lat="48.55415" lon="-0.41882">
        <ele>224.60522460938</ele>
        <time>2013-07-17T15:31:57Z</time>
      </trkpt>
      <trkpt lat="48.55429" lon="-0.41894">
        <ele>224.60522460938</ele>
        <time>2013-07-17T15:32:03Z</time>
      </trkpt>
      <trkpt lat="48.55438" lon="-0.41907">
        <ele>224.12451171875</ele>
        <time>2013-07-17T15:32:08Z</time>
      </trkpt>
      <trkpt lat="48.55447" lon="-0.41921">
        <ele>224.12451171875</ele>
        <time>2013-07-17T15:32:13Z</time>
      </trkpt>
      <trkpt lat="48.5546" lon="-0.41945">
        <ele>224.60522460938</ele>
        <time>2013-07-17T15:32:19Z</time>
      </trkpt>
      <trkpt lat="48.55474" lon="-0.41968">
        <ele>225.56652832031</ele>
        <time>2013-07-17T15:32:25Z</time>
      </trkpt>
      <trkpt lat="48.5549" lon="-0.41984">
        <ele>226.04711914062</ele>
        <time>2013-07-17T15:32:31Z</time>
      </trkpt>
      <trkpt lat="48.55505" lon="-0.41999">
        <ele>227.00854492188</ele>
        <time>2013-07-17T15:32:37Z</time>
      </trkpt>
      <trkpt lat="48.55518" lon="-0.42019">
        <ele>227.9697265625</ele>
        <time>2013-07-17T15:32:43Z</time>
      </trkpt>
      <trkpt lat="48.55531" lon="-0.42051">
        <ele>228.93115234375</ele>
        <time>2013-07-17T15:32:51Z</time>
      </trkpt>
      <trkpt lat="48.55535" lon="-0.42063">
        <ele>229.41174316406</ele>
        <time>2013-07-17T15:32:56Z</time>
      </trkpt>
      <trkpt lat="48.55543" lon="-0.42086">
        <ele>230.373046875</ele>
        <time>2013-07-17T15:33:03Z</time>
      </trkpt>
      <trkpt lat="48.55556" lon="-0.4213">
        <ele>230.85375976562</ele>
        <time>2013-07-17T15:33:14Z</time>
      </trkpt>
      <trkpt lat="48.55568" lon="-0.42167">
        <ele>232.29577636719</ele>
        <time>2013-07-17T15:33:23Z</time>
      </trkpt>
      <trkpt lat="48.55574" lon="-0.42207">
        <ele>232.77648925781</ele>
        <time>2013-07-17T15:33:31Z</time>
      </trkpt>
      <trkpt lat="48.55576" lon="-0.42235">
        <ele>233.25708007812</ele>
        <time>2013-07-17T15:33:37Z</time>
      </trkpt>
      <trkpt lat="48.5558" lon="-0.42254">
        <ele>233.25708007812</ele>
        <time>2013-07-17T15:33:42Z</time>
      </trkpt>
      <trkpt lat="48.55581" lon="-0.42287">
        <ele>232.77648925781</ele>
        <time>2013-07-17T15:33:49Z</time>
      </trkpt>
      <trkpt lat="48.5558" lon="-0.42319">
        <ele>232.29577636719</ele>
        <time>2013-07-17T15:33:55Z</time>
      </trkpt>
      <trkpt lat="48.55581" lon="-0.42342">
        <ele>232.29577636719</ele>
        <time>2013-07-17T15:34:00Z</time>
      </trkpt>
      <trkpt lat="48.55584" lon="-0.42367">
        <ele>231.81494140625</ele>
        <time>2013-07-17T15:34:07Z</time>
      </trkpt>
      <trkpt lat="48.55588" lon="-0.42409">
        <ele>231.81494140625</ele>
        <time>2013-07-17T15:34:14Z</time>
      </trkpt>
      <trkpt lat="48.55589" lon="-0.42416">
        <ele>231.33435058594</ele>
        <time>2013-07-17T15:34:15Z</time>
      </trkpt>
      <trkpt lat="48.55595" lon="-0.42465">
        <ele>230.85375976562</ele>
        <time>2013-07-17T15:34:23Z</time>
      </trkpt>
      <trkpt lat="48.55601" lon="-0.42493">
        <ele>231.33435058594</ele>
        <time>2013-07-17T15:34:28Z</time>
      </trkpt>
      <trkpt lat="48.55603" lon="-0.42506">
        <ele>231.33435058594</ele>
        <time>2013-07-17T15:34:32Z</time>
      </trkpt>
      <trkpt lat="48.55608" lon="-0.42529">
        <ele>231.81494140625</ele>
        <time>2013-07-17T15:34:38Z</time>
      </trkpt>
      <trkpt lat="48.55617" lon="-0.42557">
        <ele>231.81494140625</ele>
        <time>2013-07-17T15:34:43Z</time>
      </trkpt>
      <trkpt lat="48.55621" lon="-0.42586">
        <ele>232.29577636719</ele>
        <time>2013-07-17T15:34:48Z</time>
      </trkpt>
      <trkpt lat="48.5563" lon="-0.42626">
        <ele>233.25708007812</ele>
        <time>2013-07-17T15:34:55Z</time>
      </trkpt>
      <trkpt lat="48.55631" lon="-0.42632">
        <ele>233.25708007812</ele>
        <time>2013-07-17T15:34:56Z</time>
      </trkpt>
      <trkpt lat="48.55639" lon="-0.4267">
        <ele>234.21838378906</ele>
        <time>2013-07-17T15:35:02Z</time>
      </trkpt>
      <trkpt lat="48.55641" lon="-0.42689">
        <ele>234.21838378906</ele>
        <time>2013-07-17T15:35:06Z</time>
      </trkpt>
      <trkpt lat="48.55644" lon="-0.427">
        <ele>233.73767089844</ele>
        <time>2013-07-17T15:35:09Z</time>
      </trkpt>
      <trkpt lat="48.55645" lon="-0.42713">
        <ele>234.21838378906</ele>
        <time>2013-07-17T15:35:14Z</time>
      </trkpt>
      <trkpt lat="48.5565" lon="-0.42733">
        <ele>234.21838378906</ele>
        <time>2013-07-17T15:35:19Z</time>
      </trkpt>
      <trkpt lat="48.55652" lon="-0.42753">
        <ele>235.1796875</ele>
        <time>2013-07-17T15:35:24Z</time>
      </trkpt>
      <trkpt lat="48.55662" lon="-0.4279">
        <ele>235.1796875</ele>
        <time>2013-07-17T15:35:30Z</time>
      </trkpt>
      <trkpt lat="48.55668" lon="-0.4281">
        <ele>234.69909667969</ele>
        <time>2013-07-17T15:35:33Z</time>
      </trkpt>
      <trkpt lat="48.5568" lon="-0.42849">
        <ele>235.66027832031</ele>
        <time>2013-07-17T15:35:39Z</time>
      </trkpt>
      <trkpt lat="48.55686" lon="-0.42887">
        <ele>236.14099121094</ele>
        <time>2013-07-17T15:35:46Z</time>
      </trkpt>
      <trkpt lat="48.5569" lon="-0.42919">
        <ele>236.14099121094</ele>
        <time>2013-07-17T15:35:52Z</time>
      </trkpt>
      <trkpt lat="48.55694" lon="-0.42935">
        <ele>236.62170410156</ele>
        <time>2013-07-17T15:35:57Z</time>
      </trkpt>
      <trkpt lat="48.55695" lon="-0.42936">
        <ele>236.62170410156</ele>
        <time>2013-07-17T15:35:58Z</time>
      </trkpt>
      <trkpt lat="48.55699" lon="-0.42956">
        <ele>237.58288574219</ele>
        <time>2013-07-17T15:36:03Z</time>
      </trkpt>
      <trkpt lat="48.55704" lon="-0.42989">
        <ele>238.06359863281</ele>
        <time>2013-07-17T15:36:09Z</time>
      </trkpt>
      <trkpt lat="48.55709" lon="-0.4302">
        <ele>239.02490234375</ele>
        <time>2013-07-17T15:36:15Z</time>
      </trkpt>
      <trkpt lat="48.55712" lon="-0.43036">
        <ele>239.02490234375</ele>
        <time>2013-07-17T15:36:19Z</time>
      </trkpt>
      <trkpt lat="48.55714" lon="-0.43052">
        <ele>238.06359863281</ele>
        <time>2013-07-17T15:36:24Z</time>
      </trkpt>
      <trkpt lat="48.55718" lon="-0.43072">
        <ele>238.06359863281</ele>
        <time>2013-07-17T15:36:28Z</time>
      </trkpt>
      <trkpt lat="48.55721" lon="-0.43101">
        <ele>238.54431152344</ele>
        <time>2013-07-17T15:36:33Z</time>
      </trkpt>
      <trkpt lat="48.55726" lon="-0.43131">
        <ele>238.06359863281</ele>
        <time>2013-07-17T15:36:38Z</time>
      </trkpt>
      <trkpt lat="48.55729" lon="-0.43158">
        <ele>238.06359863281</ele>
        <time>2013-07-17T15:36:43Z</time>
      </trkpt>
      <trkpt lat="48.55733" lon="-0.43186">
        <ele>237.58288574219</ele>
        <time>2013-07-17T15:36:49Z</time>
      </trkpt>
      <trkpt lat="48.55738" lon="-0.43209">
        <ele>237.10229492188</ele>
        <time>2013-07-17T15:36:53Z</time>
      </trkpt>
      <trkpt lat="48.55742" lon="-0.4324">
        <ele>235.66027832031</ele>
        <time>2013-07-17T15:36:58Z</time>
      </trkpt>
      <trkpt lat="48.55746" lon="-0.43275">
        <ele>235.66027832031</ele>
        <time>2013-07-17T15:37:03Z</time>
      </trkpt>
      <trkpt lat="48.55747" lon="-0.43306">
        <ele>235.66027832031</ele>
        <time>2013-07-17T15:37:08Z</time>
      </trkpt>
      <trkpt lat="48.55747" lon="-0.43313">
        <ele>235.66027832031</ele>
        <time>2013-07-17T15:37:09Z</time>
      </trkpt>
      <trkpt lat="48.55745" lon="-0.43361">
        <ele>235.66027832031</ele>
        <time>2013-07-17T15:37:15Z</time>
      </trkpt>
      <trkpt lat="48.55742" lon="-0.43374">
        <ele>235.66027832031</ele>
        <time>2013-07-17T15:37:17Z</time>
      </trkpt>
      <trkpt lat="48.55739" lon="-0.43397">
        <ele>235.66027832031</ele>
        <time>2013-07-17T15:37:20Z</time>
      </trkpt>
      <trkpt lat="48.55737" lon="-0.43421">
        <ele>235.1796875</ele>
        <time>2013-07-17T15:37:23Z</time>
      </trkpt>
      <trkpt lat="48.5573" lon="-0.43464">
        <ele>235.66027832031</ele>
        <time>2013-07-17T15:37:28Z</time>
      </trkpt>
      <trkpt lat="48.55724" lon="-0.43496">
        <ele>236.14099121094</ele>
        <time>2013-07-17T15:37:33Z</time>
      </trkpt>
      <trkpt lat="48.55719" lon="-0.43523">
        <ele>236.62170410156</ele>
        <time>2013-07-17T15:37:38Z</time>
      </trkpt>
      <trkpt lat="48.55716" lon="-0.4355">
        <ele>237.10229492188</ele>
        <time>2013-07-17T15:37:43Z</time>
      </trkpt>
      <trkpt lat="48.55713" lon="-0.43573">
        <ele>237.10229492188</ele>
        <time>2013-07-17T15:37:48Z</time>
      </trkpt>
      <trkpt lat="48.5571" lon="-0.4359">
        <ele>237.58288574219</ele>
        <time>2013-07-17T15:37:53Z</time>
      </trkpt>
      <trkpt lat="48.55707" lon="-0.43612">
        <ele>237.10229492188</ele>
        <time>2013-07-17T15:37:57Z</time>
      </trkpt>
      <trkpt lat="48.5571" lon="-0.43636">
        <ele>236.14099121094</ele>
        <time>2013-07-17T15:38:02Z</time>
      </trkpt>
      <trkpt lat="48.55716" lon="-0.43664">
        <ele>234.69909667969</ele>
        <time>2013-07-17T15:38:07Z</time>
      </trkpt>
      <trkpt lat="48.55718" lon="-0.43671">
        <ele>233.73767089844</ele>
        <time>2013-07-17T15:38:08Z</time>
      </trkpt>
      <trkpt lat="48.55725" lon="-0.43703">
        <ele>233.25708007812</ele>
        <time>2013-07-17T15:38:12Z</time>
      </trkpt>
      <trkpt lat="48.55727" lon="-0.43719">
        <ele>232.77648925781</ele>
        <time>2013-07-17T15:38:14Z</time>
      </trkpt>
      <trkpt lat="48.55734" lon="-0.43744">
        <ele>231.33435058594</ele>
        <time>2013-07-17T15:38:17Z</time>
      </trkpt>
      <trkpt lat="48.55745" lon="-0.43784">
        <ele>230.373046875</ele>
        <time>2013-07-17T15:38:22Z</time>
      </trkpt>
      <trkpt lat="48.55754" lon="-0.43823">
        <ele>228.45043945312</ele>
        <time>2013-07-17T15:38:26Z</time>
      </trkpt>
      <trkpt lat="48.55762" lon="-0.43854">
        <ele>227.48913574219</ele>
        <time>2013-07-17T15:38:29Z</time>
      </trkpt>
      <trkpt lat="48.55782" lon="-0.43905">
        <ele>227.48913574219</ele>
        <time>2013-07-17T15:38:33Z</time>
      </trkpt>
      <trkpt lat="48.55788" lon="-0.43928">
        <ele>227.9697265625</ele>
        <time>2013-07-17T15:38:36Z</time>
      </trkpt>
      <trkpt lat="48.55791" lon="-0.43946">
        <ele>228.45043945312</ele>
        <time>2013-07-17T15:38:40Z</time>
      </trkpt>
      <trkpt lat="48.55796" lon="-0.43972">
        <ele>228.45043945312</ele>
        <time>2013-07-17T15:38:45Z</time>
      </trkpt>
      <trkpt lat="48.55801" lon="-0.43991">
        <ele>227.00854492188</ele>
        <time>2013-07-17T15:38:49Z</time>
      </trkpt>
      <trkpt lat="48.55809" lon="-0.44019">
        <ele>226.04711914062</ele>
        <time>2013-07-17T15:38:53Z</time>
      </trkpt>
      <trkpt lat="48.55816" lon="-0.44047">
        <ele>226.04711914062</ele>
        <time>2013-07-17T15:38:57Z</time>
      </trkpt>
      <trkpt lat="48.55822" lon="-0.44074">
        <ele>226.52783203125</ele>
        <time>2013-07-17T15:39:02Z</time>
      </trkpt>
      <trkpt lat="48.55822" lon="-0.44075">
        <ele>226.52783203125</ele>
        <time>2013-07-17T15:39:03Z</time>
      </trkpt>
      <trkpt lat="48.55822" lon="-0.44101">
        <ele>227.9697265625</ele>
        <time>2013-07-17T15:41:24Z</time>
      </trkpt>
      <trkpt lat="48.55822" lon="-0.441">
        <ele>227.48913574219</ele>
        <time>2013-07-17T15:41:25Z</time>
      </trkpt>
      <trkpt lat="48.55822" lon="-0.441">
        <ele>227.9697265625</ele>
        <time>2013-07-17T15:41:26Z</time>
      </trkpt>
      <trkpt lat="48.55822" lon="-0.44096">
        <ele>227.48913574219</ele>
        <time>2013-07-17T15:41:32Z</time>
      </trkpt>
      <trkpt lat="48.55819" lon="-0.44084">
        <ele>227.00854492188</ele>
        <time>2013-07-17T15:41:35Z</time>
      </trkpt>
      <trkpt lat="48.55818" lon="-0.4408">
        <ele>227.48913574219</ele>
        <time>2013-07-17T15:41:36Z</time>
      </trkpt>
      <trkpt lat="48.55816" lon="-0.44064">
        <ele>227.48913574219</ele>
        <time>2013-07-17T15:41:40Z</time>
      </trkpt>
      <trkpt lat="48.55802" lon="-0.44044">
        <ele>227.00854492188</ele>
        <time>2013-07-17T15:41:46Z</time>
      </trkpt>
      <trkpt lat="48.55793" lon="-0.44026">
        <ele>226.04711914062</ele>
        <time>2013-07-17T15:41:50Z</time>
      </trkpt>
      <trkpt lat="48.55783" lon="-0.44008">
        <ele>225.56652832031</ele>
        <time>2013-07-17T15:41:55Z</time>
      </trkpt>
      <trkpt lat="48.55778" lon="-0.44002">
        <ele>226.04711914062</ele>
        <time>2013-07-17T15:41:57Z</time>
      </trkpt>
      <trkpt lat="48.55769" lon="-0.43997">
        <ele>224.12451171875</ele>
        <time>2013-07-17T15:42:00Z</time>
      </trkpt>
      <trkpt lat="48.55756" lon="-0.43995">
        <ele>223.16320800781</ele>
        <time>2013-07-17T15:42:04Z</time>
      </trkpt>
      <trkpt lat="48.55743" lon="-0.43992">
        <ele>221.72119140625</ele>
        <time>2013-07-17T15:42:08Z</time>
      </trkpt>
      <trkpt lat="48.55739" lon="-0.43991">
        <ele>221.72119140625</ele>
        <time>2013-07-17T15:42:09Z</time>
      </trkpt>
      <trkpt lat="48.55726" lon="-0.43988">
        <ele>220.27917480469</ele>
        <time>2013-07-17T15:42:12Z</time>
      </trkpt>
      <trkpt lat="48.55706" lon="-0.43981">
        <ele>219.31799316406</ele>
        <time>2013-07-17T15:42:16Z</time>
      </trkpt>
      <trkpt lat="48.55682" lon="-0.43983">
        <ele>217.8759765625</ele>
        <time>2013-07-17T15:42:21Z</time>
      </trkpt>
      <trkpt lat="48.55669" lon="-0.43989">
        <ele>216.43395996094</ele>
        <time>2013-07-17T15:42:23Z</time>
      </trkpt>
      <trkpt lat="48.55654" lon="-0.43995">
        <ele>215.95324707031</ele>
        <time>2013-07-17T15:42:25Z</time>
      </trkpt>
      <trkpt lat="48.55641" lon="-0.44001">
        <ele>214.99194335938</ele>
        <time>2013-07-17T15:42:27Z</time>
      </trkpt>
      <trkpt lat="48.55634" lon="-0.44016">
        <ele>214.51123046875</ele>
        <time>2013-07-17T15:42:32Z</time>
      </trkpt>
      <trkpt lat="48.55618" lon="-0.44029">
        <ele>212.58862304688</ele>
        <time>2013-07-17T15:42:38Z</time>
      </trkpt>
      <trkpt lat="48.55608" lon="-0.44035">
        <ele>211.62744140625</ele>
        <time>2013-07-17T15:42:40Z</time>
      </trkpt>
      <trkpt lat="48.55572" lon="-0.44054">
        <ele>209.22412109375</ele>
        <time>2013-07-17T15:42:46Z</time>
      </trkpt>
      <trkpt lat="48.5555" lon="-0.44067">
        <ele>207.78210449219</ele>
        <time>2013-07-17T15:42:49Z</time>
      </trkpt>
      <trkpt lat="48.55501" lon="-0.44092">
        <ele>205.37878417969</ele>
        <time>2013-07-17T15:42:55Z</time>
      </trkpt>
      <trkpt lat="48.55474" lon="-0.44107">
        <ele>202.97546386719</ele>
        <time>2013-07-17T15:42:59Z</time>
      </trkpt>
      <trkpt lat="48.55465" lon="-0.44122">
        <ele>202.49487304688</ele>
        <time>2013-07-17T15:43:03Z</time>
      </trkpt>
      <trkpt lat="48.55468" lon="-0.44133">
        <ele>201.53356933594</ele>
        <time>2013-07-17T15:43:05Z</time>
      </trkpt>
      <trkpt lat="48.55478" lon="-0.44162">
        <ele>201.05285644531</ele>
        <time>2013-07-17T15:43:10Z</time>
      </trkpt>
      <trkpt lat="48.5549" lon="-0.44204">
        <ele>201.05285644531</ele>
        <time>2013-07-17T15:43:15Z</time>
      </trkpt>
      <trkpt lat="48.55493" lon="-0.44214">
        <ele>200.572265625</ele>
        <time>2013-07-17T15:43:16Z</time>
      </trkpt>
      <trkpt lat="48.55496" lon="-0.44231">
        <ele>201.05285644531</ele>
        <time>2013-07-17T15:43:18Z</time>
      </trkpt>
      <trkpt lat="48.55494" lon="-0.44257">
        <ele>201.05285644531</ele>
        <time>2013-07-17T15:43:22Z</time>
      </trkpt>
      <trkpt lat="48.55489" lon="-0.44276">
        <ele>200.572265625</ele>
        <time>2013-07-17T15:43:26Z</time>
      </trkpt>
      <trkpt lat="48.555" lon="-0.44323">
        <ele>200.09167480469</ele>
        <time>2013-07-17T15:43:34Z</time>
      </trkpt>
      <trkpt lat="48.55511" lon="-0.44346">
        <ele>199.13012695312</ele>
        <time>2013-07-17T15:43:39Z</time>
      </trkpt>
      <trkpt lat="48.55518" lon="-0.44375">
        <ele>197.68823242188</ele>
        <time>2013-07-17T15:43:43Z</time>
      </trkpt>
      <trkpt lat="48.55528" lon="-0.44418">
        <ele>195.28491210938</ele>
        <time>2013-07-17T15:43:47Z</time>
      </trkpt>
      <trkpt lat="48.5553" lon="-0.44428">
        <ele>194.80432128906</ele>
        <time>2013-07-17T15:43:48Z</time>
      </trkpt>
      <trkpt lat="48.55543" lon="-0.44472">
        <ele>193.84301757812</ele>
        <time>2013-07-17T15:43:52Z</time>
      </trkpt>
      <trkpt lat="48.55547" lon="-0.44481">
        <ele>193.84301757812</ele>
        <time>2013-07-17T15:43:53Z</time>
      </trkpt>
      <trkpt lat="48.55553" lon="-0.44498">
        <ele>194.32373046875</ele>
        <time>2013-07-17T15:43:55Z</time>
      </trkpt>
      <trkpt lat="48.55564" lon="-0.44516">
        <ele>194.32373046875</ele>
        <time>2013-07-17T15:43:58Z</time>
      </trkpt>
      <trkpt lat="48.5557" lon="-0.44536">
        <ele>194.80432128906</ele>
        <time>2013-07-17T15:44:02Z</time>
      </trkpt>
      <trkpt lat="48.55568" lon="-0.44556">
        <ele>195.28491210938</ele>
        <time>2013-07-17T15:44:06Z</time>
      </trkpt>
      <trkpt lat="48.55569" lon="-0.44576">
        <ele>196.24633789062</ele>
        <time>2013-07-17T15:44:10Z</time>
      </trkpt>
      <trkpt lat="48.55575" lon="-0.44599">
        <ele>197.20751953125</ele>
        <time>2013-07-17T15:44:15Z</time>
      </trkpt>
      <trkpt lat="48.55581" lon="-0.44627">
        <ele>198.64953613281</ele>
        <time>2013-07-17T15:44:20Z</time>
      </trkpt>
      <trkpt lat="48.55583" lon="-0.44653">
        <ele>199.61083984375</ele>
        <time>2013-07-17T15:44:25Z</time>
      </trkpt>
      <trkpt lat="48.55584" lon="-0.44679">
        <ele>200.09167480469</ele>
        <time>2013-07-17T15:44:30Z</time>
      </trkpt>
      <trkpt lat="48.55586" lon="-0.44706">
        <ele>199.61083984375</ele>
        <time>2013-07-17T15:44:35Z</time>
      </trkpt>
      <trkpt lat="48.55586" lon="-0.44739">
        <ele>199.61083984375</ele>
        <time>2013-07-17T15:44:41Z</time>
      </trkpt>
      <trkpt lat="48.55583" lon="-0.44769">
        <ele>198.64953613281</ele>
        <time>2013-07-17T15:44:46Z</time>
      </trkpt>
      <trkpt lat="48.55579" lon="-0.44802">
        <ele>198.1689453125</ele>
        <time>2013-07-17T15:44:51Z</time>
      </trkpt>
      <trkpt lat="48.55563" lon="-0.44843">
        <ele>196.24633789062</ele>
        <time>2013-07-17T15:44:57Z</time>
      </trkpt>
      <trkpt lat="48.55559" lon="-0.44878">
        <ele>195.28491210938</ele>
        <time>2013-07-17T15:45:01Z</time>
      </trkpt>
      <trkpt lat="48.5556" lon="-0.44886">
        <ele>194.80432128906</ele>
        <time>2013-07-17T15:45:02Z</time>
      </trkpt>
      <trkpt lat="48.55549" lon="-0.44924">
        <ele>193.84301757812</ele>
        <time>2013-07-17T15:45:07Z</time>
      </trkpt>
      <trkpt lat="48.55528" lon="-0.44926">
        <ele>192.88171386719</ele>
        <time>2013-07-17T15:45:10Z</time>
      </trkpt>
      <trkpt lat="48.55507" lon="-0.44926">
        <ele>192.40112304688</ele>
        <time>2013-07-17T15:45:13Z</time>
      </trkpt>
      <trkpt lat="48.55487" lon="-0.44926">
        <ele>190.958984375</ele>
        <time>2013-07-17T15:45:16Z</time>
      </trkpt>
      <trkpt lat="48.55475" lon="-0.44925">
        <ele>191.92028808594</ele>
        <time>2013-07-17T15:45:18Z</time>
      </trkpt>
      <trkpt lat="48.55437" lon="-0.44925">
        <ele>191.92028808594</ele>
        <time>2013-07-17T15:45:25Z</time>
      </trkpt>
      <trkpt lat="48.55401" lon="-0.44926">
        <ele>191.92028808594</ele>
        <time>2013-07-17T15:45:32Z</time>
      </trkpt>
      <trkpt lat="48.5536" lon="-0.44931">
        <ele>190.47839355469</ele>
        <time>2013-07-17T15:45:39Z</time>
      </trkpt>
      <trkpt lat="48.55347" lon="-0.44934">
        <ele>189.03637695312</ele>
        <time>2013-07-17T15:45:41Z</time>
      </trkpt>
      <trkpt lat="48.55333" lon="-0.44936">
        <ele>189.03637695312</ele>
        <time>2013-07-17T15:45:43Z</time>
      </trkpt>
      <trkpt lat="48.55294" lon="-0.44933">
        <ele>187.11376953125</ele>
        <time>2013-07-17T15:45:48Z</time>
      </trkpt>
      <trkpt lat="48.55276" lon="-0.44924">
        <ele>186.63317871094</ele>
        <time>2013-07-17T15:45:51Z</time>
      </trkpt>
      <trkpt lat="48.5526" lon="-0.44923">
        <ele>186.15246582031</ele>
        <time>2013-07-17T15:45:54Z</time>
      </trkpt>
      <trkpt lat="48.55243" lon="-0.44922">
        <ele>185.67175292969</ele>
        <time>2013-07-17T15:45:57Z</time>
      </trkpt>
      <trkpt lat="48.55228" lon="-0.44911">
        <ele>185.19116210938</ele>
        <time>2013-07-17T15:46:01Z</time>
      </trkpt>
      <trkpt lat="48.55224" lon="-0.4489">
        <ele>185.19116210938</ele>
        <time>2013-07-17T15:46:05Z</time>
      </trkpt>
      <trkpt lat="48.55224" lon="-0.44884">
        <ele>185.19116210938</ele>
        <time>2013-07-17T15:46:06Z</time>
      </trkpt>
      <trkpt lat="48.55222" lon="-0.44856">
        <ele>186.15246582031</ele>
        <time>2013-07-17T15:46:10Z</time>
      </trkpt>
      <trkpt lat="48.5522" lon="-0.4483">
        <ele>185.67175292969</ele>
        <time>2013-07-17T15:46:14Z</time>
      </trkpt>
      <trkpt lat="48.55217" lon="-0.44817">
        <ele>185.19116210938</ele>
        <time>2013-07-17T15:46:16Z</time>
      </trkpt>
      <trkpt lat="48.55201" lon="-0.4479">
        <ele>184.22985839844</ele>
        <time>2013-07-17T15:46:21Z</time>
      </trkpt>
      <trkpt lat="48.5518" lon="-0.44758">
        <ele>183.26843261719</ele>
        <time>2013-07-17T15:46:27Z</time>
      </trkpt>
      <trkpt lat="48.55159" lon="-0.44719">
        <ele>179.42321777344</ele>
        <time>2013-07-17T15:46:32Z</time>
      </trkpt>
      <trkpt lat="48.55153" lon="-0.44711">
        <ele>179.42321777344</ele>
        <time>2013-07-17T15:46:33Z</time>
      </trkpt>
      <trkpt lat="48.55146" lon="-0.44704">
        <ele>178.94262695312</ele>
        <time>2013-07-17T15:46:34Z</time>
      </trkpt>
      <trkpt lat="48.55111" lon="-0.44691">
        <ele>177.98120117188</ele>
        <time>2013-07-17T15:46:39Z</time>
      </trkpt>
      <trkpt lat="48.55072" lon="-0.44716">
        <ele>177.50061035156</ele>
        <time>2013-07-17T15:46:46Z</time>
      </trkpt>
      <trkpt lat="48.55053" lon="-0.44727">
        <ele>178.4619140625</ele>
        <time>2013-07-17T15:46:51Z</time>
      </trkpt>
      <trkpt lat="48.55038" lon="-0.44735">
        <ele>179.42321777344</ele>
        <time>2013-07-17T15:46:57Z</time>
      </trkpt>
      <trkpt lat="48.55008" lon="-0.44748">
        <ele>179.90380859375</ele>
        <time>2013-07-17T15:47:06Z</time>
      </trkpt>
      <trkpt lat="48.5498" lon="-0.44759">
        <ele>181.82641601562</ele>
        <time>2013-07-17T15:47:14Z</time>
      </trkpt>
      <trkpt lat="48.54963" lon="-0.44766">
        <ele>183.26843261719</ele>
        <time>2013-07-17T15:47:19Z</time>
      </trkpt>
      <trkpt lat="48.54931" lon="-0.44779">
        <ele>184.71057128906</ele>
        <time>2013-07-17T15:47:28Z</time>
      </trkpt>
      <trkpt lat="48.54901" lon="-0.44786">
        <ele>186.15246582031</ele>
        <time>2013-07-17T15:47:37Z</time>
      </trkpt>
      <trkpt lat="48.54876" lon="-0.44791">
        <ele>185.19116210938</ele>
        <time>2013-07-17T15:47:44Z</time>
      </trkpt>
      <trkpt lat="48.5485" lon="-0.44801">
        <ele>183.7490234375</ele>
        <time>2013-07-17T15:47:49Z</time>
      </trkpt>
      <trkpt lat="48.54819" lon="-0.44822">
        <ele>182.78784179688</ele>
        <time>2013-07-17T15:47:55Z</time>
      </trkpt>
      <trkpt lat="48.54798" lon="-0.44846">
        <ele>181.82641601562</ele>
        <time>2013-07-17T15:48:00Z</time>
      </trkpt>
      <trkpt lat="48.54785" lon="-0.44865">
        <ele>181.82641601562</ele>
        <time>2013-07-17T15:48:05Z</time>
      </trkpt>
      <trkpt lat="48.54769" lon="-0.44881">
        <ele>181.34582519531</ele>
        <time>2013-07-17T15:48:10Z</time>
      </trkpt>
      <trkpt lat="48.54753" lon="-0.44894">
        <ele>178.4619140625</ele>
        <time>2013-07-17T15:48:13Z</time>
      </trkpt>
      <trkpt lat="48.54718" lon="-0.44936">
        <ele>176.05859375</ele>
        <time>2013-07-17T15:48:19Z</time>
      </trkpt>
      <trkpt lat="48.54698" lon="-0.44956">
        <ele>173.6552734375</ele>
        <time>2013-07-17T15:48:22Z</time>
      </trkpt>
      <trkpt lat="48.54691" lon="-0.44961">
        <ele>173.6552734375</ele>
        <time>2013-07-17T15:48:23Z</time>
      </trkpt>
      <trkpt lat="48.5466" lon="-0.45004">
        <ele>172.69396972656</ele>
        <time>2013-07-17T15:48:29Z</time>
      </trkpt>
      <trkpt lat="48.54648" lon="-0.45022">
        <ele>173.6552734375</ele>
        <time>2013-07-17T15:48:33Z</time>
      </trkpt>
      <trkpt lat="48.54632" lon="-0.45043">
        <ele>175.57788085938</ele>
        <time>2013-07-17T15:48:39Z</time>
      </trkpt>
      <trkpt lat="48.54622" lon="-0.45066">
        <ele>177.02001953125</ele>
        <time>2013-07-17T15:48:44Z</time>
      </trkpt>
      <trkpt lat="48.5461" lon="-0.4509">
        <ele>177.50061035156</ele>
        <time>2013-07-17T15:48:49Z</time>
      </trkpt>
      <trkpt lat="48.54589" lon="-0.45111">
        <ele>177.50061035156</ele>
        <time>2013-07-17T15:48:55Z</time>
      </trkpt>
      <trkpt lat="48.54571" lon="-0.45127">
        <ele>177.50061035156</ele>
        <time>2013-07-17T15:49:00Z</time>
      </trkpt>
      <trkpt lat="48.54543" lon="-0.4515">
        <ele>178.4619140625</ele>
        <time>2013-07-17T15:49:08Z</time>
      </trkpt>
      <trkpt lat="48.54536" lon="-0.45156">
        <ele>179.42321777344</ele>
        <time>2013-07-17T15:49:11Z</time>
      </trkpt>
      <trkpt lat="48.54529" lon="-0.45174">
        <ele>180.865234375</ele>
        <time>2013-07-17T15:49:16Z</time>
      </trkpt>
      <trkpt lat="48.54527" lon="-0.45185">
        <ele>180.865234375</ele>
        <time>2013-07-17T15:49:18Z</time>
      </trkpt>
      <trkpt lat="48.54525" lon="-0.45213">
        <ele>180.38452148438</ele>
        <time>2013-07-17T15:49:24Z</time>
      </trkpt>
      <trkpt lat="48.54512" lon="-0.45235">
        <ele>179.90380859375</ele>
        <time>2013-07-17T15:49:29Z</time>
      </trkpt>
      <trkpt lat="48.54505" lon="-0.45247">
        <ele>178.94262695312</ele>
        <time>2013-07-17T15:49:31Z</time>
      </trkpt>
      <trkpt lat="48.54475" lon="-0.45276">
        <ele>177.02001953125</ele>
        <time>2013-07-17T15:49:37Z</time>
      </trkpt>
      <trkpt lat="48.54454" lon="-0.45289">
        <ele>176.05859375</ele>
        <time>2013-07-17T15:49:40Z</time>
      </trkpt>
      <trkpt lat="48.54433" lon="-0.45299">
        <ele>175.57788085938</ele>
        <time>2013-07-17T15:49:43Z</time>
      </trkpt>
      <trkpt lat="48.54398" lon="-0.45302">
        <ele>175.57788085938</ele>
        <time>2013-07-17T15:49:48Z</time>
      </trkpt>
      <trkpt lat="48.54387" lon="-0.45296">
        <ele>176.53930664062</ele>
        <time>2013-07-17T15:49:50Z</time>
      </trkpt>
      <trkpt lat="48.54364" lon="-0.45288">
        <ele>177.98120117188</ele>
        <time>2013-07-17T15:49:56Z</time>
      </trkpt>
      <trkpt lat="48.54335" lon="-0.45286">
        <ele>180.38452148438</ele>
        <time>2013-07-17T15:50:04Z</time>
      </trkpt>
      <trkpt lat="48.54318" lon="-0.45287">
        <ele>181.34582519531</ele>
        <time>2013-07-17T15:50:10Z</time>
      </trkpt>
      <trkpt lat="48.543" lon="-0.45308">
        <ele>181.34582519531</ele>
        <time>2013-07-17T15:50:17Z</time>
      </trkpt>
      <trkpt lat="48.54293" lon="-0.45316">
        <ele>181.34582519531</ele>
        <time>2013-07-17T15:50:19Z</time>
      </trkpt>
      <trkpt lat="48.54271" lon="-0.4533">
        <ele>180.38452148438</ele>
        <time>2013-07-17T15:50:24Z</time>
      </trkpt>
      <trkpt lat="48.54224" lon="-0.45347">
        <ele>176.05859375</ele>
        <time>2013-07-17T15:50:31Z</time>
      </trkpt>
      <trkpt lat="48.54208" lon="-0.45351">
        <ele>175.57788085938</ele>
        <time>2013-07-17T15:50:33Z</time>
      </trkpt>
      <trkpt lat="48.5418" lon="-0.45356">
        <ele>173.17468261719</ele>
        <time>2013-07-17T15:50:36Z</time>
      </trkpt>
      <trkpt lat="48.54129" lon="-0.45367">
        <ele>170.77136230469</ele>
        <time>2013-07-17T15:50:41Z</time>
      </trkpt>
      <trkpt lat="48.54085" lon="-0.45384">
        <ele>166.92602539062</ele>
        <time>2013-07-17T15:50:45Z</time>
      </trkpt>
      <trkpt lat="48.54052" lon="-0.454">
        <ele>165.48413085938</ele>
        <time>2013-07-17T15:50:48Z</time>
      </trkpt>
      <trkpt lat="48.54021" lon="-0.45417">
        <ele>165.48413085938</ele>
        <time>2013-07-17T15:50:51Z</time>
      </trkpt>
      <trkpt lat="48.53983" lon="-0.45439">
        <ele>165.00341796875</ele>
        <time>2013-07-17T15:50:55Z</time>
      </trkpt>
      <trkpt lat="48.53976" lon="-0.45442">
        <ele>165.00341796875</ele>
        <time>2013-07-17T15:50:56Z</time>
      </trkpt>
      <trkpt lat="48.53969" lon="-0.45446">
        <ele>165.48413085938</ele>
        <time>2013-07-17T15:50:57Z</time>
      </trkpt>
      <trkpt lat="48.53958" lon="-0.45473">
        <ele>165.48413085938</ele>
        <time>2013-07-17T15:51:01Z</time>
      </trkpt>
      <trkpt lat="48.53958" lon="-0.45488">
        <ele>165.48413085938</ele>
        <time>2013-07-17T15:51:04Z</time>
      </trkpt>
      <trkpt lat="48.53958" lon="-0.45502">
        <ele>166.4453125</ele>
        <time>2013-07-17T15:51:09Z</time>
      </trkpt>
      <trkpt lat="48.53957" lon="-0.45519">
        <ele>168.36804199219</ele>
        <time>2013-07-17T15:51:15Z</time>
      </trkpt>
      <trkpt lat="48.53955" lon="-0.45536">
        <ele>169.32946777344</ele>
        <time>2013-07-17T15:51:20Z</time>
      </trkpt>
      <trkpt lat="48.53955" lon="-0.45538">
        <ele>169.32946777344</ele>
        <time>2013-07-17T15:51:21Z</time>
      </trkpt>
      <trkpt lat="48.53955" lon="-0.45554">
        <ele>170.77136230469</ele>
        <time>2013-07-17T15:51:27Z</time>
      </trkpt>
      <trkpt lat="48.53955" lon="-0.45573">
        <ele>172.21325683594</ele>
        <time>2013-07-17T15:51:33Z</time>
      </trkpt>
      <trkpt lat="48.53956" lon="-0.45575">
        <ele>172.21325683594</ele>
        <time>2013-07-17T15:51:34Z</time>
      </trkpt>
      <trkpt lat="48.53957" lon="-0.45596">
        <ele>173.17468261719</ele>
        <time>2013-07-17T15:51:41Z</time>
      </trkpt>
      <trkpt lat="48.53957" lon="-0.45602">
        <ele>173.6552734375</ele>
        <time>2013-07-17T15:51:44Z</time>
      </trkpt>
      <trkpt lat="48.53958" lon="-0.45614">
        <ele>175.09729003906</ele>
        <time>2013-07-17T15:51:50Z</time>
      </trkpt>
      <trkpt lat="48.53958" lon="-0.45615">
        <ele>174.61657714844</ele>
        <time>2013-07-17T15:51:51Z</time>
      </trkpt>
      <trkpt lat="48.53957" lon="-0.45623">
        <ele>174.61657714844</ele>
        <time>2013-07-17T15:52:36Z</time>
      </trkpt>
      <trkpt lat="48.53958" lon="-0.45624">
        <ele>174.61657714844</ele>
        <time>2013-07-17T15:52:37Z</time>
      </trkpt>
      <trkpt lat="48.53957" lon="-0.45623">
        <ele>174.61657714844</ele>
        <time>2013-07-17T15:52:38Z</time>
      </trkpt>
      <trkpt lat="48.53959" lon="-0.45625">
        <ele>174.61657714844</ele>
        <time>2013-07-17T15:52:44Z</time>
      </trkpt>
      <trkpt lat="48.53959" lon="-0.45628">
        <ele>175.09729003906</ele>
        <time>2013-07-17T15:52:46Z</time>
      </trkpt>
      <trkpt lat="48.5396" lon="-0.45632">
        <ele>175.09729003906</ele>
        <time>2013-07-17T15:52:52Z</time>
      </trkpt>
      <trkpt lat="48.53959" lon="-0.4564">
        <ele>176.53930664062</ele>
        <time>2013-07-17T15:52:58Z</time>
      </trkpt>
      <trkpt lat="48.53959" lon="-0.45647">
        <ele>177.50061035156</ele>
        <time>2013-07-17T15:53:02Z</time>
      </trkpt>
      <trkpt lat="48.53959" lon="-0.45657">
        <ele>177.98120117188</ele>
        <time>2013-07-17T15:53:08Z</time>
      </trkpt>
      <trkpt lat="48.5396" lon="-0.45669">
        <ele>178.94262695312</ele>
        <time>2013-07-17T15:53:13Z</time>
      </trkpt>
      <trkpt lat="48.53962" lon="-0.45685">
        <ele>180.38452148438</ele>
        <time>2013-07-17T15:53:20Z</time>
      </trkpt>
      <trkpt lat="48.53963" lon="-0.45698">
        <ele>181.82641601562</ele>
        <time>2013-07-17T15:53:26Z</time>
      </trkpt>
      <trkpt lat="48.53964" lon="-0.45712">
        <ele>182.78784179688</ele>
        <time>2013-07-17T15:53:32Z</time>
      </trkpt>
      <trkpt lat="48.53965" lon="-0.45726">
        <ele>182.78784179688</ele>
        <time>2013-07-17T15:53:38Z</time>
      </trkpt>
      <trkpt lat="48.53967" lon="-0.4574">
        <ele>183.7490234375</ele>
        <time>2013-07-17T15:53:44Z</time>
      </trkpt>
      <trkpt lat="48.53968" lon="-0.45755">
        <ele>184.22985839844</ele>
        <time>2013-07-17T15:53:50Z</time>
      </trkpt>
      <trkpt lat="48.5397" lon="-0.45769">
        <ele>184.71057128906</ele>
        <time>2013-07-17T15:53:56Z</time>
      </trkpt>
      <trkpt lat="48.53972" lon="-0.45785">
        <ele>185.19116210938</ele>
        <time>2013-07-17T15:54:02Z</time>
      </trkpt>
      <trkpt lat="48.53973" lon="-0.45798">
        <ele>186.63317871094</ele>
        <time>2013-07-17T15:54:07Z</time>
      </trkpt>
      <trkpt lat="48.53974" lon="-0.45813">
        <ele>186.63317871094</ele>
        <time>2013-07-17T15:54:14Z</time>
      </trkpt>
      <trkpt lat="48.53974" lon="-0.45815">
        <ele>187.11376953125</ele>
        <time>2013-07-17T15:54:15Z</time>
      </trkpt>
      <trkpt lat="48.53977" lon="-0.45837">
        <ele>188.07507324219</ele>
        <time>2013-07-17T15:54:23Z</time>
      </trkpt>
      <trkpt lat="48.53978" lon="-0.4585">
        <ele>189.03637695312</ele>
        <time>2013-07-17T15:54:28Z</time>
      </trkpt>
      <trkpt lat="48.53979" lon="-0.4586">
        <ele>189.51696777344</ele>
        <time>2013-07-17T15:54:32Z</time>
      </trkpt>
      <trkpt lat="48.5398" lon="-0.45867">
        <ele>189.51696777344</ele>
        <time>2013-07-17T15:54:35Z</time>
      </trkpt>
      <trkpt lat="48.53985" lon="-0.45883">
        <ele>189.51696777344</ele>
        <time>2013-07-17T15:54:42Z</time>
      </trkpt>
      <trkpt lat="48.53986" lon="-0.45886">
        <ele>189.99768066406</ele>
        <time>2013-07-17T15:54:43Z</time>
      </trkpt>
      <trkpt lat="48.53986" lon="-0.45894">
        <ele>190.47839355469</ele>
        <time>2013-07-17T15:54:46Z</time>
      </trkpt>
      <trkpt lat="48.53979" lon="-0.45902">
        <ele>190.47839355469</ele>
        <time>2013-07-17T15:54:53Z</time>
      </trkpt>
      <trkpt lat="48.5397" lon="-0.45913">
        <ele>190.958984375</ele>
        <time>2013-07-17T15:54:59Z</time>
      </trkpt>
      <trkpt lat="48.5396" lon="-0.45923">
        <ele>190.47839355469</ele>
        <time>2013-07-17T15:55:04Z</time>
      </trkpt>
      <trkpt lat="48.53951" lon="-0.45931">
        <ele>190.958984375</ele>
        <time>2013-07-17T15:55:09Z</time>
      </trkpt>
      <trkpt lat="48.53938" lon="-0.45941">
        <ele>191.43957519531</ele>
        <time>2013-07-17T15:55:15Z</time>
      </trkpt>
      <trkpt lat="48.53926" lon="-0.45949">
        <ele>191.43957519531</ele>
        <time>2013-07-17T15:55:20Z</time>
      </trkpt>
      <trkpt lat="48.53912" lon="-0.45958">
        <ele>191.92028808594</ele>
        <time>2013-07-17T15:55:25Z</time>
      </trkpt>
      <trkpt lat="48.53893" lon="-0.45973">
        <ele>191.92028808594</ele>
        <time>2013-07-17T15:55:32Z</time>
      </trkpt>
      <trkpt lat="48.5387" lon="-0.45986">
        <ele>191.43957519531</ele>
        <time>2013-07-17T15:55:38Z</time>
      </trkpt>
      <trkpt lat="48.53853" lon="-0.45999">
        <ele>190.958984375</ele>
        <time>2013-07-17T15:55:43Z</time>
      </trkpt>
      <trkpt lat="48.53835" lon="-0.46013">
        <ele>190.47839355469</ele>
        <time>2013-07-17T15:55:48Z</time>
      </trkpt>
      <trkpt lat="48.53818" lon="-0.46032">
        <ele>189.99768066406</ele>
        <time>2013-07-17T15:55:54Z</time>
      </trkpt>
      <trkpt lat="48.53785" lon="-0.46049">
        <ele>188.07507324219</ele>
        <time>2013-07-17T15:56:02Z</time>
      </trkpt>
      <trkpt lat="48.53752" lon="-0.46055">
        <ele>186.63317871094</ele>
        <time>2013-07-17T15:56:08Z</time>
      </trkpt>
      <trkpt lat="48.53707" lon="-0.46043">
        <ele>184.71057128906</ele>
        <time>2013-07-17T15:56:15Z</time>
      </trkpt>
      <trkpt lat="48.53666" lon="-0.46033">
        <ele>181.82641601562</ele>
        <time>2013-07-17T15:56:21Z</time>
      </trkpt>
      <trkpt lat="48.53658" lon="-0.46032">
        <ele>181.34582519531</ele>
        <time>2013-07-17T15:56:22Z</time>
      </trkpt>
      <trkpt lat="48.53649" lon="-0.4603">
        <ele>181.34582519531</ele>
        <time>2013-07-17T15:56:23Z</time>
      </trkpt>
      <trkpt lat="48.53619" lon="-0.46025">
        <ele>179.90380859375</ele>
        <time>2013-07-17T15:56:27Z</time>
      </trkpt>
      <trkpt lat="48.53579" lon="-0.45998">
        <ele>177.98120117188</ele>
        <time>2013-07-17T15:56:32Z</time>
      </trkpt>
      <trkpt lat="48.53546" lon="-0.45977">
        <ele>175.09729003906</ele>
        <time>2013-07-17T15:56:36Z</time>
      </trkpt>
      <trkpt lat="48.53529" lon="-0.45967">
        <ele>174.13586425781</ele>
        <time>2013-07-17T15:56:38Z</time>
      </trkpt>
      <trkpt lat="48.53503" lon="-0.45934">
        <ele>172.69396972656</ele>
        <time>2013-07-17T15:56:42Z</time>
      </trkpt>
      <trkpt lat="48.53489" lon="-0.45902">
        <ele>170.77136230469</ele>
        <time>2013-07-17T15:56:46Z</time>
      </trkpt>
      <trkpt lat="48.53468" lon="-0.45906">
        <ele>168.84875488281</ele>
        <time>2013-07-17T15:56:49Z</time>
      </trkpt>
      <trkpt lat="48.5346" lon="-0.45909">
        <ele>167.40673828125</ele>
        <time>2013-07-17T15:56:50Z</time>
      </trkpt>
      <trkpt lat="48.53407" lon="-0.45932">
        <ele>163.08081054688</ele>
        <time>2013-07-17T15:56:56Z</time>
      </trkpt>
      <trkpt lat="48.53387" lon="-0.45944">
        <ele>162.11950683594</ele>
        <time>2013-07-17T15:57:01Z</time>
      </trkpt>
      <trkpt lat="48.53385" lon="-0.45954">
        <ele>162.11950683594</ele>
        <time>2013-07-17T15:57:03Z</time>
      </trkpt>
      <trkpt lat="48.53384" lon="-0.46012">
        <ele>162.11950683594</ele>
        <time>2013-07-17T15:57:11Z</time>
      </trkpt>
      <trkpt lat="48.53387" lon="-0.46102">
        <ele>162.11950683594</ele>
        <time>2013-07-17T15:57:21Z</time>
      </trkpt>
      <trkpt lat="48.53388" lon="-0.46149">
        <ele>161.63891601562</ele>
        <time>2013-07-17T15:57:26Z</time>
      </trkpt>
      <trkpt lat="48.53392" lon="-0.4619">
        <ele>161.63891601562</ele>
        <time>2013-07-17T15:57:31Z</time>
      </trkpt>
      <trkpt lat="48.53407" lon="-0.46263">
        <ele>162.11950683594</ele>
        <time>2013-07-17T15:57:40Z</time>
      </trkpt>
      <trkpt lat="48.53408" lon="-0.4627">
        <ele>162.11950683594</ele>
        <time>2013-07-17T15:57:41Z</time>
      </trkpt>
      <trkpt lat="48.53415" lon="-0.46299">
        <ele>161.158203125</ele>
        <time>2013-07-17T15:57:45Z</time>
      </trkpt>
      <trkpt lat="48.53423" lon="-0.46329">
        <ele>160.19689941406</ele>
        <time>2013-07-17T15:57:49Z</time>
      </trkpt>
      <trkpt lat="48.53416" lon="-0.46358">
        <ele>160.19689941406</ele>
        <time>2013-07-17T15:57:53Z</time>
      </trkpt>
      <trkpt lat="48.53408" lon="-0.46366">
        <ele>160.19689941406</ele>
        <time>2013-07-17T15:57:55Z</time>
      </trkpt>
      <trkpt lat="48.53368" lon="-0.46395">
        <ele>160.67749023438</ele>
        <time>2013-07-17T15:58:03Z</time>
      </trkpt>
      <trkpt lat="48.53362" lon="-0.46399">
        <ele>160.67749023438</ele>
        <time>2013-07-17T15:58:04Z</time>
      </trkpt>
      <trkpt lat="48.53352" lon="-0.46407">
        <ele>160.67749023438</ele>
        <time>2013-07-17T15:58:06Z</time>
      </trkpt>
      <trkpt lat="48.53327" lon="-0.46428">
        <ele>160.19689941406</ele>
        <time>2013-07-17T15:58:12Z</time>
      </trkpt>
      <trkpt lat="48.53304" lon="-0.46447">
        <ele>160.67749023438</ele>
        <time>2013-07-17T15:58:19Z</time>
      </trkpt>
      <trkpt lat="48.53284" lon="-0.46463">
        <ele>160.67749023438</ele>
        <time>2013-07-17T15:58:25Z</time>
      </trkpt>
      <trkpt lat="48.53255" lon="-0.46491">
        <ele>160.19689941406</ele>
        <time>2013-07-17T15:58:32Z</time>
      </trkpt>
      <trkpt lat="48.53216" lon="-0.46527">
        <ele>159.71618652344</ele>
        <time>2013-07-17T15:58:40Z</time>
      </trkpt>
      <trkpt lat="48.53197" lon="-0.46545">
        <ele>159.23547363281</ele>
        <time>2013-07-17T15:58:44Z</time>
      </trkpt>
      <trkpt lat="48.53155" lon="-0.46592">
        <ele>158.75476074219</ele>
        <time>2013-07-17T15:58:53Z</time>
      </trkpt>
      <trkpt lat="48.53126" lon="-0.46628">
        <ele>157.79357910156</ele>
        <time>2013-07-17T15:59:00Z</time>
      </trkpt>
      <trkpt lat="48.53113" lon="-0.46641">
        <ele>157.31286621094</ele>
        <time>2013-07-17T15:59:03Z</time>
      </trkpt>
      <trkpt lat="48.531" lon="-0.46653">
        <ele>156.83215332031</ele>
        <time>2013-07-17T15:59:06Z</time>
      </trkpt>
      <trkpt lat="48.53079" lon="-0.46658">
        <ele>156.3515625</ele>
        <time>2013-07-17T15:59:10Z</time>
      </trkpt>
      <trkpt lat="48.53069" lon="-0.46657">
        <ele>156.3515625</ele>
        <time>2013-07-17T15:59:12Z</time>
      </trkpt>
      <trkpt lat="48.53034" lon="-0.46644">
        <ele>155.87097167969</ele>
        <time>2013-07-17T15:59:19Z</time>
      </trkpt>
      <trkpt lat="48.53019" lon="-0.46648">
        <ele>155.39025878906</ele>
        <time>2013-07-17T15:59:23Z</time>
      </trkpt>
      <trkpt lat="48.53012" lon="-0.46675">
        <ele>155.87097167969</ele>
        <time>2013-07-17T15:59:28Z</time>
      </trkpt>
      <trkpt lat="48.53013" lon="-0.46702">
        <ele>156.3515625</ele>
        <time>2013-07-17T15:59:34Z</time>
      </trkpt>
      <trkpt lat="48.53009" lon="-0.46715">
        <ele>156.3515625</ele>
        <time>2013-07-17T15:59:37Z</time>
      </trkpt>
      <trkpt lat="48.52992" lon="-0.46716">
        <ele>155.87097167969</ele>
        <time>2013-07-17T15:59:41Z</time>
      </trkpt>
      <trkpt lat="48.52972" lon="-0.46719">
        <ele>154.90954589844</ele>
        <time>2013-07-17T15:59:45Z</time>
      </trkpt>
      <trkpt lat="48.52958" lon="-0.46732">
        <ele>154.90954589844</ele>
        <time>2013-07-17T15:59:48Z</time>
      </trkpt>
      <trkpt lat="48.5295" lon="-0.46743">
        <ele>154.90954589844</ele>
        <time>2013-07-17T15:59:50Z</time>
      </trkpt>
      <trkpt lat="48.52941" lon="-0.46751">
        <ele>154.42895507812</ele>
        <time>2013-07-17T15:59:52Z</time>
      </trkpt>
      <trkpt lat="48.52906" lon="-0.4679">
        <ele>153.94836425781</ele>
        <time>2013-07-17T16:00:00Z</time>
      </trkpt>
      <trkpt lat="48.529" lon="-0.46819">
        <ele>152.98693847656</ele>
        <time>2013-07-17T16:00:04Z</time>
      </trkpt>
      <trkpt lat="48.52903" lon="-0.46826">
        <ele>153.46765136719</ele>
        <time>2013-07-17T16:00:05Z</time>
      </trkpt>
      <trkpt lat="48.52931" lon="-0.46903">
        <ele>153.46765136719</ele>
        <time>2013-07-17T16:00:15Z</time>
      </trkpt>
      <trkpt lat="48.52953" lon="-0.46958">
        <ele>152.50634765625</ele>
        <time>2013-07-17T16:00:23Z</time>
      </trkpt>
      <trkpt lat="48.52961" lon="-0.4698">
        <ele>152.50634765625</ele>
        <time>2013-07-17T16:00:26Z</time>
      </trkpt>
      <trkpt lat="48.52983" lon="-0.47037">
        <ele>150.58361816406</ele>
        <time>2013-07-17T16:00:34Z</time>
      </trkpt>
      <trkpt lat="48.52999" lon="-0.47084">
        <ele>149.1416015625</ele>
        <time>2013-07-17T16:00:40Z</time>
      </trkpt>
      <trkpt lat="48.53011" lon="-0.47113">
        <ele>149.1416015625</ele>
        <time>2013-07-17T16:00:44Z</time>
      </trkpt>
      <trkpt lat="48.53029" lon="-0.47153">
        <ele>148.66101074219</ele>
        <time>2013-07-17T16:00:50Z</time>
      </trkpt>
      <trkpt lat="48.53027" lon="-0.47169">
        <ele>148.18041992188</ele>
        <time>2013-07-17T16:00:53Z</time>
      </trkpt>
      <trkpt lat="48.53025" lon="-0.47173">
        <ele>148.18041992188</ele>
        <time>2013-07-17T16:00:54Z</time>
      </trkpt>
      <trkpt lat="48.5301" lon="-0.47197">
        <ele>147.21899414062</ele>
        <time>2013-07-17T16:00:59Z</time>
      </trkpt>
      <trkpt lat="48.53007" lon="-0.4721">
        <ele>147.21899414062</ele>
        <time>2013-07-17T16:01:01Z</time>
      </trkpt>
      <trkpt lat="48.53008" lon="-0.47256">
        <ele>146.2578125</ele>
        <time>2013-07-17T16:01:07Z</time>
      </trkpt>
      <trkpt lat="48.53012" lon="-0.47271">
        <ele>146.2578125</ele>
        <time>2013-07-17T16:01:09Z</time>
      </trkpt>
      <trkpt lat="48.53034" lon="-0.47325">
        <ele>145.77709960938</ele>
        <time>2013-07-17T16:01:17Z</time>
      </trkpt>
      <trkpt lat="48.53055" lon="-0.47373">
        <ele>144.81579589844</ele>
        <time>2013-07-17T16:01:24Z</time>
      </trkpt>
      <trkpt lat="48.53078" lon="-0.47424">
        <ele>144.33520507812</ele>
        <time>2013-07-17T16:01:32Z</time>
      </trkpt>
      <trkpt lat="48.5309" lon="-0.47451">
        <ele>144.33520507812</ele>
        <time>2013-07-17T16:01:36Z</time>
      </trkpt>
      <trkpt lat="48.53114" lon="-0.47508">
        <ele>142.41247558594</ele>
        <time>2013-07-17T16:01:44Z</time>
      </trkpt>
      <trkpt lat="48.53136" lon="-0.47559">
        <ele>141.45104980469</ele>
        <time>2013-07-17T16:01:51Z</time>
      </trkpt>
      <trkpt lat="48.53165" lon="-0.47625">
        <ele>140.00915527344</ele>
        <time>2013-07-17T16:02:00Z</time>
      </trkpt>
      <trkpt lat="48.53188" lon="-0.47677">
        <ele>139.0478515625</ele>
        <time>2013-07-17T16:02:07Z</time>
      </trkpt>
      <trkpt lat="48.53212" lon="-0.47732">
        <ele>137.60583496094</ele>
        <time>2013-07-17T16:02:14Z</time>
      </trkpt>
      <trkpt lat="48.53231" lon="-0.47776">
        <ele>136.64465332031</ele>
        <time>2013-07-17T16:02:20Z</time>
      </trkpt>
      <trkpt lat="48.53252" lon="-0.47819">
        <ele>138.56726074219</ele>
        <time>2013-07-17T16:02:26Z</time>
      </trkpt>
      <trkpt lat="48.53265" lon="-0.47846">
        <ele>139.52844238281</ele>
        <time>2013-07-17T16:02:30Z</time>
      </trkpt>
      <trkpt lat="48.53268" lon="-0.47852">
        <ele>139.0478515625</ele>
        <time>2013-07-17T16:02:31Z</time>
      </trkpt>
      <trkpt lat="48.53266" lon="-0.4787">
        <ele>139.52844238281</ele>
        <time>2013-07-17T16:02:34Z</time>
      </trkpt>
      <trkpt lat="48.53258" lon="-0.47877">
        <ele>139.0478515625</ele>
        <time>2013-07-17T16:02:36Z</time>
      </trkpt>
      <trkpt lat="48.53249" lon="-0.47882">
        <ele>138.56726074219</ele>
        <time>2013-07-17T16:02:38Z</time>
      </trkpt>
      <trkpt lat="48.53239" lon="-0.47895">
        <ele>138.56726074219</ele>
        <time>2013-07-17T16:02:41Z</time>
      </trkpt>
      <trkpt lat="48.53218" lon="-0.47931">
        <ele>137.60583496094</ele>
        <time>2013-07-17T16:02:48Z</time>
      </trkpt>
      <trkpt lat="48.53204" lon="-0.47957">
        <ele>137.12524414062</ele>
        <time>2013-07-17T16:02:53Z</time>
      </trkpt>
      <trkpt lat="48.53191" lon="-0.47979">
        <ele>136.64465332031</ele>
        <time>2013-07-17T16:02:57Z</time>
      </trkpt>
      <trkpt lat="48.53152" lon="-0.48002">
        <ele>135.68310546875</ele>
        <time>2013-07-17T16:03:05Z</time>
      </trkpt>
      <trkpt lat="48.53113" lon="-0.48021">
        <ele>134.2412109375</ele>
        <time>2013-07-17T16:03:12Z</time>
      </trkpt>
      <trkpt lat="48.5309" lon="-0.48031">
        <ele>133.76049804688</ele>
        <time>2013-07-17T16:03:16Z</time>
      </trkpt>
      <trkpt lat="48.53051" lon="-0.48033">
        <ele>133.27990722656</ele>
        <time>2013-07-17T16:03:23Z</time>
      </trkpt>
      <trkpt lat="48.53032" lon="-0.4803">
        <ele>133.76049804688</ele>
        <time>2013-07-17T16:03:27Z</time>
      </trkpt>
      <trkpt lat="48.53012" lon="-0.48025">
        <ele>129.91528320312</ele>
        <time>2013-07-17T12:47:09Z</time>
      </trkpt>
      <trkpt lat="48.53001" lon="-0.48014">
        <ele>130.39599609375</ele>
        <time>2013-07-17T12:47:14Z</time>
      </trkpt>
      <trkpt lat="48.52962" lon="-0.48012">
        <ele>131.35729980469</ele>
        <time>2013-07-17T12:47:24Z</time>
      </trkpt>
      <trkpt lat="48.52921" lon="-0.48013">
        <ele>132.79931640625</ele>
        <time>2013-07-17T12:47:34Z</time>
      </trkpt>
      <trkpt lat="48.52909" lon="-0.48014">
        <ele>133.27990722656</ele>
        <time>2013-07-17T12:47:37Z</time>
      </trkpt>
      <trkpt lat="48.5289" lon="-0.48005">
        <ele>133.76049804688</ele>
        <time>2013-07-17T12:47:42Z</time>
      </trkpt>
      <trkpt lat="48.52887" lon="-0.47991">
        <ele>134.2412109375</ele>
        <time>2013-07-17T12:47:45Z</time>
      </trkpt>
      <trkpt lat="48.52887" lon="-0.47956">
        <ele>134.72192382812</ele>
        <time>2013-07-17T12:47:51Z</time>
      </trkpt>
      <trkpt lat="48.52888" lon="-0.47927">
        <ele>134.72192382812</ele>
        <time>2013-07-17T12:47:56Z</time>
      </trkpt>
      <trkpt lat="48.5289" lon="-0.47895">
        <ele>135.68310546875</ele>
        <time>2013-07-17T12:48:02Z</time>
      </trkpt>
      <trkpt lat="48.52893" lon="-0.47856">
        <ele>136.16394042969</ele>
        <time>2013-07-17T12:48:08Z</time>
      </trkpt>
      <trkpt lat="48.52895" lon="-0.47832">
        <ele>136.64465332031</ele>
        <time>2013-07-17T12:48:12Z</time>
      </trkpt>
      <trkpt lat="48.52898" lon="-0.47798">
        <ele>136.16394042969</ele>
        <time>2013-07-17T12:48:18Z</time>
      </trkpt>
      <trkpt lat="48.52902" lon="-0.47768">
        <ele>137.12524414062</ele>
        <time>2013-07-17T12:48:23Z</time>
      </trkpt>
      <trkpt lat="48.52906" lon="-0.47739">
        <ele>137.12524414062</ele>
        <time>2013-07-17T12:48:28Z</time>
      </trkpt>
      <trkpt lat="48.5291" lon="-0.47717">
        <ele>137.12524414062</ele>
        <time>2013-07-17T12:48:32Z</time>
      </trkpt>
      <trkpt lat="48.52919" lon="-0.47666">
        <ele>136.16394042969</ele>
        <time>2013-07-17T12:48:39Z</time>
      </trkpt>
      <trkpt lat="48.52922" lon="-0.47645">
        <ele>136.16394042969</ele>
        <time>2013-07-17T12:48:42Z</time>
      </trkpt>
      <trkpt lat="48.52932" lon="-0.47611">
        <ele>136.16394042969</ele>
        <time>2013-07-17T12:48:47Z</time>
      </trkpt>
      <trkpt lat="48.52942" lon="-0.4758">
        <ele>136.16394042969</ele>
        <time>2013-07-17T12:48:53Z</time>
      </trkpt>
      <trkpt lat="48.52949" lon="-0.47562">
        <ele>136.64465332031</ele>
        <time>2013-07-17T12:48:57Z</time>
      </trkpt>
      <trkpt lat="48.52944" lon="-0.47534">
        <ele>136.64465332031</ele>
        <time>2013-07-17T12:49:02Z</time>
      </trkpt>
      <trkpt lat="48.52942" lon="-0.47528">
        <ele>136.64465332031</ele>
        <time>2013-07-17T12:49:03Z</time>
      </trkpt>
      <trkpt lat="48.52924" lon="-0.47492">
        <ele>136.64465332031</ele>
        <time>2013-07-17T12:49:10Z</time>
      </trkpt>
      <trkpt lat="48.52922" lon="-0.47486">
        <ele>136.64465332031</ele>
        <time>2013-07-17T12:49:11Z</time>
      </trkpt>
      <trkpt lat="48.52906" lon="-0.47457">
        <ele>136.16394042969</ele>
        <time>2013-07-17T12:49:17Z</time>
      </trkpt>
      <trkpt lat="48.52894" lon="-0.47438">
        <ele>136.16394042969</ele>
        <time>2013-07-17T12:49:21Z</time>
      </trkpt>
      <trkpt lat="48.52879" lon="-0.47418">
        <ele>135.68310546875</ele>
        <time>2013-07-17T12:49:26Z</time>
      </trkpt>
      <trkpt lat="48.52875" lon="-0.47415">
        <ele>136.16394042969</ele>
        <time>2013-07-17T12:49:27Z</time>
      </trkpt>
      <trkpt lat="48.52851" lon="-0.47393">
        <ele>135.20251464844</ele>
        <time>2013-07-17T12:49:33Z</time>
      </trkpt>
      <trkpt lat="48.52836" lon="-0.47379">
        <ele>135.20251464844</ele>
        <time>2013-07-17T12:49:37Z</time>
      </trkpt>
      <trkpt lat="48.52821" lon="-0.47363">
        <ele>135.68310546875</ele>
        <time>2013-07-17T12:49:41Z</time>
      </trkpt>
      <trkpt lat="48.52803" lon="-0.47345">
        <ele>135.68310546875</ele>
        <time>2013-07-17T12:49:46Z</time>
      </trkpt>
      <trkpt lat="48.52789" lon="-0.47327">
        <ele>136.16394042969</ele>
        <time>2013-07-17T12:49:51Z</time>
      </trkpt>
      <trkpt lat="48.5278" lon="-0.47314">
        <ele>136.64465332031</ele>
        <time>2013-07-17T12:49:55Z</time>
      </trkpt>
      <trkpt lat="48.52785" lon="-0.473">
        <ele>138.56726074219</ele>
        <time>2013-07-17T12:50:00Z</time>
      </trkpt>
      <trkpt lat="48.528" lon="-0.47276">
        <ele>139.0478515625</ele>
        <time>2013-07-17T12:50:07Z</time>
      </trkpt>
      <trkpt lat="48.52818" lon="-0.47246">
        <ele>139.52844238281</ele>
        <time>2013-07-17T12:50:16Z</time>
      </trkpt>
      <trkpt lat="48.52839" lon="-0.47214">
        <ele>140.48986816406</ele>
        <time>2013-07-17T12:50:26Z</time>
      </trkpt>
      <trkpt lat="48.5285" lon="-0.47195">
        <ele>140.97045898438</ele>
        <time>2013-07-17T12:50:33Z</time>
      </trkpt>
      <trkpt lat="48.52861" lon="-0.47179">
        <ele>141.93176269531</ele>
        <time>2013-07-17T12:50:40Z</time>
      </trkpt>
      <trkpt lat="48.52869" lon="-0.47166">
        <ele>142.41247558594</ele>
        <time>2013-07-17T12:50:45Z</time>
      </trkpt>
      <trkpt lat="48.52883" lon="-0.47143">
        <ele>142.41247558594</ele>
        <time>2013-07-17T12:50:53Z</time>
      </trkpt>
      <trkpt lat="48.52884" lon="-0.47141">
        <ele>142.41247558594</ele>
        <time>2013-07-17T12:50:54Z</time>
      </trkpt>
      <trkpt lat="48.52882" lon="-0.47129">
        <ele>142.89306640625</ele>
        <time>2013-07-17T12:50:59Z</time>
      </trkpt>
      <trkpt lat="48.52868" lon="-0.47102">
        <ele>143.85437011719</ele>
        <time>2013-07-17T12:51:07Z</time>
      </trkpt>
      <trkpt lat="48.52861" lon="-0.47089">
        <ele>144.33520507812</ele>
        <time>2013-07-17T12:51:11Z</time>
      </trkpt>
      <trkpt lat="48.52864" lon="-0.47079">
        <ele>144.81579589844</ele>
        <time>2013-07-17T12:51:15Z</time>
      </trkpt>
      <trkpt lat="48.52879" lon="-0.47055">
        <ele>145.29638671875</ele>
        <time>2013-07-17T12:51:24Z</time>
      </trkpt>
      <trkpt lat="48.52896" lon="-0.47035">
        <ele>145.29638671875</ele>
        <time>2013-07-17T12:51:32Z</time>
      </trkpt>
      <trkpt lat="48.52902" lon="-0.4703">
        <ele>146.2578125</ele>
        <time>2013-07-17T12:51:37Z</time>
      </trkpt>
      <trkpt lat="48.52908" lon="-0.47024">
        <ele>145.77709960938</ele>
        <time>2013-07-17T12:51:41Z</time>
      </trkpt>
      <trkpt lat="48.52906" lon="-0.47011">
        <ele>146.2578125</ele>
        <time>2013-07-17T12:51:45Z</time>
      </trkpt>
      <trkpt lat="48.52892" lon="-0.4698">
        <ele>147.21899414062</ele>
        <time>2013-07-17T12:51:53Z</time>
      </trkpt>
      <trkpt lat="48.52879" lon="-0.46951">
        <ele>147.21899414062</ele>
        <time>2013-07-17T12:52:00Z</time>
      </trkpt>
      <trkpt lat="48.5286" lon="-0.46905">
        <ele>147.21899414062</ele>
        <time>2013-07-17T12:52:10Z</time>
      </trkpt>
      <trkpt lat="48.52842" lon="-0.46864">
        <ele>147.21899414062</ele>
        <time>2013-07-17T12:52:19Z</time>
      </trkpt>
      <trkpt lat="48.5284" lon="-0.46849">
        <ele>147.21899414062</ele>
        <time>2013-07-17T12:52:23Z</time>
      </trkpt>
      <trkpt lat="48.52845" lon="-0.46836">
        <ele>147.21899414062</ele>
        <time>2013-07-17T12:52:28Z</time>
      </trkpt>
      <trkpt lat="48.52874" lon="-0.46808">
        <ele>147.69970703125</ele>
        <time>2013-07-17T12:52:38Z</time>
      </trkpt>
      <trkpt lat="48.52882" lon="-0.46798">
        <ele>147.21899414062</ele>
        <time>2013-07-17T12:52:41Z</time>
      </trkpt>
      <trkpt lat="48.52892" lon="-0.46798">
        <ele>148.66101074219</ele>
        <time>2013-07-17T12:52:45Z</time>
      </trkpt>
      <trkpt lat="48.52903" lon="-0.46791">
        <ele>149.1416015625</ele>
        <time>2013-07-17T12:52:49Z</time>
      </trkpt>
      <trkpt lat="48.52926" lon="-0.46766">
        <ele>149.1416015625</ele>
        <time>2013-07-17T12:52:57Z</time>
      </trkpt>
      <trkpt lat="48.52944" lon="-0.46744">
        <ele>149.62231445312</ele>
        <time>2013-07-17T12:53:03Z</time>
      </trkpt>
      <trkpt lat="48.5297" lon="-0.46718">
        <ele>149.62231445312</ele>
        <time>2013-07-17T12:53:11Z</time>
      </trkpt>
      <trkpt lat="48.52991" lon="-0.46702">
        <ele>150.10302734375</ele>
        <time>2013-07-17T12:53:18Z</time>
      </trkpt>
      <trkpt lat="48.53005" lon="-0.46679">
        <ele>150.58361816406</ele>
        <time>2013-07-17T12:53:24Z</time>
      </trkpt>
      <trkpt lat="48.5302" lon="-0.46644">
        <ele>150.10302734375</ele>
        <time>2013-07-17T12:53:31Z</time>
      </trkpt>
      <trkpt lat="48.53031" lon="-0.46638">
        <ele>149.62231445312</ele>
        <time>2013-07-17T12:53:34Z</time>
      </trkpt>
      <trkpt lat="48.53054" lon="-0.46647">
        <ele>150.10302734375</ele>
        <time>2013-07-17T12:53:40Z</time>
      </trkpt>
      <trkpt lat="48.53083" lon="-0.46657">
        <ele>151.06420898438</ele>
        <time>2013-07-17T12:53:47Z</time>
      </trkpt>
      <trkpt lat="48.53091" lon="-0.46656">
        <ele>151.544921875</ele>
        <time>2013-07-17T12:53:49Z</time>
      </trkpt>
      <trkpt lat="48.53103" lon="-0.46651">
        <ele>151.544921875</ele>
        <time>2013-07-17T12:53:52Z</time>
      </trkpt>
      <trkpt lat="48.53126" lon="-0.46628">
        <ele>152.02575683594</ele>
        <time>2013-07-17T12:53:59Z</time>
      </trkpt>
      <trkpt lat="48.53149" lon="-0.466">
        <ele>152.98693847656</ele>
        <time>2013-07-17T12:54:06Z</time>
      </trkpt>
      <trkpt lat="48.53172" lon="-0.46571">
        <ele>152.98693847656</ele>
        <time>2013-07-17T12:54:13Z</time>
      </trkpt>
      <trkpt lat="48.53193" lon="-0.46548">
        <ele>152.98693847656</ele>
        <time>2013-07-17T12:54:19Z</time>
      </trkpt>
      <trkpt lat="48.53213" lon="-0.46526">
        <ele>153.94836425781</ele>
        <time>2013-07-17T12:54:25Z</time>
      </trkpt>
      <trkpt lat="48.53235" lon="-0.46508">
        <ele>154.42895507812</ele>
        <time>2013-07-17T12:54:31Z</time>
      </trkpt>
      <trkpt lat="48.5325" lon="-0.46494">
        <ele>154.90954589844</ele>
        <time>2013-07-17T12:54:35Z</time>
      </trkpt>
      <trkpt lat="48.53279" lon="-0.46463">
        <ele>154.90954589844</ele>
        <time>2013-07-17T12:54:43Z</time>
      </trkpt>
      <trkpt lat="48.53296" lon="-0.46448">
        <ele>154.90954589844</ele>
        <time>2013-07-17T12:54:48Z</time>
      </trkpt>
      <trkpt lat="48.53317" lon="-0.4643">
        <ele>154.90954589844</ele>
        <time>2013-07-17T12:54:53Z</time>
      </trkpt>
      <trkpt lat="48.5334" lon="-0.46411">
        <ele>154.42895507812</ele>
        <time>2013-07-17T12:54:59Z</time>
      </trkpt>
      <trkpt lat="48.53374" lon="-0.46384">
        <ele>154.42895507812</ele>
        <time>2013-07-17T12:55:08Z</time>
      </trkpt>
      <trkpt lat="48.53394" lon="-0.46368">
        <ele>154.90954589844</ele>
        <time>2013-07-17T12:55:14Z</time>
      </trkpt>
      <trkpt lat="48.53411" lon="-0.46355">
        <ele>154.90954589844</ele>
        <time>2013-07-17T12:55:20Z</time>
      </trkpt>
      <trkpt lat="48.53418" lon="-0.46349">
        <ele>154.90954589844</ele>
        <time>2013-07-17T12:55:22Z</time>
      </trkpt>
      <trkpt lat="48.53424" lon="-0.4633">
        <ele>154.90954589844</ele>
        <time>2013-07-17T12:55:26Z</time>
      </trkpt>
      <trkpt lat="48.53423" lon="-0.46325">
        <ele>154.90954589844</ele>
        <time>2013-07-17T12:55:27Z</time>
      </trkpt>
      <trkpt lat="48.5341" lon="-0.46275">
        <ele>155.87097167969</ele>
        <time>2013-07-17T12:55:36Z</time>
      </trkpt>
      <trkpt lat="48.53393" lon="-0.46202">
        <ele>156.3515625</ele>
        <time>2013-07-17T12:55:47Z</time>
      </trkpt>
      <trkpt lat="48.53387" lon="-0.46145">
        <ele>155.87097167969</ele>
        <time>2013-07-17T12:55:54Z</time>
      </trkpt>
      <trkpt lat="48.53384" lon="-0.46094">
        <ele>155.87097167969</ele>
        <time>2013-07-17T12:56:01Z</time>
      </trkpt>
      <trkpt lat="48.53382" lon="-0.4603">
        <ele>156.3515625</ele>
        <time>2013-07-17T12:56:09Z</time>
      </trkpt>
      <trkpt lat="48.53382" lon="-0.45979">
        <ele>155.39025878906</ele>
        <time>2013-07-17T12:56:16Z</time>
      </trkpt>
      <trkpt lat="48.53384" lon="-0.45946">
        <ele>155.87097167969</ele>
        <time>2013-07-17T12:56:21Z</time>
      </trkpt>
      <trkpt lat="48.53398" lon="-0.45931">
        <ele>156.83215332031</ele>
        <time>2013-07-17T12:56:26Z</time>
      </trkpt>
      <trkpt lat="48.53408" lon="-0.45926">
        <ele>157.79357910156</ele>
        <time>2013-07-17T12:56:29Z</time>
      </trkpt>
      <trkpt lat="48.53432" lon="-0.45916">
        <ele>159.23547363281</ele>
        <time>2013-07-17T12:56:36Z</time>
      </trkpt>
      <trkpt lat="48.53448" lon="-0.45909">
        <ele>161.158203125</ele>
        <time>2013-07-17T12:56:42Z</time>
      </trkpt>
      <trkpt lat="48.53468" lon="-0.45902">
        <ele>163.5615234375</ele>
        <time>2013-07-17T12:56:49Z</time>
      </trkpt>
      <trkpt lat="48.53477" lon="-0.45899">
        <ele>163.5615234375</ele>
        <time>2013-07-17T12:56:52Z</time>
      </trkpt>
      <trkpt lat="48.53495" lon="-0.45907">
        <ele>165.48413085938</ele>
        <time>2013-07-17T12:56:58Z</time>
      </trkpt>
      <trkpt lat="48.53502" lon="-0.45927">
        <ele>166.4453125</ele>
        <time>2013-07-17T12:57:03Z</time>
      </trkpt>
      <trkpt lat="48.53515" lon="-0.45955">
        <ele>167.88732910156</ele>
        <time>2013-07-17T12:57:10Z</time>
      </trkpt>
      <trkpt lat="48.53535" lon="-0.4597">
        <ele>168.84875488281</ele>
        <time>2013-07-17T12:57:17Z</time>
      </trkpt>
      <trkpt lat="48.53553" lon="-0.45981">
        <ele>169.32946777344</ele>
        <time>2013-07-17T12:57:23Z</time>
      </trkpt>
      <trkpt lat="48.53574" lon="-0.45992">
        <ele>171.73266601562</ele>
        <time>2013-07-17T12:57:30Z</time>
      </trkpt>
      <trkpt lat="48.53592" lon="-0.46006">
        <ele>172.69396972656</ele>
        <time>2013-07-17T12:57:36Z</time>
      </trkpt>
      <trkpt lat="48.53606" lon="-0.46016">
        <ele>173.6552734375</ele>
        <time>2013-07-17T12:57:41Z</time>
      </trkpt>
      <trkpt lat="48.53628" lon="-0.46024">
        <ele>174.61657714844</ele>
        <time>2013-07-17T12:57:48Z</time>
      </trkpt>
      <trkpt lat="48.53646" lon="-0.46026">
        <ele>175.57788085938</ele>
        <time>2013-07-17T12:57:54Z</time>
      </trkpt>
      <trkpt lat="48.53669" lon="-0.4603">
        <ele>177.02001953125</ele>
        <time>2013-07-17T12:58:01Z</time>
      </trkpt>
      <trkpt lat="48.53687" lon="-0.46034">
        <ele>177.98120117188</ele>
        <time>2013-07-17T12:58:07Z</time>
      </trkpt>
      <trkpt lat="48.53707" lon="-0.4604">
        <ele>178.4619140625</ele>
        <time>2013-07-17T12:58:15Z</time>
      </trkpt>
      <trkpt lat="48.53724" lon="-0.46046">
        <ele>179.90380859375</ele>
        <time>2013-07-17T12:58:22Z</time>
      </trkpt>
      <trkpt lat="48.53745" lon="-0.46051">
        <ele>180.865234375</ele>
        <time>2013-07-17T12:58:30Z</time>
      </trkpt>
      <trkpt lat="48.53762" lon="-0.46049">
        <ele>181.82641601562</ele>
        <time>2013-07-17T12:58:36Z</time>
      </trkpt>
      <trkpt lat="48.53786" lon="-0.46045">
        <ele>183.26843261719</ele>
        <time>2013-07-17T12:58:44Z</time>
      </trkpt>
      <trkpt lat="48.53806" lon="-0.46037">
        <ele>183.7490234375</ele>
        <time>2013-07-17T12:58:52Z</time>
      </trkpt>
      <trkpt lat="48.53825" lon="-0.46026">
        <ele>185.19116210938</ele>
        <time>2013-07-17T12:59:00Z</time>
      </trkpt>
      <trkpt lat="48.53834" lon="-0.46034">
        <ele>184.71057128906</ele>
        <time>2013-07-17T12:59:05Z</time>
      </trkpt>
      <trkpt lat="48.53837" lon="-0.4604">
        <ele>184.71057128906</ele>
        <time>2013-07-17T12:59:07Z</time>
      </trkpt>
      <trkpt lat="48.53845" lon="-0.46065">
        <ele>184.71057128906</ele>
        <time>2013-07-17T12:59:13Z</time>
      </trkpt>
      <trkpt lat="48.53855" lon="-0.46089">
        <ele>185.19116210938</ele>
        <time>2013-07-17T12:59:18Z</time>
      </trkpt>
      <trkpt lat="48.53868" lon="-0.46109">
        <ele>184.71057128906</ele>
        <time>2013-07-17T12:59:23Z</time>
      </trkpt>
      <trkpt lat="48.53893" lon="-0.46137">
        <ele>185.19116210938</ele>
        <time>2013-07-17T12:59:30Z</time>
      </trkpt>
      <trkpt lat="48.53916" lon="-0.46159">
        <ele>185.19116210938</ele>
        <time>2013-07-17T12:59:36Z</time>
      </trkpt>
      <trkpt lat="48.53931" lon="-0.46176">
        <ele>186.15246582031</ele>
        <time>2013-07-17T12:59:41Z</time>
      </trkpt>
      <trkpt lat="48.53956" lon="-0.46205">
        <ele>186.15246582031</ele>
        <time>2013-07-17T12:59:49Z</time>
      </trkpt>
      <trkpt lat="48.5398" lon="-0.46241">
        <ele>186.15246582031</ele>
        <time>2013-07-17T12:59:57Z</time>
      </trkpt>
      <trkpt lat="48.53995" lon="-0.46265">
        <ele>186.15246582031</ele>
        <time>2013-07-17T13:00:02Z</time>
      </trkpt>
      <trkpt lat="48.54" lon="-0.46274">
        <ele>185.67175292969</ele>
        <time>2013-07-17T13:00:04Z</time>
      </trkpt>
      <trkpt lat="48.54018" lon="-0.4632">
        <ele>185.67175292969</ele>
        <time>2013-07-17T13:00:12Z</time>
      </trkpt>
      <trkpt lat="48.54032" lon="-0.46357">
        <ele>186.15246582031</ele>
        <time>2013-07-17T13:00:18Z</time>
      </trkpt>
      <trkpt lat="48.54046" lon="-0.46393">
        <ele>187.11376953125</ele>
        <time>2013-07-17T13:00:24Z</time>
      </trkpt>
      <trkpt lat="48.54057" lon="-0.46419">
        <ele>187.59436035156</ele>
        <time>2013-07-17T13:00:29Z</time>
      </trkpt>
      <trkpt lat="48.54069" lon="-0.46446">
        <ele>188.07507324219</ele>
        <time>2013-07-17T13:00:35Z</time>
      </trkpt>
      <trkpt lat="48.54079" lon="-0.46467">
        <ele>188.55578613281</ele>
        <time>2013-07-17T13:00:41Z</time>
      </trkpt>
      <trkpt lat="48.54097" lon="-0.46511">
        <ele>188.55578613281</ele>
        <time>2013-07-17T13:00:50Z</time>
      </trkpt>
      <trkpt lat="48.54121" lon="-0.46555">
        <ele>188.55578613281</ele>
        <time>2013-07-17T13:00:58Z</time>
      </trkpt>
      <trkpt lat="48.54135" lon="-0.4658">
        <ele>189.03637695312</ele>
        <time>2013-07-17T13:01:03Z</time>
      </trkpt>
      <trkpt lat="48.5415" lon="-0.46612">
        <ele>189.99768066406</ele>
        <time>2013-07-17T13:01:10Z</time>
      </trkpt>
      <trkpt lat="48.54155" lon="-0.46618">
        <ele>189.51696777344</ele>
        <time>2013-07-17T13:01:13Z</time>
      </trkpt>
      <trkpt lat="48.54168" lon="-0.46609">
        <ele>190.958984375</ele>
        <time>2013-07-17T13:01:18Z</time>
      </trkpt>
      <trkpt lat="48.54188" lon="-0.46588">
        <ele>191.92028808594</ele>
        <time>2013-07-17T13:01:25Z</time>
      </trkpt>
      <trkpt lat="48.54205" lon="-0.46568">
        <ele>192.40112304688</ele>
        <time>2013-07-17T13:01:31Z</time>
      </trkpt>
      <trkpt lat="48.54219" lon="-0.46565">
        <ele>192.88171386719</ele>
        <time>2013-07-17T13:01:35Z</time>
      </trkpt>
      <trkpt lat="48.54227" lon="-0.46587">
        <ele>192.88171386719</ele>
        <time>2013-07-17T13:01:40Z</time>
      </trkpt>
      <trkpt lat="48.54235" lon="-0.46622">
        <ele>192.40112304688</ele>
        <time>2013-07-17T13:01:46Z</time>
      </trkpt>
      <trkpt lat="48.54239" lon="-0.46633">
        <ele>192.40112304688</ele>
        <time>2013-07-17T13:01:48Z</time>
      </trkpt>
      <trkpt lat="48.54261" lon="-0.46682">
        <ele>191.43957519531</ele>
        <time>2013-07-17T13:01:56Z</time>
      </trkpt>
      <trkpt lat="48.54288" lon="-0.46742">
        <ele>190.958984375</ele>
        <time>2013-07-17T13:02:04Z</time>
      </trkpt>
      <trkpt lat="48.54307" lon="-0.46788">
        <ele>190.958984375</ele>
        <time>2013-07-17T13:02:10Z</time>
      </trkpt>
      <trkpt lat="48.54314" lon="-0.46819">
        <ele>190.958984375</ele>
        <time>2013-07-17T13:02:14Z</time>
      </trkpt>
      <trkpt lat="48.54321" lon="-0.46854">
        <ele>189.99768066406</ele>
        <time>2013-07-17T13:02:18Z</time>
      </trkpt>
      <trkpt lat="48.54325" lon="-0.46882">
        <ele>190.47839355469</ele>
        <time>2013-07-17T13:02:21Z</time>
      </trkpt>
      <trkpt lat="48.54336" lon="-0.46946">
        <ele>189.51696777344</ele>
        <time>2013-07-17T13:02:28Z</time>
      </trkpt>
      <trkpt lat="48.54351" lon="-0.47023">
        <ele>188.07507324219</ele>
        <time>2013-07-17T13:02:37Z</time>
      </trkpt>
      <trkpt lat="48.54354" lon="-0.4704">
        <ele>188.07507324219</ele>
        <time>2013-07-17T13:02:39Z</time>
      </trkpt>
      <trkpt lat="48.54364" lon="-0.47087">
        <ele>188.07507324219</ele>
        <time>2013-07-17T13:02:46Z</time>
      </trkpt>
      <trkpt lat="48.54365" lon="-0.47093">
        <ele>188.07507324219</ele>
        <time>2013-07-17T13:02:50Z</time>
      </trkpt>
      <trkpt lat="48.54365" lon="-0.47093">
        <ele>188.07507324219</ele>
        <time>2013-07-17T13:02:54Z</time>
      </trkpt>
      <trkpt lat="48.54366" lon="-0.47107">
        <ele>188.07507324219</ele>
        <time>2013-07-17T13:02:58Z</time>
      </trkpt>
      <trkpt lat="48.54371" lon="-0.47134">
        <ele>188.07507324219</ele>
        <time>2013-07-17T13:03:03Z</time>
      </trkpt>
      <trkpt lat="48.5438" lon="-0.47181">
        <ele>188.07507324219</ele>
        <time>2013-07-17T13:03:10Z</time>
      </trkpt>
      <trkpt lat="48.54381" lon="-0.47188">
        <ele>187.59436035156</ele>
        <time>2013-07-17T13:03:11Z</time>
      </trkpt>
      <trkpt lat="48.54383" lon="-0.47202">
        <ele>188.07507324219</ele>
        <time>2013-07-17T13:03:13Z</time>
      </trkpt>
      <trkpt lat="48.54396" lon="-0.47261">
        <ele>189.03637695312</ele>
        <time>2013-07-17T13:03:21Z</time>
      </trkpt>
      <trkpt lat="48.54406" lon="-0.47311">
        <ele>190.47839355469</ele>
        <time>2013-07-17T13:03:28Z</time>
      </trkpt>
      <trkpt lat="48.54408" lon="-0.47344">
        <ele>190.958984375</ele>
        <time>2013-07-17T13:03:33Z</time>
      </trkpt>
      <trkpt lat="48.54408" lon="-0.47353">
        <ele>190.958984375</ele>
        <time>2013-07-17T13:03:35Z</time>
      </trkpt>
      <trkpt lat="48.54418" lon="-0.4736">
        <ele>191.43957519531</ele>
        <time>2013-07-17T13:03:39Z</time>
      </trkpt>
      <trkpt lat="48.54442" lon="-0.4736">
        <ele>193.3623046875</ele>
        <time>2013-07-17T13:03:46Z</time>
      </trkpt>
      <trkpt lat="48.54462" lon="-0.47357">
        <ele>193.3623046875</ele>
        <time>2013-07-17T13:03:51Z</time>
      </trkpt>
      <trkpt lat="48.54487" lon="-0.47345">
        <ele>192.88171386719</ele>
        <time>2013-07-17T13:03:58Z</time>
      </trkpt>
      <trkpt lat="48.54504" lon="-0.47336">
        <ele>192.88171386719</ele>
        <time>2013-07-17T13:04:03Z</time>
      </trkpt>
      <trkpt lat="48.54515" lon="-0.47321">
        <ele>192.40112304688</ele>
        <time>2013-07-17T13:04:08Z</time>
      </trkpt>
      <trkpt lat="48.54526" lon="-0.47308">
        <ele>191.92028808594</ele>
        <time>2013-07-17T13:04:12Z</time>
      </trkpt>
      <trkpt lat="48.54536" lon="-0.47295">
        <ele>190.958984375</ele>
        <time>2013-07-17T13:04:15Z</time>
      </trkpt>
      <trkpt lat="48.54567" lon="-0.47262">
        <ele>189.03637695312</ele>
        <time>2013-07-17T13:04:22Z</time>
      </trkpt>
      <trkpt lat="48.5458" lon="-0.47244">
        <ele>189.03637695312</ele>
        <time>2013-07-17T13:04:26Z</time>
      </trkpt>
      <trkpt lat="48.54573" lon="-0.47222">
        <ele>188.07507324219</ele>
        <time>2013-07-17T13:04:30Z</time>
      </trkpt>
      <trkpt lat="48.54556" lon="-0.47203">
        <ele>186.63317871094</ele>
        <time>2013-07-17T13:04:34Z</time>
      </trkpt>
      <trkpt lat="48.54527" lon="-0.47155">
        <ele>185.67175292969</ele>
        <time>2013-07-17T13:04:41Z</time>
      </trkpt>
      <trkpt lat="48.54501" lon="-0.4711">
        <ele>184.22985839844</ele>
        <time>2013-07-17T13:04:47Z</time>
      </trkpt>
      <trkpt lat="48.54479" lon="-0.4707">
        <ele>184.22985839844</ele>
        <time>2013-07-17T13:04:53Z</time>
      </trkpt>
      <trkpt lat="48.54474" lon="-0.47062">
        <ele>185.19116210938</ele>
        <time>2013-07-17T13:04:56Z</time>
      </trkpt>
      <trkpt lat="48.54469" lon="-0.4705">
        <ele>185.19116210938</ele>
        <time>2013-07-17T13:05:01Z</time>
      </trkpt>
      <trkpt lat="48.54464" lon="-0.47037">
        <ele>185.19116210938</ele>
        <time>2013-07-17T13:05:04Z</time>
      </trkpt>
      <trkpt lat="48.54465" lon="-0.47014">
        <ele>185.67175292969</ele>
        <time>2013-07-17T13:05:08Z</time>
      </trkpt>
      <trkpt lat="48.54492" lon="-0.46976">
        <ele>184.71057128906</ele>
        <time>2013-07-17T13:05:15Z</time>
      </trkpt>
      <trkpt lat="48.54502" lon="-0.46958">
        <ele>184.22985839844</ele>
        <time>2013-07-17T13:05:18Z</time>
      </trkpt>
      <trkpt lat="48.54514" lon="-0.46931">
        <ele>183.26843261719</ele>
        <time>2013-07-17T13:05:22Z</time>
      </trkpt>
      <trkpt lat="48.54526" lon="-0.46893">
        <ele>183.7490234375</ele>
        <time>2013-07-17T13:05:27Z</time>
      </trkpt>
      <trkpt lat="48.54534" lon="-0.46871">
        <ele>184.71057128906</ele>
        <time>2013-07-17T13:05:30Z</time>
      </trkpt>
      <trkpt lat="48.54538" lon="-0.46854">
        <ele>184.71057128906</ele>
        <time>2013-07-17T13:05:32Z</time>
      </trkpt>
      <trkpt lat="48.54533" lon="-0.46825">
        <ele>184.71057128906</ele>
        <time>2013-07-17T13:05:36Z</time>
      </trkpt>
      <trkpt lat="48.54532" lon="-0.46797">
        <ele>185.67175292969</ele>
        <time>2013-07-17T13:05:40Z</time>
      </trkpt>
      <trkpt lat="48.54532" lon="-0.46777">
        <ele>185.19116210938</ele>
        <time>2013-07-17T13:05:43Z</time>
      </trkpt>
      <trkpt lat="48.5453" lon="-0.46736">
        <ele>184.71057128906</ele>
        <time>2013-07-17T13:05:48Z</time>
      </trkpt>
      <trkpt lat="48.54521" lon="-0.46682">
        <ele>185.19116210938</ele>
        <time>2013-07-17T13:05:53Z</time>
      </trkpt>
      <trkpt lat="48.54509" lon="-0.46616">
        <ele>185.67175292969</ele>
        <time>2013-07-17T13:06:00Z</time>
      </trkpt>
      <trkpt lat="48.54509" lon="-0.46609">
        <ele>185.19116210938</ele>
        <time>2013-07-17T13:06:01Z</time>
      </trkpt>
      <trkpt lat="48.54513" lon="-0.46585">
        <ele>184.71057128906</ele>
        <time>2013-07-17T13:06:05Z</time>
      </trkpt>
      <trkpt lat="48.54519" lon="-0.46548">
        <ele>184.22985839844</ele>
        <time>2013-07-17T13:06:10Z</time>
      </trkpt>
      <trkpt lat="48.54527" lon="-0.46507">
        <ele>182.30712890625</ele>
        <time>2013-07-17T13:06:15Z</time>
      </trkpt>
      <trkpt lat="48.54536" lon="-0.46484">
        <ele>181.82641601562</ele>
        <time>2013-07-17T13:06:17Z</time>
      </trkpt>
      <trkpt lat="48.54556" lon="-0.46451">
        <ele>179.42321777344</ele>
        <time>2013-07-17T13:06:21Z</time>
      </trkpt>
      <trkpt lat="48.54562" lon="-0.46424">
        <ele>178.4619140625</ele>
        <time>2013-07-17T13:06:24Z</time>
      </trkpt>
      <trkpt lat="48.54564" lon="-0.46413">
        <ele>178.4619140625</ele>
        <time>2013-07-17T13:06:25Z</time>
      </trkpt>
      <trkpt lat="48.54564" lon="-0.46352">
        <ele>177.02001953125</ele>
        <time>2013-07-17T13:06:31Z</time>
      </trkpt>
      <trkpt lat="48.54555" lon="-0.46308">
        <ele>177.02001953125</ele>
        <time>2013-07-17T13:06:36Z</time>
      </trkpt>
      <trkpt lat="48.5455" lon="-0.4627">
        <ele>177.02001953125</ele>
        <time>2013-07-17T13:06:41Z</time>
      </trkpt>
      <trkpt lat="48.54547" lon="-0.46245">
        <ele>177.50061035156</ele>
        <time>2013-07-17T13:06:46Z</time>
      </trkpt>
      <trkpt lat="48.54556" lon="-0.46236">
        <ele>177.02001953125</ele>
        <time>2013-07-17T13:06:50Z</time>
      </trkpt>
      <trkpt lat="48.5456" lon="-0.46238">
        <ele>176.53930664062</ele>
        <time>2013-07-17T13:06:51Z</time>
      </trkpt>
      <trkpt lat="48.5457" lon="-0.46248">
        <ele>176.53930664062</ele>
        <time>2013-07-17T13:06:54Z</time>
      </trkpt>
      <trkpt lat="48.54586" lon="-0.46262">
        <ele>175.57788085938</ele>
        <time>2013-07-17T13:06:58Z</time>
      </trkpt>
      <trkpt lat="48.54594" lon="-0.46269">
        <ele>175.57788085938</ele>
        <time>2013-07-17T13:07:00Z</time>
      </trkpt>
      <trkpt lat="48.54615" lon="-0.46288">
        <ele>175.09729003906</ele>
        <time>2013-07-17T13:07:05Z</time>
      </trkpt>
      <trkpt lat="48.5462" lon="-0.4629">
        <ele>174.13586425781</ele>
        <time>2013-07-17T13:07:06Z</time>
      </trkpt>
      <trkpt lat="48.54642" lon="-0.46305">
        <ele>170.77136230469</ele>
        <time>2013-07-17T13:07:10Z</time>
      </trkpt>
      <trkpt lat="48.54656" lon="-0.46316">
        <ele>169.32946777344</ele>
        <time>2013-07-17T13:07:12Z</time>
      </trkpt>
      <trkpt lat="48.54671" lon="-0.46323">
        <ele>168.36804199219</ele>
        <time>2013-07-17T13:07:14Z</time>
      </trkpt>
      <trkpt lat="48.54696" lon="-0.46333">
        <ele>167.88732910156</ele>
        <time>2013-07-17T13:07:17Z</time>
      </trkpt>
      <trkpt lat="48.54721" lon="-0.46354">
        <ele>168.84875488281</ele>
        <time>2013-07-17T13:07:21Z</time>
      </trkpt>
      <trkpt lat="48.5474" lon="-0.46375">
        <ele>170.29064941406</ele>
        <time>2013-07-17T13:07:26Z</time>
      </trkpt>
      <trkpt lat="48.54756" lon="-0.46387">
        <ele>171.25207519531</ele>
        <time>2013-07-17T13:07:31Z</time>
      </trkpt>
      <trkpt lat="48.54774" lon="-0.46409">
        <ele>171.73266601562</ele>
        <time>2013-07-17T13:07:37Z</time>
      </trkpt>
      <trkpt lat="48.54802" lon="-0.46437">
        <ele>171.73266601562</ele>
        <time>2013-07-17T13:07:45Z</time>
      </trkpt>
      <trkpt lat="48.54826" lon="-0.46455">
        <ele>173.17468261719</ele>
        <time>2013-07-17T13:07:52Z</time>
      </trkpt>
      <trkpt lat="48.54853" lon="-0.46473">
        <ele>174.61657714844</ele>
        <time>2013-07-17T13:08:00Z</time>
      </trkpt>
      <trkpt lat="48.54879" lon="-0.46492">
        <ele>174.13586425781</ele>
        <time>2013-07-17T13:08:08Z</time>
      </trkpt>
      <trkpt lat="48.54882" lon="-0.46493">
        <ele>174.13586425781</ele>
        <time>2013-07-17T13:08:09Z</time>
      </trkpt>
      <trkpt lat="48.54903" lon="-0.46476">
        <ele>173.6552734375</ele>
        <time>2013-07-17T13:08:16Z</time>
      </trkpt>
      <trkpt lat="48.54919" lon="-0.46461">
        <ele>174.13586425781</ele>
        <time>2013-07-17T13:08:21Z</time>
      </trkpt>
      <trkpt lat="48.54932" lon="-0.4645">
        <ele>174.61657714844</ele>
        <time>2013-07-17T13:08:25Z</time>
      </trkpt>
      <trkpt lat="48.54946" lon="-0.46434">
        <ele>175.09729003906</ele>
        <time>2013-07-17T13:08:30Z</time>
      </trkpt>
      <trkpt lat="48.54959" lon="-0.46424">
        <ele>175.57788085938</ele>
        <time>2013-07-17T13:08:35Z</time>
      </trkpt>
      <trkpt lat="48.54972" lon="-0.46413">
        <ele>176.53930664062</ele>
        <time>2013-07-17T13:08:41Z</time>
      </trkpt>
      <trkpt lat="48.54987" lon="-0.46405">
        <ele>176.53930664062</ele>
        <time>2013-07-17T13:08:47Z</time>
      </trkpt>
      <trkpt lat="48.55003" lon="-0.46395">
        <ele>176.53930664062</ele>
        <time>2013-07-17T13:08:52Z</time>
      </trkpt>
      <trkpt lat="48.55021" lon="-0.46384">
        <ele>176.53930664062</ele>
        <time>2013-07-17T13:08:58Z</time>
      </trkpt>
      <trkpt lat="48.55037" lon="-0.46372">
        <ele>176.05859375</ele>
        <time>2013-07-17T13:09:03Z</time>
      </trkpt>
      <trkpt lat="48.55051" lon="-0.46375">
        <ele>176.05859375</ele>
        <time>2013-07-17T13:09:08Z</time>
      </trkpt>
      <trkpt lat="48.55062" lon="-0.46387">
        <ele>176.05859375</ele>
        <time>2013-07-17T13:09:12Z</time>
      </trkpt>
      <trkpt lat="48.55069" lon="-0.46391">
        <ele>176.05859375</ele>
        <time>2013-07-17T13:09:14Z</time>
      </trkpt>
      <trkpt lat="48.55086" lon="-0.46404">
        <ele>175.57788085938</ele>
        <time>2013-07-17T13:09:19Z</time>
      </trkpt>
      <trkpt lat="48.55109" lon="-0.46427">
        <ele>176.05859375</ele>
        <time>2013-07-17T13:09:26Z</time>
      </trkpt>
      <trkpt lat="48.55128" lon="-0.46444">
        <ele>176.53930664062</ele>
        <time>2013-07-17T13:09:32Z</time>
      </trkpt>
      <trkpt lat="48.55152" lon="-0.4646">
        <ele>177.50061035156</ele>
        <time>2013-07-17T13:09:39Z</time>
      </trkpt>
      <trkpt lat="48.55172" lon="-0.46476">
        <ele>177.98120117188</ele>
        <time>2013-07-17T13:09:45Z</time>
      </trkpt>
      <trkpt lat="48.55181" lon="-0.46486">
        <ele>179.42321777344</ele>
        <time>2013-07-17T13:09:50Z</time>
      </trkpt>
      <trkpt lat="48.5519" lon="-0.46481">
        <ele>179.90380859375</ele>
        <time>2013-07-17T13:09:55Z</time>
      </trkpt>
      <trkpt lat="48.55193" lon="-0.46478">
        <ele>179.90380859375</ele>
        <time>2013-07-17T13:09:56Z</time>
      </trkpt>
      <trkpt lat="48.55217" lon="-0.46453">
        <ele>180.38452148438</ele>
        <time>2013-07-17T13:10:05Z</time>
      </trkpt>
      <trkpt lat="48.55239" lon="-0.46428">
        <ele>180.38452148438</ele>
        <time>2013-07-17T13:10:13Z</time>
      </trkpt>
      <trkpt lat="48.55254" lon="-0.4641">
        <ele>180.38452148438</ele>
        <time>2013-07-17T13:10:18Z</time>
      </trkpt>
      <trkpt lat="48.55276" lon="-0.46385">
        <ele>180.38452148438</ele>
        <time>2013-07-17T13:10:26Z</time>
      </trkpt>
      <trkpt lat="48.55289" lon="-0.4638">
        <ele>180.865234375</ele>
        <time>2013-07-17T13:10:32Z</time>
      </trkpt>
      <trkpt lat="48.55304" lon="-0.4639">
        <ele>181.82641601562</ele>
        <time>2013-07-17T13:10:37Z</time>
      </trkpt>
      <trkpt lat="48.55317" lon="-0.46413">
        <ele>183.26843261719</ele>
        <time>2013-07-17T13:10:44Z</time>
      </trkpt>
      <trkpt lat="48.55322" lon="-0.46422">
        <ele>183.7490234375</ele>
        <time>2013-07-17T13:10:50Z</time>
      </trkpt>
      <trkpt lat="48.55313" lon="-0.46415">
        <ele>183.26843261719</ele>
        <time>2013-07-17T13:11:01Z</time>
      </trkpt>
      <trkpt lat="48.5531" lon="-0.46411">
        <ele>183.26843261719</ele>
        <time>2013-07-17T13:11:03Z</time>
      </trkpt>
      <trkpt lat="48.55315" lon="-0.46417">
        <ele>183.26843261719</ele>
        <time>2013-07-17T13:11:36Z</time>
      </trkpt>
      <trkpt lat="48.55316" lon="-0.46419">
        <ele>183.26843261719</ele>
        <time>2013-07-17T13:11:37Z</time>
      </trkpt>
      <trkpt lat="48.55327" lon="-0.46429">
        <ele>183.26843261719</ele>
        <time>2013-07-17T13:11:42Z</time>
      </trkpt>
      <trkpt lat="48.55343" lon="-0.46445">
        <ele>182.78784179688</ele>
        <time>2013-07-17T13:11:47Z</time>
      </trkpt>
      <trkpt lat="48.55361" lon="-0.46464">
        <ele>182.30712890625</ele>
        <time>2013-07-17T13:11:52Z</time>
      </trkpt>
      <trkpt lat="48.55401" lon="-0.4651">
        <ele>181.34582519531</ele>
        <time>2013-07-17T13:12:03Z</time>
      </trkpt>
      <trkpt lat="48.55432" lon="-0.46541">
        <ele>180.865234375</ele>
        <time>2013-07-17T13:12:10Z</time>
      </trkpt>
      <trkpt lat="48.55468" lon="-0.46557">
        <ele>181.34582519531</ele>
        <time>2013-07-17T13:12:17Z</time>
      </trkpt>
      <trkpt lat="48.55508" lon="-0.46561">
        <ele>180.38452148438</ele>
        <time>2013-07-17T13:12:25Z</time>
      </trkpt>
      <trkpt lat="48.55538" lon="-0.46564">
        <ele>180.38452148438</ele>
        <time>2013-07-17T13:12:32Z</time>
      </trkpt>
      <trkpt lat="48.55571" lon="-0.46568">
        <ele>179.42321777344</ele>
        <time>2013-07-17T13:12:39Z</time>
      </trkpt>
      <trkpt lat="48.55592" lon="-0.46571">
        <ele>179.90380859375</ele>
        <time>2013-07-17T13:12:43Z</time>
      </trkpt>
      <trkpt lat="48.55631" lon="-0.46576">
        <ele>179.42321777344</ele>
        <time>2013-07-17T13:12:51Z</time>
      </trkpt>
      <trkpt lat="48.55674" lon="-0.46582">
        <ele>179.42321777344</ele>
        <time>2013-07-17T13:13:00Z</time>
      </trkpt>
      <trkpt lat="48.55678" lon="-0.46583">
        <ele>179.90380859375</ele>
        <time>2013-07-17T13:13:01Z</time>
      </trkpt>
      <trkpt lat="48.55697" lon="-0.4659">
        <ele>179.42321777344</ele>
        <time>2013-07-17T13:13:05Z</time>
      </trkpt>
      <trkpt lat="48.55714" lon="-0.46605">
        <ele>179.90380859375</ele>
        <time>2013-07-17T13:13:09Z</time>
      </trkpt>
      <trkpt lat="48.55754" lon="-0.46645">
        <ele>179.42321777344</ele>
        <time>2013-07-17T13:13:19Z</time>
      </trkpt>
      <trkpt lat="48.55758" lon="-0.46649">
        <ele>179.42321777344</ele>
        <time>2013-07-17T13:13:20Z</time>
      </trkpt>
      <trkpt lat="48.5578" lon="-0.46654">
        <ele>178.94262695312</ele>
        <time>2013-07-17T13:13:25Z</time>
      </trkpt>
      <trkpt lat="48.55787" lon="-0.46647">
        <ele>179.42321777344</ele>
        <time>2013-07-17T13:13:27Z</time>
      </trkpt>
      <trkpt lat="48.55815" lon="-0.46608">
        <ele>179.42321777344</ele>
        <time>2013-07-17T13:13:35Z</time>
      </trkpt>
      <trkpt lat="48.5584" lon="-0.46565">
        <ele>181.34582519531</ele>
        <time>2013-07-17T13:13:44Z</time>
      </trkpt>
      <trkpt lat="48.55856" lon="-0.46537">
        <ele>182.30712890625</ele>
        <time>2013-07-17T13:13:50Z</time>
      </trkpt>
      <trkpt lat="48.55877" lon="-0.465">
        <ele>183.7490234375</ele>
        <time>2013-07-17T13:13:58Z</time>
      </trkpt>
      <trkpt lat="48.55902" lon="-0.46463">
        <ele>184.22985839844</ele>
        <time>2013-07-17T13:14:06Z</time>
      </trkpt>
      <trkpt lat="48.55907" lon="-0.46454">
        <ele>184.22985839844</ele>
        <time>2013-07-17T13:14:08Z</time>
      </trkpt>
      <trkpt lat="48.55932" lon="-0.4643">
        <ele>186.63317871094</ele>
        <time>2013-07-17T13:14:16Z</time>
      </trkpt>
      <trkpt lat="48.55948" lon="-0.46425">
        <ele>189.03637695312</ele>
        <time>2013-07-17T13:14:23Z</time>
      </trkpt>
      <trkpt lat="48.55961" lon="-0.46411">
        <ele>190.47839355469</ele>
        <time>2013-07-17T13:14:30Z</time>
      </trkpt>
      <trkpt lat="48.5596" lon="-0.46395">
        <ele>191.92028808594</ele>
        <time>2013-07-17T13:14:35Z</time>
      </trkpt>
      <trkpt lat="48.55963" lon="-0.46374">
        <ele>192.40112304688</ele>
        <time>2013-07-17T13:14:41Z</time>
      </trkpt>
      <trkpt lat="48.55976" lon="-0.46357">
        <ele>194.32373046875</ele>
        <time>2013-07-17T13:14:48Z</time>
      </trkpt>
      <trkpt lat="48.55989" lon="-0.46341">
        <ele>196.24633789062</ele>
        <time>2013-07-17T13:14:55Z</time>
      </trkpt>
      <trkpt lat="48.56009" lon="-0.46324">
        <ele>198.64953613281</ele>
        <time>2013-07-17T13:15:05Z</time>
      </trkpt>
      <trkpt lat="48.5603" lon="-0.46312">
        <ele>201.53356933594</ele>
        <time>2013-07-17T13:15:15Z</time>
      </trkpt>
      <trkpt lat="48.56051" lon="-0.463">
        <ele>203.93688964844</ele>
        <time>2013-07-17T13:15:25Z</time>
      </trkpt>
      <trkpt lat="48.56064" lon="-0.46287">
        <ele>205.37878417969</ele>
        <time>2013-07-17T13:15:33Z</time>
      </trkpt>
      <trkpt lat="48.56065" lon="-0.46285">
        <ele>205.85949707031</ele>
        <time>2013-07-17T13:15:34Z</time>
      </trkpt>
      <trkpt lat="48.56059" lon="-0.4626">
        <ele>205.85949707031</ele>
        <time>2013-07-17T13:15:42Z</time>
      </trkpt>
      <trkpt lat="48.5605" lon="-0.46222">
        <ele>205.85949707031</ele>
        <time>2013-07-17T13:15:50Z</time>
      </trkpt>
      <trkpt lat="48.56043" lon="-0.46182">
        <ele>206.34008789062</ele>
        <time>2013-07-17T13:15:57Z</time>
      </trkpt>
      <trkpt lat="48.56033" lon="-0.4613">
        <ele>206.34008789062</ele>
        <time>2013-07-17T13:16:05Z</time>
      </trkpt>
      <trkpt lat="48.56027" lon="-0.46082">
        <ele>206.82067871094</ele>
        <time>2013-07-17T13:16:13Z</time>
      </trkpt>
      <trkpt lat="48.56022" lon="-0.46034">
        <ele>206.82067871094</ele>
        <time>2013-07-17T13:16:21Z</time>
      </trkpt>
      <trkpt lat="48.56017" lon="-0.45986">
        <ele>207.30139160156</ele>
        <time>2013-07-17T13:16:29Z</time>
      </trkpt>
      <trkpt lat="48.56014" lon="-0.45957">
        <ele>207.30139160156</ele>
        <time>2013-07-17T13:16:35Z</time>
      </trkpt>
      <trkpt lat="48.56009" lon="-0.45914">
        <ele>207.78210449219</ele>
        <time>2013-07-17T13:16:43Z</time>
      </trkpt>
      <trkpt lat="48.56004" lon="-0.45877">
        <ele>207.78210449219</ele>
        <time>2013-07-17T13:16:49Z</time>
      </trkpt>
      <trkpt lat="48.55998" lon="-0.45827">
        <ele>207.78210449219</ele>
        <time>2013-07-17T13:16:57Z</time>
      </trkpt>
      <trkpt lat="48.55991" lon="-0.45777">
        <ele>208.26281738281</ele>
        <time>2013-07-17T13:17:05Z</time>
      </trkpt>
      <trkpt lat="48.55988" lon="-0.45747">
        <ele>208.74340820312</ele>
        <time>2013-07-17T13:17:11Z</time>
      </trkpt>
      <trkpt lat="48.5598" lon="-0.45726">
        <ele>208.74340820312</ele>
        <time>2013-07-17T13:17:17Z</time>
      </trkpt>
      <trkpt lat="48.55975" lon="-0.45707">
        <ele>208.74340820312</ele>
        <time>2013-07-17T13:17:21Z</time>
      </trkpt>
      <trkpt lat="48.55975" lon="-0.45684">
        <ele>209.70483398438</ele>
        <time>2013-07-17T13:17:25Z</time>
      </trkpt>
      <trkpt lat="48.55964" lon="-0.45674">
        <ele>208.74340820312</ele>
        <time>2013-07-17T13:17:29Z</time>
      </trkpt>
      <trkpt lat="48.5596" lon="-0.45677">
        <ele>208.26281738281</ele>
        <time>2013-07-17T13:17:30Z</time>
      </trkpt>
      <trkpt lat="48.55949" lon="-0.45682">
        <ele>207.30139160156</ele>
        <time>2013-07-17T13:17:32Z</time>
      </trkpt>
      <trkpt lat="48.55939" lon="-0.45682">
        <ele>206.34008789062</ele>
        <time>2013-07-17T13:17:34Z</time>
      </trkpt>
      <trkpt lat="48.5593" lon="-0.45666">
        <ele>206.34008789062</ele>
        <time>2013-07-17T13:17:37Z</time>
      </trkpt>
      <trkpt lat="48.55928" lon="-0.45648">
        <ele>207.30139160156</ele>
        <time>2013-07-17T13:17:40Z</time>
      </trkpt>
      <trkpt lat="48.55926" lon="-0.45637">
        <ele>207.30139160156</ele>
        <time>2013-07-17T13:17:42Z</time>
      </trkpt>
      <trkpt lat="48.55919" lon="-0.45611">
        <ele>207.78210449219</ele>
        <time>2013-07-17T13:17:46Z</time>
      </trkpt>
      <trkpt lat="48.55909" lon="-0.45574">
        <ele>208.74340820312</ele>
        <time>2013-07-17T13:17:52Z</time>
      </trkpt>
      <trkpt lat="48.55894" lon="-0.45544">
        <ele>208.26281738281</ele>
        <time>2013-07-17T13:17:58Z</time>
      </trkpt>
      <trkpt lat="48.55886" lon="-0.45527">
        <ele>207.78210449219</ele>
        <time>2013-07-17T13:18:01Z</time>
      </trkpt>
      <trkpt lat="48.55877" lon="-0.45485">
        <ele>208.74340820312</ele>
        <time>2013-07-17T13:18:07Z</time>
      </trkpt>
      <trkpt lat="48.55872" lon="-0.45451">
        <ele>209.22412109375</ele>
        <time>2013-07-17T13:18:12Z</time>
      </trkpt>
      <trkpt lat="48.55866" lon="-0.45409">
        <ele>210.18542480469</ele>
        <time>2013-07-17T13:18:18Z</time>
      </trkpt>
      <trkpt lat="48.55862" lon="-0.45385">
        <ele>210.666015625</ele>
        <time>2013-07-17T13:18:21Z</time>
      </trkpt>
      <trkpt lat="48.55857" lon="-0.45337">
        <ele>211.14672851562</ele>
        <time>2013-07-17T13:18:28Z</time>
      </trkpt>
      <trkpt lat="48.55848" lon="-0.45295">
        <ele>211.14672851562</ele>
        <time>2013-07-17T13:18:34Z</time>
      </trkpt>
      <trkpt lat="48.55841" lon="-0.45272">
        <ele>210.666015625</ele>
        <time>2013-07-17T13:18:38Z</time>
      </trkpt>
      <trkpt lat="48.55828" lon="-0.4523">
        <ele>210.18542480469</ele>
        <time>2013-07-17T13:18:44Z</time>
      </trkpt>
      <trkpt lat="48.55823" lon="-0.45209">
        <ele>210.18542480469</ele>
        <time>2013-07-17T13:18:47Z</time>
      </trkpt>
      <trkpt lat="48.55816" lon="-0.45176">
        <ele>209.70483398438</ele>
        <time>2013-07-17T13:18:52Z</time>
      </trkpt>
      <trkpt lat="48.55813" lon="-0.45138">
        <ele>210.18542480469</ele>
        <time>2013-07-17T13:18:58Z</time>
      </trkpt>
      <trkpt lat="48.55814" lon="-0.45131">
        <ele>209.70483398438</ele>
        <time>2013-07-17T13:18:59Z</time>
      </trkpt>
      <trkpt lat="48.55828" lon="-0.45089">
        <ele>210.666015625</ele>
        <time>2013-07-17T13:19:06Z</time>
      </trkpt>
      <trkpt lat="48.55837" lon="-0.45061">
        <ele>210.666015625</ele>
        <time>2013-07-17T13:19:10Z</time>
      </trkpt>
      <trkpt lat="48.55841" lon="-0.45047">
        <ele>210.666015625</ele>
        <time>2013-07-17T13:19:12Z</time>
      </trkpt>
      <trkpt lat="48.55855" lon="-0.45005">
        <ele>212.10803222656</ele>
        <time>2013-07-17T13:19:18Z</time>
      </trkpt>
      <trkpt lat="48.55861" lon="-0.44972">
        <ele>213.55004882812</ele>
        <time>2013-07-17T13:19:24Z</time>
      </trkpt>
      <trkpt lat="48.55864" lon="-0.44946">
        <ele>212.10803222656</ele>
        <time>2013-07-17T13:19:29Z</time>
      </trkpt>
      <trkpt lat="48.55867" lon="-0.44917">
        <ele>211.62744140625</ele>
        <time>2013-07-17T13:19:34Z</time>
      </trkpt>
      <trkpt lat="48.55864" lon="-0.44891">
        <ele>210.666015625</ele>
        <time>2013-07-17T13:19:38Z</time>
      </trkpt>
      <trkpt lat="48.55854" lon="-0.44854">
        <ele>210.666015625</ele>
        <time>2013-07-17T13:19:44Z</time>
      </trkpt>
      <trkpt lat="48.55844" lon="-0.44832">
        <ele>210.666015625</ele>
        <time>2013-07-17T13:19:49Z</time>
      </trkpt>
      <trkpt lat="48.55836" lon="-0.44813">
        <ele>210.18542480469</ele>
        <time>2013-07-17T13:19:53Z</time>
      </trkpt>
      <trkpt lat="48.55836" lon="-0.4479">
        <ele>211.62744140625</ele>
        <time>2013-07-17T13:19:57Z</time>
      </trkpt>
      <trkpt lat="48.55843" lon="-0.4477">
        <ele>212.58862304688</ele>
        <time>2013-07-17T13:20:01Z</time>
      </trkpt>
      <trkpt lat="48.55849" lon="-0.44752">
        <ele>213.0693359375</ele>
        <time>2013-07-17T13:20:05Z</time>
      </trkpt>
      <trkpt lat="48.55849" lon="-0.4473">
        <ele>214.03063964844</ele>
        <time>2013-07-17T13:20:09Z</time>
      </trkpt>
      <trkpt lat="48.55844" lon="-0.44705">
        <ele>214.03063964844</ele>
        <time>2013-07-17T13:20:13Z</time>
      </trkpt>
      <trkpt lat="48.55842" lon="-0.44697">
        <ele>214.03063964844</ele>
        <time>2013-07-17T13:20:14Z</time>
      </trkpt>
      <trkpt lat="48.5584" lon="-0.44674">
        <ele>214.99194335938</ele>
        <time>2013-07-17T13:20:18Z</time>
      </trkpt>
      <trkpt lat="48.55837" lon="-0.44649">
        <ele>214.99194335938</ele>
        <time>2013-07-17T13:20:24Z</time>
      </trkpt>
      <trkpt lat="48.55836" lon="-0.44634">
        <ele>214.99194335938</ele>
        <time>2013-07-17T13:20:28Z</time>
      </trkpt>
      <trkpt lat="48.55835" lon="-0.44613">
        <ele>214.99194335938</ele>
        <time>2013-07-17T13:20:32Z</time>
      </trkpt>
      <trkpt lat="48.55838" lon="-0.44589">
        <ele>215.47265625</ele>
        <time>2013-07-17T13:20:36Z</time>
      </trkpt>
      <trkpt lat="48.55842" lon="-0.44559">
        <ele>215.95324707031</ele>
        <time>2013-07-17T13:20:41Z</time>
      </trkpt>
      <trkpt lat="48.55843" lon="-0.44533">
        <ele>216.43395996094</ele>
        <time>2013-07-17T13:20:45Z</time>
      </trkpt>
      <trkpt lat="48.55848" lon="-0.44504">
        <ele>216.91467285156</ele>
        <time>2013-07-17T13:20:50Z</time>
      </trkpt>
      <trkpt lat="48.5585" lon="-0.44477">
        <ele>217.39538574219</ele>
        <time>2013-07-17T13:20:55Z</time>
      </trkpt>
      <trkpt lat="48.55848" lon="-0.44454">
        <ele>217.39538574219</ele>
        <time>2013-07-17T13:21:01Z</time>
      </trkpt>
      <trkpt lat="48.55849" lon="-0.44438">
        <ele>217.39538574219</ele>
        <time>2013-07-17T13:21:05Z</time>
      </trkpt>
      <trkpt lat="48.55848" lon="-0.44428">
        <ele>217.8759765625</ele>
        <time>2013-07-17T13:21:07Z</time>
      </trkpt>
      <trkpt lat="48.55847" lon="-0.44398">
        <ele>217.39538574219</ele>
        <time>2013-07-17T13:21:14Z</time>
      </trkpt>
      <trkpt lat="48.55847" lon="-0.44373">
        <ele>216.91467285156</ele>
        <time>2013-07-17T13:21:20Z</time>
      </trkpt>
      <trkpt lat="48.55846" lon="-0.44366">
        <ele>217.39538574219</ele>
        <time>2013-07-17T13:21:22Z</time>
      </trkpt>
      <trkpt lat="48.55847" lon="-0.4435">
        <ele>217.39538574219</ele>
        <time>2013-07-17T13:21:27Z</time>
      </trkpt>
      <trkpt lat="48.55845" lon="-0.44332">
        <ele>217.39538574219</ele>
        <time>2013-07-17T13:21:31Z</time>
      </trkpt>
      <trkpt lat="48.55843" lon="-0.4432">
        <ele>217.39538574219</ele>
        <time>2013-07-17T13:21:34Z</time>
      </trkpt>
      <trkpt lat="48.55842" lon="-0.44311">
        <ele>217.8759765625</ele>
        <time>2013-07-17T13:21:37Z</time>
      </trkpt>
      <trkpt lat="48.5584" lon="-0.44296">
        <ele>217.8759765625</ele>
        <time>2013-07-17T13:21:43Z</time>
      </trkpt>
      <trkpt lat="48.55838" lon="-0.44283">
        <ele>217.39538574219</ele>
        <time>2013-07-17T13:23:24Z</time>
      </trkpt>
      <trkpt lat="48.5584" lon="-0.44274">
        <ele>217.8759765625</ele>
        <time>2013-07-17T13:23:27Z</time>
      </trkpt>
      <trkpt lat="48.55843" lon="-0.44252">
        <ele>217.8759765625</ele>
        <time>2013-07-17T13:23:33Z</time>
      </trkpt>
      <trkpt lat="48.55841" lon="-0.44219">
        <ele>218.83728027344</ele>
        <time>2013-07-17T13:23:38Z</time>
      </trkpt>
      <trkpt lat="48.55843" lon="-0.44188">
        <ele>219.79858398438</ele>
        <time>2013-07-17T13:23:43Z</time>
      </trkpt>
      <trkpt lat="48.5584" lon="-0.44159">
        <ele>219.31799316406</ele>
        <time>2013-07-17T13:23:48Z</time>
      </trkpt>
      <trkpt lat="48.55834" lon="-0.44126">
        <ele>219.79858398438</ele>
        <time>2013-07-17T13:23:54Z</time>
      </trkpt>
      <trkpt lat="48.55826" lon="-0.44102">
        <ele>220.27917480469</ele>
        <time>2013-07-17T13:23:59Z</time>
      </trkpt>
      <trkpt lat="48.55825" lon="-0.44087">
        <ele>220.75988769531</ele>
        <time>2013-07-17T13:24:04Z</time>
      </trkpt>
      <trkpt lat="48.55826" lon="-0.44089">
        <ele>221.24060058594</ele>
        <time>2013-07-17T13:24:05Z</time>
      </trkpt>
      <trkpt lat="48.55829" lon="-0.44091">
        <ele>221.24060058594</ele>
        <time>2013-07-17T13:24:08Z</time>
      </trkpt>
      <trkpt lat="48.55842" lon="-0.44103">
        <ele>221.72119140625</ele>
        <time>2013-07-17T13:24:11Z</time>
      </trkpt>
      <trkpt lat="48.55857" lon="-0.44115">
        <ele>224.60522460938</ele>
        <time>2013-07-17T13:24:18Z</time>
      </trkpt>
      <trkpt lat="48.55866" lon="-0.44121">
        <ele>225.56652832031</ele>
        <time>2013-07-17T13:24:22Z</time>
      </trkpt>
      <trkpt lat="48.55879" lon="-0.44129">
        <ele>227.48913574219</ele>
        <time>2013-07-17T13:24:28Z</time>
      </trkpt>
      <trkpt lat="48.55891" lon="-0.44141">
        <ele>228.93115234375</ele>
        <time>2013-07-17T13:24:34Z</time>
      </trkpt>
      <trkpt lat="48.55906" lon="-0.4415">
        <ele>230.85375976562</ele>
        <time>2013-07-17T13:24:41Z</time>
      </trkpt>
      <trkpt lat="48.55916" lon="-0.44151">
        <ele>232.29577636719</ele>
        <time>2013-07-17T13:24:45Z</time>
      </trkpt>
      <trkpt lat="48.55925" lon="-0.44153">
        <ele>233.25708007812</ele>
        <time>2013-07-17T13:24:50Z</time>
      </trkpt>
      <trkpt lat="48.55933" lon="-0.44167">
        <ele>233.73767089844</ele>
        <time>2013-07-17T13:24:57Z</time>
      </trkpt>
      <trkpt lat="48.55941" lon="-0.44194">
        <ele>234.21838378906</ele>
        <time>2013-07-17T13:25:05Z</time>
      </trkpt>
      <trkpt lat="48.55947" lon="-0.44228">
        <ele>233.73767089844</ele>
        <time>2013-07-17T13:25:13Z</time>
      </trkpt>
      <trkpt lat="48.55954" lon="-0.44257">
        <ele>234.21838378906</ele>
        <time>2013-07-17T13:25:20Z</time>
      </trkpt>
      <trkpt lat="48.55962" lon="-0.4429">
        <ele>234.69909667969</ele>
        <time>2013-07-17T13:25:27Z</time>
      </trkpt>
      <trkpt lat="48.55965" lon="-0.44317">
        <ele>235.1796875</ele>
        <time>2013-07-17T13:25:32Z</time>
      </trkpt>
      <trkpt lat="48.55965" lon="-0.44353">
        <ele>235.66027832031</ele>
        <time>2013-07-17T13:25:38Z</time>
      </trkpt>
      <trkpt lat="48.5597" lon="-0.44374">
        <ele>235.66027832031</ele>
        <time>2013-07-17T13:25:42Z</time>
      </trkpt>
      <trkpt lat="48.55976" lon="-0.44399">
        <ele>236.14099121094</ele>
        <time>2013-07-17T13:25:47Z</time>
      </trkpt>
      <trkpt lat="48.55993" lon="-0.44423">
        <ele>236.14099121094</ele>
        <time>2013-07-17T13:25:53Z</time>
      </trkpt>
      <trkpt lat="48.56016" lon="-0.44428">
        <ele>236.62170410156</ele>
        <time>2013-07-17T13:25:59Z</time>
      </trkpt>
      <trkpt lat="48.56046" lon="-0.44431">
        <ele>236.62170410156</ele>
        <time>2013-07-17T13:26:06Z</time>
      </trkpt>
      <trkpt lat="48.56063" lon="-0.44433">
        <ele>236.62170410156</ele>
        <time>2013-07-17T13:26:11Z</time>
      </trkpt>
      <trkpt lat="48.56079" lon="-0.44439">
        <ele>236.62170410156</ele>
        <time>2013-07-17T13:26:16Z</time>
      </trkpt>
      <trkpt lat="48.56104" lon="-0.44442">
        <ele>237.10229492188</ele>
        <time>2013-07-17T13:26:23Z</time>
      </trkpt>
      <trkpt lat="48.56129" lon="-0.44445">
        <ele>237.10229492188</ele>
        <time>2013-07-17T13:26:30Z</time>
      </trkpt>
      <trkpt lat="48.56146" lon="-0.44446">
        <ele>237.10229492188</ele>
        <time>2013-07-17T13:26:37Z</time>
      </trkpt>
      <trkpt lat="48.56161" lon="-0.44448">
        <ele>237.10229492188</ele>
        <time>2013-07-17T13:26:43Z</time>
      </trkpt>
      <trkpt lat="48.56174" lon="-0.44447">
        <ele>237.10229492188</ele>
        <time>2013-07-17T13:26:49Z</time>
      </trkpt>
      <trkpt lat="48.56175" lon="-0.44447">
        <ele>237.10229492188</ele>
        <time>2013-07-17T13:26:51Z</time>
      </trkpt>
      <trkpt lat="48.56178" lon="-0.44446">
        <ele>237.10229492188</ele>
        <time>2013-07-17T13:26:58Z</time>
      </trkpt>
      <trkpt lat="48.56183" lon="-0.44456">
        <ele>237.10229492188</ele>
        <time>2013-07-17T13:27:02Z</time>
      </trkpt>
      <trkpt lat="48.56189" lon="-0.44463">
        <ele>237.58288574219</ele>
        <time>2013-07-17T13:27:05Z</time>
      </trkpt>
      <trkpt lat="48.56198" lon="-0.44468">
        <ele>236.62170410156</ele>
        <time>2013-07-17T13:27:09Z</time>
      </trkpt>
      <trkpt lat="48.56209" lon="-0.44484">
        <ele>237.10229492188</ele>
        <time>2013-07-17T13:27:16Z</time>
      </trkpt>
      <trkpt lat="48.56214" lon="-0.44488">
        <ele>236.62170410156</ele>
        <time>2013-07-17T13:27:21Z</time>
      </trkpt>
      <trkpt lat="48.56214" lon="-0.44488">
        <ele>236.62170410156</ele>
        <time>2013-07-17T13:27:22Z</time>
      </trkpt>
      <trkpt lat="48.56219" lon="-0.44493">
        <ele>236.62170410156</ele>
        <time>2013-07-17T13:27:57Z</time>
      </trkpt>
      <trkpt lat="48.56222" lon="-0.44475">
        <ele>236.14099121094</ele>
        <time>2013-07-17T13:28:03Z</time>
      </trkpt>
      <trkpt lat="48.56226" lon="-0.44469">
        <ele>235.66027832031</ele>
        <time>2013-07-17T13:28:06Z</time>
      </trkpt>
      <trkpt lat="48.56234" lon="-0.44455">
        <ele>236.14099121094</ele>
        <time>2013-07-17T13:28:12Z</time>
      </trkpt>
      <trkpt lat="48.56244" lon="-0.44438">
        <ele>235.1796875</ele>
        <time>2013-07-17T13:28:18Z</time>
      </trkpt>
      <trkpt lat="48.56254" lon="-0.44421">
        <ele>234.21838378906</ele>
        <time>2013-07-17T13:28:22Z</time>
      </trkpt>
      <trkpt lat="48.5627" lon="-0.44399">
        <ele>232.29577636719</ele>
        <time>2013-07-17T13:28:26Z</time>
      </trkpt>
      <trkpt lat="48.56281" lon="-0.44384">
        <ele>231.81494140625</ele>
        <time>2013-07-17T13:28:29Z</time>
      </trkpt>
      <trkpt lat="48.56296" lon="-0.44367">
        <ele>229.89233398438</ele>
        <time>2013-07-17T13:28:33Z</time>
      </trkpt>
      <trkpt lat="48.56311" lon="-0.4435">
        <ele>226.52783203125</ele>
        <time>2013-07-17T13:28:37Z</time>
      </trkpt>
      <trkpt lat="48.56325" lon="-0.44332">
        <ele>221.72119140625</ele>
        <time>2013-07-17T13:28:40Z</time>
      </trkpt>
      <trkpt lat="48.5633" lon="-0.44324">
        <ele>218.83728027344</ele>
        <time>2013-07-17T13:28:41Z</time>
      </trkpt>
      <trkpt lat="48.5634" lon="-0.44303">
        <ele>215.47265625</ele>
        <time>2013-07-17T13:28:43Z</time>
      </trkpt>
      <trkpt lat="48.56347" lon="-0.44291">
        <ele>214.51123046875</ele>
        <time>2013-07-17T13:28:44Z</time>
      </trkpt>
      <trkpt lat="48.56382" lon="-0.44243">
        <ele>209.70483398438</ele>
        <time>2013-07-17T13:28:48Z</time>
      </trkpt>
      <trkpt lat="48.5642" lon="-0.44192">
        <ele>205.85949707031</ele>
        <time>2013-07-17T13:28:52Z</time>
      </trkpt>
      <trkpt lat="48.56461" lon="-0.44134">
        <ele>201.53356933594</ele>
        <time>2013-07-17T13:28:56Z</time>
      </trkpt>
      <trkpt lat="48.56496" lon="-0.44086">
        <ele>198.1689453125</ele>
        <time>2013-07-17T13:29:00Z</time>
      </trkpt>
      <trkpt lat="48.56531" lon="-0.44035">
        <ele>195.765625</ele>
        <time>2013-07-17T13:29:05Z</time>
      </trkpt>
      <trkpt lat="48.56551" lon="-0.44007">
        <ele>194.80432128906</ele>
        <time>2013-07-17T13:29:08Z</time>
      </trkpt>
      <trkpt lat="48.56573" lon="-0.43971">
        <ele>194.32373046875</ele>
        <time>2013-07-17T13:29:12Z</time>
      </trkpt>
      <trkpt lat="48.56596" lon="-0.4394">
        <ele>196.24633789062</ele>
        <time>2013-07-17T13:29:17Z</time>
      </trkpt>
      <trkpt lat="48.56608" lon="-0.43923">
        <ele>196.72692871094</ele>
        <time>2013-07-17T13:29:22Z</time>
      </trkpt>
      <trkpt lat="48.56618" lon="-0.43908">
        <ele>197.68823242188</ele>
        <time>2013-07-17T13:29:27Z</time>
      </trkpt>
      <trkpt lat="48.5663" lon="-0.4389">
        <ele>199.61083984375</ele>
        <time>2013-07-17T13:29:33Z</time>
      </trkpt>
      <trkpt lat="48.56643" lon="-0.43871">
        <ele>200.572265625</ele>
        <time>2013-07-17T13:29:40Z</time>
      </trkpt>
      <trkpt lat="48.56641" lon="-0.43858">
        <ele>200.572265625</ele>
        <time>2013-07-17T13:29:44Z</time>
      </trkpt>
      <trkpt lat="48.56631" lon="-0.43835">
        <ele>200.09167480469</ele>
        <time>2013-07-17T13:29:49Z</time>
      </trkpt>
      <trkpt lat="48.56618" lon="-0.43802">
        <ele>199.13012695312</ele>
        <time>2013-07-17T13:29:55Z</time>
      </trkpt>
      <trkpt lat="48.56616" lon="-0.43796">
        <ele>199.13012695312</ele>
        <time>2013-07-17T13:29:56Z</time>
      </trkpt>
      <trkpt lat="48.566" lon="-0.43759">
        <ele>198.1689453125</ele>
        <time>2013-07-17T13:30:02Z</time>
      </trkpt>
      <trkpt lat="48.56586" lon="-0.43724">
        <ele>196.72692871094</ele>
        <time>2013-07-17T13:30:07Z</time>
      </trkpt>
      <trkpt lat="48.56566" lon="-0.43678">
        <ele>194.80432128906</ele>
        <time>2013-07-17T13:30:12Z</time>
      </trkpt>
      <trkpt lat="48.56551" lon="-0.43641">
        <ele>194.32373046875</ele>
        <time>2013-07-17T13:30:16Z</time>
      </trkpt>
      <trkpt lat="48.56528" lon="-0.43586">
        <ele>193.84301757812</ele>
        <time>2013-07-17T13:30:22Z</time>
      </trkpt>
      <trkpt lat="48.56506" lon="-0.43534">
        <ele>193.84301757812</ele>
        <time>2013-07-17T13:30:28Z</time>
      </trkpt>
      <trkpt lat="48.56485" lon="-0.43485">
        <ele>192.88171386719</ele>
        <time>2013-07-17T13:30:34Z</time>
      </trkpt>
      <trkpt lat="48.56466" lon="-0.43439">
        <ele>192.40112304688</ele>
        <time>2013-07-17T13:30:40Z</time>
      </trkpt>
      <trkpt lat="48.56459" lon="-0.43424">
        <ele>192.40112304688</ele>
        <time>2013-07-17T13:30:42Z</time>
      </trkpt>
      <trkpt lat="48.56462" lon="-0.434">
        <ele>191.92028808594</ele>
        <time>2013-07-17T13:30:46Z</time>
      </trkpt>
      <trkpt lat="48.56478" lon="-0.43401">
        <ele>192.88171386719</ele>
        <time>2013-07-17T13:30:50Z</time>
      </trkpt>
      <trkpt lat="48.56512" lon="-0.43396">
        <ele>193.84301757812</ele>
        <time>2013-07-17T13:30:58Z</time>
      </trkpt>
      <trkpt lat="48.56516" lon="-0.43396">
        <ele>194.32373046875</ele>
        <time>2013-07-17T13:30:59Z</time>
      </trkpt>
      <trkpt lat="48.56555" lon="-0.4339">
        <ele>195.765625</ele>
        <time>2013-07-17T13:31:08Z</time>
      </trkpt>
      <trkpt lat="48.56569" lon="-0.43386">
        <ele>196.24633789062</ele>
        <time>2013-07-17T13:31:11Z</time>
      </trkpt>
      <trkpt lat="48.56602" lon="-0.43381">
        <ele>198.64953613281</ele>
        <time>2013-07-17T13:31:18Z</time>
      </trkpt>
      <trkpt lat="48.5663" lon="-0.43377">
        <ele>198.64953613281</ele>
        <time>2013-07-17T13:31:24Z</time>
      </trkpt>
      <trkpt lat="48.56644" lon="-0.43374">
        <ele>199.13012695312</ele>
        <time>2013-07-17T13:31:27Z</time>
      </trkpt>
      <trkpt lat="48.56674" lon="-0.43368">
        <ele>200.09167480469</ele>
        <time>2013-07-17T13:31:33Z</time>
      </trkpt>
      <trkpt lat="48.56712" lon="-0.43361">
        <ele>201.53356933594</ele>
        <time>2013-07-17T13:31:41Z</time>
      </trkpt>
      <trkpt lat="48.56744" lon="-0.43354">
        <ele>202.97546386719</ele>
        <time>2013-07-17T13:31:48Z</time>
      </trkpt>
      <trkpt lat="48.56783" lon="-0.43346">
        <ele>204.41748046875</ele>
        <time>2013-07-17T13:31:56Z</time>
      </trkpt>
      <trkpt lat="48.56816" lon="-0.43339">
        <ele>205.37878417969</ele>
        <time>2013-07-17T13:32:03Z</time>
      </trkpt>
      <trkpt lat="48.56831" lon="-0.43336">
        <ele>205.37878417969</ele>
        <time>2013-07-17T13:32:06Z</time>
      </trkpt>
      <trkpt lat="48.56861" lon="-0.43331">
        <ele>206.82067871094</ele>
        <time>2013-07-17T13:32:13Z</time>
      </trkpt>
      <trkpt lat="48.5687" lon="-0.43329">
        <ele>206.82067871094</ele>
        <time>2013-07-17T13:32:15Z</time>
      </trkpt>
      <trkpt lat="48.56887" lon="-0.43326">
        <ele>207.30139160156</ele>
        <time>2013-07-17T13:32:19Z</time>
      </trkpt>
      <trkpt lat="48.56917" lon="-0.43321">
        <ele>208.26281738281</ele>
        <time>2013-07-17T13:32:27Z</time>
      </trkpt>
      <trkpt lat="48.56957" lon="-0.43309">
        <ele>209.70483398438</ele>
        <time>2013-07-17T13:32:37Z</time>
      </trkpt>
      <trkpt lat="48.56986" lon="-0.43294">
        <ele>209.70483398438</ele>
        <time>2013-07-17T13:32:44Z</time>
      </trkpt>
      <trkpt lat="48.5702" lon="-0.43271">
        <ele>210.666015625</ele>
        <time>2013-07-17T13:32:53Z</time>
      </trkpt>
      <trkpt lat="48.57043" lon="-0.43253">
        <ele>211.14672851562</ele>
        <time>2013-07-17T13:33:00Z</time>
      </trkpt>
      <trkpt lat="48.57062" lon="-0.43234">
        <ele>211.14672851562</ele>
        <time>2013-07-17T13:33:07Z</time>
      </trkpt>
      <trkpt lat="48.57084" lon="-0.43206">
        <ele>210.666015625</ele>
        <time>2013-07-17T13:33:14Z</time>
      </trkpt>
      <trkpt lat="48.57115" lon="-0.43158">
        <ele>209.70483398438</ele>
        <time>2013-07-17T13:33:23Z</time>
      </trkpt>
      <trkpt lat="48.57129" lon="-0.43136">
        <ele>209.70483398438</ele>
        <time>2013-07-17T13:33:27Z</time>
      </trkpt>
      <trkpt lat="48.57154" lon="-0.43099">
        <ele>209.70483398438</ele>
        <time>2013-07-17T13:33:34Z</time>
      </trkpt>
      <trkpt lat="48.57177" lon="-0.4306">
        <ele>209.70483398438</ele>
        <time>2013-07-17T13:33:41Z</time>
      </trkpt>
      <trkpt lat="48.57209" lon="-0.43006">
        <ele>211.14672851562</ele>
        <time>2013-07-17T13:33:51Z</time>
      </trkpt>
      <trkpt lat="48.5722" lon="-0.42987">
        <ele>212.58862304688</ele>
        <time>2013-07-17T13:33:55Z</time>
      </trkpt>
      <trkpt lat="48.57241" lon="-0.42959">
        <ele>212.58862304688</ele>
        <time>2013-07-17T13:34:02Z</time>
      </trkpt>
      <trkpt lat="48.57267" lon="-0.42922">
        <ele>214.99194335938</ele>
        <time>2013-07-17T13:34:11Z</time>
      </trkpt>
      <trkpt lat="48.57277" lon="-0.42909">
        <ele>215.47265625</ele>
        <time>2013-07-17T13:34:16Z</time>
      </trkpt>
      <trkpt lat="48.5729" lon="-0.42893">
        <ele>215.47265625</ele>
        <time>2013-07-17T13:34:22Z</time>
      </trkpt>
      <trkpt lat="48.573" lon="-0.42895">
        <ele>215.47265625</ele>
        <time>2013-07-17T13:34:26Z</time>
      </trkpt>
      <trkpt lat="48.57303" lon="-0.42898">
        <ele>215.47265625</ele>
        <time>2013-07-17T13:34:27Z</time>
      </trkpt>
      <trkpt lat="48.5733" lon="-0.42937">
        <ele>215.95324707031</ele>
        <time>2013-07-17T13:34:37Z</time>
      </trkpt>
      <trkpt lat="48.57354" lon="-0.42972">
        <ele>215.95324707031</ele>
        <time>2013-07-17T13:34:45Z</time>
      </trkpt>
      <trkpt lat="48.5739" lon="-0.43025">
        <ele>216.91467285156</ele>
        <time>2013-07-17T13:34:56Z</time>
      </trkpt>
      <trkpt lat="48.57421" lon="-0.43072">
        <ele>216.43395996094</ele>
        <time>2013-07-17T13:35:05Z</time>
      </trkpt>
      <trkpt lat="48.57454" lon="-0.43122">
        <ele>216.91467285156</ele>
        <time>2013-07-17T13:35:14Z</time>
      </trkpt>
      <trkpt lat="48.57483" lon="-0.4317">
        <ele>217.39538574219</ele>
        <time>2013-07-17T13:35:23Z</time>
      </trkpt>
      <trkpt lat="48.57499" lon="-0.43194">
        <ele>217.39538574219</ele>
        <time>2013-07-17T13:35:28Z</time>
      </trkpt>
      <trkpt lat="48.57516" lon="-0.43217">
        <ele>217.39538574219</ele>
        <time>2013-07-17T13:35:34Z</time>
      </trkpt>
      <trkpt lat="48.57526" lon="-0.43236">
        <ele>217.8759765625</ele>
        <time>2013-07-17T13:35:39Z</time>
      </trkpt>
      <trkpt lat="48.57539" lon="-0.43254">
        <ele>218.35656738281</ele>
        <time>2013-07-17T13:35:43Z</time>
      </trkpt>
      <trkpt lat="48.57556" lon="-0.43273">
        <ele>218.35656738281</ele>
        <time>2013-07-17T13:35:47Z</time>
      </trkpt>
      <trkpt lat="48.57573" lon="-0.433">
        <ele>217.8759765625</ele>
        <time>2013-07-17T13:35:52Z</time>
      </trkpt>
      <trkpt lat="48.57576" lon="-0.43306">
        <ele>217.8759765625</ele>
        <time>2013-07-17T13:35:53Z</time>
      </trkpt>
      <trkpt lat="48.57592" lon="-0.43328">
        <ele>217.8759765625</ele>
        <time>2013-07-17T13:35:57Z</time>
      </trkpt>
      <trkpt lat="48.57604" lon="-0.43346">
        <ele>217.8759765625</ele>
        <time>2013-07-17T13:36:00Z</time>
      </trkpt>
      <trkpt lat="48.57611" lon="-0.43359">
        <ele>217.39538574219</ele>
        <time>2013-07-17T13:36:02Z</time>
      </trkpt>
      <trkpt lat="48.5762" lon="-0.43371">
        <ele>217.8759765625</ele>
        <time>2013-07-17T13:36:04Z</time>
      </trkpt>
      <trkpt lat="48.57644" lon="-0.43412">
        <ele>217.39538574219</ele>
        <time>2013-07-17T13:36:11Z</time>
      </trkpt>
      <trkpt lat="48.57666" lon="-0.43447">
        <ele>217.8759765625</ele>
        <time>2013-07-17T13:36:18Z</time>
      </trkpt>
      <trkpt lat="48.57674" lon="-0.43459">
        <ele>217.39538574219</ele>
        <time>2013-07-17T13:36:20Z</time>
      </trkpt>
      <trkpt lat="48.57696" lon="-0.43494">
        <ele>217.8759765625</ele>
        <time>2013-07-17T13:36:26Z</time>
      </trkpt>
      <trkpt lat="48.57731" lon="-0.4355">
        <ele>217.8759765625</ele>
        <time>2013-07-17T13:36:35Z</time>
      </trkpt>
      <trkpt lat="48.57762" lon="-0.43602">
        <ele>217.8759765625</ele>
        <time>2013-07-17T13:36:43Z</time>
      </trkpt>
      <trkpt lat="48.57785" lon="-0.43635">
        <ele>217.8759765625</ele>
        <time>2013-07-17T13:36:49Z</time>
      </trkpt>
      <trkpt lat="48.57796" lon="-0.43651">
        <ele>217.8759765625</ele>
        <time>2013-07-17T13:36:52Z</time>
      </trkpt>
      <trkpt lat="48.57804" lon="-0.43662">
        <ele>217.8759765625</ele>
        <time>2013-07-17T13:36:54Z</time>
      </trkpt>
      <trkpt lat="48.57835" lon="-0.43713">
        <ele>217.39538574219</ele>
        <time>2013-07-17T13:37:02Z</time>
      </trkpt>
      <trkpt lat="48.57861" lon="-0.43753">
        <ele>216.91467285156</ele>
        <time>2013-07-17T13:37:08Z</time>
      </trkpt>
      <trkpt lat="48.57865" lon="-0.4376">
        <ele>217.39538574219</ele>
        <time>2013-07-17T13:37:09Z</time>
      </trkpt>
      <trkpt lat="48.57884" lon="-0.43791">
        <ele>216.91467285156</ele>
        <time>2013-07-17T13:37:14Z</time>
      </trkpt>
      <trkpt lat="48.579" lon="-0.43815">
        <ele>216.91467285156</ele>
        <time>2013-07-17T13:37:19Z</time>
      </trkpt>
      <trkpt lat="48.57915" lon="-0.43836">
        <ele>217.39538574219</ele>
        <time>2013-07-17T13:37:25Z</time>
      </trkpt>
      <trkpt lat="48.57927" lon="-0.43858">
        <ele>217.39538574219</ele>
        <time>2013-07-17T13:37:30Z</time>
      </trkpt>
      <trkpt lat="48.57942" lon="-0.43878">
        <ele>217.39538574219</ele>
        <time>2013-07-17T13:37:35Z</time>
      </trkpt>
      <trkpt lat="48.57954" lon="-0.43894">
        <ele>217.8759765625</ele>
        <time>2013-07-17T13:37:39Z</time>
      </trkpt>
      <trkpt lat="48.57971" lon="-0.43922">
        <ele>218.83728027344</ele>
        <time>2013-07-17T13:37:45Z</time>
      </trkpt>
      <trkpt lat="48.57989" lon="-0.43951">
        <ele>218.83728027344</ele>
        <time>2013-07-17T13:37:51Z</time>
      </trkpt>
      <trkpt lat="48.57993" lon="-0.43956">
        <ele>219.79858398438</ele>
        <time>2013-07-17T13:37:52Z</time>
      </trkpt>
      <trkpt lat="48.58009" lon="-0.43982">
        <ele>220.27917480469</ele>
        <time>2013-07-17T13:37:57Z</time>
      </trkpt>
      <trkpt lat="48.58028" lon="-0.44013">
        <ele>220.75988769531</ele>
        <time>2013-07-17T13:38:03Z</time>
      </trkpt>
      <trkpt lat="48.58036" lon="-0.44023">
        <ele>221.24060058594</ele>
        <time>2013-07-17T13:38:05Z</time>
      </trkpt>
      <trkpt lat="48.5805" lon="-0.44044">
        <ele>221.72119140625</ele>
        <time>2013-07-17T13:38:09Z</time>
      </trkpt>
      <trkpt lat="48.58075" lon="-0.44084">
        <ele>222.68249511719</ele>
        <time>2013-07-17T13:38:16Z</time>
      </trkpt>
      <trkpt lat="48.58102" lon="-0.44123">
        <ele>223.16320800781</ele>
        <time>2013-07-17T13:38:23Z</time>
      </trkpt>
      <trkpt lat="48.58119" lon="-0.44147">
        <ele>223.64379882812</ele>
        <time>2013-07-17T13:38:29Z</time>
      </trkpt>
      <trkpt lat="48.5813" lon="-0.44165">
        <ele>224.12451171875</ele>
        <time>2013-07-17T13:38:35Z</time>
      </trkpt>
      <trkpt lat="48.58145" lon="-0.44187">
        <ele>224.60522460938</ele>
        <time>2013-07-17T13:38:41Z</time>
      </trkpt>
      <trkpt lat="48.5816" lon="-0.44206">
        <ele>225.56652832031</ele>
        <time>2013-07-17T13:38:47Z</time>
      </trkpt>
      <trkpt lat="48.58163" lon="-0.44211">
        <ele>225.56652832031</ele>
        <time>2013-07-17T13:38:49Z</time>
      </trkpt>
      <trkpt lat="48.58163" lon="-0.44221">
        <ele>225.56652832031</ele>
        <time>2013-07-17T13:38:55Z</time>
      </trkpt>
      <trkpt lat="48.58163" lon="-0.44222">
        <ele>225.56652832031</ele>
        <time>2013-07-17T13:38:56Z</time>
      </trkpt>
      <trkpt lat="48.58151" lon="-0.44204">
        <ele>227.48913574219</ele>
        <time>2013-07-17T13:40:55Z</time>
      </trkpt>
      <trkpt lat="48.58143" lon="-0.44214">
        <ele>228.45043945312</ele>
        <time>2013-07-17T13:41:01Z</time>
      </trkpt>
      <trkpt lat="48.58142" lon="-0.44222">
        <ele>228.45043945312</ele>
        <time>2013-07-17T13:41:05Z</time>
      </trkpt>
      <trkpt lat="48.58139" lon="-0.44225">
        <ele>228.45043945312</ele>
        <time>2013-07-17T13:41:13Z</time>
      </trkpt>
      <trkpt lat="48.58138" lon="-0.44227">
        <ele>228.93115234375</ele>
        <time>2013-07-17T13:41:15Z</time>
      </trkpt>
      <trkpt lat="48.58125" lon="-0.4424">
        <ele>228.93115234375</ele>
        <time>2013-07-17T13:41:21Z</time>
      </trkpt>
      <trkpt lat="48.58118" lon="-0.44248">
        <ele>229.89233398438</ele>
        <time>2013-07-17T13:41:25Z</time>
      </trkpt>
      <trkpt lat="48.58113" lon="-0.44255">
        <ele>229.89233398438</ele>
        <time>2013-07-17T13:41:28Z</time>
      </trkpt>
      <trkpt lat="48.58103" lon="-0.44267">
        <ele>230.85375976562</ele>
        <time>2013-07-17T13:41:34Z</time>
      </trkpt>
      <trkpt lat="48.58094" lon="-0.44284">
        <ele>230.85375976562</ele>
        <time>2013-07-17T13:41:40Z</time>
      </trkpt>
      <trkpt lat="48.58086" lon="-0.44299">
        <ele>230.373046875</ele>
        <time>2013-07-17T13:41:45Z</time>
      </trkpt>
      <trkpt lat="48.58074" lon="-0.44311">
        <ele>230.373046875</ele>
        <time>2013-07-17T13:41:49Z</time>
      </trkpt>
      <trkpt lat="48.58066" lon="-0.44324">
        <ele>229.41174316406</ele>
        <time>2013-07-17T13:41:53Z</time>
      </trkpt>
      <trkpt lat="48.58056" lon="-0.44339">
        <ele>228.45043945312</ele>
        <time>2013-07-17T13:41:58Z</time>
      </trkpt>
      <trkpt lat="48.58055" lon="-0.44342">
        <ele>228.45043945312</ele>
        <time>2013-07-17T13:41:59Z</time>
      </trkpt>
      <trkpt lat="48.58046" lon="-0.44352">
        <ele>227.00854492188</ele>
        <time>2013-07-17T13:42:03Z</time>
      </trkpt>
      <trkpt lat="48.58034" lon="-0.44375">
        <ele>225.56652832031</ele>
        <time>2013-07-17T13:42:08Z</time>
      </trkpt>
      <trkpt lat="48.58031" lon="-0.4438">
        <ele>225.0859375</ele>
        <time>2013-07-17T13:42:09Z</time>
      </trkpt>
      <trkpt lat="48.58017" lon="-0.44396">
        <ele>223.64379882812</ele>
        <time>2013-07-17T13:42:13Z</time>
      </trkpt>
      <trkpt lat="48.57993" lon="-0.44426">
        <ele>220.27917480469</ele>
        <time>2013-07-17T13:42:18Z</time>
      </trkpt>
      <trkpt lat="48.5797" lon="-0.44447">
        <ele>218.83728027344</ele>
        <time>2013-07-17T13:42:23Z</time>
      </trkpt>
      <trkpt lat="48.57961" lon="-0.44463">
        <ele>219.31799316406</ele>
        <time>2013-07-17T13:42:27Z</time>
      </trkpt>
      <trkpt lat="48.57954" lon="-0.44475">
        <ele>219.31799316406</ele>
        <time>2013-07-17T13:42:32Z</time>
      </trkpt>
      <trkpt lat="48.5794" lon="-0.44472">
        <ele>219.31799316406</ele>
        <time>2013-07-17T13:42:38Z</time>
      </trkpt>
      <trkpt lat="48.57928" lon="-0.44462">
        <ele>218.35656738281</ele>
        <time>2013-07-17T13:42:43Z</time>
      </trkpt>
      <trkpt lat="48.57923" lon="-0.44466">
        <ele>217.39538574219</ele>
        <time>2013-07-17T13:42:46Z</time>
      </trkpt>
      <trkpt lat="48.57919" lon="-0.4447">
        <ele>216.43395996094</ele>
        <time>2013-07-17T13:42:48Z</time>
      </trkpt>
      <trkpt lat="48.57909" lon="-0.44486">
        <ele>216.43395996094</ele>
        <time>2013-07-17T13:42:54Z</time>
      </trkpt>
      <trkpt lat="48.57904" lon="-0.44493">
        <ele>216.43395996094</ele>
        <time>2013-07-17T13:43:00Z</time>
      </trkpt>
      <trkpt lat="48.57901" lon="-0.44498">
        <ele>216.91467285156</ele>
        <time>2013-07-17T13:43:02Z</time>
      </trkpt>
      <trkpt lat="48.57883" lon="-0.44512">
        <ele>216.91467285156</ele>
        <time>2013-07-17T13:43:15Z</time>
      </trkpt>
      <trkpt lat="48.57875" lon="-0.44521">
        <ele>217.39538574219</ele>
        <time>2013-07-17T13:43:18Z</time>
      </trkpt>
      <trkpt lat="48.57862" lon="-0.44532">
        <ele>217.8759765625</ele>
        <time>2013-07-17T13:43:24Z</time>
      </trkpt>
      <trkpt lat="48.57856" lon="-0.44538">
        <ele>218.35656738281</ele>
        <time>2013-07-17T13:43:27Z</time>
      </trkpt>
      <trkpt lat="48.57843" lon="-0.44553">
        <ele>219.31799316406</ele>
        <time>2013-07-17T13:43:34Z</time>
      </trkpt>
      <trkpt lat="48.57834" lon="-0.44559">
        <ele>219.79858398438</ele>
        <time>2013-07-17T13:43:38Z</time>
      </trkpt>
      <trkpt lat="48.57822" lon="-0.44569">
        <ele>220.75988769531</ele>
        <time>2013-07-17T13:43:44Z</time>
      </trkpt>
      <trkpt lat="48.57809" lon="-0.44582">
        <ele>222.20178222656</ele>
        <time>2013-07-17T13:43:51Z</time>
      </trkpt>
      <trkpt lat="48.57799" lon="-0.4459">
        <ele>223.64379882812</ele>
        <time>2013-07-17T13:43:57Z</time>
      </trkpt>
      <trkpt lat="48.57785" lon="-0.44601">
        <ele>225.0859375</ele>
        <time>2013-07-17T13:44:04Z</time>
      </trkpt>
      <trkpt lat="48.5776" lon="-0.44611">
        <ele>226.04711914062</ele>
        <time>2013-07-17T13:44:10Z</time>
      </trkpt>
      <trkpt lat="48.57743" lon="-0.44623">
        <ele>227.48913574219</ele>
        <time>2013-07-17T13:44:18Z</time>
      </trkpt>
      <trkpt lat="48.57733" lon="-0.44634">
        <ele>228.45043945312</ele>
        <time>2013-07-17T13:44:24Z</time>
      </trkpt>
      <trkpt lat="48.57728" lon="-0.44646">
        <ele>228.45043945312</ele>
        <time>2013-07-17T13:44:28Z</time>
      </trkpt>
      <trkpt lat="48.57722" lon="-0.44667">
        <ele>228.93115234375</ele>
        <time>2013-07-17T13:44:35Z</time>
      </trkpt>
      <trkpt lat="48.57714" lon="-0.44685">
        <ele>228.93115234375</ele>
        <time>2013-07-17T13:44:40Z</time>
      </trkpt>
      <trkpt lat="48.57712" lon="-0.44704">
        <ele>228.45043945312</ele>
        <time>2013-07-17T13:44:44Z</time>
      </trkpt>
      <trkpt lat="48.57712" lon="-0.44723">
        <ele>227.48913574219</ele>
        <time>2013-07-17T13:44:48Z</time>
      </trkpt>
      <trkpt lat="48.5772" lon="-0.44752">
        <ele>227.48913574219</ele>
        <time>2013-07-17T13:44:54Z</time>
      </trkpt>
      <trkpt lat="48.57727" lon="-0.44784">
        <ele>226.52783203125</ele>
        <time>2013-07-17T13:45:00Z</time>
      </trkpt>
      <trkpt lat="48.57733" lon="-0.44797">
        <ele>225.56652832031</ele>
        <time>2013-07-17T13:45:02Z</time>
      </trkpt>
      <trkpt lat="48.57743" lon="-0.44835">
        <ele>225.0859375</ele>
        <time>2013-07-17T13:45:07Z</time>
      </trkpt>
      <trkpt lat="48.57761" lon="-0.44888">
        <ele>224.60522460938</ele>
        <time>2013-07-17T13:45:14Z</time>
      </trkpt>
      <trkpt lat="48.57765" lon="-0.44895">
        <ele>224.12451171875</ele>
        <time>2013-07-17T13:45:15Z</time>
      </trkpt>
      <trkpt lat="48.57776" lon="-0.44928">
        <ele>223.64379882812</ele>
        <time>2013-07-17T13:45:19Z</time>
      </trkpt>
      <trkpt lat="48.57787" lon="-0.44968">
        <ele>222.20178222656</ele>
        <time>2013-07-17T13:45:24Z</time>
      </trkpt>
      <trkpt lat="48.57804" lon="-0.44999">
        <ele>222.20178222656</ele>
        <time>2013-07-17T13:45:28Z</time>
      </trkpt>
      <trkpt lat="48.57827" lon="-0.45053">
        <ele>221.72119140625</ele>
        <time>2013-07-17T13:45:35Z</time>
      </trkpt>
      <trkpt lat="48.57846" lon="-0.45099">
        <ele>221.72119140625</ele>
        <time>2013-07-17T13:45:41Z</time>
      </trkpt>
      <trkpt lat="48.57859" lon="-0.45131">
        <ele>220.75988769531</ele>
        <time>2013-07-17T13:45:45Z</time>
      </trkpt>
      <trkpt lat="48.57878" lon="-0.45181">
        <ele>220.27917480469</ele>
        <time>2013-07-17T13:45:51Z</time>
      </trkpt>
      <trkpt lat="48.57886" lon="-0.45204">
        <ele>220.27917480469</ele>
        <time>2013-07-17T13:45:54Z</time>
      </trkpt>
      <trkpt lat="48.57892" lon="-0.45217">
        <ele>220.27917480469</ele>
        <time>2013-07-17T13:45:56Z</time>
      </trkpt>
      <trkpt lat="48.57911" lon="-0.45267">
        <ele>220.27917480469</ele>
        <time>2013-07-17T13:46:03Z</time>
      </trkpt>
      <trkpt lat="48.57924" lon="-0.45311">
        <ele>220.75988769531</ele>
        <time>2013-07-17T13:46:09Z</time>
      </trkpt>
      <trkpt lat="48.57932" lon="-0.4534">
        <ele>221.24060058594</ele>
        <time>2013-07-17T13:46:14Z</time>
      </trkpt>
      <trkpt lat="48.57943" lon="-0.45363">
        <ele>222.20178222656</ele>
        <time>2013-07-17T13:46:20Z</time>
      </trkpt>
      <trkpt lat="48.57952" lon="-0.45389">
        <ele>223.64379882812</ele>
        <time>2013-07-17T13:46:26Z</time>
      </trkpt>
      <trkpt lat="48.57962" lon="-0.45415">
        <ele>224.12451171875</ele>
        <time>2013-07-17T13:46:32Z</time>
      </trkpt>
      <trkpt lat="48.57971" lon="-0.45439">
        <ele>224.60522460938</ele>
        <time>2013-07-17T13:46:37Z</time>
      </trkpt>
      <trkpt lat="48.57982" lon="-0.45467">
        <ele>225.56652832031</ele>
        <time>2013-07-17T13:46:43Z</time>
      </trkpt>
      <trkpt lat="48.57994" lon="-0.45495">
        <ele>226.04711914062</ele>
        <time>2013-07-17T13:46:49Z</time>
      </trkpt>
      <trkpt lat="48.58003" lon="-0.45518">
        <ele>227.00854492188</ele>
        <time>2013-07-17T13:46:54Z</time>
      </trkpt>
      <trkpt lat="48.58013" lon="-0.4554">
        <ele>227.48913574219</ele>
        <time>2013-07-17T13:46:59Z</time>
      </trkpt>
      <trkpt lat="48.58027" lon="-0.45574">
        <ele>227.9697265625</ele>
        <time>2013-07-17T13:47:06Z</time>
      </trkpt>
      <trkpt lat="48.58038" lon="-0.45603">
        <ele>228.93115234375</ele>
        <time>2013-07-17T13:47:12Z</time>
      </trkpt>
      <trkpt lat="48.58049" lon="-0.45633">
        <ele>228.93115234375</ele>
        <time>2013-07-17T13:47:18Z</time>
      </trkpt>
      <trkpt lat="48.58058" lon="-0.45662">
        <ele>229.41174316406</ele>
        <time>2013-07-17T13:47:24Z</time>
      </trkpt>
      <trkpt lat="48.58071" lon="-0.45693">
        <ele>228.93115234375</ele>
        <time>2013-07-17T13:47:31Z</time>
      </trkpt>
      <trkpt lat="48.58084" lon="-0.45716">
        <ele>228.45043945312</ele>
        <time>2013-07-17T13:47:37Z</time>
      </trkpt>
      <trkpt lat="48.58089" lon="-0.45727">
        <ele>228.45043945312</ele>
        <time>2013-07-17T13:47:40Z</time>
      </trkpt>
      <trkpt lat="48.58092" lon="-0.45738">
        <ele>227.9697265625</ele>
        <time>2013-07-17T13:47:45Z</time>
      </trkpt>
      <trkpt lat="48.58097" lon="-0.45757">
        <ele>227.48913574219</ele>
        <time>2013-07-17T13:47:52Z</time>
      </trkpt>
      <trkpt lat="48.58107" lon="-0.45775">
        <ele>227.48913574219</ele>
        <time>2013-07-17T13:47:56Z</time>
      </trkpt>
      <trkpt lat="48.58109" lon="-0.4578">
        <ele>227.48913574219</ele>
        <time>2013-07-17T13:47:57Z</time>
      </trkpt>
      <trkpt lat="48.58114" lon="-0.45796">
        <ele>227.48913574219</ele>
        <time>2013-07-17T13:48:00Z</time>
      </trkpt>
      <trkpt lat="48.58126" lon="-0.45819">
        <ele>227.48913574219</ele>
        <time>2013-07-17T13:48:04Z</time>
      </trkpt>
      <trkpt lat="48.58138" lon="-0.45852">
        <ele>227.00854492188</ele>
        <time>2013-07-17T13:48:10Z</time>
      </trkpt>
      <trkpt lat="48.5815" lon="-0.45885">
        <ele>227.9697265625</ele>
        <time>2013-07-17T13:48:16Z</time>
      </trkpt>
      <trkpt lat="48.5816" lon="-0.45924">
        <ele>228.93115234375</ele>
        <time>2013-07-17T13:48:23Z</time>
      </trkpt>
      <trkpt lat="48.58172" lon="-0.45961">
        <ele>229.89233398438</ele>
        <time>2013-07-17T13:48:30Z</time>
      </trkpt>
      <trkpt lat="48.58182" lon="-0.45986">
        <ele>230.373046875</ele>
        <time>2013-07-17T13:48:35Z</time>
      </trkpt>
      <trkpt lat="48.58195" lon="-0.46019">
        <ele>231.33435058594</ele>
        <time>2013-07-17T13:48:42Z</time>
      </trkpt>
      <trkpt lat="48.58204" lon="-0.46043">
        <ele>231.81494140625</ele>
        <time>2013-07-17T13:48:47Z</time>
      </trkpt>
      <trkpt lat="48.58212" lon="-0.46066">
        <ele>232.77648925781</ele>
        <time>2013-07-17T13:48:52Z</time>
      </trkpt>
      <trkpt lat="48.58223" lon="-0.46093">
        <ele>233.25708007812</ele>
        <time>2013-07-17T13:48:58Z</time>
      </trkpt>
      <trkpt lat="48.58232" lon="-0.46116">
        <ele>233.73767089844</ele>
        <time>2013-07-17T13:49:03Z</time>
      </trkpt>
      <trkpt lat="48.58239" lon="-0.4614">
        <ele>234.21838378906</ele>
        <time>2013-07-17T13:49:08Z</time>
      </trkpt>
      <trkpt lat="48.58244" lon="-0.46153">
        <ele>234.69909667969</ele>
        <time>2013-07-17T13:49:12Z</time>
      </trkpt>
      <trkpt lat="48.5825" lon="-0.46172">
        <ele>235.1796875</ele>
        <time>2013-07-17T13:49:20Z</time>
      </trkpt>
      <trkpt lat="48.5826" lon="-0.46192">
        <ele>236.14099121094</ele>
        <time>2013-07-17T13:49:27Z</time>
      </trkpt>
      <trkpt lat="48.58269" lon="-0.46209">
        <ele>236.14099121094</ele>
        <time>2013-07-17T13:49:33Z</time>
      </trkpt>
      <trkpt lat="48.58281" lon="-0.46235">
        <ele>237.10229492188</ele>
        <time>2013-07-17T13:49:41Z</time>
      </trkpt>
      <trkpt lat="48.58286" lon="-0.46254">
        <ele>237.58288574219</ele>
        <time>2013-07-17T13:49:48Z</time>
      </trkpt>
      <trkpt lat="48.58295" lon="-0.46272">
        <ele>237.58288574219</ele>
        <time>2013-07-17T13:49:54Z</time>
      </trkpt>
      <trkpt lat="48.58299" lon="-0.46287">
        <ele>237.58288574219</ele>
        <time>2013-07-17T13:49:59Z</time>
      </trkpt>
      <trkpt lat="48.583" lon="-0.4629">
        <ele>238.06359863281</ele>
        <time>2013-07-17T13:50:00Z</time>
      </trkpt>
      <trkpt lat="48.58306" lon="-0.46305">
        <ele>238.06359863281</ele>
        <time>2013-07-17T13:50:07Z</time>
      </trkpt>
      <trkpt lat="48.58313" lon="-0.46323">
        <ele>239.02490234375</ele>
        <time>2013-07-17T13:50:13Z</time>
      </trkpt>
      <trkpt lat="48.58322" lon="-0.46349">
        <ele>239.50549316406</ele>
        <time>2013-07-17T13:50:21Z</time>
      </trkpt>
      <trkpt lat="48.58329" lon="-0.46364">
        <ele>239.98620605469</ele>
        <time>2013-07-17T13:50:27Z</time>
      </trkpt>
      <trkpt lat="48.58333" lon="-0.46372">
        <ele>240.46704101562</ele>
        <time>2013-07-17T13:50:32Z</time>
      </trkpt>
      <trkpt lat="48.58338" lon="-0.46388">
        <ele>240.94763183594</ele>
        <time>2013-07-17T13:50:38Z</time>
      </trkpt>
      <trkpt lat="48.58347" lon="-0.46407">
        <ele>240.94763183594</ele>
        <time>2013-07-17T13:50:45Z</time>
      </trkpt>
      <trkpt lat="48.58355" lon="-0.46424">
        <ele>242.3896484375</ele>
        <time>2013-07-17T13:50:53Z</time>
      </trkpt>
      <trkpt lat="48.58363" lon="-0.46447">
        <ele>242.3896484375</ele>
        <time>2013-07-17T13:51:01Z</time>
      </trkpt>
      <trkpt lat="48.58369" lon="-0.46471">
        <ele>243.35083007812</ele>
        <time>2013-07-17T13:51:09Z</time>
      </trkpt>
      <trkpt lat="48.58374" lon="-0.46488">
        <ele>243.35083007812</ele>
        <time>2013-07-17T13:51:15Z</time>
      </trkpt>
      <trkpt lat="48.58381" lon="-0.46505">
        <ele>243.83154296875</ele>
        <time>2013-07-17T13:51:22Z</time>
      </trkpt>
      <trkpt lat="48.58385" lon="-0.46517">
        <ele>244.31225585938</ele>
        <time>2013-07-17T13:51:28Z</time>
      </trkpt>
      <trkpt lat="48.58389" lon="-0.46529">
        <ele>244.31225585938</ele>
        <time>2013-07-17T13:51:33Z</time>
      </trkpt>
      <trkpt lat="48.58395" lon="-0.46542">
        <ele>244.79284667969</ele>
        <time>2013-07-17T13:51:39Z</time>
      </trkpt>
      <trkpt lat="48.58401" lon="-0.46556">
        <ele>244.79284667969</ele>
        <time>2013-07-17T13:51:45Z</time>
      </trkpt>
      <trkpt lat="48.58406" lon="-0.46569">
        <ele>244.79284667969</ele>
        <time>2013-07-17T13:51:51Z</time>
      </trkpt>
      <trkpt lat="48.58406" lon="-0.46573">
        <ele>245.2734375</ele>
        <time>2013-07-17T13:51:53Z</time>
      </trkpt>
      <trkpt lat="48.58411" lon="-0.46585">
        <ele>245.2734375</ele>
        <time>2013-07-17T13:51:58Z</time>
      </trkpt>
      <trkpt lat="48.5842" lon="-0.46609">
        <ele>245.75415039062</ele>
        <time>2013-07-17T13:52:07Z</time>
      </trkpt>
      <trkpt lat="48.58429" lon="-0.46627">
        <ele>246.23486328125</ele>
        <time>2013-07-17T13:52:14Z</time>
      </trkpt>
      <trkpt lat="48.5844" lon="-0.46654">
        <ele>247.6767578125</ele>
        <time>2013-07-17T13:52:23Z</time>
      </trkpt>
      <trkpt lat="48.58447" lon="-0.46671">
        <ele>248.63818359375</ele>
        <time>2013-07-17T13:52:30Z</time>
      </trkpt>
      <trkpt lat="48.58455" lon="-0.46688">
        <ele>248.63818359375</ele>
        <time>2013-07-17T13:52:37Z</time>
      </trkpt>
      <trkpt lat="48.58459" lon="-0.46702">
        <ele>249.11877441406</ele>
        <time>2013-07-17T13:52:42Z</time>
      </trkpt>
      <trkpt lat="48.58465" lon="-0.46719">
        <ele>250.08020019531</ele>
        <time>2013-07-17T13:52:48Z</time>
      </trkpt>
      <trkpt lat="48.58467" lon="-0.46728">
        <ele>250.08020019531</ele>
        <time>2013-07-17T13:52:51Z</time>
      </trkpt>
      <trkpt lat="48.58471" lon="-0.46747">
        <ele>250.56079101562</ele>
        <time>2013-07-17T13:52:57Z</time>
      </trkpt>
      <trkpt lat="48.58472" lon="-0.46751">
        <ele>250.56079101562</ele>
        <time>2013-07-17T13:52:58Z</time>
      </trkpt>
      <trkpt lat="48.58478" lon="-0.46764">
        <ele>251.04138183594</ele>
        <time>2013-07-17T13:53:03Z</time>
      </trkpt>
      <trkpt lat="48.58483" lon="-0.46778">
        <ele>251.52209472656</ele>
        <time>2013-07-17T13:53:08Z</time>
      </trkpt>
      <trkpt lat="48.5849" lon="-0.46796">
        <ele>252.00280761719</ele>
        <time>2013-07-17T13:53:14Z</time>
      </trkpt>
      <trkpt lat="48.58493" lon="-0.46802">
        <ele>252.00280761719</ele>
        <time>2013-07-17T13:53:16Z</time>
      </trkpt>
      <trkpt lat="48.58501" lon="-0.46821">
        <ele>252.4833984375</ele>
        <time>2013-07-17T13:53:22Z</time>
      </trkpt>
      <trkpt lat="48.58503" lon="-0.46828">
        <ele>252.96398925781</ele>
        <time>2013-07-17T13:53:24Z</time>
      </trkpt>
      <trkpt lat="48.58511" lon="-0.46851">
        <ele>253.44470214844</ele>
        <time>2013-07-17T13:53:31Z</time>
      </trkpt>
      <trkpt lat="48.58524" lon="-0.46878">
        <ele>253.92541503906</ele>
        <time>2013-07-17T13:53:38Z</time>
      </trkpt>
      <trkpt lat="48.58533" lon="-0.469">
        <ele>254.40600585938</ele>
        <time>2013-07-17T13:53:45Z</time>
      </trkpt>
      <trkpt lat="48.58537" lon="-0.46907">
        <ele>254.88659667969</ele>
        <time>2013-07-17T13:53:50Z</time>
      </trkpt>
      <trkpt lat="48.58542" lon="-0.46922">
        <ele>254.88659667969</ele>
        <time>2013-07-17T13:53:55Z</time>
      </trkpt>
      <trkpt lat="48.58553" lon="-0.46945">
        <ele>255.84802246094</ele>
        <time>2013-07-17T13:54:02Z</time>
      </trkpt>
      <trkpt lat="48.58556" lon="-0.4696">
        <ele>255.84802246094</ele>
        <time>2013-07-17T13:54:08Z</time>
      </trkpt>
      <trkpt lat="48.58562" lon="-0.46976">
        <ele>256.32873535156</ele>
        <time>2013-07-17T13:54:13Z</time>
      </trkpt>
      <trkpt lat="48.58571" lon="-0.46999">
        <ele>257.2900390625</ele>
        <time>2013-07-17T13:54:19Z</time>
      </trkpt>
      <trkpt lat="48.5858" lon="-0.47026">
        <ele>258.25134277344</ele>
        <time>2013-07-17T13:54:25Z</time>
      </trkpt>
      <trkpt lat="48.58592" lon="-0.4705">
        <ele>258.25134277344</ele>
        <time>2013-07-17T13:54:30Z</time>
      </trkpt>
      <trkpt lat="48.58607" lon="-0.47085">
        <ele>258.25134277344</ele>
        <time>2013-07-17T13:54:37Z</time>
      </trkpt>
      <trkpt lat="48.58615" lon="-0.47106">
        <ele>258.73193359375</ele>
        <time>2013-07-17T13:54:42Z</time>
      </trkpt>
      <trkpt lat="48.58624" lon="-0.47127">
        <ele>258.73193359375</ele>
        <time>2013-07-17T13:54:48Z</time>
      </trkpt>
      <trkpt lat="48.5863" lon="-0.47142">
        <ele>258.73193359375</ele>
        <time>2013-07-17T13:54:52Z</time>
      </trkpt>
      <trkpt lat="48.58638" lon="-0.47166">
        <ele>259.21264648438</ele>
        <time>2013-07-17T13:54:57Z</time>
      </trkpt>
      <trkpt lat="48.58648" lon="-0.47192">
        <ele>259.21264648438</ele>
        <time>2013-07-17T13:55:02Z</time>
      </trkpt>
      <trkpt lat="48.58658" lon="-0.47217">
        <ele>259.21264648438</ele>
        <time>2013-07-17T13:55:08Z</time>
      </trkpt>
      <trkpt lat="48.58666" lon="-0.47242">
        <ele>258.73193359375</ele>
        <time>2013-07-17T13:55:13Z</time>
      </trkpt>
      <trkpt lat="48.58677" lon="-0.4727">
        <ele>258.73193359375</ele>
        <time>2013-07-17T13:55:19Z</time>
      </trkpt>
      <trkpt lat="48.58683" lon="-0.47287">
        <ele>258.73193359375</ele>
        <time>2013-07-17T13:55:25Z</time>
      </trkpt>
      <trkpt lat="48.58702" lon="-0.47288">
        <ele>259.21264648438</ele>
        <time>2013-07-17T13:56:10Z</time>
      </trkpt>
      <trkpt lat="48.587" lon="-0.47287">
        <ele>259.693359375</ele>
        <time>2013-07-17T13:56:11Z</time>
      </trkpt>
      <trkpt lat="48.58699" lon="-0.47286">
        <ele>259.21264648438</ele>
        <time>2013-07-17T13:56:12Z</time>
      </trkpt>
      <trkpt lat="48.58692" lon="-0.47267">
        <ele>259.693359375</ele>
        <time>2013-07-17T13:56:17Z</time>
      </trkpt>
      <trkpt lat="48.58689" lon="-0.47237">
        <ele>260.65454101562</ele>
        <time>2013-07-17T13:56:23Z</time>
      </trkpt>
      <trkpt lat="48.58685" lon="-0.47191">
        <ele>261.13525390625</ele>
        <time>2013-07-17T13:56:31Z</time>
      </trkpt>
      <trkpt lat="48.58684" lon="-0.47179">
        <ele>261.13525390625</ele>
        <time>2013-07-17T13:56:33Z</time>
      </trkpt>
      <trkpt lat="48.5868" lon="-0.47147">
        <ele>261.61596679688</ele>
        <time>2013-07-17T13:56:38Z</time>
      </trkpt>
      <trkpt lat="48.58679" lon="-0.47116">
        <ele>261.61596679688</ele>
        <time>2013-07-17T13:56:43Z</time>
      </trkpt>
      <trkpt lat="48.58678" lon="-0.47096">
        <ele>262.09655761719</ele>
        <time>2013-07-17T13:56:46Z</time>
      </trkpt>
      <trkpt lat="48.58676" lon="-0.47056">
        <ele>262.09655761719</ele>
        <time>2013-07-17T13:56:52Z</time>
      </trkpt>
      <trkpt lat="48.58674" lon="-0.47018">
        <ele>262.09655761719</ele>
        <time>2013-07-17T13:56:57Z</time>
      </trkpt>
      <trkpt lat="48.58675" lon="-0.47003">
        <ele>262.5771484375</ele>
        <time>2013-07-17T13:56:59Z</time>
      </trkpt>
      <trkpt lat="48.58672" lon="-0.46953">
        <ele>262.09655761719</ele>
        <time>2013-07-17T13:57:06Z</time>
      </trkpt>
      <trkpt lat="48.5867" lon="-0.46926">
        <ele>262.09655761719</ele>
        <time>2013-07-17T13:57:10Z</time>
      </trkpt>
      <trkpt lat="48.5867" lon="-0.46877">
        <ele>261.13525390625</ele>
        <time>2013-07-17T13:57:17Z</time>
      </trkpt>
      <trkpt lat="48.58665" lon="-0.4681">
        <ele>261.13525390625</ele>
        <time>2013-07-17T13:57:25Z</time>
      </trkpt>
      <trkpt lat="48.58661" lon="-0.46753">
        <ele>260.65454101562</ele>
        <time>2013-07-17T13:57:31Z</time>
      </trkpt>
      <trkpt lat="48.58658" lon="-0.46701">
        <ele>259.693359375</ele>
        <time>2013-07-17T13:57:36Z</time>
      </trkpt>
      <trkpt lat="48.58654" lon="-0.46635">
        <ele>259.693359375</ele>
        <time>2013-07-17T13:57:42Z</time>
      </trkpt>
      <trkpt lat="48.58652" lon="-0.46603">
        <ele>259.21264648438</ele>
        <time>2013-07-17T13:57:45Z</time>
      </trkpt>
      <trkpt lat="48.5865" lon="-0.46563">
        <ele>259.21264648438</ele>
        <time>2013-07-17T13:57:49Z</time>
      </trkpt>
      <trkpt lat="48.58646" lon="-0.46509">
        <ele>258.25134277344</ele>
        <time>2013-07-17T13:57:55Z</time>
      </trkpt>
      <trkpt lat="48.58645" lon="-0.46493">
        <ele>258.73193359375</ele>
        <time>2013-07-17T13:57:57Z</time>
      </trkpt>
      <trkpt lat="48.58647" lon="-0.46455">
        <ele>258.73193359375</ele>
        <time>2013-07-17T13:58:02Z</time>
      </trkpt>
      <trkpt lat="48.58644" lon="-0.46426">
        <ele>258.25134277344</ele>
        <time>2013-07-17T13:58:06Z</time>
      </trkpt>
      <trkpt lat="48.58642" lon="-0.46407">
        <ele>258.25134277344</ele>
        <time>2013-07-17T13:58:09Z</time>
      </trkpt>
      <trkpt lat="48.58654" lon="-0.46397">
        <ele>257.77075195312</ele>
        <time>2013-07-17T13:58:13Z</time>
      </trkpt>
      <trkpt lat="48.58672" lon="-0.46405">
        <ele>257.77075195312</ele>
        <time>2013-07-17T13:58:17Z</time>
      </trkpt>
      <trkpt lat="48.58674" lon="-0.46409">
        <ele>257.77075195312</ele>
        <time>2013-07-17T13:58:20Z</time>
      </trkpt>
      <trkpt lat="48.5868" lon="-0.46423">
        <ele>257.77075195312</ele>
        <time>2013-07-17T13:58:33Z</time>
      </trkpt>
      <trkpt lat="48.58689" lon="-0.4644">
        <ele>257.77075195312</ele>
        <time>2013-07-17T13:58:39Z</time>
      </trkpt>
      <trkpt lat="48.58696" lon="-0.46445">
        <ele>257.77075195312</ele>
        <time>2013-07-17T13:58:48Z</time>
      </trkpt>
      <trkpt lat="48.58698" lon="-0.46449">
        <ele>257.77075195312</ele>
        <time>2013-07-17T13:58:49Z</time>
      </trkpt>
      <trkpt lat="48.58693" lon="-0.4644">
        <ele>257.77075195312</ele>
        <time>2013-07-17T13:59:52Z</time>
      </trkpt>
      <trkpt lat="48.58694" lon="-0.46445">
        <ele>257.2900390625</ele>
        <time>2013-07-17T13:59:57Z</time>
      </trkpt>
      <trkpt lat="48.58699" lon="-0.46453">
        <ele>257.2900390625</ele>
        <time>2013-07-17T14:00:01Z</time>
      </trkpt>
      <trkpt lat="48.58715" lon="-0.4646">
        <ele>255.84802246094</ele>
        <time>2013-07-17T14:00:06Z</time>
      </trkpt>
      <trkpt lat="48.58723" lon="-0.46461">
        <ele>255.84802246094</ele>
        <time>2013-07-17T14:00:08Z</time>
      </trkpt>
      <trkpt lat="48.58734" lon="-0.46462">
        <ele>255.36730957031</ele>
        <time>2013-07-17T14:00:10Z</time>
      </trkpt>
      <trkpt lat="48.58749" lon="-0.46465">
        <ele>255.36730957031</ele>
        <time>2013-07-17T14:00:13Z</time>
      </trkpt>
      <trkpt lat="48.58769" lon="-0.4647">
        <ele>255.84802246094</ele>
        <time>2013-07-17T14:00:17Z</time>
      </trkpt>
      <trkpt lat="48.58796" lon="-0.46478">
        <ele>256.80932617188</ele>
        <time>2013-07-17T14:00:22Z</time>
      </trkpt>
      <trkpt lat="48.58821" lon="-0.46473">
        <ele>257.2900390625</ele>
        <time>2013-07-17T14:00:28Z</time>
      </trkpt>
      <trkpt lat="48.58835" lon="-0.46468">
        <ele>258.25134277344</ele>
        <time>2013-07-17T14:00:32Z</time>
      </trkpt>
      <trkpt lat="48.58855" lon="-0.46463">
        <ele>259.693359375</ele>
        <time>2013-07-17T14:00:37Z</time>
      </trkpt>
      <trkpt lat="48.58878" lon="-0.46463">
        <ele>260.65454101562</ele>
        <time>2013-07-17T14:00:42Z</time>
      </trkpt>
      <trkpt lat="48.5889" lon="-0.46467">
        <ele>261.13525390625</ele>
        <time>2013-07-17T14:00:46Z</time>
      </trkpt>
      <trkpt lat="48.58902" lon="-0.46469">
        <ele>262.09655761719</ele>
        <time>2013-07-17T14:00:50Z</time>
      </trkpt>
      <trkpt lat="48.58919" lon="-0.46475">
        <ele>263.53857421875</ele>
        <time>2013-07-17T14:00:56Z</time>
      </trkpt>
      <trkpt lat="48.58935" lon="-0.46482">
        <ele>264.49987792969</ele>
        <time>2013-07-17T14:01:01Z</time>
      </trkpt>
      <trkpt lat="48.58957" lon="-0.46497">
        <ele>265.94189453125</ele>
        <time>2013-07-17T14:01:08Z</time>
      </trkpt>
      <trkpt lat="48.58981" lon="-0.46513">
        <ele>266.90319824219</ele>
        <time>2013-07-17T14:01:16Z</time>
      </trkpt>
      <trkpt lat="48.5899" lon="-0.4652">
        <ele>267.38391113281</ele>
        <time>2013-07-17T14:01:20Z</time>
      </trkpt>
      <trkpt lat="48.59001" lon="-0.46521">
        <ele>267.38391113281</ele>
        <time>2013-07-17T14:01:25Z</time>
      </trkpt>
      <trkpt lat="48.59" lon="-0.46507">
        <ele>267.38391113281</ele>
        <time>2013-07-17T14:01:29Z</time>
      </trkpt>
      <trkpt lat="48.58998" lon="-0.46481">
        <ele>266.90319824219</ele>
        <time>2013-07-17T14:01:34Z</time>
      </trkpt>
      <trkpt lat="48.58998" lon="-0.4647">
        <ele>266.42248535156</ele>
        <time>2013-07-17T14:01:36Z</time>
      </trkpt>
      <trkpt lat="48.58997" lon="-0.46439">
        <ele>265.94189453125</ele>
        <time>2013-07-17T14:01:42Z</time>
      </trkpt>
      <trkpt lat="48.58993" lon="-0.46405">
        <ele>265.94189453125</ele>
        <time>2013-07-17T14:01:48Z</time>
      </trkpt>
      <trkpt lat="48.58992" lon="-0.46361">
        <ele>264.98059082031</ele>
        <time>2013-07-17T14:01:55Z</time>
      </trkpt>
      <trkpt lat="48.5899" lon="-0.46324">
        <ele>264.49987792969</ele>
        <time>2013-07-17T14:02:01Z</time>
      </trkpt>
      <trkpt lat="48.58987" lon="-0.46286">
        <ele>264.01928710938</ele>
        <time>2013-07-17T14:02:07Z</time>
      </trkpt>
      <trkpt lat="48.58985" lon="-0.46265">
        <ele>263.53857421875</ele>
        <time>2013-07-17T14:02:10Z</time>
      </trkpt>
      <trkpt lat="48.58982" lon="-0.46221">
        <ele>262.5771484375</ele>
        <time>2013-07-17T14:02:16Z</time>
      </trkpt>
      <trkpt lat="48.58978" lon="-0.46184">
        <ele>262.09655761719</ele>
        <time>2013-07-17T14:02:21Z</time>
      </trkpt>
      <trkpt lat="48.58976" lon="-0.46162">
        <ele>261.13525390625</ele>
        <time>2013-07-17T14:02:24Z</time>
      </trkpt>
      <trkpt lat="48.58972" lon="-0.46135">
        <ele>259.21264648438</ele>
        <time>2013-07-17T14:02:29Z</time>
      </trkpt>
      <trkpt lat="48.5897" lon="-0.46119">
        <ele>258.25134277344</ele>
        <time>2013-07-17T14:02:32Z</time>
      </trkpt>
      <trkpt lat="48.5897" lon="-0.46105">
        <ele>256.80932617188</ele>
        <time>2013-07-17T14:02:34Z</time>
      </trkpt>
      <trkpt lat="48.58972" lon="-0.4606">
        <ele>256.80932617188</ele>
        <time>2013-07-17T14:02:41Z</time>
      </trkpt>
      <trkpt lat="48.58973" lon="-0.46033">
        <ele>256.32873535156</ele>
        <time>2013-07-17T14:02:48Z</time>
      </trkpt>
      <trkpt lat="48.58972" lon="-0.46006">
        <ele>256.32873535156</ele>
        <time>2013-07-17T14:02:54Z</time>
      </trkpt>
      <trkpt lat="48.58969" lon="-0.45987">
        <ele>256.80932617188</ele>
        <time>2013-07-17T14:02:59Z</time>
      </trkpt>
      <trkpt lat="48.58967" lon="-0.4596">
        <ele>256.80932617188</ele>
        <time>2013-07-17T14:03:06Z</time>
      </trkpt>
      <trkpt lat="48.58966" lon="-0.45934">
        <ele>258.25134277344</ele>
        <time>2013-07-17T14:03:14Z</time>
      </trkpt>
      <trkpt lat="48.58967" lon="-0.45905">
        <ele>259.693359375</ele>
        <time>2013-07-17T14:03:22Z</time>
      </trkpt>
      <trkpt lat="48.58965" lon="-0.45878">
        <ele>260.17395019531</ele>
        <time>2013-07-17T14:03:29Z</time>
      </trkpt>
      <trkpt lat="48.58964" lon="-0.45833">
        <ele>260.65454101562</ele>
        <time>2013-07-17T14:03:38Z</time>
      </trkpt>
      <trkpt lat="48.5896" lon="-0.45791">
        <ele>260.65454101562</ele>
        <time>2013-07-17T14:03:46Z</time>
      </trkpt>
      <trkpt lat="48.58957" lon="-0.45752">
        <ele>260.17395019531</ele>
        <time>2013-07-17T14:03:53Z</time>
      </trkpt>
      <trkpt lat="48.58956" lon="-0.45746">
        <ele>259.693359375</ele>
        <time>2013-07-17T14:03:54Z</time>
      </trkpt>
      <trkpt lat="48.58953" lon="-0.45703">
        <ele>257.77075195312</ele>
        <time>2013-07-17T14:04:00Z</time>
      </trkpt>
      <trkpt lat="48.58952" lon="-0.45682">
        <ele>256.80932617188</ele>
        <time>2013-07-17T14:04:03Z</time>
      </trkpt>
      <trkpt lat="48.58945" lon="-0.45635">
        <ele>254.88659667969</ele>
        <time>2013-07-17T14:04:09Z</time>
      </trkpt>
      <trkpt lat="48.58945" lon="-0.45606">
        <ele>253.44470214844</ele>
        <time>2013-07-17T14:04:14Z</time>
      </trkpt>
      <trkpt lat="48.58947" lon="-0.4559">
        <ele>252.96398925781</ele>
        <time>2013-07-17T14:04:19Z</time>
      </trkpt>
      <trkpt lat="48.58948" lon="-0.45575">
        <ele>252.00280761719</ele>
        <time>2013-07-17T14:04:25Z</time>
      </trkpt>
      <trkpt lat="48.5895" lon="-0.45556">
        <ele>252.00280761719</ele>
        <time>2013-07-17T14:04:31Z</time>
      </trkpt>
      <trkpt lat="48.5895" lon="-0.45544">
        <ele>251.52209472656</ele>
        <time>2013-07-17T14:04:34Z</time>
      </trkpt>
      <trkpt lat="48.58949" lon="-0.45517">
        <ele>250.08020019531</ele>
        <time>2013-07-17T14:04:38Z</time>
      </trkpt>
      <trkpt lat="48.58945" lon="-0.45485">
        <ele>249.11877441406</ele>
        <time>2013-07-17T14:04:42Z</time>
      </trkpt>
      <trkpt lat="48.58944" lon="-0.45459">
        <ele>248.15759277344</ele>
        <time>2013-07-17T14:04:45Z</time>
      </trkpt>
      <trkpt lat="48.58939" lon="-0.45418">
        <ele>247.6767578125</ele>
        <time>2013-07-17T14:04:50Z</time>
      </trkpt>
      <trkpt lat="48.58935" lon="-0.45384">
        <ele>246.71545410156</ele>
        <time>2013-07-17T14:04:54Z</time>
      </trkpt>
      <trkpt lat="48.58932" lon="-0.45352">
        <ele>245.2734375</ele>
        <time>2013-07-17T14:04:58Z</time>
      </trkpt>
      <trkpt lat="48.5893" lon="-0.45332">
        <ele>245.2734375</ele>
        <time>2013-07-17T14:05:01Z</time>
      </trkpt>
      <trkpt lat="48.58929" lon="-0.45281">
        <ele>243.35083007812</ele>
        <time>2013-07-17T14:05:08Z</time>
      </trkpt>
      <trkpt lat="48.58929" lon="-0.45266">
        <ele>242.87023925781</ele>
        <time>2013-07-17T14:05:10Z</time>
      </trkpt>
      <trkpt lat="48.58931" lon="-0.45244">
        <ele>241.90893554688</ele>
        <time>2013-07-17T14:05:13Z</time>
      </trkpt>
      <trkpt lat="48.5893" lon="-0.45222">
        <ele>241.42822265625</ele>
        <time>2013-07-17T14:05:16Z</time>
      </trkpt>
      <trkpt lat="48.58925" lon="-0.45183">
        <ele>239.98620605469</ele>
        <time>2013-07-17T14:05:22Z</time>
      </trkpt>
      <trkpt lat="48.58923" lon="-0.45173">
        <ele>239.50549316406</ele>
        <time>2013-07-17T14:05:27Z</time>
      </trkpt>
      <trkpt lat="48.58922" lon="-0.45173">
        <ele>239.50549316406</ele>
        <time>2013-07-17T14:05:28Z</time>
      </trkpt>
      <trkpt lat="48.58927" lon="-0.45183">
        <ele>239.98620605469</ele>
        <time>2013-07-17T14:05:43Z</time>
      </trkpt>
      <trkpt lat="48.58927" lon="-0.45183">
        <ele>239.50549316406</ele>
        <time>2013-07-17T14:05:44Z</time>
      </trkpt>
      <trkpt lat="48.58927" lon="-0.45181">
        <ele>239.50549316406</ele>
        <time>2013-07-17T14:05:45Z</time>
      </trkpt>
      <trkpt lat="48.58931" lon="-0.45176">
        <ele>239.98620605469</ele>
        <time>2013-07-17T14:05:49Z</time>
      </trkpt>
      <trkpt lat="48.58934" lon="-0.45176">
        <ele>239.98620605469</ele>
        <time>2013-07-17T14:05:53Z</time>
      </trkpt>
      <trkpt lat="48.58934" lon="-0.45176">
        <ele>240.46704101562</ele>
        <time>2013-07-17T14:05:54Z</time>
      </trkpt>
      <trkpt lat="48.58947" lon="-0.45185">
        <ele>240.94763183594</ele>
        <time>2013-07-17T14:06:00Z</time>
      </trkpt>
      <trkpt lat="48.5896" lon="-0.45193">
        <ele>241.90893554688</ele>
        <time>2013-07-17T14:06:06Z</time>
      </trkpt>
      <trkpt lat="48.58972" lon="-0.45203">
        <ele>242.87023925781</ele>
        <time>2013-07-17T14:06:12Z</time>
      </trkpt>
      <trkpt lat="48.58983" lon="-0.45209">
        <ele>243.83154296875</ele>
        <time>2013-07-17T14:06:16Z</time>
      </trkpt>
      <trkpt lat="48.58999" lon="-0.4522">
        <ele>244.79284667969</ele>
        <time>2013-07-17T14:06:22Z</time>
      </trkpt>
      <trkpt lat="48.59011" lon="-0.45229">
        <ele>245.75415039062</ele>
        <time>2013-07-17T14:06:28Z</time>
      </trkpt>
      <trkpt lat="48.59026" lon="-0.45236">
        <ele>247.6767578125</ele>
        <time>2013-07-17T14:06:34Z</time>
      </trkpt>
      <trkpt lat="48.5903" lon="-0.45234">
        <ele>248.63818359375</ele>
        <time>2013-07-17T14:06:38Z</time>
      </trkpt>
      <trkpt lat="48.59033" lon="-0.45233">
        <ele>249.11877441406</ele>
        <time>2013-07-17T14:06:40Z</time>
      </trkpt>
      <trkpt lat="48.5904" lon="-0.45225">
        <ele>250.08020019531</ele>
        <time>2013-07-17T14:06:47Z</time>
      </trkpt>
      <trkpt lat="48.59046" lon="-0.45214">
        <ele>252.00280761719</ele>
        <time>2013-07-17T14:06:54Z</time>
      </trkpt>
      <trkpt lat="48.59045" lon="-0.45211">
        <ele>251.52209472656</ele>
        <time>2013-07-17T14:06:57Z</time>
      </trkpt>
      <trkpt lat="48.59047" lon="-0.45205">
        <ele>252.4833984375</ele>
        <time>2013-07-17T14:07:41Z</time>
      </trkpt>
      <trkpt lat="48.59047" lon="-0.45204">
        <ele>252.00280761719</ele>
        <time>2013-07-17T14:07:42Z</time>
      </trkpt>
      <trkpt lat="48.59053" lon="-0.4519">
        <ele>251.04138183594</ele>
        <time>2013-07-17T14:07:45Z</time>
      </trkpt>
      <trkpt lat="48.59055" lon="-0.45171">
        <ele>249.11877441406</ele>
        <time>2013-07-17T14:07:49Z</time>
      </trkpt>
      <trkpt lat="48.59055" lon="-0.45148">
        <ele>247.19604492188</ele>
        <time>2013-07-17T14:07:52Z</time>
      </trkpt>
      <trkpt lat="48.59056" lon="-0.45139">
        <ele>246.71545410156</ele>
        <time>2013-07-17T14:07:53Z</time>
      </trkpt>
      <trkpt lat="48.59067" lon="-0.45102">
        <ele>245.2734375</ele>
        <time>2013-07-17T14:07:57Z</time>
      </trkpt>
      <trkpt lat="48.59069" lon="-0.45082">
        <ele>243.83154296875</ele>
        <time>2013-07-17T14:08:00Z</time>
      </trkpt>
      <trkpt lat="48.59074" lon="-0.45062">
        <ele>243.35083007812</ele>
        <time>2013-07-17T14:08:03Z</time>
      </trkpt>
      <trkpt lat="48.59083" lon="-0.45031">
        <ele>241.90893554688</ele>
        <time>2013-07-17T14:08:08Z</time>
      </trkpt>
      <trkpt lat="48.59084" lon="-0.45024">
        <ele>241.90893554688</ele>
        <time>2013-07-17T14:08:09Z</time>
      </trkpt>
      <trkpt lat="48.59095" lon="-0.44999">
        <ele>240.94763183594</ele>
        <time>2013-07-17T14:08:13Z</time>
      </trkpt>
      <trkpt lat="48.59103" lon="-0.44987">
        <ele>239.50549316406</ele>
        <time>2013-07-17T14:08:15Z</time>
      </trkpt>
      <trkpt lat="48.5911" lon="-0.44964">
        <ele>238.54431152344</ele>
        <time>2013-07-17T14:08:18Z</time>
      </trkpt>
      <trkpt lat="48.59114" lon="-0.44932">
        <ele>237.10229492188</ele>
        <time>2013-07-17T14:08:22Z</time>
      </trkpt>
      <trkpt lat="48.59114" lon="-0.44909">
        <ele>235.66027832031</ele>
        <time>2013-07-17T14:08:25Z</time>
      </trkpt>
      <trkpt lat="48.59114" lon="-0.4489">
        <ele>234.21838378906</ele>
        <time>2013-07-17T14:08:29Z</time>
      </trkpt>
      <trkpt lat="48.59114" lon="-0.44887">
        <ele>234.21838378906</ele>
        <time>2013-07-17T14:08:30Z</time>
      </trkpt>
      <trkpt lat="48.59116" lon="-0.44869">
        <ele>232.29577636719</ele>
        <time>2013-07-17T14:08:36Z</time>
      </trkpt>
      <trkpt lat="48.59121" lon="-0.44854">
        <ele>231.81494140625</ele>
        <time>2013-07-17T14:08:39Z</time>
      </trkpt>
      <trkpt lat="48.59124" lon="-0.44836">
        <ele>230.85375976562</ele>
        <time>2013-07-17T14:08:42Z</time>
      </trkpt>
      <trkpt lat="48.59131" lon="-0.44801">
        <ele>229.89233398438</ele>
        <time>2013-07-17T14:08:47Z</time>
      </trkpt>
      <trkpt lat="48.59136" lon="-0.44779">
        <ele>228.45043945312</ele>
        <time>2013-07-17T14:08:50Z</time>
      </trkpt>
      <trkpt lat="48.59148" lon="-0.44727">
        <ele>227.48913574219</ele>
        <time>2013-07-17T14:08:58Z</time>
      </trkpt>
      <trkpt lat="48.59148" lon="-0.44714">
        <ele>227.48913574219</ele>
        <time>2013-07-17T14:09:00Z</time>
      </trkpt>
      <trkpt lat="48.59152" lon="-0.44679">
        <ele>227.00854492188</ele>
        <time>2013-07-17T14:09:06Z</time>
      </trkpt>
      <trkpt lat="48.59157" lon="-0.44664">
        <ele>227.00854492188</ele>
        <time>2013-07-17T14:09:11Z</time>
      </trkpt>
      <trkpt lat="48.59165" lon="-0.44652">
        <ele>227.48913574219</ele>
        <time>2013-07-17T14:09:15Z</time>
      </trkpt>
      <trkpt lat="48.59171" lon="-0.44636">
        <ele>227.9697265625</ele>
        <time>2013-07-17T14:09:20Z</time>
      </trkpt>
      <trkpt lat="48.59171" lon="-0.44627">
        <ele>228.45043945312</ele>
        <time>2013-07-17T14:09:23Z</time>
      </trkpt>
      <trkpt lat="48.59172" lon="-0.44613">
        <ele>228.93115234375</ele>
        <time>2013-07-17T14:09:28Z</time>
      </trkpt>
      <trkpt lat="48.5917" lon="-0.44601">
        <ele>228.93115234375</ele>
        <time>2013-07-17T14:09:32Z</time>
      </trkpt>
      <trkpt lat="48.59171" lon="-0.44584">
        <ele>230.373046875</ele>
        <time>2013-07-17T14:09:38Z</time>
      </trkpt>
      <trkpt lat="48.59174" lon="-0.44562">
        <ele>230.85375976562</ele>
        <time>2013-07-17T14:09:45Z</time>
      </trkpt>
      <trkpt lat="48.59177" lon="-0.44554">
        <ele>231.33435058594</ele>
        <time>2013-07-17T14:09:48Z</time>
      </trkpt>
      <trkpt lat="48.59178" lon="-0.44539">
        <ele>232.29577636719</ele>
        <time>2013-07-17T14:09:54Z</time>
      </trkpt>
      <trkpt lat="48.5918" lon="-0.44522">
        <ele>233.25708007812</ele>
        <time>2013-07-17T14:10:00Z</time>
      </trkpt>
      <trkpt lat="48.59181" lon="-0.44519">
        <ele>233.73767089844</ele>
        <time>2013-07-17T14:10:01Z</time>
      </trkpt>
      <trkpt lat="48.59183" lon="-0.44501">
        <ele>234.69909667969</ele>
        <time>2013-07-17T14:10:07Z</time>
      </trkpt>
      <trkpt lat="48.5919" lon="-0.4448">
        <ele>236.62170410156</ele>
        <time>2013-07-17T14:10:15Z</time>
      </trkpt>
      <trkpt lat="48.59194" lon="-0.44465">
        <ele>237.58288574219</ele>
        <time>2013-07-17T14:10:20Z</time>
      </trkpt>
      <trkpt lat="48.59199" lon="-0.44439">
        <ele>238.54431152344</ele>
        <time>2013-07-17T14:10:28Z</time>
      </trkpt>
      <trkpt lat="48.59205" lon="-0.44422">
        <ele>239.50549316406</ele>
        <time>2013-07-17T14:10:34Z</time>
      </trkpt>
      <trkpt lat="48.59208" lon="-0.44408">
        <ele>240.46704101562</ele>
        <time>2013-07-17T14:10:39Z</time>
      </trkpt>
      <trkpt lat="48.59211" lon="-0.4439">
        <ele>241.42822265625</ele>
        <time>2013-07-17T14:10:45Z</time>
      </trkpt>
      <trkpt lat="48.59213" lon="-0.44381">
        <ele>241.90893554688</ele>
        <time>2013-07-17T14:10:48Z</time>
      </trkpt>
      <trkpt lat="48.59216" lon="-0.4437">
        <ele>242.3896484375</ele>
        <time>2013-07-17T14:10:54Z</time>
      </trkpt>
      <trkpt lat="48.59216" lon="-0.44369">
        <ele>242.3896484375</ele>
        <time>2013-07-17T14:10:57Z</time>
      </trkpt>
      <trkpt lat="48.59215" lon="-0.44367">
        <ele>242.3896484375</ele>
        <time>2013-07-17T14:10:59Z</time>
      </trkpt>
      <trkpt lat="48.59216" lon="-0.44366">
        <ele>243.35083007812</ele>
        <time>2013-07-17T14:11:02Z</time>
      </trkpt>
      <trkpt lat="48.59217" lon="-0.44361">
        <ele>243.35083007812</ele>
        <time>2013-07-17T14:11:04Z</time>
      </trkpt>
      <trkpt lat="48.59223" lon="-0.44369">
        <ele>242.87023925781</ele>
        <time>2013-07-17T14:11:24Z</time>
      </trkpt>
      <trkpt lat="48.59224" lon="-0.44369">
        <ele>243.35083007812</ele>
        <time>2013-07-17T14:11:25Z</time>
      </trkpt>
      <trkpt lat="48.59226" lon="-0.44365">
        <ele>243.83154296875</ele>
        <time>2013-07-17T14:11:46Z</time>
      </trkpt>
      <trkpt lat="48.59227" lon="-0.44364">
        <ele>243.83154296875</ele>
        <time>2013-07-17T14:11:47Z</time>
      </trkpt>
      <trkpt lat="48.59232" lon="-0.44346">
        <ele>244.31225585938</ele>
        <time>2013-07-17T14:11:53Z</time>
      </trkpt>
      <trkpt lat="48.59239" lon="-0.44316">
        <ele>245.75415039062</ele>
        <time>2013-07-17T14:12:02Z</time>
      </trkpt>
      <trkpt lat="48.59245" lon="-0.44296">
        <ele>247.19604492188</ele>
        <time>2013-07-17T14:12:08Z</time>
      </trkpt>
      <trkpt lat="48.59246" lon="-0.44272">
        <ele>249.11877441406</ele>
        <time>2013-07-17T14:12:15Z</time>
      </trkpt>
      <trkpt lat="48.59247" lon="-0.44252">
        <ele>251.04138183594</ele>
        <time>2013-07-17T14:12:22Z</time>
      </trkpt>
      <trkpt lat="48.59247" lon="-0.44238">
        <ele>252.96398925781</ele>
        <time>2013-07-17T14:12:29Z</time>
      </trkpt>
      <trkpt lat="48.59249" lon="-0.44224">
        <ele>254.40600585938</ele>
        <time>2013-07-17T14:12:37Z</time>
      </trkpt>
      <trkpt lat="48.59251" lon="-0.44218">
        <ele>255.36730957031</ele>
        <time>2013-07-17T14:12:40Z</time>
      </trkpt>
      <trkpt lat="48.59254" lon="-0.44203">
        <ele>256.32873535156</ele>
        <time>2013-07-17T14:12:48Z</time>
      </trkpt>
      <trkpt lat="48.59259" lon="-0.44193">
        <ele>258.25134277344</ele>
        <time>2013-07-17T14:12:54Z</time>
      </trkpt>
      <trkpt lat="48.59262" lon="-0.4418">
        <ele>259.21264648438</ele>
        <time>2013-07-17T14:13:01Z</time>
      </trkpt>
      <trkpt lat="48.59265" lon="-0.44169">
        <ele>260.17395019531</ele>
        <time>2013-07-17T14:13:08Z</time>
      </trkpt>
      <trkpt lat="48.59264" lon="-0.44159">
        <ele>260.65454101562</ele>
        <time>2013-07-17T14:13:13Z</time>
      </trkpt>
      <trkpt lat="48.59266" lon="-0.44138">
        <ele>261.61596679688</ele>
        <time>2013-07-17T14:13:23Z</time>
      </trkpt>
      <trkpt lat="48.59266" lon="-0.44133">
        <ele>262.09655761719</ele>
        <time>2013-07-17T14:13:25Z</time>
      </trkpt>
      <trkpt lat="48.59274" lon="-0.44117">
        <ele>261.61596679688</ele>
        <time>2013-07-17T14:13:33Z</time>
      </trkpt>
      <trkpt lat="48.59278" lon="-0.44107">
        <ele>262.09655761719</ele>
        <time>2013-07-17T14:13:37Z</time>
      </trkpt>
      <trkpt lat="48.59284" lon="-0.44089">
        <ele>262.09655761719</ele>
        <time>2013-07-17T14:13:44Z</time>
      </trkpt>
      <trkpt lat="48.59289" lon="-0.44072">
        <ele>261.61596679688</ele>
        <time>2013-07-17T14:13:49Z</time>
      </trkpt>
      <trkpt lat="48.59295" lon="-0.44037">
        <ele>261.61596679688</ele>
        <time>2013-07-17T14:13:56Z</time>
      </trkpt>
      <trkpt lat="48.59299" lon="-0.44017">
        <ele>260.17395019531</ele>
        <time>2013-07-17T14:13:59Z</time>
      </trkpt>
      <trkpt lat="48.59309" lon="-0.43973">
        <ele>258.25134277344</ele>
        <time>2013-07-17T14:14:04Z</time>
      </trkpt>
      <trkpt lat="48.59311" lon="-0.43964">
        <ele>256.80932617188</ele>
        <time>2013-07-17T14:14:05Z</time>
      </trkpt>
      <trkpt lat="48.59319" lon="-0.43929">
        <ele>253.44470214844</ele>
        <time>2013-07-17T14:14:09Z</time>
      </trkpt>
      <trkpt lat="48.59324" lon="-0.43904">
        <ele>250.08020019531</ele>
        <time>2013-07-17T14:14:12Z</time>
      </trkpt>
      <trkpt lat="48.59333" lon="-0.43866">
        <ele>245.75415039062</ele>
        <time>2013-07-17T14:14:15Z</time>
      </trkpt>
      <trkpt lat="48.59338" lon="-0.43813">
        <ele>243.83154296875</ele>
        <time>2013-07-17T14:14:18Z</time>
      </trkpt>
      <trkpt lat="48.59356" lon="-0.43723">
        <ele>240.94763183594</ele>
        <time>2013-07-17T14:14:24Z</time>
      </trkpt>
      <trkpt lat="48.59372" lon="-0.43644">
        <ele>238.54431152344</ele>
        <time>2013-07-17T14:14:30Z</time>
      </trkpt>
      <trkpt lat="48.59385" lon="-0.43562">
        <ele>235.66027832031</ele>
        <time>2013-07-17T14:14:36Z</time>
      </trkpt>
      <trkpt lat="48.59397" lon="-0.435">
        <ele>234.69909667969</ele>
        <time>2013-07-17T14:14:41Z</time>
      </trkpt>
      <trkpt lat="48.59412" lon="-0.43447">
        <ele>233.73767089844</ele>
        <time>2013-07-17T14:14:46Z</time>
      </trkpt>
      <trkpt lat="48.59415" lon="-0.43437">
        <ele>233.73767089844</ele>
        <time>2013-07-17T14:14:47Z</time>
      </trkpt>
      <trkpt lat="48.59426" lon="-0.43381">
        <ele>233.25708007812</ele>
        <time>2013-07-17T14:14:53Z</time>
      </trkpt>
      <trkpt lat="48.59428" lon="-0.43373">
        <ele>233.73767089844</ele>
        <time>2013-07-17T14:14:54Z</time>
      </trkpt>
      <trkpt lat="48.59439" lon="-0.4333">
        <ele>234.69909667969</ele>
        <time>2013-07-17T14:15:01Z</time>
      </trkpt>
      <trkpt lat="48.59441" lon="-0.43315">
        <ele>235.1796875</ele>
        <time>2013-07-17T14:15:06Z</time>
      </trkpt>
      <trkpt lat="48.59444" lon="-0.43305">
        <ele>234.69909667969</ele>
        <time>2013-07-17T14:15:09Z</time>
      </trkpt>
      <trkpt lat="48.59444" lon="-0.43279">
        <ele>234.21838378906</ele>
        <time>2013-07-17T14:15:14Z</time>
      </trkpt>
      <trkpt lat="48.5945" lon="-0.43249">
        <ele>233.25708007812</ele>
        <time>2013-07-17T14:15:19Z</time>
      </trkpt>
      <trkpt lat="48.5946" lon="-0.43216">
        <ele>232.29577636719</ele>
        <time>2013-07-17T14:15:24Z</time>
      </trkpt>
      <trkpt lat="48.59464" lon="-0.43172">
        <ele>230.85375976562</ele>
        <time>2013-07-17T14:15:30Z</time>
      </trkpt>
      <trkpt lat="48.59474" lon="-0.43113">
        <ele>230.373046875</ele>
        <time>2013-07-17T14:15:38Z</time>
      </trkpt>
      <trkpt lat="48.59487" lon="-0.43055">
        <ele>230.85375976562</ele>
        <time>2013-07-17T14:15:46Z</time>
      </trkpt>
      <trkpt lat="48.59503" lon="-0.43011">
        <ele>232.77648925781</ele>
        <time>2013-07-17T14:15:53Z</time>
      </trkpt>
      <trkpt lat="48.59513" lon="-0.42966">
        <ele>233.73767089844</ele>
        <time>2013-07-17T14:16:00Z</time>
      </trkpt>
      <trkpt lat="48.59525" lon="-0.42916">
        <ele>234.69909667969</ele>
        <time>2013-07-17T14:16:08Z</time>
      </trkpt>
      <trkpt lat="48.59531" lon="-0.42886">
        <ele>235.66027832031</ele>
        <time>2013-07-17T14:16:14Z</time>
      </trkpt>
      <trkpt lat="48.59536" lon="-0.42854">
        <ele>236.62170410156</ele>
        <time>2013-07-17T14:16:22Z</time>
      </trkpt>
      <trkpt lat="48.59541" lon="-0.42822">
        <ele>237.58288574219</ele>
        <time>2013-07-17T14:16:30Z</time>
      </trkpt>
      <trkpt lat="48.59546" lon="-0.4279">
        <ele>239.02490234375</ele>
        <time>2013-07-17T14:16:37Z</time>
      </trkpt>
      <trkpt lat="48.59549" lon="-0.42763">
        <ele>239.50549316406</ele>
        <time>2013-07-17T14:16:44Z</time>
      </trkpt>
      <trkpt lat="48.59552" lon="-0.42737">
        <ele>240.46704101562</ele>
        <time>2013-07-17T14:16:51Z</time>
      </trkpt>
      <trkpt lat="48.59556" lon="-0.42718">
        <ele>241.90893554688</ele>
        <time>2013-07-17T14:16:57Z</time>
      </trkpt>
      <trkpt lat="48.59556" lon="-0.427">
        <ele>241.90893554688</ele>
        <time>2013-07-17T14:17:03Z</time>
      </trkpt>
      <trkpt lat="48.59562" lon="-0.42678">
        <ele>242.3896484375</ele>
        <time>2013-07-17T14:17:10Z</time>
      </trkpt>
      <trkpt lat="48.59561" lon="-0.42661">
        <ele>242.87023925781</ele>
        <time>2013-07-17T14:17:15Z</time>
      </trkpt>
      <trkpt lat="48.59553" lon="-0.42638">
        <ele>242.3896484375</ele>
        <time>2013-07-17T14:17:22Z</time>
      </trkpt>
      <trkpt lat="48.59544" lon="-0.42616">
        <ele>242.87023925781</ele>
        <time>2013-07-17T14:17:29Z</time>
      </trkpt>
      <trkpt lat="48.59539" lon="-0.42606">
        <ele>241.90893554688</ele>
        <time>2013-07-17T14:17:32Z</time>
      </trkpt>
      <trkpt lat="48.59528" lon="-0.42596">
        <ele>240.94763183594</ele>
        <time>2013-07-17T14:17:35Z</time>
      </trkpt>
      <trkpt lat="48.5952" lon="-0.42586">
        <ele>240.46704101562</ele>
        <time>2013-07-17T14:17:37Z</time>
      </trkpt>
      <trkpt lat="48.59505" lon="-0.42565">
        <ele>239.02490234375</ele>
        <time>2013-07-17T14:17:41Z</time>
      </trkpt>
      <trkpt lat="48.59496" lon="-0.42556">
        <ele>238.54431152344</ele>
        <time>2013-07-17T14:17:43Z</time>
      </trkpt>
      <trkpt lat="48.59482" lon="-0.42539">
        <ele>238.06359863281</ele>
        <time>2013-07-17T14:17:46Z</time>
      </trkpt>
      <trkpt lat="48.59469" lon="-0.42523">
        <ele>238.06359863281</ele>
        <time>2013-07-17T14:17:49Z</time>
      </trkpt>
      <trkpt lat="48.59447" lon="-0.42503">
        <ele>237.10229492188</ele>
        <time>2013-07-17T14:17:55Z</time>
      </trkpt>
      <trkpt lat="48.59436" lon="-0.42482">
        <ele>237.10229492188</ele>
        <time>2013-07-17T14:18:00Z</time>
      </trkpt>
      <trkpt lat="48.59429" lon="-0.42467">
        <ele>237.10229492188</ele>
        <time>2013-07-17T14:18:04Z</time>
      </trkpt>
      <trkpt lat="48.59422" lon="-0.42448">
        <ele>236.62170410156</ele>
        <time>2013-07-17T14:18:09Z</time>
      </trkpt>
      <trkpt lat="48.5942" lon="-0.42444">
        <ele>237.10229492188</ele>
        <time>2013-07-17T14:18:10Z</time>
      </trkpt>
      <trkpt lat="48.59406" lon="-0.42416">
        <ele>234.69909667969</ele>
        <time>2013-07-17T14:18:15Z</time>
      </trkpt>
      <trkpt lat="48.59404" lon="-0.42409">
        <ele>234.69909667969</ele>
        <time>2013-07-17T14:18:16Z</time>
      </trkpt>
      <trkpt lat="48.594" lon="-0.42393">
        <ele>233.73767089844</ele>
        <time>2013-07-17T14:18:18Z</time>
      </trkpt>
      <trkpt lat="48.59393" lon="-0.4237">
        <ele>231.81494140625</ele>
        <time>2013-07-17T14:18:21Z</time>
      </trkpt>
      <trkpt lat="48.59383" lon="-0.42328">
        <ele>230.373046875</ele>
        <time>2013-07-17T14:18:25Z</time>
      </trkpt>
      <trkpt lat="48.59371" lon="-0.42286">
        <ele>228.93115234375</ele>
        <time>2013-07-17T14:18:30Z</time>
      </trkpt>
      <trkpt lat="48.59363" lon="-0.42264">
        <ele>227.00854492188</ele>
        <time>2013-07-17T14:18:33Z</time>
      </trkpt>
      <trkpt lat="48.59362" lon="-0.42248">
        <ele>227.00854492188</ele>
        <time>2013-07-17T14:18:35Z</time>
      </trkpt>
      <trkpt lat="48.59361" lon="-0.42234">
        <ele>226.04711914062</ele>
        <time>2013-07-17T14:18:37Z</time>
      </trkpt>
      <trkpt lat="48.59375" lon="-0.42209">
        <ele>224.60522460938</ele>
        <time>2013-07-17T14:18:41Z</time>
      </trkpt>
      <trkpt lat="48.59398" lon="-0.42207">
        <ele>222.68249511719</ele>
        <time>2013-07-17T14:18:44Z</time>
      </trkpt>
      <trkpt lat="48.5941" lon="-0.4221">
        <ele>222.68249511719</ele>
        <time>2013-07-17T14:18:46Z</time>
      </trkpt>
      <trkpt lat="48.5943" lon="-0.42217">
        <ele>222.20178222656</ele>
        <time>2013-07-17T14:18:50Z</time>
      </trkpt>
      <trkpt lat="48.59451" lon="-0.4223">
        <ele>221.72119140625</ele>
        <time>2013-07-17T14:18:54Z</time>
      </trkpt>
      <trkpt lat="48.59472" lon="-0.42244">
        <ele>221.72119140625</ele>
        <time>2013-07-17T14:18:58Z</time>
      </trkpt>
      <trkpt lat="48.59489" lon="-0.42257">
        <ele>222.20178222656</ele>
        <time>2013-07-17T14:19:01Z</time>
      </trkpt>
      <trkpt lat="48.59512" lon="-0.42269">
        <ele>222.68249511719</ele>
        <time>2013-07-17T14:19:06Z</time>
      </trkpt>
      <trkpt lat="48.59516" lon="-0.42272">
        <ele>222.68249511719</ele>
        <time>2013-07-17T14:19:07Z</time>
      </trkpt>
      <trkpt lat="48.59534" lon="-0.42282">
        <ele>223.16320800781</ele>
        <time>2013-07-17T14:19:12Z</time>
      </trkpt>
      <trkpt lat="48.5955" lon="-0.42295">
        <ele>223.64379882812</ele>
        <time>2013-07-17T14:19:17Z</time>
      </trkpt>
      <trkpt lat="48.59568" lon="-0.42303">
        <ele>224.60522460938</ele>
        <time>2013-07-17T14:19:22Z</time>
      </trkpt>
      <trkpt lat="48.59587" lon="-0.4231">
        <ele>225.0859375</ele>
        <time>2013-07-17T14:19:27Z</time>
      </trkpt>
      <trkpt lat="48.596" lon="-0.42308">
        <ele>224.60522460938</ele>
        <time>2013-07-17T14:19:30Z</time>
      </trkpt>
      <trkpt lat="48.5962" lon="-0.42307">
        <ele>225.0859375</ele>
        <time>2013-07-17T14:19:35Z</time>
      </trkpt>
      <trkpt lat="48.59631" lon="-0.42302">
        <ele>224.12451171875</ele>
        <time>2013-07-17T14:19:39Z</time>
      </trkpt>
      <trkpt lat="48.59635" lon="-0.42288">
        <ele>222.68249511719</ele>
        <time>2013-07-17T14:19:43Z</time>
      </trkpt>
      <trkpt lat="48.59636" lon="-0.42282">
        <ele>222.20178222656</ele>
        <time>2013-07-17T14:19:44Z</time>
      </trkpt>
      <trkpt lat="48.59652" lon="-0.42252">
        <ele>220.75988769531</ele>
        <time>2013-07-17T14:19:48Z</time>
      </trkpt>
      <trkpt lat="48.5967" lon="-0.42227">
        <ele>220.27917480469</ele>
        <time>2013-07-17T14:19:52Z</time>
      </trkpt>
      <trkpt lat="48.59681" lon="-0.4222">
        <ele>219.79858398438</ele>
        <time>2013-07-17T14:19:54Z</time>
      </trkpt>
      <trkpt lat="48.59721" lon="-0.42206">
        <ele>219.79858398438</ele>
        <time>2013-07-17T14:20:01Z</time>
      </trkpt>
      <trkpt lat="48.5974" lon="-0.42202">
        <ele>219.79858398438</ele>
        <time>2013-07-17T14:20:06Z</time>
      </trkpt>
      <trkpt lat="48.59753" lon="-0.42201">
        <ele>219.79858398438</ele>
        <time>2013-07-17T14:20:09Z</time>
      </trkpt>
      <trkpt lat="48.59783" lon="-0.42201">
        <ele>219.79858398438</ele>
        <time>2013-07-17T14:20:15Z</time>
      </trkpt>
      <trkpt lat="48.59802" lon="-0.42202">
        <ele>220.27917480469</ele>
        <time>2013-07-17T14:20:19Z</time>
      </trkpt>
      <trkpt lat="48.59824" lon="-0.42205">
        <ele>219.79858398438</ele>
        <time>2013-07-17T14:20:24Z</time>
      </trkpt>
      <trkpt lat="48.59843" lon="-0.42206">
        <ele>219.79858398438</ele>
        <time>2013-07-17T14:20:30Z</time>
      </trkpt>
      <trkpt lat="48.59859" lon="-0.42205">
        <ele>219.79858398438</ele>
        <time>2013-07-17T14:20:35Z</time>
      </trkpt>
      <trkpt lat="48.59883" lon="-0.42208">
        <ele>219.79858398438</ele>
        <time>2013-07-17T14:20:41Z</time>
      </trkpt>
      <trkpt lat="48.59902" lon="-0.42212">
        <ele>219.31799316406</ele>
        <time>2013-07-17T14:20:47Z</time>
      </trkpt>
      <trkpt lat="48.5992" lon="-0.42221">
        <ele>219.79858398438</ele>
        <time>2013-07-17T14:20:53Z</time>
      </trkpt>
      <trkpt lat="48.59949" lon="-0.42233">
        <ele>218.83728027344</ele>
        <time>2013-07-17T14:21:00Z</time>
      </trkpt>
      <trkpt lat="48.59959" lon="-0.42247">
        <ele>219.31799316406</ele>
        <time>2013-07-17T14:21:04Z</time>
      </trkpt>
      <trkpt lat="48.59964" lon="-0.42268">
        <ele>220.75988769531</ele>
        <time>2013-07-17T14:21:08Z</time>
      </trkpt>
      <trkpt lat="48.59973" lon="-0.42296">
        <ele>222.20178222656</ele>
        <time>2013-07-17T14:21:13Z</time>
      </trkpt>
      <trkpt lat="48.59988" lon="-0.42314">
        <ele>222.68249511719</ele>
        <time>2013-07-17T14:21:18Z</time>
      </trkpt>
      <trkpt lat="48.60007" lon="-0.42324">
        <ele>222.68249511719</ele>
        <time>2013-07-17T14:21:24Z</time>
      </trkpt>
      <trkpt lat="48.6002" lon="-0.42346">
        <ele>222.68249511719</ele>
        <time>2013-07-17T14:21:29Z</time>
      </trkpt>
      <trkpt lat="48.60032" lon="-0.42364">
        <ele>222.68249511719</ele>
        <time>2013-07-17T14:21:34Z</time>
      </trkpt>
      <trkpt lat="48.60049" lon="-0.4237">
        <ele>222.20178222656</ele>
        <time>2013-07-17T14:21:39Z</time>
      </trkpt>
      <trkpt lat="48.60062" lon="-0.42373">
        <ele>220.75988769531</ele>
        <time>2013-07-17T14:21:42Z</time>
      </trkpt>
      <trkpt lat="48.60071" lon="-0.42378">
        <ele>219.79858398438</ele>
        <time>2013-07-17T14:21:46Z</time>
      </trkpt>
      <trkpt lat="48.60073" lon="-0.42378">
        <ele>219.79858398438</ele>
        <time>2013-07-17T14:21:47Z</time>
      </trkpt>
      <trkpt lat="48.60084" lon="-0.42377">
        <ele>219.31799316406</ele>
        <time>2013-07-17T14:21:50Z</time>
      </trkpt>
      <trkpt lat="48.60098" lon="-0.4236">
        <ele>218.35656738281</ele>
        <time>2013-07-17T14:21:54Z</time>
      </trkpt>
      <trkpt lat="48.60106" lon="-0.42325">
        <ele>218.35656738281</ele>
        <time>2013-07-17T14:22:01Z</time>
      </trkpt>
      <trkpt lat="48.60121" lon="-0.42298">
        <ele>218.83728027344</ele>
        <time>2013-07-17T14:22:07Z</time>
      </trkpt>
      <trkpt lat="48.60127" lon="-0.42288">
        <ele>218.83728027344</ele>
        <time>2013-07-17T14:22:09Z</time>
      </trkpt>
      <trkpt lat="48.60134" lon="-0.4227">
        <ele>219.79858398438</ele>
        <time>2013-07-17T14:22:12Z</time>
      </trkpt>
      <trkpt lat="48.60147" lon="-0.42241">
        <ele>218.83728027344</ele>
        <time>2013-07-17T14:22:17Z</time>
      </trkpt>
      <trkpt lat="48.60157" lon="-0.42216">
        <ele>219.79858398438</ele>
        <time>2013-07-17T14:22:23Z</time>
      </trkpt>
      <trkpt lat="48.60157" lon="-0.42197">
        <ele>220.75988769531</ele>
        <time>2013-07-17T14:22:27Z</time>
      </trkpt>
      <trkpt lat="48.60151" lon="-0.42173">
        <ele>221.72119140625</ele>
        <time>2013-07-17T14:22:32Z</time>
      </trkpt>
      <trkpt lat="48.60149" lon="-0.4216">
        <ele>221.72119140625</ele>
        <time>2013-07-17T14:22:37Z</time>
      </trkpt>
      <trkpt lat="48.60148" lon="-0.42158">
        <ele>221.72119140625</ele>
        <time>2013-07-17T14:22:39Z</time>
      </trkpt>
      <trkpt lat="48.60142" lon="-0.42152">
        <ele>221.72119140625</ele>
        <time>2013-07-17T14:24:17Z</time>
      </trkpt>
      <trkpt lat="48.60141" lon="-0.42138">
        <ele>221.72119140625</ele>
        <time>2013-07-17T14:24:21Z</time>
      </trkpt>
      <trkpt lat="48.6014" lon="-0.42121">
        <ele>221.24060058594</ele>
        <time>2013-07-17T14:24:24Z</time>
      </trkpt>
      <trkpt lat="48.60136" lon="-0.42087">
        <ele>219.79858398438</ele>
        <time>2013-07-17T14:24:29Z</time>
      </trkpt>
      <trkpt lat="48.60135" lon="-0.42079">
        <ele>220.27917480469</ele>
        <time>2013-07-17T14:24:30Z</time>
      </trkpt>
      <trkpt lat="48.60127" lon="-0.4205">
        <ele>218.83728027344</ele>
        <time>2013-07-17T14:24:34Z</time>
      </trkpt>
      <trkpt lat="48.60126" lon="-0.42027">
        <ele>219.31799316406</ele>
        <time>2013-07-17T14:24:37Z</time>
      </trkpt>
      <trkpt lat="48.60122" lon="-0.41998">
        <ele>220.75988769531</ele>
        <time>2013-07-17T14:24:42Z</time>
      </trkpt>
      <trkpt lat="48.6012" lon="-0.4199">
        <ele>220.75988769531</ele>
        <time>2013-07-17T14:24:44Z</time>
      </trkpt>
      <trkpt lat="48.60115" lon="-0.41959">
        <ele>222.68249511719</ele>
        <time>2013-07-17T14:24:51Z</time>
      </trkpt>
      <trkpt lat="48.60111" lon="-0.41934">
        <ele>225.0859375</ele>
        <time>2013-07-17T14:24:57Z</time>
      </trkpt>
      <trkpt lat="48.6011" lon="-0.41913">
        <ele>226.04711914062</ele>
        <time>2013-07-17T14:25:01Z</time>
      </trkpt>
      <trkpt lat="48.60103" lon="-0.41882">
        <ele>227.48913574219</ele>
        <time>2013-07-17T14:25:08Z</time>
      </trkpt>
      <trkpt lat="48.60099" lon="-0.41861">
        <ele>227.9697265625</ele>
        <time>2013-07-17T14:25:14Z</time>
      </trkpt>
      <trkpt lat="48.60094" lon="-0.41844">
        <ele>227.9697265625</ele>
        <time>2013-07-17T14:25:18Z</time>
      </trkpt>
      <trkpt lat="48.60086" lon="-0.41815">
        <ele>228.45043945312</ele>
        <time>2013-07-17T14:25:24Z</time>
      </trkpt>
      <trkpt lat="48.60079" lon="-0.41776">
        <ele>228.45043945312</ele>
        <time>2013-07-17T14:25:30Z</time>
      </trkpt>
      <trkpt lat="48.60071" lon="-0.41726">
        <ele>228.45043945312</ele>
        <time>2013-07-17T14:25:38Z</time>
      </trkpt>
      <trkpt lat="48.60069" lon="-0.41702">
        <ele>228.93115234375</ele>
        <time>2013-07-17T14:25:42Z</time>
      </trkpt>
      <trkpt lat="48.60061" lon="-0.41651">
        <ele>229.41174316406</ele>
        <time>2013-07-17T14:25:50Z</time>
      </trkpt>
      <trkpt lat="48.60054" lon="-0.41602">
        <ele>230.85375976562</ele>
        <time>2013-07-17T14:25:58Z</time>
      </trkpt>
      <trkpt lat="48.60044" lon="-0.41541">
        <ele>231.81494140625</ele>
        <time>2013-07-17T14:26:08Z</time>
      </trkpt>
      <trkpt lat="48.60036" lon="-0.41494">
        <ele>232.77648925781</ele>
        <time>2013-07-17T14:26:16Z</time>
      </trkpt>
      <trkpt lat="48.6003" lon="-0.41453">
        <ele>233.25708007812</ele>
        <time>2013-07-17T14:26:23Z</time>
      </trkpt>
      <trkpt lat="48.60019" lon="-0.41393">
        <ele>232.77648925781</ele>
        <time>2013-07-17T14:26:32Z</time>
      </trkpt>
      <trkpt lat="48.60017" lon="-0.41387">
        <ele>232.77648925781</ele>
        <time>2013-07-17T14:26:33Z</time>
      </trkpt>
      <trkpt lat="48.60012" lon="-0.4135">
        <ele>233.25708007812</ele>
        <time>2013-07-17T14:26:39Z</time>
      </trkpt>
      <trkpt lat="48.60004" lon="-0.41305">
        <ele>233.73767089844</ele>
        <time>2013-07-17T14:26:46Z</time>
      </trkpt>
      <trkpt lat="48.59998" lon="-0.41267">
        <ele>234.69909667969</ele>
        <time>2013-07-17T14:26:52Z</time>
      </trkpt>
      <trkpt lat="48.59986" lon="-0.41203">
        <ele>235.66027832031</ele>
        <time>2013-07-17T14:27:02Z</time>
      </trkpt>
      <trkpt lat="48.59978" lon="-0.41159">
        <ele>235.66027832031</ele>
        <time>2013-07-17T14:27:10Z</time>
      </trkpt>
      <trkpt lat="48.59976" lon="-0.4115">
        <ele>235.1796875</ele>
        <time>2013-07-17T14:27:12Z</time>
      </trkpt>
      <trkpt lat="48.59967" lon="-0.41146">
        <ele>235.1796875</ele>
        <time>2013-07-17T14:27:16Z</time>
      </trkpt>
      <trkpt lat="48.59953" lon="-0.41151">
        <ele>235.66027832031</ele>
        <time>2013-07-17T14:27:21Z</time>
      </trkpt>
      <trkpt lat="48.59927" lon="-0.41155">
        <ele>235.66027832031</ele>
        <time>2013-07-17T14:27:28Z</time>
      </trkpt>
      <trkpt lat="48.59922" lon="-0.41155">
        <ele>235.66027832031</ele>
        <time>2013-07-17T14:27:29Z</time>
      </trkpt>
      <trkpt lat="48.59897" lon="-0.41155">
        <ele>236.14099121094</ele>
        <time>2013-07-17T14:27:35Z</time>
      </trkpt>
      <trkpt lat="48.59876" lon="-0.4116">
        <ele>235.1796875</ele>
        <time>2013-07-17T14:27:41Z</time>
      </trkpt>
      <trkpt lat="48.59852" lon="-0.41162">
        <ele>234.69909667969</ele>
        <time>2013-07-17T14:27:47Z</time>
      </trkpt>
      <trkpt lat="48.59829" lon="-0.41164">
        <ele>234.21838378906</ele>
        <time>2013-07-17T14:27:53Z</time>
      </trkpt>
      <trkpt lat="48.59813" lon="-0.41165">
        <ele>234.21838378906</ele>
        <time>2013-07-17T14:27:57Z</time>
      </trkpt>
      <trkpt lat="48.59788" lon="-0.41166">
        <ele>233.73767089844</ele>
        <time>2013-07-17T14:28:02Z</time>
      </trkpt>
      <trkpt lat="48.59769" lon="-0.41167">
        <ele>233.25708007812</ele>
        <time>2013-07-17T14:28:06Z</time>
      </trkpt>
      <trkpt lat="48.59752" lon="-0.4117">
        <ele>233.25708007812</ele>
        <time>2013-07-17T14:28:10Z</time>
      </trkpt>
      <trkpt lat="48.59721" lon="-0.41174">
        <ele>233.25708007812</ele>
        <time>2013-07-17T14:28:16Z</time>
      </trkpt>
      <trkpt lat="48.59697" lon="-0.41177">
        <ele>233.25708007812</ele>
        <time>2013-07-17T14:28:21Z</time>
      </trkpt>
      <trkpt lat="48.59687" lon="-0.41178">
        <ele>233.73767089844</ele>
        <time>2013-07-17T14:28:23Z</time>
      </trkpt>
      <trkpt lat="48.59659" lon="-0.41181">
        <ele>233.25708007812</ele>
        <time>2013-07-17T14:28:29Z</time>
      </trkpt>
      <trkpt lat="48.59632" lon="-0.41184">
        <ele>233.73767089844</ele>
        <time>2013-07-17T14:28:34Z</time>
      </trkpt>
      <trkpt lat="48.59604" lon="-0.41188">
        <ele>234.21838378906</ele>
        <time>2013-07-17T14:28:39Z</time>
      </trkpt>
      <trkpt lat="48.59581" lon="-0.41189">
        <ele>234.21838378906</ele>
        <time>2013-07-17T14:28:45Z</time>
      </trkpt>
      <trkpt lat="48.5957" lon="-0.41189">
        <ele>234.21838378906</ele>
        <time>2013-07-17T14:28:50Z</time>
      </trkpt>
      <trkpt lat="48.59555" lon="-0.4119">
        <ele>234.69909667969</ele>
        <time>2013-07-17T14:28:55Z</time>
      </trkpt>
      <trkpt lat="48.59542" lon="-0.41191">
        <ele>234.69909667969</ele>
        <time>2013-07-17T14:28:59Z</time>
      </trkpt>
      <trkpt lat="48.59529" lon="-0.41191">
        <ele>235.1796875</ele>
        <time>2013-07-17T14:29:03Z</time>
      </trkpt>
      <trkpt lat="48.59506" lon="-0.41193">
        <ele>235.1796875</ele>
        <time>2013-07-17T14:29:09Z</time>
      </trkpt>
      <trkpt lat="48.59483" lon="-0.41195">
        <ele>235.66027832031</ele>
        <time>2013-07-17T14:29:15Z</time>
      </trkpt>
      <trkpt lat="48.59462" lon="-0.41196">
        <ele>236.14099121094</ele>
        <time>2013-07-17T14:29:20Z</time>
      </trkpt>
      <trkpt lat="48.59443" lon="-0.41198">
        <ele>236.62170410156</ele>
        <time>2013-07-17T14:29:25Z</time>
      </trkpt>
      <trkpt lat="48.59425" lon="-0.41199">
        <ele>236.62170410156</ele>
        <time>2013-07-17T14:29:29Z</time>
      </trkpt>
      <trkpt lat="48.59398" lon="-0.41199">
        <ele>236.62170410156</ele>
        <time>2013-07-17T14:29:35Z</time>
      </trkpt>
      <trkpt lat="48.59373" lon="-0.41201">
        <ele>236.14099121094</ele>
        <time>2013-07-17T14:29:40Z</time>
      </trkpt>
      <trkpt lat="48.59348" lon="-0.41203">
        <ele>236.14099121094</ele>
        <time>2013-07-17T14:29:45Z</time>
      </trkpt>
      <trkpt lat="48.59343" lon="-0.41204">
        <ele>235.1796875</ele>
        <time>2013-07-17T14:29:46Z</time>
      </trkpt>
      <trkpt lat="48.59318" lon="-0.41207">
        <ele>235.1796875</ele>
        <time>2013-07-17T14:29:51Z</time>
      </trkpt>
      <trkpt lat="48.59291" lon="-0.41209">
        <ele>233.73767089844</ele>
        <time>2013-07-17T14:29:56Z</time>
      </trkpt>
      <trkpt lat="48.59261" lon="-0.4121">
        <ele>233.25708007812</ele>
        <time>2013-07-17T14:30:01Z</time>
      </trkpt>
      <trkpt lat="48.5923" lon="-0.41214">
        <ele>231.81494140625</ele>
        <time>2013-07-17T14:30:07Z</time>
      </trkpt>
      <trkpt lat="48.59193" lon="-0.41217">
        <ele>231.33435058594</ele>
        <time>2013-07-17T14:30:13Z</time>
      </trkpt>
      <trkpt lat="48.59159" lon="-0.41219">
        <ele>230.85375976562</ele>
        <time>2013-07-17T14:30:18Z</time>
      </trkpt>
      <trkpt lat="48.59127" lon="-0.41222">
        <ele>230.85375976562</ele>
        <time>2013-07-17T14:30:24Z</time>
      </trkpt>
      <trkpt lat="48.59115" lon="-0.41222">
        <ele>230.373046875</ele>
        <time>2013-07-17T14:30:27Z</time>
      </trkpt>
      <trkpt lat="48.59084" lon="-0.41225">
        <ele>229.41174316406</ele>
        <time>2013-07-17T14:30:33Z</time>
      </trkpt>
      <trkpt lat="48.59064" lon="-0.41227">
        <ele>228.93115234375</ele>
        <time>2013-07-17T14:30:37Z</time>
      </trkpt>
      <trkpt lat="48.59043" lon="-0.41232">
        <ele>227.9697265625</ele>
        <time>2013-07-17T14:30:41Z</time>
      </trkpt>
      <trkpt lat="48.59016" lon="-0.41234">
        <ele>226.04711914062</ele>
        <time>2013-07-17T14:30:45Z</time>
      </trkpt>
      <trkpt lat="48.5901" lon="-0.41236">
        <ele>226.04711914062</ele>
        <time>2013-07-17T14:30:46Z</time>
      </trkpt>
      <trkpt lat="48.58999" lon="-0.4124">
        <ele>225.56652832031</ele>
        <time>2013-07-17T14:30:48Z</time>
      </trkpt>
      <trkpt lat="48.58955" lon="-0.41243">
        <ele>224.12451171875</ele>
        <time>2013-07-17T14:30:55Z</time>
      </trkpt>
      <trkpt lat="48.58936" lon="-0.41246">
        <ele>223.16320800781</ele>
        <time>2013-07-17T14:30:58Z</time>
      </trkpt>
      <trkpt lat="48.58901" lon="-0.41267">
        <ele>219.79858398438</ele>
        <time>2013-07-17T14:31:03Z</time>
      </trkpt>
      <trkpt lat="48.58879" lon="-0.41277">
        <ele>218.35656738281</ele>
        <time>2013-07-17T14:31:06Z</time>
      </trkpt>
      <trkpt lat="48.58855" lon="-0.41267">
        <ele>217.39538574219</ele>
        <time>2013-07-17T14:31:10Z</time>
      </trkpt>
      <trkpt lat="48.58846" lon="-0.41255">
        <ele>217.39538574219</ele>
        <time>2013-07-17T14:31:12Z</time>
      </trkpt>
      <trkpt lat="48.58825" lon="-0.41221">
        <ele>217.39538574219</ele>
        <time>2013-07-17T14:31:18Z</time>
      </trkpt>
      <trkpt lat="48.58809" lon="-0.41196">
        <ele>217.39538574219</ele>
        <time>2013-07-17T14:31:24Z</time>
      </trkpt>
      <trkpt lat="48.58804" lon="-0.41188">
        <ele>217.39538574219</ele>
        <time>2013-07-17T14:31:26Z</time>
      </trkpt>
      <trkpt lat="48.58794" lon="-0.41174">
        <ele>216.91467285156</ele>
        <time>2013-07-17T14:31:29Z</time>
      </trkpt>
      <trkpt lat="48.58766" lon="-0.41135">
        <ele>216.91467285156</ele>
        <time>2013-07-17T14:31:38Z</time>
      </trkpt>
      <trkpt lat="48.58746" lon="-0.41103">
        <ele>215.47265625</ele>
        <time>2013-07-17T14:31:45Z</time>
      </trkpt>
      <trkpt lat="48.58725" lon="-0.41051">
        <ele>213.55004882812</ele>
        <time>2013-07-17T14:31:53Z</time>
      </trkpt>
      <trkpt lat="48.58708" lon="-0.41005">
        <ele>209.70483398438</ele>
        <time>2013-07-17T14:31:58Z</time>
      </trkpt>
      <trkpt lat="48.58702" lon="-0.40976">
        <ele>207.78210449219</ele>
        <time>2013-07-17T14:32:01Z</time>
      </trkpt>
      <trkpt lat="48.58707" lon="-0.40957">
        <ele>206.82067871094</ele>
        <time>2013-07-17T14:32:03Z</time>
      </trkpt>
      <trkpt lat="48.58715" lon="-0.40935">
        <ele>207.30139160156</ele>
        <time>2013-07-17T14:32:06Z</time>
      </trkpt>
      <trkpt lat="48.58709" lon="-0.40912">
        <ele>207.30139160156</ele>
        <time>2013-07-17T14:32:10Z</time>
      </trkpt>
      <trkpt lat="48.58701" lon="-0.40907">
        <ele>207.30139160156</ele>
        <time>2013-07-17T14:32:13Z</time>
      </trkpt>
      <trkpt lat="48.58696" lon="-0.40909">
        <ele>207.30139160156</ele>
        <time>2013-07-17T14:32:15Z</time>
      </trkpt>
      <trkpt lat="48.58684" lon="-0.40917">
        <ele>207.30139160156</ele>
        <time>2013-07-17T14:32:23Z</time>
      </trkpt>
      <trkpt lat="48.58675" lon="-0.40921">
        <ele>207.30139160156</ele>
        <time>2013-07-17T14:32:29Z</time>
      </trkpt>
      <trkpt lat="48.58657" lon="-0.40929">
        <ele>207.30139160156</ele>
        <time>2013-07-17T14:32:35Z</time>
      </trkpt>
      <trkpt lat="48.58643" lon="-0.40928">
        <ele>209.22412109375</ele>
        <time>2013-07-17T14:32:40Z</time>
      </trkpt>
      <trkpt lat="48.58631" lon="-0.40913">
        <ele>210.666015625</ele>
        <time>2013-07-17T14:32:45Z</time>
      </trkpt>
      <trkpt lat="48.58627" lon="-0.4089">
        <ele>212.10803222656</ele>
        <time>2013-07-17T14:32:50Z</time>
      </trkpt>
      <trkpt lat="48.5862" lon="-0.40865">
        <ele>213.0693359375</ele>
        <time>2013-07-17T14:32:56Z</time>
      </trkpt>
      <trkpt lat="48.58606" lon="-0.40846">
        <ele>213.55004882812</ele>
        <time>2013-07-17T14:33:02Z</time>
      </trkpt>
      <trkpt lat="48.586" lon="-0.4084">
        <ele>213.55004882812</ele>
        <time>2013-07-17T14:33:04Z</time>
      </trkpt>
      <trkpt lat="48.5857" lon="-0.40793">
        <ele>214.03063964844</ele>
        <time>2013-07-17T14:33:14Z</time>
      </trkpt>
      <trkpt lat="48.58548" lon="-0.40744">
        <ele>214.51123046875</ele>
        <time>2013-07-17T14:33:23Z</time>
      </trkpt>
      <trkpt lat="48.58527" lon="-0.40694">
        <ele>214.99194335938</ele>
        <time>2013-07-17T14:33:32Z</time>
      </trkpt>
      <trkpt lat="48.58514" lon="-0.40664">
        <ele>214.99194335938</ele>
        <time>2013-07-17T14:33:39Z</time>
      </trkpt>
      <trkpt lat="48.58505" lon="-0.40648">
        <ele>214.51123046875</ele>
        <time>2013-07-17T14:33:43Z</time>
      </trkpt>
      <trkpt lat="48.58488" lon="-0.40639">
        <ele>213.0693359375</ele>
        <time>2013-07-17T14:33:47Z</time>
      </trkpt>
      <trkpt lat="48.58473" lon="-0.40651">
        <ele>212.58862304688</ele>
        <time>2013-07-17T14:33:50Z</time>
      </trkpt>
      <trkpt lat="48.5844" lon="-0.40699">
        <ele>211.14672851562</ele>
        <time>2013-07-17T14:33:57Z</time>
      </trkpt>
      <trkpt lat="48.5842" lon="-0.40713">
        <ele>210.666015625</ele>
        <time>2013-07-17T14:34:01Z</time>
      </trkpt>
      <trkpt lat="48.58406" lon="-0.40707">
        <ele>212.10803222656</ele>
        <time>2013-07-17T14:34:04Z</time>
      </trkpt>
      <trkpt lat="48.58397" lon="-0.40696">
        <ele>212.10803222656</ele>
        <time>2013-07-17T14:34:07Z</time>
      </trkpt>
      <trkpt lat="48.58369" lon="-0.40665">
        <ele>214.03063964844</ele>
        <time>2013-07-17T14:34:16Z</time>
      </trkpt>
      <trkpt lat="48.58347" lon="-0.40641">
        <ele>215.47265625</ele>
        <time>2013-07-17T14:34:23Z</time>
      </trkpt>
      <trkpt lat="48.58324" lon="-0.40615">
        <ele>216.91467285156</ele>
        <time>2013-07-17T14:34:31Z</time>
      </trkpt>
      <trkpt lat="48.58299" lon="-0.40587">
        <ele>218.35656738281</ele>
        <time>2013-07-17T14:34:39Z</time>
      </trkpt>
      <trkpt lat="48.58283" lon="-0.40571">
        <ele>218.83728027344</ele>
        <time>2013-07-17T14:34:45Z</time>
      </trkpt>
      <trkpt lat="48.58264" lon="-0.40558">
        <ele>219.31799316406</ele>
        <time>2013-07-17T14:34:51Z</time>
      </trkpt>
      <trkpt lat="48.58243" lon="-0.40556">
        <ele>219.79858398438</ele>
        <time>2013-07-17T14:34:57Z</time>
      </trkpt>
      <trkpt lat="48.58231" lon="-0.40554">
        <ele>219.31799316406</ele>
        <time>2013-07-17T14:35:00Z</time>
      </trkpt>
      <trkpt lat="48.58198" lon="-0.40528">
        <ele>219.79858398438</ele>
        <time>2013-07-17T14:35:09Z</time>
      </trkpt>
      <trkpt lat="48.58177" lon="-0.40506">
        <ele>219.79858398438</ele>
        <time>2013-07-17T14:35:15Z</time>
      </trkpt>
      <trkpt lat="48.58152" lon="-0.40483">
        <ele>220.27917480469</ele>
        <time>2013-07-17T14:35:23Z</time>
      </trkpt>
      <trkpt lat="48.58143" lon="-0.40477">
        <ele>220.75988769531</ele>
        <time>2013-07-17T14:35:28Z</time>
      </trkpt>
      <trkpt lat="48.58126" lon="-0.40477">
        <ele>219.79858398438</ele>
        <time>2013-07-17T14:35:34Z</time>
      </trkpt>
      <trkpt lat="48.58107" lon="-0.40475">
        <ele>219.31799316406</ele>
        <time>2013-07-17T14:35:39Z</time>
      </trkpt>
      <trkpt lat="48.58086" lon="-0.40469">
        <ele>218.83728027344</ele>
        <time>2013-07-17T14:35:44Z</time>
      </trkpt>
      <trkpt lat="48.58077" lon="-0.40465">
        <ele>218.35656738281</ele>
        <time>2013-07-17T14:35:46Z</time>
      </trkpt>
      <trkpt lat="48.58055" lon="-0.40458">
        <ele>218.35656738281</ele>
        <time>2013-07-17T14:35:51Z</time>
      </trkpt>
      <trkpt lat="48.58046" lon="-0.40459">
        <ele>218.83728027344</ele>
        <time>2013-07-17T14:35:53Z</time>
      </trkpt>
      <trkpt lat="48.58042" lon="-0.4046">
        <ele>218.35656738281</ele>
        <time>2013-07-17T14:35:54Z</time>
      </trkpt>
      <trkpt lat="48.58012" lon="-0.40469">
        <ele>217.39538574219</ele>
        <time>2013-07-17T14:36:00Z</time>
      </trkpt>
      <trkpt lat="48.57995" lon="-0.40476">
        <ele>216.43395996094</ele>
        <time>2013-07-17T14:36:03Z</time>
      </trkpt>
      <trkpt lat="48.57978" lon="-0.40482">
        <ele>215.47265625</ele>
        <time>2013-07-17T14:36:06Z</time>
      </trkpt>
      <trkpt lat="48.57945" lon="-0.40492">
        <ele>214.99194335938</ele>
        <time>2013-07-17T14:36:11Z</time>
      </trkpt>
      <trkpt lat="48.5791" lon="-0.40499">
        <ele>213.55004882812</ele>
        <time>2013-07-17T14:36:16Z</time>
      </trkpt>
      <trkpt lat="48.57898" lon="-0.40503">
        <ele>213.55004882812</ele>
        <time>2013-07-17T14:36:18Z</time>
      </trkpt>
      <trkpt lat="48.5788" lon="-0.40509">
        <ele>212.58862304688</ele>
        <time>2013-07-17T14:36:21Z</time>
      </trkpt>
      <trkpt lat="48.57847" lon="-0.4052">
        <ele>212.58862304688</ele>
        <time>2013-07-17T14:36:27Z</time>
      </trkpt>
      <trkpt lat="48.5782" lon="-0.40531">
        <ele>212.10803222656</ele>
        <time>2013-07-17T14:36:32Z</time>
      </trkpt>
      <trkpt lat="48.57782" lon="-0.40542">
        <ele>212.10803222656</ele>
        <time>2013-07-17T14:36:38Z</time>
      </trkpt>
      <trkpt lat="48.57758" lon="-0.40549">
        <ele>213.0693359375</ele>
        <time>2013-07-17T14:36:42Z</time>
      </trkpt>
      <trkpt lat="48.57747" lon="-0.40553">
        <ele>213.0693359375</ele>
        <time>2013-07-17T14:36:44Z</time>
      </trkpt>
      <trkpt lat="48.57731" lon="-0.40554">
        <ele>213.55004882812</ele>
        <time>2013-07-17T14:36:48Z</time>
      </trkpt>
      <trkpt lat="48.57726" lon="-0.40546">
        <ele>213.0693359375</ele>
        <time>2013-07-17T14:36:52Z</time>
      </trkpt>
      <trkpt lat="48.57722" lon="-0.40531">
        <ele>213.55004882812</ele>
        <time>2013-07-17T14:36:56Z</time>
      </trkpt>
      <trkpt lat="48.57711" lon="-0.40511">
        <ele>213.55004882812</ele>
        <time>2013-07-17T14:37:02Z</time>
      </trkpt>
      <trkpt lat="48.57699" lon="-0.4049">
        <ele>213.55004882812</ele>
        <time>2013-07-17T14:37:06Z</time>
      </trkpt>
      <trkpt lat="48.57677" lon="-0.40451">
        <ele>212.10803222656</ele>
        <time>2013-07-17T14:37:12Z</time>
      </trkpt>
      <trkpt lat="48.5765" lon="-0.40403">
        <ele>211.14672851562</ele>
        <time>2013-07-17T14:37:18Z</time>
      </trkpt>
      <trkpt lat="48.57625" lon="-0.40355">
        <ele>209.70483398438</ele>
        <time>2013-07-17T14:37:24Z</time>
      </trkpt>
      <trkpt lat="48.57597" lon="-0.40305">
        <ele>209.22412109375</ele>
        <time>2013-07-17T14:37:31Z</time>
      </trkpt>
      <trkpt lat="48.57568" lon="-0.40248">
        <ele>208.26281738281</ele>
        <time>2013-07-17T14:37:39Z</time>
      </trkpt>
      <trkpt lat="48.57545" lon="-0.40207">
        <ele>209.22412109375</ele>
        <time>2013-07-17T14:37:45Z</time>
      </trkpt>
      <trkpt lat="48.57532" lon="-0.40182">
        <ele>209.70483398438</ele>
        <time>2013-07-17T14:37:50Z</time>
      </trkpt>
      <trkpt lat="48.57518" lon="-0.40155">
        <ele>209.70483398438</ele>
        <time>2013-07-17T14:37:56Z</time>
      </trkpt>
      <trkpt lat="48.57512" lon="-0.40143">
        <ele>210.666015625</ele>
        <time>2013-07-17T14:38:00Z</time>
      </trkpt>
      <trkpt lat="48.57512" lon="-0.40143">
        <ele>210.18542480469</ele>
        <time>2013-07-17T14:38:01Z</time>
      </trkpt>
      <trkpt lat="48.57512" lon="-0.4014">
        <ele>209.70483398438</ele>
        <time>2013-07-17T14:38:26Z</time>
      </trkpt>
      <trkpt lat="48.57513" lon="-0.40145">
        <ele>209.70483398438</ele>
        <time>2013-07-17T14:38:28Z</time>
      </trkpt>
      <trkpt lat="48.57522" lon="-0.40162">
        <ele>209.22412109375</ele>
        <time>2013-07-17T14:38:34Z</time>
      </trkpt>
      <trkpt lat="48.57528" lon="-0.40175">
        <ele>209.22412109375</ele>
        <time>2013-07-17T14:38:37Z</time>
      </trkpt>
      <trkpt lat="48.57533" lon="-0.40187">
        <ele>208.74340820312</ele>
        <time>2013-07-17T14:38:40Z</time>
      </trkpt>
      <trkpt lat="48.57544" lon="-0.40211">
        <ele>208.26281738281</ele>
        <time>2013-07-17T14:38:44Z</time>
      </trkpt>
      <trkpt lat="48.57557" lon="-0.40227">
        <ele>208.74340820312</ele>
        <time>2013-07-17T14:38:48Z</time>
      </trkpt>
      <trkpt lat="48.57572" lon="-0.40214">
        <ele>208.74340820312</ele>
        <time>2013-07-17T14:38:54Z</time>
      </trkpt>
      <trkpt lat="48.57592" lon="-0.40192">
        <ele>210.18542480469</ele>
        <time>2013-07-17T14:39:01Z</time>
      </trkpt>
      <trkpt lat="48.57605" lon="-0.40179">
        <ele>210.666015625</ele>
        <time>2013-07-17T14:39:06Z</time>
      </trkpt>
      <trkpt lat="48.57618" lon="-0.40165">
        <ele>212.10803222656</ele>
        <time>2013-07-17T14:39:11Z</time>
      </trkpt>
      <trkpt lat="48.57637" lon="-0.4014">
        <ele>213.0693359375</ele>
        <time>2013-07-17T14:39:19Z</time>
      </trkpt>
      <trkpt lat="48.57652" lon="-0.40123">
        <ele>213.55004882812</ele>
        <time>2013-07-17T14:39:25Z</time>
      </trkpt>
      <trkpt lat="48.57665" lon="-0.40107">
        <ele>214.99194335938</ele>
        <time>2013-07-17T14:39:31Z</time>
      </trkpt>
      <trkpt lat="48.57681" lon="-0.40089">
        <ele>215.95324707031</ele>
        <time>2013-07-17T14:39:38Z</time>
      </trkpt>
      <trkpt lat="48.57693" lon="-0.40075">
        <ele>217.39538574219</ele>
        <time>2013-07-17T14:39:44Z</time>
      </trkpt>
      <trkpt lat="48.57707" lon="-0.40059">
        <ele>218.35656738281</ele>
        <time>2013-07-17T14:39:51Z</time>
      </trkpt>
      <trkpt lat="48.57711" lon="-0.40054">
        <ele>218.35656738281</ele>
        <time>2013-07-17T14:39:55Z</time>
      </trkpt>
      <trkpt lat="48.57718" lon="-0.40054">
        <ele>218.83728027344</ele>
        <time>2013-07-17T14:40:57Z</time>
      </trkpt>
      <trkpt lat="48.57717" lon="-0.40055">
        <ele>217.39538574219</ele>
        <time>2013-07-17T14:40:58Z</time>
      </trkpt>
      <trkpt lat="48.57715" lon="-0.40057">
        <ele>221.72119140625</ele>
        <time>2013-07-17T14:40:59Z</time>
      </trkpt>
      <trkpt lat="48.57715" lon="-0.40057">
        <ele>216.91467285156</ele>
        <time>2013-07-17T14:41:00Z</time>
      </trkpt>
      <trkpt lat="48.57716" lon="-0.40053">
        <ele>219.31799316406</ele>
        <time>2013-07-17T14:41:11Z</time>
      </trkpt>
      <trkpt lat="48.57719" lon="-0.40048">
        <ele>220.27917480469</ele>
        <time>2013-07-17T14:41:13Z</time>
      </trkpt>
      <trkpt lat="48.57733" lon="-0.40033">
        <ele>221.72119140625</ele>
        <time>2013-07-17T14:41:20Z</time>
      </trkpt>
      <trkpt lat="48.57745" lon="-0.40019">
        <ele>222.20178222656</ele>
        <time>2013-07-17T14:41:26Z</time>
      </trkpt>
      <trkpt lat="48.57758" lon="-0.40003">
        <ele>223.64379882812</ele>
        <time>2013-07-17T14:41:32Z</time>
      </trkpt>
      <trkpt lat="48.57772" lon="-0.39985">
        <ele>224.12451171875</ele>
        <time>2013-07-17T14:41:39Z</time>
      </trkpt>
      <trkpt lat="48.57786" lon="-0.39967">
        <ele>226.04711914062</ele>
        <time>2013-07-17T14:41:46Z</time>
      </trkpt>
      <trkpt lat="48.57801" lon="-0.39947">
        <ele>227.00854492188</ele>
        <time>2013-07-17T14:41:54Z</time>
      </trkpt>
      <trkpt lat="48.57821" lon="-0.39922">
        <ele>227.9697265625</ele>
        <time>2013-07-17T14:42:04Z</time>
      </trkpt>
      <trkpt lat="48.57828" lon="-0.39913">
        <ele>228.45043945312</ele>
        <time>2013-07-17T14:42:09Z</time>
      </trkpt>
      <trkpt lat="48.57836" lon="-0.39902">
        <ele>229.41174316406</ele>
        <time>2013-07-17T14:42:14Z</time>
      </trkpt>
      <trkpt lat="48.5785" lon="-0.39887">
        <ele>230.373046875</ele>
        <time>2013-07-17T14:42:21Z</time>
      </trkpt>
      <trkpt lat="48.57862" lon="-0.3987">
        <ele>231.33435058594</ele>
        <time>2013-07-17T14:42:29Z</time>
      </trkpt>
      <trkpt lat="48.57872" lon="-0.39858">
        <ele>232.29577636719</ele>
        <time>2013-07-17T14:42:36Z</time>
      </trkpt>
      <trkpt lat="48.57882" lon="-0.39852">
        <ele>235.1796875</ele>
        <time>2013-07-17T14:42:44Z</time>
      </trkpt>
      <trkpt lat="48.57883" lon="-0.3985">
        <ele>235.1796875</ele>
        <time>2013-07-17T14:42:47Z</time>
      </trkpt>
      <trkpt lat="48.57886" lon="-0.39848">
        <ele>235.66027832031</ele>
        <time>2013-07-17T14:42:53Z</time>
      </trkpt>
      <trkpt lat="48.5789" lon="-0.39842">
        <ele>237.10229492188</ele>
        <time>2013-07-17T14:43:00Z</time>
      </trkpt>
      <trkpt lat="48.57893" lon="-0.39835">
        <ele>238.54431152344</ele>
        <time>2013-07-17T14:43:07Z</time>
      </trkpt>
      <trkpt lat="48.57893" lon="-0.39832">
        <ele>239.02490234375</ele>
        <time>2013-07-17T14:43:11Z</time>
      </trkpt>
      <trkpt lat="48.57893" lon="-0.39831">
        <ele>239.50549316406</ele>
        <time>2013-07-17T14:43:16Z</time>
      </trkpt>
      <trkpt lat="48.57899" lon="-0.39825">
        <ele>239.98620605469</ele>
        <time>2013-07-17T14:43:22Z</time>
      </trkpt>
      <trkpt lat="48.57903" lon="-0.39819">
        <ele>240.94763183594</ele>
        <time>2013-07-17T14:43:29Z</time>
      </trkpt>
      <trkpt lat="48.57904" lon="-0.39818">
        <ele>240.46704101562</ele>
        <time>2013-07-17T14:43:51Z</time>
      </trkpt>
      <trkpt lat="48.57905" lon="-0.39818">
        <ele>240.46704101562</ele>
        <time>2013-07-17T14:43:52Z</time>
      </trkpt>
      <trkpt lat="48.57905" lon="-0.39818">
        <ele>239.98620605469</ele>
        <time>2013-07-17T14:43:53Z</time>
      </trkpt>
      <trkpt lat="48.57906" lon="-0.39817">
        <ele>240.46704101562</ele>
        <time>2013-07-17T14:43:57Z</time>
      </trkpt>
      <trkpt lat="48.57906" lon="-0.39816">
        <ele>240.46704101562</ele>
        <time>2013-07-17T14:43:58Z</time>
      </trkpt>
      <trkpt lat="48.57907" lon="-0.39811">
        <ele>240.46704101562</ele>
        <time>2013-07-17T14:44:00Z</time>
      </trkpt>
      <trkpt lat="48.57903" lon="-0.39793">
        <ele>239.50549316406</ele>
        <time>2013-07-17T14:44:07Z</time>
      </trkpt>
      <trkpt lat="48.57892" lon="-0.39773">
        <ele>239.50549316406</ele>
        <time>2013-07-17T14:44:13Z</time>
      </trkpt>
      <trkpt lat="48.57883" lon="-0.39754">
        <ele>238.06359863281</ele>
        <time>2013-07-17T14:44:18Z</time>
      </trkpt>
      <trkpt lat="48.57874" lon="-0.39732">
        <ele>238.06359863281</ele>
        <time>2013-07-17T14:44:23Z</time>
      </trkpt>
      <trkpt lat="48.57863" lon="-0.39709">
        <ele>238.06359863281</ele>
        <time>2013-07-17T14:44:29Z</time>
      </trkpt>
      <trkpt lat="48.57853" lon="-0.39691">
        <ele>238.06359863281</ele>
        <time>2013-07-17T14:44:33Z</time>
      </trkpt>
      <trkpt lat="48.57845" lon="-0.39667">
        <ele>238.06359863281</ele>
        <time>2013-07-17T14:44:38Z</time>
      </trkpt>
      <trkpt lat="48.57842" lon="-0.39645">
        <ele>238.54431152344</ele>
        <time>2013-07-17T14:44:42Z</time>
      </trkpt>
      <trkpt lat="48.5784" lon="-0.39617">
        <ele>239.50549316406</ele>
        <time>2013-07-17T14:44:47Z</time>
      </trkpt>
      <trkpt lat="48.57834" lon="-0.39589">
        <ele>239.98620605469</ele>
        <time>2013-07-17T14:44:52Z</time>
      </trkpt>
      <trkpt lat="48.57825" lon="-0.39558">
        <ele>240.94763183594</ele>
        <time>2013-07-17T14:44:58Z</time>
      </trkpt>
      <trkpt lat="48.57811" lon="-0.39536">
        <ele>241.90893554688</ele>
        <time>2013-07-17T14:45:03Z</time>
      </trkpt>
      <trkpt lat="48.57797" lon="-0.39524">
        <ele>242.3896484375</ele>
        <time>2013-07-17T14:45:07Z</time>
      </trkpt>
      <trkpt lat="48.57788" lon="-0.39518">
        <ele>241.90893554688</ele>
        <time>2013-07-17T14:45:10Z</time>
      </trkpt>
      <trkpt lat="48.57781" lon="-0.3951">
        <ele>241.90893554688</ele>
        <time>2013-07-17T14:45:14Z</time>
      </trkpt>
      <trkpt lat="48.57767" lon="-0.39488">
        <ele>239.98620605469</ele>
        <time>2013-07-17T14:45:20Z</time>
      </trkpt>
      <trkpt lat="48.57758" lon="-0.39465">
        <ele>240.46704101562</ele>
        <time>2013-07-17T14:45:25Z</time>
      </trkpt>
      <trkpt lat="48.57745" lon="-0.39435">
        <ele>242.87023925781</ele>
        <time>2013-07-17T14:45:32Z</time>
      </trkpt>
      <trkpt lat="48.57737" lon="-0.39414">
        <ele>241.90893554688</ele>
        <time>2013-07-17T14:45:37Z</time>
      </trkpt>
      <trkpt lat="48.57729" lon="-0.3938">
        <ele>241.42822265625</ele>
        <time>2013-07-17T14:45:43Z</time>
      </trkpt>
      <trkpt lat="48.57721" lon="-0.39356">
        <ele>241.42822265625</ele>
        <time>2013-07-17T14:45:47Z</time>
      </trkpt>
      <trkpt lat="48.57714" lon="-0.39333">
        <ele>242.3896484375</ele>
        <time>2013-07-17T14:45:52Z</time>
      </trkpt>
      <trkpt lat="48.57705" lon="-0.3931">
        <ele>241.42822265625</ele>
        <time>2013-07-17T14:45:57Z</time>
      </trkpt>
      <trkpt lat="48.57696" lon="-0.39279">
        <ele>239.98620605469</ele>
        <time>2013-07-17T14:46:02Z</time>
      </trkpt>
      <trkpt lat="48.57692" lon="-0.39265">
        <ele>239.02490234375</ele>
        <time>2013-07-17T14:46:05Z</time>
      </trkpt>
      <trkpt lat="48.57679" lon="-0.39241">
        <ele>235.66027832031</ele>
        <time>2013-07-17T14:46:10Z</time>
      </trkpt>
      <trkpt lat="48.57672" lon="-0.39224">
        <ele>234.21838378906</ele>
        <time>2013-07-17T14:46:13Z</time>
      </trkpt>
      <trkpt lat="48.57668" lon="-0.39216">
        <ele>232.77648925781</ele>
        <time>2013-07-17T14:46:15Z</time>
      </trkpt>
      <trkpt lat="48.57663" lon="-0.39225">
        <ele>230.85375976562</ele>
        <time>2013-07-17T14:46:19Z</time>
      </trkpt>
      <trkpt lat="48.57662" lon="-0.39247">
        <ele>230.85375976562</ele>
        <time>2013-07-17T14:46:23Z</time>
      </trkpt>
      <trkpt lat="48.57658" lon="-0.39281">
        <ele>230.85375976562</ele>
        <time>2013-07-17T14:46:29Z</time>
      </trkpt>
      <trkpt lat="48.57654" lon="-0.39314">
        <ele>230.85375976562</ele>
        <time>2013-07-17T14:46:35Z</time>
      </trkpt>
      <trkpt lat="48.57654" lon="-0.39338">
        <ele>229.89233398438</ele>
        <time>2013-07-17T14:46:39Z</time>
      </trkpt>
      <trkpt lat="48.57654" lon="-0.39344">
        <ele>229.89233398438</ele>
        <time>2013-07-17T14:46:40Z</time>
      </trkpt>
      <trkpt lat="48.57658" lon="-0.39383">
        <ele>229.41174316406</ele>
        <time>2013-07-17T14:46:45Z</time>
      </trkpt>
      <trkpt lat="48.57669" lon="-0.3943">
        <ele>228.45043945312</ele>
        <time>2013-07-17T14:46:51Z</time>
      </trkpt>
      <trkpt lat="48.57671" lon="-0.39438">
        <ele>227.9697265625</ele>
        <time>2013-07-17T14:46:52Z</time>
      </trkpt>
      <trkpt lat="48.57681" lon="-0.39475">
        <ele>227.00854492188</ele>
        <time>2013-07-17T14:46:58Z</time>
      </trkpt>
      <trkpt lat="48.57685" lon="-0.39503">
        <ele>226.04711914062</ele>
        <time>2013-07-17T14:47:02Z</time>
      </trkpt>
      <trkpt lat="48.57691" lon="-0.3954">
        <ele>225.56652832031</ele>
        <time>2013-07-17T14:47:07Z</time>
      </trkpt>
      <trkpt lat="48.57697" lon="-0.39574">
        <ele>225.56652832031</ele>
        <time>2013-07-17T14:47:12Z</time>
      </trkpt>
      <trkpt lat="48.57706" lon="-0.39585">
        <ele>225.0859375</ele>
        <time>2013-07-17T14:47:14Z</time>
      </trkpt>
      <trkpt lat="48.57722" lon="-0.39603">
        <ele>226.04711914062</ele>
        <time>2013-07-17T14:47:18Z</time>
      </trkpt>
      <trkpt lat="48.5773" lon="-0.39627">
        <ele>226.52783203125</ele>
        <time>2013-07-17T14:47:24Z</time>
      </trkpt>
      <trkpt lat="48.57743" lon="-0.39654">
        <ele>227.00854492188</ele>
        <time>2013-07-17T14:47:29Z</time>
      </trkpt>
      <trkpt lat="48.57751" lon="-0.39673">
        <ele>227.48913574219</ele>
        <time>2013-07-17T14:47:33Z</time>
      </trkpt>
      <trkpt lat="48.57759" lon="-0.39704">
        <ele>227.9697265625</ele>
        <time>2013-07-17T14:47:38Z</time>
      </trkpt>
      <trkpt lat="48.57774" lon="-0.39742">
        <ele>228.45043945312</ele>
        <time>2013-07-17T14:47:44Z</time>
      </trkpt>
      <trkpt lat="48.57786" lon="-0.39754">
        <ele>228.93115234375</ele>
        <time>2013-07-17T14:47:47Z</time>
      </trkpt>
      <trkpt lat="48.57803" lon="-0.39778">
        <ele>229.89233398438</ele>
        <time>2013-07-17T14:47:55Z</time>
      </trkpt>
      <trkpt lat="48.57822" lon="-0.39799">
        <ele>230.85375976562</ele>
        <time>2013-07-17T14:48:01Z</time>
      </trkpt>
      <trkpt lat="48.57825" lon="-0.39802">
        <ele>230.85375976562</ele>
        <time>2013-07-17T14:48:02Z</time>
      </trkpt>
      <trkpt lat="48.57837" lon="-0.39815">
        <ele>231.33435058594</ele>
        <time>2013-07-17T14:48:08Z</time>
      </trkpt>
      <trkpt lat="48.57841" lon="-0.39828">
        <ele>231.33435058594</ele>
        <time>2013-07-17T14:48:12Z</time>
      </trkpt>
      <trkpt lat="48.57851" lon="-0.39848">
        <ele>231.81494140625</ele>
        <time>2013-07-17T14:48:17Z</time>
      </trkpt>
      <trkpt lat="48.57855" lon="-0.39866">
        <ele>231.81494140625</ele>
        <time>2013-07-17T14:48:22Z</time>
      </trkpt>
      <trkpt lat="48.57848" lon="-0.39881">
        <ele>230.373046875</ele>
        <time>2013-07-17T14:48:27Z</time>
      </trkpt>
      <trkpt lat="48.57845" lon="-0.39884">
        <ele>230.373046875</ele>
        <time>2013-07-17T14:48:28Z</time>
      </trkpt>
      <trkpt lat="48.57836" lon="-0.39897">
        <ele>229.89233398438</ele>
        <time>2013-07-17T14:48:31Z</time>
      </trkpt>
      <trkpt lat="48.57814" lon="-0.39924">
        <ele>228.45043945312</ele>
        <time>2013-07-17T14:48:36Z</time>
      </trkpt>
      <trkpt lat="48.57809" lon="-0.3993">
        <ele>227.9697265625</ele>
        <time>2013-07-17T14:48:37Z</time>
      </trkpt>
      <trkpt lat="48.57779" lon="-0.39969">
        <ele>226.04711914062</ele>
        <time>2013-07-17T14:48:43Z</time>
      </trkpt>
      <trkpt lat="48.57745" lon="-0.40009">
        <ele>223.16320800781</ele>
        <time>2013-07-17T14:48:49Z</time>
      </trkpt>
      <trkpt lat="48.57728" lon="-0.40032">
        <ele>221.24060058594</ele>
        <time>2013-07-17T14:48:52Z</time>
      </trkpt>
      <trkpt lat="48.57714" lon="-0.40048">
        <ele>220.75988769531</ele>
        <time>2013-07-17T14:48:54Z</time>
      </trkpt>
      <trkpt lat="48.57681" lon="-0.40087">
        <ele>217.8759765625</ele>
        <time>2013-07-17T14:48:59Z</time>
      </trkpt>
      <trkpt lat="48.57674" lon="-0.40095">
        <ele>217.39538574219</ele>
        <time>2013-07-17T14:49:00Z</time>
      </trkpt>
      <trkpt lat="48.57659" lon="-0.40112">
        <ele>216.43395996094</ele>
        <time>2013-07-17T14:49:02Z</time>
      </trkpt>
      <trkpt lat="48.57629" lon="-0.40148">
        <ele>214.03063964844</ele>
        <time>2013-07-17T14:49:06Z</time>
      </trkpt>
      <trkpt lat="48.57598" lon="-0.40192">
        <ele>212.10803222656</ele>
        <time>2013-07-17T14:49:11Z</time>
      </trkpt>
      <trkpt lat="48.57568" lon="-0.40229">
        <ele>210.18542480469</ele>
        <time>2013-07-17T14:49:16Z</time>
      </trkpt>
      <trkpt lat="48.57563" lon="-0.40235">
        <ele>210.18542480469</ele>
        <time>2013-07-17T14:49:17Z</time>
      </trkpt>
      <trkpt lat="48.57553" lon="-0.40231">
        <ele>210.18542480469</ele>
        <time>2013-07-17T14:49:20Z</time>
      </trkpt>
      <trkpt lat="48.57544" lon="-0.40204">
        <ele>210.666015625</ele>
        <time>2013-07-17T14:49:26Z</time>
      </trkpt>
      <trkpt lat="48.57526" lon="-0.40167">
        <ele>210.666015625</ele>
        <time>2013-07-17T14:49:33Z</time>
      </trkpt>
      <trkpt lat="48.57512" lon="-0.40142">
        <ele>211.14672851562</ele>
        <time>2013-07-17T14:49:37Z</time>
      </trkpt>
      <trkpt lat="48.57481" lon="-0.40086">
        <ele>210.666015625</ele>
        <time>2013-07-17T14:49:45Z</time>
      </trkpt>
      <trkpt lat="48.57455" lon="-0.40038">
        <ele>210.18542480469</ele>
        <time>2013-07-17T14:49:52Z</time>
      </trkpt>
      <trkpt lat="48.57426" lon="-0.39984">
        <ele>209.22412109375</ele>
        <time>2013-07-17T14:50:00Z</time>
      </trkpt>
      <trkpt lat="48.57405" lon="-0.39945">
        <ele>208.26281738281</ele>
        <time>2013-07-17T14:50:06Z</time>
      </trkpt>
      <trkpt lat="48.57392" lon="-0.39921">
        <ele>207.30139160156</ele>
        <time>2013-07-17T14:50:10Z</time>
      </trkpt>
      <trkpt lat="48.57372" lon="-0.39882">
        <ele>206.34008789062</ele>
        <time>2013-07-17T14:50:15Z</time>
      </trkpt>
      <trkpt lat="48.57359" lon="-0.39859">
        <ele>205.85949707031</ele>
        <time>2013-07-17T14:50:18Z</time>
      </trkpt>
      <trkpt lat="48.57349" lon="-0.39842">
        <ele>205.37878417969</ele>
        <time>2013-07-17T14:50:20Z</time>
      </trkpt>
      <trkpt lat="48.57315" lon="-0.39778">
        <ele>204.89807128906</ele>
        <time>2013-07-17T14:50:27Z</time>
      </trkpt>
      <trkpt lat="48.57288" lon="-0.39725">
        <ele>204.41748046875</ele>
        <time>2013-07-17T14:50:33Z</time>
      </trkpt>
      <trkpt lat="48.57269" lon="-0.3969">
        <ele>203.93688964844</ele>
        <time>2013-07-17T14:50:37Z</time>
      </trkpt>
      <trkpt lat="48.57243" lon="-0.39642">
        <ele>203.93688964844</ele>
        <time>2013-07-17T14:50:43Z</time>
      </trkpt>
      <trkpt lat="48.57228" lon="-0.39612">
        <ele>202.97546386719</ele>
        <time>2013-07-17T14:50:47Z</time>
      </trkpt>
      <trkpt lat="48.57208" lon="-0.39601">
        <ele>202.49487304688</ele>
        <time>2013-07-17T14:50:51Z</time>
      </trkpt>
      <trkpt lat="48.57197" lon="-0.39614">
        <ele>202.97546386719</ele>
        <time>2013-07-17T14:50:54Z</time>
      </trkpt>
      <trkpt lat="48.57194" lon="-0.39618">
        <ele>202.97546386719</ele>
        <time>2013-07-17T14:50:55Z</time>
      </trkpt>
      <trkpt lat="48.57177" lon="-0.39632">
        <ele>203.93688964844</ele>
        <time>2013-07-17T14:51:00Z</time>
      </trkpt>
      <trkpt lat="48.57161" lon="-0.39645">
        <ele>204.41748046875</ele>
        <time>2013-07-17T14:51:05Z</time>
      </trkpt>
      <trkpt lat="48.57142" lon="-0.39658">
        <ele>205.37878417969</ele>
        <time>2013-07-17T14:51:10Z</time>
      </trkpt>
      <trkpt lat="48.5713" lon="-0.39672">
        <ele>205.37878417969</ele>
        <time>2013-07-17T14:51:14Z</time>
      </trkpt>
      <trkpt lat="48.57125" lon="-0.39691">
        <ele>206.34008789062</ele>
        <time>2013-07-17T14:51:18Z</time>
      </trkpt>
      <trkpt lat="48.57124" lon="-0.39722">
        <ele>207.30139160156</ele>
        <time>2013-07-17T14:51:23Z</time>
      </trkpt>
      <trkpt lat="48.57118" lon="-0.39764">
        <ele>207.30139160156</ele>
        <time>2013-07-17T14:51:30Z</time>
      </trkpt>
      <trkpt lat="48.57111" lon="-0.39791">
        <ele>207.78210449219</ele>
        <time>2013-07-17T14:51:34Z</time>
      </trkpt>
      <trkpt lat="48.57102" lon="-0.39827">
        <ele>206.82067871094</ele>
        <time>2013-07-17T14:51:40Z</time>
      </trkpt>
      <trkpt lat="48.57099" lon="-0.39841">
        <ele>206.82067871094</ele>
        <time>2013-07-17T14:51:42Z</time>
      </trkpt>
      <trkpt lat="48.57091" lon="-0.39877">
        <ele>206.34008789062</ele>
        <time>2013-07-17T14:51:47Z</time>
      </trkpt>
      <trkpt lat="48.57088" lon="-0.39889">
        <ele>205.85949707031</ele>
        <time>2013-07-17T14:51:49Z</time>
      </trkpt>
      <trkpt lat="48.57071" lon="-0.39931">
        <ele>204.89807128906</ele>
        <time>2013-07-17T14:51:56Z</time>
      </trkpt>
      <trkpt lat="48.57062" lon="-0.39936">
        <ele>205.37878417969</ele>
        <time>2013-07-17T14:51:59Z</time>
      </trkpt>
      <trkpt lat="48.57051" lon="-0.39932">
        <ele>204.41748046875</ele>
        <time>2013-07-17T14:52:03Z</time>
      </trkpt>
      <trkpt lat="48.5704" lon="-0.39949">
        <ele>204.41748046875</ele>
        <time>2013-07-17T14:52:07Z</time>
      </trkpt>
      <trkpt lat="48.57025" lon="-0.39979">
        <ele>203.45617675781</ele>
        <time>2013-07-17T14:52:12Z</time>
      </trkpt>
      <trkpt lat="48.57017" lon="-0.39999">
        <ele>202.97546386719</ele>
        <time>2013-07-17T14:52:15Z</time>
      </trkpt>
      <trkpt lat="48.57009" lon="-0.40016">
        <ele>202.97546386719</ele>
        <time>2013-07-17T14:52:18Z</time>
      </trkpt>
      <trkpt lat="48.56987" lon="-0.40052">
        <ele>201.05285644531</ele>
        <time>2013-07-17T14:52:25Z</time>
      </trkpt>
      <trkpt lat="48.56965" lon="-0.40085">
        <ele>200.572265625</ele>
        <time>2013-07-17T14:52:31Z</time>
      </trkpt>
      <trkpt lat="48.56958" lon="-0.40096">
        <ele>200.09167480469</ele>
        <time>2013-07-17T14:52:33Z</time>
      </trkpt>
      <trkpt lat="48.56943" lon="-0.4012">
        <ele>199.61083984375</ele>
        <time>2013-07-17T14:52:39Z</time>
      </trkpt>
      <trkpt lat="48.5694" lon="-0.40133">
        <ele>199.13012695312</ele>
        <time>2013-07-17T14:52:43Z</time>
      </trkpt>
      <trkpt lat="48.56939" lon="-0.40143">
        <ele>199.13012695312</ele>
        <time>2013-07-17T14:52:47Z</time>
      </trkpt>
      <trkpt lat="48.56932" lon="-0.40166">
        <ele>200.09167480469</ele>
        <time>2013-07-17T14:52:53Z</time>
      </trkpt>
      <trkpt lat="48.56929" lon="-0.40184">
        <ele>200.09167480469</ele>
        <time>2013-07-17T14:52:57Z</time>
      </trkpt>
      <trkpt lat="48.5692" lon="-0.40207">
        <ele>200.09167480469</ele>
        <time>2013-07-17T14:53:02Z</time>
      </trkpt>
      <trkpt lat="48.56915" lon="-0.40219">
        <ele>200.09167480469</ele>
        <time>2013-07-17T14:53:05Z</time>
      </trkpt>
      <trkpt lat="48.56897" lon="-0.40241">
        <ele>201.05285644531</ele>
        <time>2013-07-17T14:53:12Z</time>
      </trkpt>
      <trkpt lat="48.56886" lon="-0.40261">
        <ele>201.53356933594</ele>
        <time>2013-07-17T14:53:19Z</time>
      </trkpt>
      <trkpt lat="48.56884" lon="-0.40263">
        <ele>200.572265625</ele>
        <time>2013-07-17T14:53:20Z</time>
      </trkpt>
      <trkpt lat="48.56884" lon="-0.40268">
        <ele>201.05285644531</ele>
        <time>2013-07-17T14:53:24Z</time>
      </trkpt>
      <trkpt lat="48.56884" lon="-0.40267">
        <ele>201.53356933594</ele>
        <time>2013-07-17T14:53:27Z</time>
      </trkpt>
      <trkpt lat="48.56885" lon="-0.4027">
        <ele>201.53356933594</ele>
        <time>2013-07-17T14:53:29Z</time>
      </trkpt>
      <trkpt lat="48.56886" lon="-0.40278">
        <ele>201.05285644531</ele>
        <time>2013-07-17T14:53:35Z</time>
      </trkpt>
      <trkpt lat="48.56884" lon="-0.40286">
        <ele>201.53356933594</ele>
        <time>2013-07-17T14:53:42Z</time>
      </trkpt>
      <trkpt lat="48.56883" lon="-0.40287">
        <ele>201.53356933594</ele>
        <time>2013-07-17T14:53:45Z</time>
      </trkpt>
      <trkpt lat="48.56882" lon="-0.4029">
        <ele>201.53356933594</ele>
        <time>2013-07-17T14:53:46Z</time>
      </trkpt>
      <trkpt lat="48.56874" lon="-0.40308">
        <ele>201.53356933594</ele>
        <time>2013-07-17T14:53:52Z</time>
      </trkpt>
      <trkpt lat="48.5687" lon="-0.4031">
        <ele>202.01428222656</ele>
        <time>2013-07-17T14:53:56Z</time>
      </trkpt>
      <trkpt lat="48.56865" lon="-0.40322">
        <ele>202.01428222656</ele>
        <time>2013-07-17T14:54:02Z</time>
      </trkpt>
      <trkpt lat="48.56863" lon="-0.40331">
        <ele>202.49487304688</ele>
        <time>2013-07-17T14:54:05Z</time>
      </trkpt>
      <trkpt lat="48.56857" lon="-0.40351">
        <ele>202.97546386719</ele>
        <time>2013-07-17T14:54:11Z</time>
      </trkpt>
      <trkpt lat="48.56856" lon="-0.40359">
        <ele>202.97546386719</ele>
        <time>2013-07-17T14:54:13Z</time>
      </trkpt>
      <trkpt lat="48.56848" lon="-0.40385">
        <ele>203.93688964844</ele>
        <time>2013-07-17T14:54:20Z</time>
      </trkpt>
      <trkpt lat="48.56843" lon="-0.40401">
        <ele>203.93688964844</ele>
        <time>2013-07-17T14:54:24Z</time>
      </trkpt>
      <trkpt lat="48.56833" lon="-0.40429">
        <ele>205.37878417969</ele>
        <time>2013-07-17T14:54:31Z</time>
      </trkpt>
      <trkpt lat="48.56825" lon="-0.40448">
        <ele>205.85949707031</ele>
        <time>2013-07-17T14:54:38Z</time>
      </trkpt>
      <trkpt lat="48.56828" lon="-0.40461">
        <ele>206.34008789062</ele>
        <time>2013-07-17T14:54:43Z</time>
      </trkpt>
      <trkpt lat="48.56838" lon="-0.40468">
        <ele>206.34008789062</ele>
        <time>2013-07-17T14:54:48Z</time>
      </trkpt>
      <trkpt lat="48.56841" lon="-0.4048">
        <ele>206.34008789062</ele>
        <time>2013-07-17T14:54:52Z</time>
      </trkpt>
      <trkpt lat="48.56832" lon="-0.40497">
        <ele>206.34008789062</ele>
        <time>2013-07-17T14:54:59Z</time>
      </trkpt>
      <trkpt lat="48.56824" lon="-0.40512">
        <ele>207.30139160156</ele>
        <time>2013-07-17T14:55:04Z</time>
      </trkpt>
      <trkpt lat="48.56824" lon="-0.40516">
        <ele>207.78210449219</ele>
        <time>2013-07-17T14:55:05Z</time>
      </trkpt>
      <trkpt lat="48.56817" lon="-0.40532">
        <ele>208.26281738281</ele>
        <time>2013-07-17T14:55:10Z</time>
      </trkpt>
      <trkpt lat="48.5681" lon="-0.40549">
        <ele>208.74340820312</ele>
        <time>2013-07-17T14:55:15Z</time>
      </trkpt>
      <trkpt lat="48.56799" lon="-0.40577">
        <ele>209.70483398438</ele>
        <time>2013-07-17T14:55:22Z</time>
      </trkpt>
      <trkpt lat="48.56792" lon="-0.40598">
        <ele>209.70483398438</ele>
        <time>2013-07-17T14:55:28Z</time>
      </trkpt>
      <trkpt lat="48.56784" lon="-0.4062">
        <ele>210.18542480469</ele>
        <time>2013-07-17T14:55:34Z</time>
      </trkpt>
      <trkpt lat="48.56777" lon="-0.40631">
        <ele>210.666015625</ele>
        <time>2013-07-17T14:55:40Z</time>
      </trkpt>
      <trkpt lat="48.56775" lon="-0.40633">
        <ele>210.666015625</ele>
        <time>2013-07-17T14:55:45Z</time>
      </trkpt>
      <trkpt lat="48.56774" lon="-0.40637">
        <ele>210.666015625</ele>
        <time>2013-07-17T14:55:49Z</time>
      </trkpt>
      <trkpt lat="48.56773" lon="-0.40649">
        <ele>210.666015625</ele>
        <time>2013-07-17T14:57:27Z</time>
      </trkpt>
      <trkpt lat="48.56768" lon="-0.40663">
        <ele>211.14672851562</ele>
        <time>2013-07-17T14:57:32Z</time>
      </trkpt>
      <trkpt lat="48.56761" lon="-0.40684">
        <ele>211.62744140625</ele>
        <time>2013-07-17T14:57:38Z</time>
      </trkpt>
      <trkpt lat="48.56752" lon="-0.40702">
        <ele>211.62744140625</ele>
        <time>2013-07-17T14:57:43Z</time>
      </trkpt>
      <trkpt lat="48.56742" lon="-0.40724">
        <ele>212.10803222656</ele>
        <time>2013-07-17T14:57:49Z</time>
      </trkpt>
      <trkpt lat="48.56728" lon="-0.40752">
        <ele>212.10803222656</ele>
        <time>2013-07-17T14:57:56Z</time>
      </trkpt>
      <trkpt lat="48.5672" lon="-0.40769">
        <ele>212.10803222656</ele>
        <time>2013-07-17T14:58:00Z</time>
      </trkpt>
      <trkpt lat="48.56712" lon="-0.40791">
        <ele>211.14672851562</ele>
        <time>2013-07-17T14:58:05Z</time>
      </trkpt>
      <trkpt lat="48.56704" lon="-0.40807">
        <ele>211.14672851562</ele>
        <time>2013-07-17T14:58:09Z</time>
      </trkpt>
      <trkpt lat="48.56692" lon="-0.40832">
        <ele>210.666015625</ele>
        <time>2013-07-17T14:58:15Z</time>
      </trkpt>
      <trkpt lat="48.56677" lon="-0.40863">
        <ele>209.70483398438</ele>
        <time>2013-07-17T14:58:21Z</time>
      </trkpt>
      <trkpt lat="48.56662" lon="-0.40896">
        <ele>208.74340820312</ele>
        <time>2013-07-17T14:58:26Z</time>
      </trkpt>
      <trkpt lat="48.56651" lon="-0.40917">
        <ele>207.30139160156</ele>
        <time>2013-07-17T14:58:29Z</time>
      </trkpt>
      <trkpt lat="48.56636" lon="-0.40955">
        <ele>203.93688964844</ele>
        <time>2013-07-17T14:58:33Z</time>
      </trkpt>
      <trkpt lat="48.56625" lon="-0.40984">
        <ele>202.49487304688</ele>
        <time>2013-07-17T14:58:36Z</time>
      </trkpt>
      <trkpt lat="48.5662" lon="-0.40999">
        <ele>201.53356933594</ele>
        <time>2013-07-17T14:58:38Z</time>
      </trkpt>
      <trkpt lat="48.56615" lon="-0.41018">
        <ele>200.09167480469</ele>
        <time>2013-07-17T14:58:42Z</time>
      </trkpt>
      <trkpt lat="48.56613" lon="-0.41022">
        <ele>199.61083984375</ele>
        <time>2013-07-17T14:58:45Z</time>
      </trkpt>
      <trkpt lat="48.56611" lon="-0.41025">
        <ele>200.09167480469</ele>
        <time>2013-07-17T14:58:49Z</time>
      </trkpt>
      <trkpt lat="48.56604" lon="-0.41042">
        <ele>199.61083984375</ele>
        <time>2013-07-17T14:58:54Z</time>
      </trkpt>
      <trkpt lat="48.56594" lon="-0.41059">
        <ele>200.09167480469</ele>
        <time>2013-07-17T14:59:01Z</time>
      </trkpt>
      <trkpt lat="48.56589" lon="-0.41072">
        <ele>200.572265625</ele>
        <time>2013-07-17T14:59:06Z</time>
      </trkpt>
      <trkpt lat="48.5658" lon="-0.41088">
        <ele>200.572265625</ele>
        <time>2013-07-17T14:59:12Z</time>
      </trkpt>
      <trkpt lat="48.56569" lon="-0.41114">
        <ele>200.572265625</ele>
        <time>2013-07-17T14:59:18Z</time>
      </trkpt>
      <trkpt lat="48.56559" lon="-0.41139">
        <ele>200.09167480469</ele>
        <time>2013-07-17T14:59:24Z</time>
      </trkpt>
      <trkpt lat="48.56548" lon="-0.41167">
        <ele>200.09167480469</ele>
        <time>2013-07-17T14:59:30Z</time>
      </trkpt>
      <trkpt lat="48.56536" lon="-0.41196">
        <ele>199.61083984375</ele>
        <time>2013-07-17T14:59:37Z</time>
      </trkpt>
      <trkpt lat="48.5653" lon="-0.41223">
        <ele>197.68823242188</ele>
        <time>2013-07-17T14:59:42Z</time>
      </trkpt>
      <trkpt lat="48.56524" lon="-0.41247">
        <ele>196.24633789062</ele>
        <time>2013-07-17T14:59:46Z</time>
      </trkpt>
      <trkpt lat="48.56512" lon="-0.41265">
        <ele>196.24633789062</ele>
        <time>2013-07-17T14:59:50Z</time>
      </trkpt>
      <trkpt lat="48.56501" lon="-0.41285">
        <ele>196.72692871094</ele>
        <time>2013-07-17T14:59:55Z</time>
      </trkpt>
      <trkpt lat="48.56495" lon="-0.41287">
        <ele>197.68823242188</ele>
        <time>2013-07-17T14:59:59Z</time>
      </trkpt>
      <trkpt lat="48.56493" lon="-0.41286">
        <ele>197.68823242188</ele>
        <time>2013-07-17T15:00:00Z</time>
      </trkpt>
      <trkpt lat="48.5649" lon="-0.41285">
        <ele>198.1689453125</ele>
        <time>2013-07-17T15:00:03Z</time>
      </trkpt>
      <trkpt lat="48.56483" lon="-0.41282">
        <ele>199.13012695312</ele>
        <time>2013-07-17T15:00:07Z</time>
      </trkpt>
      <trkpt lat="48.56476" lon="-0.41278">
        <ele>200.09167480469</ele>
        <time>2013-07-17T15:00:12Z</time>
      </trkpt>
      <trkpt lat="48.56467" lon="-0.41292">
        <ele>201.05285644531</ele>
        <time>2013-07-17T15:00:18Z</time>
      </trkpt>
      <trkpt lat="48.56463" lon="-0.413">
        <ele>201.05285644531</ele>
        <time>2013-07-17T15:00:21Z</time>
      </trkpt>
      <trkpt lat="48.56458" lon="-0.41307">
        <ele>201.53356933594</ele>
        <time>2013-07-17T15:00:26Z</time>
      </trkpt>
      <trkpt lat="48.56455" lon="-0.41315">
        <ele>202.01428222656</ele>
        <time>2013-07-17T15:00:30Z</time>
      </trkpt>
      <trkpt lat="48.56453" lon="-0.41313">
        <ele>202.01428222656</ele>
        <time>2013-07-17T15:00:32Z</time>
      </trkpt>
      <trkpt lat="48.56452" lon="-0.413">
        <ele>202.97546386719</ele>
        <time>2013-07-17T15:00:37Z</time>
      </trkpt>
      <trkpt lat="48.5645" lon="-0.41291">
        <ele>204.41748046875</ele>
        <time>2013-07-17T15:00:41Z</time>
      </trkpt>
      <trkpt lat="48.56446" lon="-0.41273">
        <ele>205.85949707031</ele>
        <time>2013-07-17T15:00:48Z</time>
      </trkpt>
      <trkpt lat="48.56446" lon="-0.41271">
        <ele>206.34008789062</ele>
        <time>2013-07-17T15:00:49Z</time>
      </trkpt>
      <trkpt lat="48.56444" lon="-0.41259">
        <ele>207.78210449219</ele>
        <time>2013-07-17T15:00:54Z</time>
      </trkpt>
      <trkpt lat="48.56441" lon="-0.41248">
        <ele>209.22412109375</ele>
        <time>2013-07-17T15:00:59Z</time>
      </trkpt>
      <trkpt lat="48.5644" lon="-0.41242">
        <ele>209.70483398438</ele>
        <time>2013-07-17T15:01:02Z</time>
      </trkpt>
      <trkpt lat="48.56432" lon="-0.41231">
        <ele>211.14672851562</ele>
        <time>2013-07-17T15:01:08Z</time>
      </trkpt>
      <trkpt lat="48.56423" lon="-0.41217">
        <ele>213.0693359375</ele>
        <time>2013-07-17T15:01:16Z</time>
      </trkpt>
      <trkpt lat="48.56418" lon="-0.41217">
        <ele>214.03063964844</ele>
        <time>2013-07-17T15:01:23Z</time>
      </trkpt>
      <trkpt lat="48.56414" lon="-0.41214">
        <ele>214.99194335938</ele>
        <time>2013-07-17T15:01:29Z</time>
      </trkpt>
      <trkpt lat="48.56409" lon="-0.41206">
        <ele>215.47265625</ele>
        <time>2013-07-17T15:01:35Z</time>
      </trkpt>
      <trkpt lat="48.56408" lon="-0.41203">
        <ele>215.95324707031</ele>
        <time>2013-07-17T15:01:37Z</time>
      </trkpt>
      <trkpt lat="48.56402" lon="-0.41198">
        <ele>215.95324707031</ele>
        <time>2013-07-17T15:01:41Z</time>
      </trkpt>
      <trkpt lat="48.56396" lon="-0.41183">
        <ele>216.91467285156</ele>
        <time>2013-07-17T15:01:48Z</time>
      </trkpt>
      <trkpt lat="48.56394" lon="-0.41178">
        <ele>217.39538574219</ele>
        <time>2013-07-17T15:01:51Z</time>
      </trkpt>
      <trkpt lat="48.56393" lon="-0.41176">
        <ele>216.91467285156</ele>
        <time>2013-07-17T15:01:54Z</time>
      </trkpt>
      <trkpt lat="48.56392" lon="-0.41156">
        <ele>215.95324707031</ele>
        <time>2013-07-17T15:01:57Z</time>
      </trkpt>
      <trkpt lat="48.56388" lon="-0.41137">
        <ele>215.95324707031</ele>
        <time>2013-07-17T15:02:01Z</time>
      </trkpt>
      <trkpt lat="48.56386" lon="-0.41122">
        <ele>216.43395996094</ele>
        <time>2013-07-17T15:02:04Z</time>
      </trkpt>
      <trkpt lat="48.5638" lon="-0.41106">
        <ele>216.91467285156</ele>
        <time>2013-07-17T15:02:08Z</time>
      </trkpt>
      <trkpt lat="48.56372" lon="-0.41088">
        <ele>217.39538574219</ele>
        <time>2013-07-17T15:02:12Z</time>
      </trkpt>
      <trkpt lat="48.56372" lon="-0.41058">
        <ele>215.47265625</ele>
        <time>2013-07-17T15:02:16Z</time>
      </trkpt>
      <trkpt lat="48.56376" lon="-0.41023">
        <ele>214.51123046875</ele>
        <time>2013-07-17T15:02:20Z</time>
      </trkpt>
      <trkpt lat="48.56382" lon="-0.40992">
        <ele>214.03063964844</ele>
        <time>2013-07-17T15:02:24Z</time>
      </trkpt>
      <trkpt lat="48.564" lon="-0.40975">
        <ele>213.0693359375</ele>
        <time>2013-07-17T15:02:28Z</time>
      </trkpt>
      <trkpt lat="48.56403" lon="-0.40973">
        <ele>213.0693359375</ele>
        <time>2013-07-17T15:02:29Z</time>
      </trkpt>
      <trkpt lat="48.56424" lon="-0.40964">
        <ele>212.10803222656</ele>
        <time>2013-07-17T15:02:35Z</time>
      </trkpt>
      <trkpt lat="48.56432" lon="-0.4096">
        <ele>211.14672851562</ele>
        <time>2013-07-17T15:02:37Z</time>
      </trkpt>
      <trkpt lat="48.56454" lon="-0.40949">
        <ele>209.70483398438</ele>
        <time>2013-07-17T15:02:42Z</time>
      </trkpt>
      <trkpt lat="48.56457" lon="-0.40936">
        <ele>209.70483398438</ele>
        <time>2013-07-17T15:02:45Z</time>
      </trkpt>
      <trkpt lat="48.56448" lon="-0.40923">
        <ele>210.18542480469</ele>
        <time>2013-07-17T15:02:49Z</time>
      </trkpt>
      <trkpt lat="48.56441" lon="-0.40918">
        <ele>210.666015625</ele>
        <time>2013-07-17T15:02:51Z</time>
      </trkpt>
      <trkpt lat="48.5643" lon="-0.40905">
        <ele>211.14672851562</ele>
        <time>2013-07-17T15:02:56Z</time>
      </trkpt>
      <trkpt lat="48.56415" lon="-0.40887">
        <ele>211.62744140625</ele>
        <time>2013-07-17T15:03:02Z</time>
      </trkpt>
      <trkpt lat="48.56399" lon="-0.40881">
        <ele>213.0693359375</ele>
        <time>2013-07-17T15:03:06Z</time>
      </trkpt>
      <trkpt lat="48.56386" lon="-0.40879">
        <ele>213.55004882812</ele>
        <time>2013-07-17T15:03:10Z</time>
      </trkpt>
      <trkpt lat="48.56368" lon="-0.40869">
        <ele>214.03063964844</ele>
        <time>2013-07-17T15:03:16Z</time>
      </trkpt>
      <trkpt lat="48.56358" lon="-0.40861">
        <ele>214.51123046875</ele>
        <time>2013-07-17T15:03:21Z</time>
      </trkpt>
      <trkpt lat="48.5635" lon="-0.40858">
        <ele>214.99194335938</ele>
        <time>2013-07-17T15:03:25Z</time>
      </trkpt>
      <trkpt lat="48.56335" lon="-0.40846">
        <ele>215.47265625</ele>
        <time>2013-07-17T15:03:31Z</time>
      </trkpt>
      <trkpt lat="48.56318" lon="-0.40826">
        <ele>214.99194335938</ele>
        <time>2013-07-17T15:03:37Z</time>
      </trkpt>
      <trkpt lat="48.56295" lon="-0.40803">
        <ele>215.47265625</ele>
        <time>2013-07-17T15:03:43Z</time>
      </trkpt>
      <trkpt lat="48.56282" lon="-0.40788">
        <ele>215.95324707031</ele>
        <time>2013-07-17T15:03:47Z</time>
      </trkpt>
      <trkpt lat="48.56271" lon="-0.4077">
        <ele>216.43395996094</ele>
        <time>2013-07-17T15:03:52Z</time>
      </trkpt>
      <trkpt lat="48.5626" lon="-0.40756">
        <ele>216.91467285156</ele>
        <time>2013-07-17T15:03:57Z</time>
      </trkpt>
      <trkpt lat="48.5625" lon="-0.40747">
        <ele>217.39538574219</ele>
        <time>2013-07-17T15:04:01Z</time>
      </trkpt>
      <trkpt lat="48.56239" lon="-0.4074">
        <ele>217.8759765625</ele>
        <time>2013-07-17T15:04:05Z</time>
      </trkpt>
      <trkpt lat="48.56221" lon="-0.40727">
        <ele>218.83728027344</ele>
        <time>2013-07-17T15:04:11Z</time>
      </trkpt>
      <trkpt lat="48.56206" lon="-0.40709">
        <ele>219.31799316406</ele>
        <time>2013-07-17T15:04:16Z</time>
      </trkpt>
      <trkpt lat="48.56189" lon="-0.40685">
        <ele>219.31799316406</ele>
        <time>2013-07-17T15:04:21Z</time>
      </trkpt>
      <trkpt lat="48.56168" lon="-0.40653">
        <ele>219.79858398438</ele>
        <time>2013-07-17T15:04:28Z</time>
      </trkpt>
      <trkpt lat="48.56157" lon="-0.40632">
        <ele>220.27917480469</ele>
        <time>2013-07-17T15:04:34Z</time>
      </trkpt>
      <trkpt lat="48.56142" lon="-0.40614">
        <ele>221.24060058594</ele>
        <time>2013-07-17T15:04:41Z</time>
      </trkpt>
      <trkpt lat="48.56127" lon="-0.40598">
        <ele>222.20178222656</ele>
        <time>2013-07-17T15:04:46Z</time>
      </trkpt>
      <trkpt lat="48.56115" lon="-0.40588">
        <ele>223.16320800781</ele>
        <time>2013-07-17T15:04:50Z</time>
      </trkpt>
      <trkpt lat="48.56097" lon="-0.4058">
        <ele>224.12451171875</ele>
        <time>2013-07-17T15:04:55Z</time>
      </trkpt>
      <trkpt lat="48.56079" lon="-0.40578">
        <ele>224.60522460938</ele>
        <time>2013-07-17T15:05:00Z</time>
      </trkpt>
      <trkpt lat="48.56063" lon="-0.40577">
        <ele>225.0859375</ele>
        <time>2013-07-17T15:05:05Z</time>
      </trkpt>
      <trkpt lat="48.56047" lon="-0.40574">
        <ele>225.56652832031</ele>
        <time>2013-07-17T15:05:10Z</time>
      </trkpt>
      <trkpt lat="48.5603" lon="-0.40563">
        <ele>225.56652832031</ele>
        <time>2013-07-17T15:05:16Z</time>
      </trkpt>
      <trkpt lat="48.56016" lon="-0.40557">
        <ele>226.04711914062</ele>
        <time>2013-07-17T15:05:21Z</time>
      </trkpt>
      <trkpt lat="48.55989" lon="-0.40545">
        <ele>225.56652832031</ele>
        <time>2013-07-17T15:05:28Z</time>
      </trkpt>
      <trkpt lat="48.55972" lon="-0.40543">
        <ele>226.04711914062</ele>
        <time>2013-07-17T15:05:33Z</time>
      </trkpt>
      <trkpt lat="48.55957" lon="-0.40543">
        <ele>226.04711914062</ele>
        <time>2013-07-17T15:05:38Z</time>
      </trkpt>
      <trkpt lat="48.5594" lon="-0.40545">
        <ele>226.52783203125</ele>
        <time>2013-07-17T15:05:44Z</time>
      </trkpt>
      <trkpt lat="48.55927" lon="-0.40545">
        <ele>226.04711914062</ele>
        <time>2013-07-17T15:05:49Z</time>
      </trkpt>
      <trkpt lat="48.55913" lon="-0.40535">
        <ele>226.04711914062</ele>
        <time>2013-07-17T15:05:54Z</time>
      </trkpt>
      <trkpt lat="48.55911" lon="-0.40516">
        <ele>225.0859375</ele>
        <time>2013-07-17T15:05:59Z</time>
      </trkpt>
      <trkpt lat="48.5591" lon="-0.40489">
        <ele>225.0859375</ele>
        <time>2013-07-17T15:06:03Z</time>
      </trkpt>
      <trkpt lat="48.55914" lon="-0.40474">
        <ele>225.0859375</ele>
        <time>2013-07-17T15:06:05Z</time>
      </trkpt>
      <trkpt lat="48.55924" lon="-0.40446">
        <ele>224.60522460938</ele>
        <time>2013-07-17T15:06:09Z</time>
      </trkpt>
      <trkpt lat="48.5593" lon="-0.40428">
        <ele>224.12451171875</ele>
        <time>2013-07-17T15:06:14Z</time>
      </trkpt>
      <trkpt lat="48.55924" lon="-0.40421">
        <ele>224.12451171875</ele>
        <time>2013-07-17T15:06:16Z</time>
      </trkpt>
      <trkpt lat="48.55908" lon="-0.40402">
        <ele>223.16320800781</ele>
        <time>2013-07-17T15:06:22Z</time>
      </trkpt>
      <trkpt lat="48.55891" lon="-0.40382">
        <ele>222.68249511719</ele>
        <time>2013-07-17T15:06:27Z</time>
      </trkpt>
      <trkpt lat="48.55876" lon="-0.40363">
        <ele>222.20178222656</ele>
        <time>2013-07-17T15:06:32Z</time>
      </trkpt>
      <trkpt lat="48.5587" lon="-0.40345">
        <ele>221.72119140625</ele>
        <time>2013-07-17T15:06:36Z</time>
      </trkpt>
      <trkpt lat="48.55867" lon="-0.40324">
        <ele>221.24060058594</ele>
        <time>2013-07-17T15:06:42Z</time>
      </trkpt>
      <trkpt lat="48.55861" lon="-0.40313">
        <ele>220.75988769531</ele>
        <time>2013-07-17T15:06:46Z</time>
      </trkpt>
      <trkpt lat="48.55857" lon="-0.40307">
        <ele>220.75988769531</ele>
        <time>2013-07-17T15:06:48Z</time>
      </trkpt>
      <trkpt lat="48.55844" lon="-0.40299">
        <ele>220.27917480469</ele>
        <time>2013-07-17T15:06:53Z</time>
      </trkpt>
      <trkpt lat="48.55822" lon="-0.40285">
        <ele>219.31799316406</ele>
        <time>2013-07-17T15:07:00Z</time>
      </trkpt>
      <trkpt lat="48.55807" lon="-0.40279">
        <ele>218.83728027344</ele>
        <time>2013-07-17T15:07:05Z</time>
      </trkpt>
      <trkpt lat="48.55791" lon="-0.4027">
        <ele>218.83728027344</ele>
        <time>2013-07-17T15:07:10Z</time>
      </trkpt>
      <trkpt lat="48.55785" lon="-0.40267">
        <ele>218.35656738281</ele>
        <time>2013-07-17T15:07:12Z</time>
      </trkpt>
      <trkpt lat="48.55772" lon="-0.40278">
        <ele>218.35656738281</ele>
        <time>2013-07-17T15:07:16Z</time>
      </trkpt>
      <trkpt lat="48.55759" lon="-0.40314">
        <ele>217.39538574219</ele>
        <time>2013-07-17T15:07:24Z</time>
      </trkpt>
      <trkpt lat="48.5575" lon="-0.40339">
        <ele>217.39538574219</ele>
        <time>2013-07-17T15:07:29Z</time>
      </trkpt>
      <trkpt lat="48.55735" lon="-0.40383">
        <ele>216.91467285156</ele>
        <time>2013-07-17T15:07:37Z</time>
      </trkpt>
      <trkpt lat="48.55727" lon="-0.40405">
        <ele>216.43395996094</ele>
        <time>2013-07-17T15:07:41Z</time>
      </trkpt>
      <trkpt lat="48.55724" lon="-0.40417">
        <ele>216.43395996094</ele>
        <time>2013-07-17T15:07:43Z</time>
      </trkpt>
      <trkpt lat="48.55708" lon="-0.40461">
        <ele>214.99194335938</ele>
        <time>2013-07-17T15:07:50Z</time>
      </trkpt>
      <trkpt lat="48.55693" lon="-0.40506">
        <ele>214.51123046875</ele>
        <time>2013-07-17T15:07:56Z</time>
      </trkpt>
      <trkpt lat="48.55687" lon="-0.40521">
        <ele>213.55004882812</ele>
        <time>2013-07-17T15:07:58Z</time>
      </trkpt>
      <trkpt lat="48.5567" lon="-0.40572">
        <ele>213.0693359375</ele>
        <time>2013-07-17T15:08:04Z</time>
      </trkpt>
      <trkpt lat="48.55661" lon="-0.40618">
        <ele>211.62744140625</ele>
        <time>2013-07-17T15:08:09Z</time>
      </trkpt>
      <trkpt lat="48.55654" lon="-0.40654">
        <ele>211.14672851562</ele>
        <time>2013-07-17T15:08:13Z</time>
      </trkpt>
      <trkpt lat="48.55649" lon="-0.40673">
        <ele>211.62744140625</ele>
        <time>2013-07-17T15:08:15Z</time>
      </trkpt>
      <trkpt lat="48.55645" lon="-0.40719">
        <ele>210.18542480469</ele>
        <time>2013-07-17T15:08:21Z</time>
      </trkpt>
      <trkpt lat="48.55643" lon="-0.40736">
        <ele>209.70483398438</ele>
        <time>2013-07-17T15:08:24Z</time>
      </trkpt>
      <trkpt lat="48.55642" lon="-0.40734">
        <ele>210.18542480469</ele>
        <time>2013-07-17T15:08:28Z</time>
      </trkpt>
      <trkpt lat="48.55643" lon="-0.40726">
        <ele>210.18542480469</ele>
        <time>2013-07-17T15:08:33Z</time>
      </trkpt>
      <trkpt lat="48.55638" lon="-0.40721">
        <ele>210.18542480469</ele>
        <time>2013-07-17T15:08:46Z</time>
      </trkpt>
      <trkpt lat="48.55639" lon="-0.40718">
        <ele>210.18542480469</ele>
        <time>2013-07-17T15:08:47Z</time>
      </trkpt>
      <trkpt lat="48.55637" lon="-0.40704">
        <ele>210.666015625</ele>
        <time>2013-07-17T15:08:53Z</time>
      </trkpt>
      <trkpt lat="48.55634" lon="-0.40691">
        <ele>210.18542480469</ele>
        <time>2013-07-17T15:08:57Z</time>
      </trkpt>
      <trkpt lat="48.55635" lon="-0.40668">
        <ele>210.666015625</ele>
        <time>2013-07-17T15:09:04Z</time>
      </trkpt>
      <trkpt lat="48.55634" lon="-0.40655">
        <ele>210.666015625</ele>
        <time>2013-07-17T15:09:08Z</time>
      </trkpt>
      <trkpt lat="48.55635" lon="-0.40644">
        <ele>210.18542480469</ele>
        <time>2013-07-17T15:09:11Z</time>
      </trkpt>
      <trkpt lat="48.55634" lon="-0.40623">
        <ele>210.666015625</ele>
        <time>2013-07-17T15:09:16Z</time>
      </trkpt>
      <trkpt lat="48.55624" lon="-0.40623">
        <ele>210.18542480469</ele>
        <time>2013-07-17T15:09:20Z</time>
      </trkpt>
      <trkpt lat="48.55604" lon="-0.40625">
        <ele>208.74340820312</ele>
        <time>2013-07-17T15:09:25Z</time>
      </trkpt>
      <trkpt lat="48.55587" lon="-0.40632">
        <ele>208.74340820312</ele>
        <time>2013-07-17T15:09:29Z</time>
      </trkpt>
      <trkpt lat="48.55576" lon="-0.40633">
        <ele>208.26281738281</ele>
        <time>2013-07-17T15:09:31Z</time>
      </trkpt>
      <trkpt lat="48.55549" lon="-0.40639">
        <ele>206.82067871094</ele>
        <time>2013-07-17T15:09:36Z</time>
      </trkpt>
      <trkpt lat="48.55517" lon="-0.40645">
        <ele>207.30139160156</ele>
        <time>2013-07-17T15:09:42Z</time>
      </trkpt>
      <trkpt lat="48.5551" lon="-0.40641">
        <ele>207.78210449219</ele>
        <time>2013-07-17T15:09:44Z</time>
      </trkpt>
      <trkpt lat="48.55503" lon="-0.40642">
        <ele>207.30139160156</ele>
        <time>2013-07-17T15:09:48Z</time>
      </trkpt>
      <trkpt lat="48.55489" lon="-0.40647">
        <ele>207.30139160156</ele>
        <time>2013-07-17T15:09:55Z</time>
      </trkpt>
      <trkpt lat="48.55484" lon="-0.4065">
        <ele>207.78210449219</ele>
        <time>2013-07-17T15:10:00Z</time>
      </trkpt>
      <trkpt lat="48.55475" lon="-0.40657">
        <ele>207.78210449219</ele>
        <time>2013-07-17T15:10:04Z</time>
      </trkpt>
      <trkpt lat="48.55462" lon="-0.40665">
        <ele>206.34008789062</ele>
        <time>2013-07-17T15:10:09Z</time>
      </trkpt>
      <trkpt lat="48.55455" lon="-0.40665">
        <ele>206.82067871094</ele>
        <time>2013-07-17T15:10:12Z</time>
      </trkpt>
      <trkpt lat="48.55447" lon="-0.40662">
        <ele>207.30139160156</ele>
        <time>2013-07-17T15:10:16Z</time>
      </trkpt>
      <trkpt lat="48.55447" lon="-0.40651">
        <ele>206.82067871094</ele>
        <time>2013-07-17T15:10:20Z</time>
      </trkpt>
      <trkpt lat="48.55456" lon="-0.40612">
        <ele>206.34008789062</ele>
        <time>2013-07-17T15:10:27Z</time>
      </trkpt>
      <trkpt lat="48.55468" lon="-0.40567">
        <ele>205.37878417969</ele>
        <time>2013-07-17T15:10:34Z</time>
      </trkpt>
      <trkpt lat="48.55475" lon="-0.40534">
        <ele>205.37878417969</ele>
        <time>2013-07-17T15:10:39Z</time>
      </trkpt>
      <trkpt lat="48.55484" lon="-0.40493">
        <ele>205.85949707031</ele>
        <time>2013-07-17T15:10:45Z</time>
      </trkpt>
      <trkpt lat="48.55488" lon="-0.40478">
        <ele>205.37878417969</ele>
        <time>2013-07-17T15:10:47Z</time>
      </trkpt>
      <trkpt lat="48.55498" lon="-0.40435">
        <ele>204.89807128906</ele>
        <time>2013-07-17T15:10:53Z</time>
      </trkpt>
      <trkpt lat="48.55506" lon="-0.40412">
        <ele>205.37878417969</ele>
        <time>2013-07-17T15:10:57Z</time>
      </trkpt>
      <trkpt lat="48.55515" lon="-0.40374">
        <ele>205.37878417969</ele>
        <time>2013-07-17T15:11:02Z</time>
      </trkpt>
      <trkpt lat="48.55517" lon="-0.40366">
        <ele>205.37878417969</ele>
        <time>2013-07-17T15:11:03Z</time>
      </trkpt>
      <trkpt lat="48.55534" lon="-0.40293">
        <ele>205.85949707031</ele>
        <time>2013-07-17T15:11:12Z</time>
      </trkpt>
      <trkpt lat="48.55539" lon="-0.40265">
        <ele>206.34008789062</ele>
        <time>2013-07-17T15:11:17Z</time>
      </trkpt>
      <trkpt lat="48.55544" lon="-0.40234">
        <ele>206.82067871094</ele>
        <time>2013-07-17T15:11:24Z</time>
      </trkpt>
      <trkpt lat="48.55546" lon="-0.40221">
        <ele>207.30139160156</ele>
        <time>2013-07-17T15:11:31Z</time>
      </trkpt>
      <trkpt lat="48.55546" lon="-0.4022">
        <ele>207.30139160156</ele>
        <time>2013-07-17T15:11:33Z</time>
      </trkpt>
      <trkpt lat="48.55542" lon="-0.40213">
        <ele>207.30139160156</ele>
        <time>2013-07-17T15:12:01Z</time>
      </trkpt>
      <trkpt lat="48.55542" lon="-0.40214">
        <ele>207.78210449219</ele>
        <time>2013-07-17T15:12:02Z</time>
      </trkpt>
      <trkpt lat="48.5554" lon="-0.40209">
        <ele>207.30139160156</ele>
        <time>2013-07-17T15:12:12Z</time>
      </trkpt>
      <trkpt lat="48.5554" lon="-0.40205">
        <ele>207.30139160156</ele>
        <time>2013-07-17T15:12:14Z</time>
      </trkpt>
      <trkpt lat="48.55548" lon="-0.40189">
        <ele>207.30139160156</ele>
        <time>2013-07-17T15:12:20Z</time>
      </trkpt>
      <trkpt lat="48.55554" lon="-0.40153">
        <ele>207.30139160156</ele>
        <time>2013-07-17T15:12:27Z</time>
      </trkpt>
      <trkpt lat="48.55555" lon="-0.40132">
        <ele>207.78210449219</ele>
        <time>2013-07-17T15:12:32Z</time>
      </trkpt>
      <trkpt lat="48.55552" lon="-0.40114">
        <ele>207.78210449219</ele>
        <time>2013-07-17T15:12:36Z</time>
      </trkpt>
      <trkpt lat="48.55538" lon="-0.40103">
        <ele>207.30139160156</ele>
        <time>2013-07-17T15:12:42Z</time>
      </trkpt>
      <trkpt lat="48.55527" lon="-0.40101">
        <ele>207.30139160156</ele>
        <time>2013-07-17T15:12:48Z</time>
      </trkpt>
      <trkpt lat="48.55516" lon="-0.40097">
        <ele>207.78210449219</ele>
        <time>2013-07-17T15:12:53Z</time>
      </trkpt>
      <trkpt lat="48.55495" lon="-0.40082">
        <ele>208.74340820312</ele>
        <time>2013-07-17T15:12:59Z</time>
      </trkpt>
      <trkpt lat="48.55479" lon="-0.40073">
        <ele>208.74340820312</ele>
        <time>2013-07-17T15:13:04Z</time>
      </trkpt>
      <trkpt lat="48.55459" lon="-0.40062">
        <ele>209.70483398438</ele>
        <time>2013-07-17T15:13:10Z</time>
      </trkpt>
      <trkpt lat="48.55445" lon="-0.40052">
        <ele>212.10803222656</ele>
        <time>2013-07-17T15:13:16Z</time>
      </trkpt>
      <trkpt lat="48.55435" lon="-0.40047">
        <ele>214.03063964844</ele>
        <time>2013-07-17T15:13:23Z</time>
      </trkpt>
      <trkpt lat="48.55423" lon="-0.4004">
        <ele>214.99194335938</ele>
        <time>2013-07-17T15:13:30Z</time>
      </trkpt>
      <trkpt lat="48.55409" lon="-0.40034">
        <ele>216.43395996094</ele>
        <time>2013-07-17T15:13:37Z</time>
      </trkpt>
      <trkpt lat="48.554" lon="-0.40029">
        <ele>217.8759765625</ele>
        <time>2013-07-17T15:13:43Z</time>
      </trkpt>
      <trkpt lat="48.5539" lon="-0.40024">
        <ele>218.83728027344</ele>
        <time>2013-07-17T15:13:49Z</time>
      </trkpt>
      <trkpt lat="48.55377" lon="-0.40017">
        <ele>219.31799316406</ele>
        <time>2013-07-17T15:13:56Z</time>
      </trkpt>
      <trkpt lat="48.55367" lon="-0.40013">
        <ele>220.75988769531</ele>
        <time>2013-07-17T15:14:02Z</time>
      </trkpt>
      <trkpt lat="48.55358" lon="-0.40009">
        <ele>221.24060058594</ele>
        <time>2013-07-17T15:14:07Z</time>
      </trkpt>
      <trkpt lat="48.55348" lon="-0.40006">
        <ele>221.72119140625</ele>
        <time>2013-07-17T15:14:13Z</time>
      </trkpt>
      <trkpt lat="48.55341" lon="-0.40002">
        <ele>222.68249511719</ele>
        <time>2013-07-17T15:14:17Z</time>
      </trkpt>
      <trkpt lat="48.55331" lon="-0.39998">
        <ele>222.68249511719</ele>
        <time>2013-07-17T15:14:22Z</time>
      </trkpt>
      <trkpt lat="48.55324" lon="-0.39995">
        <ele>223.16320800781</ele>
        <time>2013-07-17T15:14:26Z</time>
      </trkpt>
      <trkpt lat="48.55309" lon="-0.39986">
        <ele>223.64379882812</ele>
        <time>2013-07-17T15:14:32Z</time>
      </trkpt>
      <trkpt lat="48.55297" lon="-0.3998">
        <ele>224.12451171875</ele>
        <time>2013-07-17T15:14:37Z</time>
      </trkpt>
      <trkpt lat="48.55282" lon="-0.39969">
        <ele>224.60522460938</ele>
        <time>2013-07-17T15:14:42Z</time>
      </trkpt>
      <trkpt lat="48.55265" lon="-0.39959">
        <ele>224.60522460938</ele>
        <time>2013-07-17T15:14:47Z</time>
      </trkpt>
      <trkpt lat="48.55247" lon="-0.39949">
        <ele>225.0859375</ele>
        <time>2013-07-17T15:14:53Z</time>
      </trkpt>
      <trkpt lat="48.55227" lon="-0.39938">
        <ele>224.60522460938</ele>
        <time>2013-07-17T15:14:59Z</time>
      </trkpt>
      <trkpt lat="48.55207" lon="-0.39926">
        <ele>225.56652832031</ele>
        <time>2013-07-17T15:15:05Z</time>
      </trkpt>
      <trkpt lat="48.55191" lon="-0.39916">
        <ele>225.56652832031</ele>
        <time>2013-07-17T15:15:11Z</time>
      </trkpt>
      <trkpt lat="48.55173" lon="-0.39908">
        <ele>225.0859375</ele>
        <time>2013-07-17T15:15:17Z</time>
      </trkpt>
      <trkpt lat="48.55169" lon="-0.39903">
        <ele>225.0859375</ele>
        <time>2013-07-17T15:15:19Z</time>
      </trkpt>
      <trkpt lat="48.55158" lon="-0.39908">
        <ele>224.60522460938</ele>
        <time>2013-07-17T15:15:24Z</time>
      </trkpt>
      <trkpt lat="48.55151" lon="-0.39906">
        <ele>224.60522460938</ele>
        <time>2013-07-17T15:15:29Z</time>
      </trkpt>
      <trkpt lat="48.5514" lon="-0.39892">
        <ele>224.60522460938</ele>
        <time>2013-07-17T15:15:35Z</time>
      </trkpt>
      <trkpt lat="48.55135" lon="-0.39888">
        <ele>224.12451171875</ele>
        <time>2013-07-17T15:15:37Z</time>
      </trkpt>
      <trkpt lat="48.5513" lon="-0.39881">
        <ele>224.12451171875</ele>
        <time>2013-07-17T15:15:42Z</time>
      </trkpt>
      <trkpt lat="48.5512" lon="-0.39865">
        <ele>225.0859375</ele>
        <time>2013-07-17T15:15:48Z</time>
      </trkpt>
      <trkpt lat="48.55112" lon="-0.39852">
        <ele>225.0859375</ele>
        <time>2013-07-17T15:15:53Z</time>
      </trkpt>
      <trkpt lat="48.55108" lon="-0.39844">
        <ele>225.0859375</ele>
        <time>2013-07-17T15:15:56Z</time>
      </trkpt>
      <trkpt lat="48.551" lon="-0.39824">
        <ele>225.0859375</ele>
        <time>2013-07-17T15:16:02Z</time>
      </trkpt>
      <trkpt lat="48.55091" lon="-0.398">
        <ele>225.56652832031</ele>
        <time>2013-07-17T15:16:08Z</time>
      </trkpt>
      <trkpt lat="48.55087" lon="-0.39793">
        <ele>225.56652832031</ele>
        <time>2013-07-17T15:16:10Z</time>
      </trkpt>
      <trkpt lat="48.5508" lon="-0.39771">
        <ele>225.56652832031</ele>
        <time>2013-07-17T15:16:16Z</time>
      </trkpt>
      <trkpt lat="48.55076" lon="-0.39752">
        <ele>225.56652832031</ele>
        <time>2013-07-17T15:16:21Z</time>
      </trkpt>
      <trkpt lat="48.55071" lon="-0.3974">
        <ele>225.56652832031</ele>
        <time>2013-07-17T15:16:26Z</time>
      </trkpt>
      <trkpt lat="48.55064" lon="-0.39722">
        <ele>225.56652832031</ele>
        <time>2013-07-17T15:16:31Z</time>
      </trkpt>
      <trkpt lat="48.55057" lon="-0.39704">
        <ele>225.56652832031</ele>
        <time>2013-07-17T15:16:36Z</time>
      </trkpt>
      <trkpt lat="48.55056" lon="-0.39698">
        <ele>225.56652832031</ele>
        <time>2013-07-17T15:16:38Z</time>
      </trkpt>
      <trkpt lat="48.55044" lon="-0.39695">
        <ele>225.56652832031</ele>
        <time>2013-07-17T15:16:43Z</time>
      </trkpt>
      <trkpt lat="48.55028" lon="-0.39703">
        <ele>226.04711914062</ele>
        <time>2013-07-17T15:16:49Z</time>
      </trkpt>
      <trkpt lat="48.55016" lon="-0.39715">
        <ele>226.04711914062</ele>
        <time>2013-07-17T15:16:53Z</time>
      </trkpt>
      <trkpt lat="48.55005" lon="-0.3973">
        <ele>225.56652832031</ele>
        <time>2013-07-17T15:16:57Z</time>
      </trkpt>
      <trkpt lat="48.54997" lon="-0.39743">
        <ele>225.0859375</ele>
        <time>2013-07-17T15:17:01Z</time>
      </trkpt>
      <trkpt lat="48.54985" lon="-0.39758">
        <ele>224.60522460938</ele>
        <time>2013-07-17T15:17:06Z</time>
      </trkpt>
      <trkpt lat="48.54976" lon="-0.39768">
        <ele>224.60522460938</ele>
        <time>2013-07-17T15:17:10Z</time>
      </trkpt>
      <trkpt lat="48.54961" lon="-0.39779">
        <ele>223.64379882812</ele>
        <time>2013-07-17T15:17:15Z</time>
      </trkpt>
      <trkpt lat="48.54953" lon="-0.39782">
        <ele>223.16320800781</ele>
        <time>2013-07-17T15:17:17Z</time>
      </trkpt>
      <trkpt lat="48.54926" lon="-0.39795">
        <ele>219.79858398438</ele>
        <time>2013-07-17T15:17:22Z</time>
      </trkpt>
      <trkpt lat="48.54909" lon="-0.39815">
        <ele>218.83728027344</ele>
        <time>2013-07-17T15:17:26Z</time>
      </trkpt>
      <trkpt lat="48.54909" lon="-0.39822">
        <ele>218.83728027344</ele>
        <time>2013-07-17T15:17:27Z</time>
      </trkpt>
      <trkpt lat="48.54914" lon="-0.39848">
        <ele>218.83728027344</ele>
        <time>2013-07-17T15:17:32Z</time>
      </trkpt>
      <trkpt lat="48.54919" lon="-0.39857">
        <ele>218.35656738281</ele>
        <time>2013-07-17T15:17:34Z</time>
      </trkpt>
      <trkpt lat="48.5493" lon="-0.39878">
        <ele>217.8759765625</ele>
        <time>2013-07-17T15:17:39Z</time>
      </trkpt>
      <trkpt lat="48.5494" lon="-0.39898">
        <ele>217.39538574219</ele>
        <time>2013-07-17T15:17:43Z</time>
      </trkpt>
      <trkpt lat="48.54947" lon="-0.39914">
        <ele>216.91467285156</ele>
        <time>2013-07-17T15:17:46Z</time>
      </trkpt>
      <trkpt lat="48.54936" lon="-0.39938">
        <ele>213.55004882812</ele>
        <time>2013-07-17T15:17:50Z</time>
      </trkpt>
      <trkpt lat="48.54918" lon="-0.39986">
        <ele>210.18542480469</ele>
        <time>2013-07-17T15:17:55Z</time>
      </trkpt>
      <trkpt lat="48.54908" lon="-0.40021">
        <ele>207.30139160156</ele>
        <time>2013-07-17T15:17:58Z</time>
      </trkpt>
      <trkpt lat="48.54896" lon="-0.40053">
        <ele>206.82067871094</ele>
        <time>2013-07-17T15:18:01Z</time>
      </trkpt>
      <trkpt lat="48.54888" lon="-0.4007">
        <ele>205.37878417969</ele>
        <time>2013-07-17T15:18:05Z</time>
      </trkpt>
      <trkpt lat="48.5488" lon="-0.40094">
        <ele>204.89807128906</ele>
        <time>2013-07-17T15:18:11Z</time>
      </trkpt>
      <trkpt lat="48.54868" lon="-0.40119">
        <ele>202.49487304688</ele>
        <time>2013-07-17T15:18:15Z</time>
      </trkpt>
      <trkpt lat="48.54839" lon="-0.40161">
        <ele>200.09167480469</ele>
        <time>2013-07-17T15:18:21Z</time>
      </trkpt>
      <trkpt lat="48.54828" lon="-0.40174">
        <ele>199.13012695312</ele>
        <time>2013-07-17T15:18:23Z</time>
      </trkpt>
      <trkpt lat="48.54819" lon="-0.40191">
        <ele>198.1689453125</ele>
        <time>2013-07-17T15:18:27Z</time>
      </trkpt>
      <trkpt lat="48.54817" lon="-0.40197">
        <ele>198.64953613281</ele>
        <time>2013-07-17T15:18:31Z</time>
      </trkpt>
      <trkpt lat="48.54817" lon="-0.40197">
        <ele>198.1689453125</ele>
        <time>2013-07-17T15:18:32Z</time>
      </trkpt>
      <trkpt lat="48.54817" lon="-0.40198">
        <ele>198.1689453125</ele>
        <time>2013-07-17T15:18:35Z</time>
      </trkpt>
      <trkpt lat="48.54814" lon="-0.40201">
        <ele>197.68823242188</ele>
        <time>2013-07-17T15:18:36Z</time>
      </trkpt>
      <trkpt lat="48.54804" lon="-0.40217">
        <ele>197.20751953125</ele>
        <time>2013-07-17T15:18:41Z</time>
      </trkpt>
      <trkpt lat="48.54807" lon="-0.40242">
        <ele>195.765625</ele>
        <time>2013-07-17T15:18:45Z</time>
      </trkpt>
      <trkpt lat="48.54816" lon="-0.40247">
        <ele>196.24633789062</ele>
        <time>2013-07-17T15:18:47Z</time>
      </trkpt>
      <trkpt lat="48.54847" lon="-0.40255">
        <ele>196.72692871094</ele>
        <time>2013-07-17T15:18:55Z</time>
      </trkpt>
      <trkpt lat="48.54868" lon="-0.40262">
        <ele>197.20751953125</ele>
        <time>2013-07-17T15:19:00Z</time>
      </trkpt>
      <trkpt lat="48.54886" lon="-0.40268">
        <ele>197.68823242188</ele>
        <time>2013-07-17T15:19:04Z</time>
      </trkpt>
      <trkpt lat="48.54928" lon="-0.40284">
        <ele>198.1689453125</ele>
        <time>2013-07-17T15:19:13Z</time>
      </trkpt>
      <trkpt lat="48.54951" lon="-0.40292">
        <ele>198.64953613281</ele>
        <time>2013-07-17T15:19:18Z</time>
      </trkpt>
      <trkpt lat="48.54996" lon="-0.4031">
        <ele>199.13012695312</ele>
        <time>2013-07-17T15:19:27Z</time>
      </trkpt>
      <trkpt lat="48.55013" lon="-0.40316">
        <ele>199.61083984375</ele>
        <time>2013-07-17T15:19:32Z</time>
      </trkpt>
      <trkpt lat="48.55022" lon="-0.4032">
        <ele>200.09167480469</ele>
        <time>2013-07-17T15:19:37Z</time>
      </trkpt>
      <trkpt lat="48.55035" lon="-0.40325">
        <ele>200.09167480469</ele>
        <time>2013-07-17T15:19:42Z</time>
      </trkpt>
      <trkpt lat="48.55059" lon="-0.40335">
        <ele>201.05285644531</ele>
        <time>2013-07-17T15:19:49Z</time>
      </trkpt>
      <trkpt lat="48.55096" lon="-0.4035">
        <ele>201.05285644531</ele>
        <time>2013-07-17T15:19:59Z</time>
      </trkpt>
      <trkpt lat="48.55112" lon="-0.40365">
        <ele>201.53356933594</ele>
        <time>2013-07-17T15:20:04Z</time>
      </trkpt>
      <trkpt lat="48.55125" lon="-0.40377">
        <ele>201.53356933594</ele>
        <time>2013-07-17T15:20:09Z</time>
      </trkpt>
      <trkpt lat="48.55132" lon="-0.40395">
        <ele>201.05285644531</ele>
        <time>2013-07-17T15:20:14Z</time>
      </trkpt>
      <trkpt lat="48.55138" lon="-0.40414">
        <ele>201.53356933594</ele>
        <time>2013-07-17T15:20:19Z</time>
      </trkpt>
      <trkpt lat="48.55142" lon="-0.40433">
        <ele>201.53356933594</ele>
        <time>2013-07-17T15:20:24Z</time>
      </trkpt>
      <trkpt lat="48.55145" lon="-0.40447">
        <ele>202.49487304688</ele>
        <time>2013-07-17T15:20:27Z</time>
      </trkpt>
      <trkpt lat="48.55146" lon="-0.40462">
        <ele>202.49487304688</ele>
        <time>2013-07-17T15:20:32Z</time>
      </trkpt>
      <trkpt lat="48.5514" lon="-0.40475">
        <ele>202.49487304688</ele>
        <time>2013-07-17T15:20:36Z</time>
      </trkpt>
      <trkpt lat="48.5512" lon="-0.40485">
        <ele>202.97546386719</ele>
        <time>2013-07-17T15:20:42Z</time>
      </trkpt>
      <trkpt lat="48.55098" lon="-0.40502">
        <ele>203.93688964844</ele>
        <time>2013-07-17T15:20:49Z</time>
      </trkpt>
      <trkpt lat="48.55073" lon="-0.40525">
        <ele>204.89807128906</ele>
        <time>2013-07-17T15:20:57Z</time>
      </trkpt>
      <trkpt lat="48.55051" lon="-0.40544">
        <ele>205.37878417969</ele>
        <time>2013-07-17T15:21:04Z</time>
      </trkpt>
      <trkpt lat="48.5504" lon="-0.4056">
        <ele>205.37878417969</ele>
        <time>2013-07-17T15:21:09Z</time>
      </trkpt>
      <trkpt lat="48.55022" lon="-0.40596">
        <ele>204.89807128906</ele>
        <time>2013-07-17T15:21:16Z</time>
      </trkpt>
      <trkpt lat="48.55011" lon="-0.40626">
        <ele>205.85949707031</ele>
        <time>2013-07-17T15:21:21Z</time>
      </trkpt>
      <trkpt lat="48.55003" lon="-0.40642">
        <ele>205.37878417969</ele>
        <time>2013-07-17T15:21:24Z</time>
      </trkpt>
      <trkpt lat="48.54993" lon="-0.40659">
        <ele>204.89807128906</ele>
        <time>2013-07-17T15:21:27Z</time>
      </trkpt>
      <trkpt lat="48.54984" lon="-0.40676">
        <ele>205.85949707031</ele>
        <time>2013-07-17T15:21:30Z</time>
      </trkpt>
      <trkpt lat="48.54979" lon="-0.40688">
        <ele>205.37878417969</ele>
        <time>2013-07-17T15:21:32Z</time>
      </trkpt>
      <trkpt lat="48.54971" lon="-0.40728">
        <ele>206.34008789062</ele>
        <time>2013-07-17T15:21:38Z</time>
      </trkpt>
      <trkpt lat="48.54961" lon="-0.40783">
        <ele>208.26281738281</ele>
        <time>2013-07-17T15:21:46Z</time>
      </trkpt>
      <trkpt lat="48.5495" lon="-0.40834">
        <ele>208.26281738281</ele>
        <time>2013-07-17T15:21:53Z</time>
      </trkpt>
      <trkpt lat="48.5494" lon="-0.4088">
        <ele>207.30139160156</ele>
        <time>2013-07-17T15:21:59Z</time>
      </trkpt>
      <trkpt lat="48.54939" lon="-0.40892">
        <ele>207.30139160156</ele>
        <time>2013-07-17T15:22:00Z</time>
      </trkpt>
      <trkpt lat="48.54927" lon="-0.40955">
        <ele>205.37878417969</ele>
        <time>2013-07-17T15:22:07Z</time>
      </trkpt>
      <trkpt lat="48.5492" lon="-0.40989">
        <ele>205.37878417969</ele>
        <time>2013-07-17T15:22:11Z</time>
      </trkpt>
      <trkpt lat="48.54909" lon="-0.41037">
        <ele>206.34008789062</ele>
        <time>2013-07-17T15:22:17Z</time>
      </trkpt>
      <trkpt lat="48.54913" lon="-0.41079">
        <ele>206.82067871094</ele>
        <time>2013-07-17T15:22:22Z</time>
      </trkpt>
      <trkpt lat="48.54927" lon="-0.41141">
        <ele>208.26281738281</ele>
        <time>2013-07-17T15:22:30Z</time>
      </trkpt>
      <trkpt lat="48.54929" lon="-0.41155">
        <ele>208.74340820312</ele>
        <time>2013-07-17T15:22:32Z</time>
      </trkpt>
      <trkpt lat="48.54939" lon="-0.41199">
        <ele>207.78210449219</ele>
        <time>2013-07-17T15:22:39Z</time>
      </trkpt>
      <trkpt lat="48.54949" lon="-0.41245">
        <ele>205.85949707031</ele>
        <time>2013-07-17T15:22:45Z</time>
      </trkpt>
      <trkpt lat="48.54953" lon="-0.41264">
        <ele>205.37878417969</ele>
        <time>2013-07-17T15:22:47Z</time>
      </trkpt>
      <trkpt lat="48.54954" lon="-0.41274">
        <ele>204.41748046875</ele>
        <time>2013-07-17T15:22:48Z</time>
      </trkpt>
      <trkpt lat="48.54945" lon="-0.41327">
        <ele>202.01428222656</ele>
        <time>2013-07-17T15:22:53Z</time>
      </trkpt>
      <trkpt lat="48.54928" lon="-0.41354">
        <ele>200.572265625</ele>
        <time>2013-07-17T15:22:56Z</time>
      </trkpt>
      <trkpt lat="48.54882" lon="-0.41409">
        <ele>196.72692871094</ele>
        <time>2013-07-17T15:23:02Z</time>
      </trkpt>
      <trkpt lat="48.54859" lon="-0.41466">
        <ele>193.3623046875</ele>
        <time>2013-07-17T15:23:06Z</time>
      </trkpt>
      <trkpt lat="48.54858" lon="-0.41518">
        <ele>191.43957519531</ele>
        <time>2013-07-17T15:23:09Z</time>
      </trkpt>
      <trkpt lat="48.54871" lon="-0.41568">
        <ele>189.03637695312</ele>
        <time>2013-07-17T15:23:12Z</time>
      </trkpt>
      <trkpt lat="48.54878" lon="-0.41584">
        <ele>188.07507324219</ele>
        <time>2013-07-17T15:23:13Z</time>
      </trkpt>
      <trkpt lat="48.54892" lon="-0.41613">
        <ele>186.63317871094</ele>
        <time>2013-07-17T15:23:15Z</time>
      </trkpt>
      <trkpt lat="48.54917" lon="-0.41653">
        <ele>184.71057128906</ele>
        <time>2013-07-17T15:23:18Z</time>
      </trkpt>
      <trkpt lat="48.54936" lon="-0.41676">
        <ele>181.34582519531</ele>
        <time>2013-07-17T15:23:20Z</time>
      </trkpt>
      <trkpt lat="48.54954" lon="-0.41697">
        <ele>179.90380859375</ele>
        <time>2013-07-17T15:23:22Z</time>
      </trkpt>
      <trkpt lat="48.54975" lon="-0.41718">
        <ele>179.42321777344</ele>
        <time>2013-07-17T15:23:25Z</time>
      </trkpt>
      <trkpt lat="48.54982" lon="-0.41728">
        <ele>178.4619140625</ele>
        <time>2013-07-17T15:23:28Z</time>
      </trkpt>
      <trkpt lat="48.54985" lon="-0.41733">
        <ele>178.4619140625</ele>
        <time>2013-07-17T15:23:32Z</time>
      </trkpt>
      <trkpt lat="48.55" lon="-0.41735">
        <ele>178.4619140625</ele>
        <time>2013-07-17T15:23:37Z</time>
      </trkpt>
      <trkpt lat="48.55024" lon="-0.41737">
        <ele>178.4619140625</ele>
        <time>2013-07-17T15:23:42Z</time>
      </trkpt>
      <trkpt lat="48.55066" lon="-0.41743">
        <ele>177.02001953125</ele>
        <time>2013-07-17T15:23:49Z</time>
      </trkpt>
      <trkpt lat="48.55112" lon="-0.41747">
        <ele>177.02001953125</ele>
        <time>2013-07-17T15:23:56Z</time>
      </trkpt>
      <trkpt lat="48.55156" lon="-0.41752">
        <ele>177.98120117188</ele>
        <time>2013-07-17T15:24:03Z</time>
      </trkpt>
      <trkpt lat="48.55172" lon="-0.41753">
        <ele>178.4619140625</ele>
        <time>2013-07-17T15:24:06Z</time>
      </trkpt>
      <trkpt lat="48.55198" lon="-0.41756">
        <ele>179.42321777344</ele>
        <time>2013-07-17T15:24:12Z</time>
      </trkpt>
      <trkpt lat="48.55205" lon="-0.41755">
        <ele>180.865234375</ele>
        <time>2013-07-17T15:24:14Z</time>
      </trkpt>
      <trkpt lat="48.55209" lon="-0.41773">
        <ele>179.90380859375</ele>
        <time>2013-07-17T15:24:18Z</time>
      </trkpt>
      <trkpt lat="48.55201" lon="-0.41827">
        <ele>181.82641601562</ele>
        <time>2013-07-17T15:24:26Z</time>
      </trkpt>
      <trkpt lat="48.55195" lon="-0.41865">
        <ele>182.30712890625</ele>
        <time>2013-07-17T15:24:32Z</time>
      </trkpt>
      <trkpt lat="48.5519" lon="-0.41885">
        <ele>182.78784179688</ele>
        <time>2013-07-17T15:24:36Z</time>
      </trkpt>
      <trkpt lat="48.55186" lon="-0.41897">
        <ele>182.78784179688</ele>
        <time>2013-07-17T15:24:38Z</time>
      </trkpt>
      <trkpt lat="48.55177" lon="-0.41919">
        <ele>183.26843261719</ele>
        <time>2013-07-17T15:24:42Z</time>
      </trkpt>
      <trkpt lat="48.55165" lon="-0.4194">
        <ele>183.26843261719</ele>
        <time>2013-07-17T15:24:46Z</time>
      </trkpt>
      <trkpt lat="48.55129" lon="-0.41978">
        <ele>183.26843261719</ele>
        <time>2013-07-17T15:24:55Z</time>
      </trkpt>
      <trkpt lat="48.55113" lon="-0.42016">
        <ele>183.7490234375</ele>
        <time>2013-07-17T15:25:02Z</time>
      </trkpt>
      <trkpt lat="48.55108" lon="-0.42035">
        <ele>183.7490234375</ele>
        <time>2013-07-17T15:25:07Z</time>
      </trkpt>
      <trkpt lat="48.55103" lon="-0.42053">
        <ele>184.71057128906</ele>
        <time>2013-07-17T15:25:14Z</time>
      </trkpt>
      <trkpt lat="48.55104" lon="-0.42054">
        <ele>184.71057128906</ele>
        <time>2013-07-17T15:25:16Z</time>
      </trkpt>
      <trkpt lat="48.55106" lon="-0.4206">
        <ele>184.22985839844</ele>
        <time>2013-07-17T15:26:55Z</time>
      </trkpt>
      <trkpt lat="48.55105" lon="-0.42061">
        <ele>184.22985839844</ele>
        <time>2013-07-17T15:26:56Z</time>
      </trkpt>
      <trkpt lat="48.5511" lon="-0.42072">
        <ele>185.67175292969</ele>
        <time>2013-07-17T15:27:01Z</time>
      </trkpt>
      <trkpt lat="48.55115" lon="-0.42082">
        <ele>186.63317871094</ele>
        <time>2013-07-17T15:27:06Z</time>
      </trkpt>
      <trkpt lat="48.55116" lon="-0.42107">
        <ele>188.07507324219</ele>
        <time>2013-07-17T15:27:14Z</time>
      </trkpt>
      <trkpt lat="48.55109" lon="-0.4213">
        <ele>189.51696777344</ele>
        <time>2013-07-17T15:27:22Z</time>
      </trkpt>
      <trkpt lat="48.55103" lon="-0.42152">
        <ele>190.958984375</ele>
        <time>2013-07-17T15:27:30Z</time>
      </trkpt>
      <trkpt lat="48.55107" lon="-0.42169">
        <ele>192.40112304688</ele>
        <time>2013-07-17T15:27:36Z</time>
      </trkpt>
      <trkpt lat="48.55116" lon="-0.42181">
        <ele>193.84301757812</ele>
        <time>2013-07-17T15:27:42Z</time>
      </trkpt>
      <trkpt lat="48.55118" lon="-0.42182">
        <ele>193.84301757812</ele>
        <time>2013-07-17T15:27:43Z</time>
      </trkpt>
      <trkpt lat="48.55123" lon="-0.42177">
        <ele>193.84301757812</ele>
        <time>2013-07-17T15:27:47Z</time>
      </trkpt>
      <trkpt lat="48.55124" lon="-0.42152">
        <ele>192.88171386719</ele>
        <time>2013-07-17T15:27:53Z</time>
      </trkpt>
      <trkpt lat="48.55125" lon="-0.42135">
        <ele>192.88171386719</ele>
        <time>2013-07-17T15:27:56Z</time>
      </trkpt>
      <trkpt lat="48.55132" lon="-0.42098">
        <ele>191.92028808594</ele>
        <time>2013-07-17T15:28:02Z</time>
      </trkpt>
      <trkpt lat="48.55142" lon="-0.42072">
        <ele>191.92028808594</ele>
        <time>2013-07-17T15:28:07Z</time>
      </trkpt>
      <trkpt lat="48.55149" lon="-0.42055">
        <ele>192.88171386719</ele>
        <time>2013-07-17T15:28:12Z</time>
      </trkpt>
      <trkpt lat="48.55159" lon="-0.42037">
        <ele>193.84301757812</ele>
        <time>2013-07-17T15:28:18Z</time>
      </trkpt>
      <trkpt lat="48.55172" lon="-0.42015">
        <ele>194.80432128906</ele>
        <time>2013-07-17T15:28:26Z</time>
      </trkpt>
      <trkpt lat="48.55181" lon="-0.41999">
        <ele>196.24633789062</ele>
        <time>2013-07-17T15:28:32Z</time>
      </trkpt>
      <trkpt lat="48.55192" lon="-0.41983">
        <ele>196.72692871094</ele>
        <time>2013-07-17T15:28:38Z</time>
      </trkpt>
      <trkpt lat="48.55207" lon="-0.41963">
        <ele>198.64953613281</ele>
        <time>2013-07-17T15:28:47Z</time>
      </trkpt>
      <trkpt lat="48.55219" lon="-0.41947">
        <ele>201.05285644531</ele>
        <time>2013-07-17T15:28:57Z</time>
      </trkpt>
      <trkpt lat="48.55225" lon="-0.4193">
        <ele>202.49487304688</ele>
        <time>2013-07-17T15:29:05Z</time>
      </trkpt>
      <trkpt lat="48.55228" lon="-0.41921">
        <ele>202.97546386719</ele>
        <time>2013-07-17T15:29:11Z</time>
      </trkpt>
      <trkpt lat="48.55232" lon="-0.41913">
        <ele>203.45617675781</ele>
        <time>2013-07-17T15:29:16Z</time>
      </trkpt>
      <trkpt lat="48.55237" lon="-0.41902">
        <ele>204.41748046875</ele>
        <time>2013-07-17T15:29:22Z</time>
      </trkpt>
      <trkpt lat="48.55242" lon="-0.41892">
        <ele>205.37878417969</ele>
        <time>2013-07-17T15:29:28Z</time>
      </trkpt>
      <trkpt lat="48.5525" lon="-0.4188">
        <ele>206.82067871094</ele>
        <time>2013-07-17T15:29:34Z</time>
      </trkpt>
      <trkpt lat="48.55256" lon="-0.41869">
        <ele>207.78210449219</ele>
        <time>2013-07-17T15:29:39Z</time>
      </trkpt>
      <trkpt lat="48.5526" lon="-0.41871">
        <ele>207.78210449219</ele>
        <time>2013-07-17T15:29:43Z</time>
      </trkpt>
      <trkpt lat="48.55264" lon="-0.41884">
        <ele>208.26281738281</ele>
        <time>2013-07-17T15:29:50Z</time>
      </trkpt>
      <trkpt lat="48.55265" lon="-0.41896">
        <ele>209.70483398438</ele>
        <time>2013-07-17T15:29:56Z</time>
      </trkpt>
      <trkpt lat="48.55265" lon="-0.41897">
        <ele>209.70483398438</ele>
        <time>2013-07-17T15:29:57Z</time>
      </trkpt>
      <trkpt lat="48.55265" lon="-0.41907">
        <ele>210.18542480469</ele>
        <time>2013-07-17T15:30:01Z</time>
      </trkpt>
      <trkpt lat="48.55265" lon="-0.41922">
        <ele>210.666015625</ele>
        <time>2013-07-17T15:30:06Z</time>
      </trkpt>
      <trkpt lat="48.55272" lon="-0.41943">
        <ele>211.62744140625</ele>
        <time>2013-07-17T15:30:14Z</time>
      </trkpt>
      <trkpt lat="48.5528" lon="-0.4195">
        <ele>212.58862304688</ele>
        <time>2013-07-17T15:30:20Z</time>
      </trkpt>
      <trkpt lat="48.55283" lon="-0.41946">
        <ele>213.55004882812</ele>
        <time>2013-07-17T15:30:23Z</time>
      </trkpt>
      <trkpt lat="48.55285" lon="-0.41937">
        <ele>213.55004882812</ele>
        <time>2013-07-17T15:30:27Z</time>
      </trkpt>
      <trkpt lat="48.55283" lon="-0.41917">
        <ele>213.55004882812</ele>
        <time>2013-07-17T15:30:34Z</time>
      </trkpt>
      <trkpt lat="48.55282" lon="-0.41893">
        <ele>213.55004882812</ele>
        <time>2013-07-17T15:30:40Z</time>
      </trkpt>
      <trkpt lat="48.55279" lon="-0.41874">
        <ele>213.55004882812</ele>
        <time>2013-07-17T15:30:45Z</time>
      </trkpt>
      <trkpt lat="48.5528" lon="-0.41852">
        <ele>214.99194335938</ele>
        <time>2013-07-17T15:30:50Z</time>
      </trkpt>
      <trkpt lat="48.55287" lon="-0.41834">
        <ele>215.47265625</ele>
        <time>2013-07-17T15:30:55Z</time>
      </trkpt>
      <trkpt lat="48.55296" lon="-0.41815">
        <ele>215.47265625</ele>
        <time>2013-07-17T15:31:00Z</time>
      </trkpt>
      <trkpt lat="48.55312" lon="-0.41793">
        <ele>214.99194335938</ele>
        <time>2013-07-17T15:31:05Z</time>
      </trkpt>
      <trkpt lat="48.55326" lon="-0.41774">
        <ele>214.99194335938</ele>
        <time>2013-07-17T15:31:09Z</time>
      </trkpt>
      <trkpt lat="48.55345" lon="-0.41762">
        <ele>215.95324707031</ele>
        <time>2013-07-17T15:31:14Z</time>
      </trkpt>
      <trkpt lat="48.55357" lon="-0.41773">
        <ele>216.43395996094</ele>
        <time>2013-07-17T15:31:18Z</time>
      </trkpt>
      <trkpt lat="48.55367" lon="-0.41787">
        <ele>217.39538574219</ele>
        <time>2013-07-17T15:31:23Z</time>
      </trkpt>
      <trkpt lat="48.55376" lon="-0.41808">
        <ele>219.31799316406</ele>
        <time>2013-07-17T15:31:30Z</time>
      </trkpt>
      <trkpt lat="48.55386" lon="-0.4183">
        <ele>221.24060058594</ele>
        <time>2013-07-17T15:31:38Z</time>
      </trkpt>
      <trkpt lat="48.55393" lon="-0.41849">
        <ele>222.68249511719</ele>
        <time>2013-07-17T15:31:44Z</time>
      </trkpt>
      <trkpt lat="48.55405" lon="-0.41869">
        <ele>223.64379882812</ele>
        <time>2013-07-17T15:31:51Z</time>
      </trkpt>
      <trkpt lat="48.55415" lon="-0.41882">
        <ele>224.60522460938</ele>
        <time>2013-07-17T15:31:57Z</time>
      </trkpt>
      <trkpt lat="48.55429" lon="-0.41894">
        <ele>224.60522460938</ele>
        <time>2013-07-17T15:32:03Z</time>
      </trkpt>
      <trkpt lat="48.55438" lon="-0.41907">
        <ele>224.12451171875</ele>
        <time>2013-07-17T15:32:08Z</time>
      </trkpt>
      <trkpt lat="48.55447" lon="-0.41921">
        <ele>224.12451171875</ele>
        <time>2013-07-17T15:32:13Z</time>
      </trkpt>
      <trkpt lat="48.5546" lon="-0.41945">
        <ele>224.60522460938</ele>
        <time>2013-07-17T15:32:19Z</time>
      </trkpt>
      <trkpt lat="48.55474" lon="-0.41968">
        <ele>225.56652832031</ele>
        <time>2013-07-17T15:32:25Z</time>
      </trkpt>
      <trkpt lat="48.5549" lon="-0.41984">
        <ele>226.04711914062</ele>
        <time>2013-07-17T15:32:31Z</time>
      </trkpt>
      <trkpt lat="48.55505" lon="-0.41999">
        <ele>227.00854492188</ele>
        <time>2013-07-17T15:32:37Z</time>
      </trkpt>
      <trkpt lat="48.55518" lon="-0.42019">
        <ele>227.9697265625</ele>
        <time>2013-07-17T15:32:43Z</time>
      </trkpt>
      <trkpt lat="48.55531" lon="-0.42051">
        <ele>228.93115234375</ele>
        <time>2013-07-17T15:32:51Z</time>
      </trkpt>
      <trkpt lat="48.55535" lon="-0.42063">
        <ele>229.41174316406</ele>
        <time>2013-07-17T15:32:56Z</time>
      </trkpt>
      <trkpt lat="48.55543" lon="-0.42086">
        <ele>230.373046875</ele>
        <time>2013-07-17T15:33:03Z</time>
      </trkpt>
      <trkpt lat="48.55556" lon="-0.4213">
        <ele>230.85375976562</ele>
        <time>2013-07-17T15:33:14Z</time>
      </trkpt>
      <trkpt lat="48.55568" lon="-0.42167">
        <ele>232.29577636719</ele>
        <time>2013-07-17T15:33:23Z</time>
      </trkpt>
      <trkpt lat="48.55574" lon="-0.42207">
        <ele>232.77648925781</ele>
        <time>2013-07-17T15:33:31Z</time>
      </trkpt>
      <trkpt lat="48.55576" lon="-0.42235">
        <ele>233.25708007812</ele>
        <time>2013-07-17T15:33:37Z</time>
      </trkpt>
      <trkpt lat="48.5558" lon="-0.42254">
        <ele>233.25708007812</ele>
        <time>2013-07-17T15:33:42Z</time>
      </trkpt>
      <trkpt lat="48.55581" lon="-0.42287">
        <ele>232.77648925781</ele>
        <time>2013-07-17T15:33:49Z</time>
      </trkpt>
      <trkpt lat="48.5558" lon="-0.42319">
        <ele>232.29577636719</ele>
        <time>2013-07-17T15:33:55Z</time>
      </trkpt>
      <trkpt lat="48.55581" lon="-0.42342">
        <ele>232.29577636719</ele>
        <time>2013-07-17T15:34:00Z</time>
      </trkpt>
      <trkpt lat="48.55584" lon="-0.42367">
        <ele>231.81494140625</ele>
        <time>2013-07-17T15:34:07Z</time>
      </trkpt>
      <trkpt lat="48.55588" lon="-0.42409">
        <ele>231.81494140625</ele>
        <time>2013-07-17T15:34:14Z</time>
      </trkpt>
      <trkpt lat="48.55589" lon="-0.42416">
        <ele>231.33435058594</ele>
        <time>2013-07-17T15:34:15Z</time>
      </trkpt>
      <trkpt lat="48.55595" lon="-0.42465">
        <ele>230.85375976562</ele>
        <time>2013-07-17T15:34:23Z</time>
      </trkpt>
      <trkpt lat="48.55601" lon="-0.42493">
        <ele>231.33435058594</ele>
        <time>2013-07-17T15:34:28Z</time>
      </trkpt>
      <trkpt lat="48.55603" lon="-0.42506">
        <ele>231.33435058594</ele>
        <time>2013-07-17T15:34:32Z</time>
      </trkpt>
      <trkpt lat="48.55608" lon="-0.42529">
        <ele>231.81494140625</ele>
        <time>2013-07-17T15:34:38Z</time>
      </trkpt>
      <trkpt lat="48.55617" lon="-0.42557">
        <ele>231.81494140625</ele>
        <time>2013-07-17T15:34:43Z</time>
      </trkpt>
      <trkpt lat="48.55621" lon="-0.42586">
        <ele>232.29577636719</ele>
        <time>2013-07-17T15:34:48Z</time>
      </trkpt>
      <trkpt lat="48.5563" lon="-0.42626">
        <ele>233.25708007812</ele>
        <time>2013-07-17T15:34:55Z</time>
      </trkpt>
      <trkpt lat="48.55631" lon="-0.42632">
        <ele>233.25708007812</ele>
        <time>2013-07-17T15:34:56Z</time>
      </trkpt>
      <trkpt lat="48.55639" lon="-0.4267">
        <ele>234.21838378906</ele>
        <time>2013-07-17T15:35:02Z</time>
      </trkpt>
      <trkpt lat="48.55641" lon="-0.42689">
        <ele>234.21838378906</ele>
        <time>2013-07-17T15:35:06Z</time>
      </trkpt>
      <trkpt lat="48.55644" lon="-0.427">
        <ele>233.73767089844</ele>
        <time>2013-07-17T15:35:09Z</time>
      </trkpt>
      <trkpt lat="48.55645" lon="-0.42713">
        <ele>234.21838378906</ele>
        <time>2013-07-17T15:35:14Z</time>
      </trkpt>
      <trkpt lat="48.5565" lon="-0.42733">
        <ele>234.21838378906</ele>
        <time>2013-07-17T15:35:19Z</time>
      </trkpt>
      <trkpt lat="48.55652" lon="-0.42753">
        <ele>235.1796875</ele>
        <time>2013-07-17T15:35:24Z</time>
      </trkpt>
      <trkpt lat="48.55662" lon="-0.4279">
        <ele>235.1796875</ele>
        <time>2013-07-17T15:35:30Z</time>
      </trkpt>
      <trkpt lat="48.55668" lon="-0.4281">
        <ele>234.69909667969</ele>
        <time>2013-07-17T15:35:33Z</time>
      </trkpt>
      <trkpt lat="48.5568" lon="-0.42849">
        <ele>235.66027832031</ele>
        <time>2013-07-17T15:35:39Z</time>
      </trkpt>
      <trkpt lat="48.55686" lon="-0.42887">
        <ele>236.14099121094</ele>
        <time>2013-07-17T15:35:46Z</time>
      </trkpt>
      <trkpt lat="48.5569" lon="-0.42919">
        <ele>236.14099121094</ele>
        <time>2013-07-17T15:35:52Z</time>
      </trkpt>
      <trkpt lat="48.55694" lon="-0.42935">
        <ele>236.62170410156</ele>
        <time>2013-07-17T15:35:57Z</time>
      </trkpt>
      <trkpt lat="48.55695" lon="-0.42936">
        <ele>236.62170410156</ele>
        <time>2013-07-17T15:35:58Z</time>
      </trkpt>
      <trkpt lat="48.55699" lon="-0.42956">
        <ele>237.58288574219</ele>
        <time>2013-07-17T15:36:03Z</time>
      </trkpt>
      <trkpt lat="48.55704" lon="-0.42989">
        <ele>238.06359863281</ele>
        <time>2013-07-17T15:36:09Z</time>
      </trkpt>
      <trkpt lat="48.55709" lon="-0.4302">
        <ele>239.02490234375</ele>
        <time>2013-07-17T15:36:15Z</time>
      </trkpt>
      <trkpt lat="48.55712" lon="-0.43036">
        <ele>239.02490234375</ele>
        <time>2013-07-17T15:36:19Z</time>
      </trkpt>
      <trkpt lat="48.55714" lon="-0.43052">
        <ele>238.06359863281</ele>
        <time>2013-07-17T15:36:24Z</time>
      </trkpt>
      <trkpt lat="48.55718" lon="-0.43072">
        <ele>238.06359863281</ele>
        <time>2013-07-17T15:36:28Z</time>
      </trkpt>
      <trkpt lat="48.55721" lon="-0.43101">
        <ele>238.54431152344</ele>
        <time>2013-07-17T15:36:33Z</time>
      </trkpt>
      <trkpt lat="48.55726" lon="-0.43131">
        <ele>238.06359863281</ele>
        <time>2013-07-17T15:36:38Z</time>
      </trkpt>
      <trkpt lat="48.55729" lon="-0.43158">
        <ele>238.06359863281</ele>
        <time>2013-07-17T15:36:43Z</time>
      </trkpt>
      <trkpt lat="48.55733" lon="-0.43186">
        <ele>237.58288574219</ele>
        <time>2013-07-17T15:36:49Z</time>
      </trkpt>
      <trkpt lat="48.55738" lon="-0.43209">
        <ele>237.10229492188</ele>
        <time>2013-07-17T15:36:53Z</time>
      </trkpt>
      <trkpt lat="48.55742" lon="-0.4324">
        <ele>235.66027832031</ele>
        <time>2013-07-17T15:36:58Z</time>
      </trkpt>
      <trkpt lat="48.55746" lon="-0.43275">
        <ele>235.66027832031</ele>
        <time>2013-07-17T15:37:03Z</time>
      </trkpt>
      <trkpt lat="48.55747" lon="-0.43306">
        <ele>235.66027832031</ele>
        <time>2013-07-17T15:37:08Z</time>
      </trkpt>
      <trkpt lat="48.55747" lon="-0.43313">
        <ele>235.66027832031</ele>
        <time>2013-07-17T15:37:09Z</time>
      </trkpt>
      <trkpt lat="48.55745" lon="-0.43361">
        <ele>235.66027832031</ele>
        <time>2013-07-17T15:37:15Z</time>
      </trkpt>
      <trkpt lat="48.55742" lon="-0.43374">
        <ele>235.66027832031</ele>
        <time>2013-07-17T15:37:17Z</time>
      </trkpt>
      <trkpt lat="48.55739" lon="-0.43397">
        <ele>235.66027832031</ele>
        <time>2013-07-17T15:37:20Z</time>
      </trkpt>
      <trkpt lat="48.55737" lon="-0.43421">
        <ele>235.1796875</ele>
        <time>2013-07-17T15:37:23Z</time>
      </trkpt>
      <trkpt lat="48.5573" lon="-0.43464">
        <ele>235.66027832031</ele>
        <time>2013-07-17T15:37:28Z</time>
      </trkpt>
      <trkpt lat="48.55724" lon="-0.43496">
        <ele>236.14099121094</ele>
        <time>2013-07-17T15:37:33Z</time>
      </trkpt>
      <trkpt lat="48.55719" lon="-0.43523">
        <ele>236.62170410156</ele>
        <time>2013-07-17T15:37:38Z</time>
      </trkpt>
      <trkpt lat="48.55716" lon="-0.4355">
        <ele>237.10229492188</ele>
        <time>2013-07-17T15:37:43Z</time>
      </trkpt>
      <trkpt lat="48.55713" lon="-0.43573">
        <ele>237.10229492188</ele>
        <time>2013-07-17T15:37:48Z</time>
      </trkpt>
      <trkpt lat="48.5571" lon="-0.4359">
        <ele>237.58288574219</ele>
        <time>2013-07-17T15:37:53Z</time>
      </trkpt>
      <trkpt lat="48.55707" lon="-0.43612">
        <ele>237.10229492188</ele>
        <time>2013-07-17T15:37:57Z</time>
      </trkpt>
      <trkpt lat="48.5571" lon="-0.43636">
        <ele>236.14099121094</ele>
        <time>2013-07-17T15:38:02Z</time>
      </trkpt>
      <trkpt lat="48.55716" lon="-0.43664">
        <ele>234.69909667969</ele>
        <time>2013-07-17T15:38:07Z</time>
      </trkpt>
      <trkpt lat="48.55718" lon="-0.43671">
        <ele>233.73767089844</ele>
        <time>2013-07-17T15:38:08Z</time>
      </trkpt>
      <trkpt lat="48.55725" lon="-0.43703">
        <ele>233.25708007812</ele>
        <time>2013-07-17T15:38:12Z</time>
      </trkpt>
      <trkpt lat="48.55727" lon="-0.43719">
        <ele>232.77648925781</ele>
        <time>2013-07-17T15:38:14Z</time>
      </trkpt>
      <trkpt lat="48.55734" lon="-0.43744">
        <ele>231.33435058594</ele>
        <time>2013-07-17T15:38:17Z</time>
      </trkpt>
      <trkpt lat="48.55745" lon="-0.43784">
        <ele>230.373046875</ele>
        <time>2013-07-17T15:38:22Z</time>
      </trkpt>
      <trkpt lat="48.55754" lon="-0.43823">
        <ele>228.45043945312</ele>
        <time>2013-07-17T15:38:26Z</time>
      </trkpt>
      <trkpt lat="48.55762" lon="-0.43854">
        <ele>227.48913574219</ele>
        <time>2013-07-17T15:38:29Z</time>
      </trkpt>
      <trkpt lat="48.55782" lon="-0.43905">
        <ele>227.48913574219</ele>
        <time>2013-07-17T15:38:33Z</time>
      </trkpt>
      <trkpt lat="48.55788" lon="-0.43928">
        <ele>227.9697265625</ele>
        <time>2013-07-17T15:38:36Z</time>
      </trkpt>
      <trkpt lat="48.55791" lon="-0.43946">
        <ele>228.45043945312</ele>
        <time>2013-07-17T15:38:40Z</time>
      </trkpt>
      <trkpt lat="48.55796" lon="-0.43972">
        <ele>228.45043945312</ele>
        <time>2013-07-17T15:38:45Z</time>
      </trkpt>
      <trkpt lat="48.55801" lon="-0.43991">
        <ele>227.00854492188</ele>
        <time>2013-07-17T15:38:49Z</time>
      </trkpt>
      <trkpt lat="48.55809" lon="-0.44019">
        <ele>226.04711914062</ele>
        <time>2013-07-17T15:38:53Z</time>
      </trkpt>
      <trkpt lat="48.55816" lon="-0.44047">
        <ele>226.04711914062</ele>
        <time>2013-07-17T15:38:57Z</time>
      </trkpt>
      <trkpt lat="48.55822" lon="-0.44074">
        <ele>226.52783203125</ele>
        <time>2013-07-17T15:39:02Z</time>
      </trkpt>
      <trkpt lat="48.55822" lon="-0.44075">
        <ele>226.52783203125</ele>
        <time>2013-07-17T15:39:03Z</time>
      </trkpt>
      <trkpt lat="48.55822" lon="-0.44101">
        <ele>227.9697265625</ele>
        <time>2013-07-17T15:41:24Z</time>
      </trkpt>
      <trkpt lat="48.55822" lon="-0.441">
        <ele>227.48913574219</ele>
        <time>2013-07-17T15:41:25Z</time>
      </trkpt>
      <trkpt lat="48.55822" lon="-0.441">
        <ele>227.9697265625</ele>
        <time>2013-07-17T15:41:26Z</time>
      </trkpt>
      <trkpt lat="48.55822" lon="-0.44096">
        <ele>227.48913574219</ele>
        <time>2013-07-17T15:41:32Z</time>
      </trkpt>
      <trkpt lat="48.55819" lon="-0.44084">
        <ele>227.00854492188</ele>
        <time>2013-07-17T15:41:35Z</time>
      </trkpt>
      <trkpt lat="48.55818" lon="-0.4408">
        <ele>227.48913574219</ele>
        <time>2013-07-17T15:41:36Z</time>
      </trkpt>
      <trkpt lat="48.55816" lon="-0.44064">
        <ele>227.48913574219</ele>
        <time>2013-07-17T15:41:40Z</time>
      </trkpt>
      <trkpt lat="48.55802" lon="-0.44044">
        <ele>227.00854492188</ele>
        <time>2013-07-17T15:41:46Z</time>
      </trkpt>
      <trkpt lat="48.55793" lon="-0.44026">
        <ele>226.04711914062</ele>
        <time>2013-07-17T15:41:50Z</time>
      </trkpt>
      <trkpt lat="48.55783" lon="-0.44008">
        <ele>225.56652832031</ele>
        <time>2013-07-17T15:41:55Z</time>
      </trkpt>
      <trkpt lat="48.55778" lon="-0.44002">
        <ele>226.04711914062</ele>
        <time>2013-07-17T15:41:57Z</time>
      </trkpt>
      <trkpt lat="48.55769" lon="-0.43997">
        <ele>224.12451171875</ele>
        <time>2013-07-17T15:42:00Z</time>
      </trkpt>
      <trkpt lat="48.55756" lon="-0.43995">
        <ele>223.16320800781</ele>
        <time>2013-07-17T15:42:04Z</time>
      </trkpt>
      <trkpt lat="48.55743" lon="-0.43992">
        <ele>221.72119140625</ele>
        <time>2013-07-17T15:42:08Z</time>
      </trkpt>
      <trkpt lat="48.55739" lon="-0.43991">
        <ele>221.72119140625</ele>
        <time>2013-07-17T15:42:09Z</time>
      </trkpt>
      <trkpt lat="48.55726" lon="-0.43988">
        <ele>220.27917480469</ele>
        <time>2013-07-17T15:42:12Z</time>
      </trkpt>
      <trkpt lat="48.55706" lon="-0.43981">
        <ele>219.31799316406</ele>
        <time>2013-07-17T15:42:16Z</time>
      </trkpt>
      <trkpt lat="48.55682" lon="-0.43983">
        <ele>217.8759765625</ele>
        <time>2013-07-17T15:42:21Z</time>
      </trkpt>
      <trkpt lat="48.55669" lon="-0.43989">
        <ele>216.43395996094</ele>
        <time>2013-07-17T15:42:23Z</time>
      </trkpt>
      <trkpt lat="48.55654" lon="-0.43995">
        <ele>215.95324707031</ele>
        <time>2013-07-17T15:42:25Z</time>
      </trkpt>
      <trkpt lat="48.55641" lon="-0.44001">
        <ele>214.99194335938</ele>
        <time>2013-07-17T15:42:27Z</time>
      </trkpt>
      <trkpt lat="48.55634" lon="-0.44016">
        <ele>214.51123046875</ele>
        <time>2013-07-17T15:42:32Z</time>
      </trkpt>
      <trkpt lat="48.55618" lon="-0.44029">
        <ele>212.58862304688</ele>
        <time>2013-07-17T15:42:38Z</time>
      </trkpt>
      <trkpt lat="48.55608" lon="-0.44035">
        <ele>211.62744140625</ele>
        <time>2013-07-17T15:42:40Z</time>
      </trkpt>
      <trkpt lat="48.55572" lon="-0.44054">
        <ele>209.22412109375</ele>
        <time>2013-07-17T15:42:46Z</time>
      </trkpt>
      <trkpt lat="48.5555" lon="-0.44067">
        <ele>207.78210449219</ele>
        <time>2013-07-17T15:42:49Z</time>
      </trkpt>
      <trkpt lat="48.55501" lon="-0.44092">
        <ele>205.37878417969</ele>
        <time>2013-07-17T15:42:55Z</time>
      </trkpt>
      <trkpt lat="48.55474" lon="-0.44107">
        <ele>202.97546386719</ele>
        <time>2013-07-17T15:42:59Z</time>
      </trkpt>
      <trkpt lat="48.55465" lon="-0.44122">
        <ele>202.49487304688</ele>
        <time>2013-07-17T15:43:03Z</time>
      </trkpt>
      <trkpt lat="48.55468" lon="-0.44133">
        <ele>201.53356933594</ele>
        <time>2013-07-17T15:43:05Z</time>
      </trkpt>
      <trkpt lat="48.55478" lon="-0.44162">
        <ele>201.05285644531</ele>
        <time>2013-07-17T15:43:10Z</time>
      </trkpt>
      <trkpt lat="48.5549" lon="-0.44204">
        <ele>201.05285644531</ele>
        <time>2013-07-17T15:43:15Z</time>
      </trkpt>
      <trkpt lat="48.55493" lon="-0.44214">
        <ele>200.572265625</ele>
        <time>2013-07-17T15:43:16Z</time>
      </trkpt>
      <trkpt lat="48.55496" lon="-0.44231">
        <ele>201.05285644531</ele>
        <time>2013-07-17T15:43:18Z</time>
      </trkpt>
      <trkpt lat="48.55494" lon="-0.44257">
        <ele>201.05285644531</ele>
        <time>2013-07-17T15:43:22Z</time>
      </trkpt>
      <trkpt lat="48.55489" lon="-0.44276">
        <ele>200.572265625</ele>
        <time>2013-07-17T15:43:26Z</time>
      </trkpt>
      <trkpt lat="48.555" lon="-0.44323">
        <ele>200.09167480469</ele>
        <time>2013-07-17T15:43:34Z</time>
      </trkpt>
      <trkpt lat="48.55511" lon="-0.44346">
        <ele>199.13012695312</ele>
        <time>2013-07-17T15:43:39Z</time>
      </trkpt>
      <trkpt lat="48.55518" lon="-0.44375">
        <ele>197.68823242188</ele>
        <time>2013-07-17T15:43:43Z</time>
      </trkpt>
      <trkpt lat="48.55528" lon="-0.44418">
        <ele>195.28491210938</ele>
        <time>2013-07-17T15:43:47Z</time>
      </trkpt>
      <trkpt lat="48.5553" lon="-0.44428">
        <ele>194.80432128906</ele>
        <time>2013-07-17T15:43:48Z</time>
      </trkpt>
      <trkpt lat="48.55543" lon="-0.44472">
        <ele>193.84301757812</ele>
        <time>2013-07-17T15:43:52Z</time>
      </trkpt>
      <trkpt lat="48.55547" lon="-0.44481">
        <ele>193.84301757812</ele>
        <time>2013-07-17T15:43:53Z</time>
      </trkpt>
      <trkpt lat="48.55553" lon="-0.44498">
        <ele>194.32373046875</ele>
        <time>2013-07-17T15:43:55Z</time>
      </trkpt>
      <trkpt lat="48.55564" lon="-0.44516">
        <ele>194.32373046875</ele>
        <time>2013-07-17T15:43:58Z</time>
      </trkpt>
      <trkpt lat="48.5557" lon="-0.44536">
        <ele>194.80432128906</ele>
        <time>2013-07-17T15:44:02Z</time>
      </trkpt>
      <trkpt lat="48.55568" lon="-0.44556">
        <ele>195.28491210938</ele>
        <time>2013-07-17T15:44:06Z</time>
      </trkpt>
      <trkpt lat="48.55569" lon="-0.44576">
        <ele>196.24633789062</ele>
        <time>2013-07-17T15:44:10Z</time>
      </trkpt>
      <trkpt lat="48.55575" lon="-0.44599">
        <ele>197.20751953125</ele>
        <time>2013-07-17T15:44:15Z</time>
      </trkpt>
      <trkpt lat="48.55581" lon="-0.44627">
        <ele>198.64953613281</ele>
        <time>2013-07-17T15:44:20Z</time>
      </trkpt>
      <trkpt lat="48.55583" lon="-0.44653">
        <ele>199.61083984375</ele>
        <time>2013-07-17T15:44:25Z</time>
      </trkpt>
      <trkpt lat="48.55584" lon="-0.44679">
        <ele>200.09167480469</ele>
        <time>2013-07-17T15:44:30Z</time>
      </trkpt>
      <trkpt lat="48.55586" lon="-0.44706">
        <ele>199.61083984375</ele>
        <time>2013-07-17T15:44:35Z</time>
      </trkpt>
      <trkpt lat="48.55586" lon="-0.44739">
        <ele>199.61083984375</ele>
        <time>2013-07-17T15:44:41Z</time>
      </trkpt>
      <trkpt lat="48.55583" lon="-0.44769">
        <ele>198.64953613281</ele>
        <time>2013-07-17T15:44:46Z</time>
      </trkpt>
      <trkpt lat="48.55579" lon="-0.44802">
        <ele>198.1689453125</ele>
        <time>2013-07-17T15:44:51Z</time>
      </trkpt>
      <trkpt lat="48.55563" lon="-0.44843">
        <ele>196.24633789062</ele>
        <time>2013-07-17T15:44:57Z</time>
      </trkpt>
      <trkpt lat="48.55559" lon="-0.44878">
        <ele>195.28491210938</ele>
        <time>2013-07-17T15:45:01Z</time>
      </trkpt>
      <trkpt lat="48.5556" lon="-0.44886">
        <ele>194.80432128906</ele>
        <time>2013-07-17T15:45:02Z</time>
      </trkpt>
      <trkpt lat="48.55549" lon="-0.44924">
        <ele>193.84301757812</ele>
        <time>2013-07-17T15:45:07Z</time>
      </trkpt>
      <trkpt lat="48.55528" lon="-0.44926">
        <ele>192.88171386719</ele>
        <time>2013-07-17T15:45:10Z</time>
      </trkpt>
      <trkpt lat="48.55507" lon="-0.44926">
        <ele>192.40112304688</ele>
        <time>2013-07-17T15:45:13Z</time>
      </trkpt>
      <trkpt lat="48.55487" lon="-0.44926">
        <ele>190.958984375</ele>
        <time>2013-07-17T15:45:16Z</time>
      </trkpt>
      <trkpt lat="48.55475" lon="-0.44925">
        <ele>191.92028808594</ele>
        <time>2013-07-17T15:45:18Z</time>
      </trkpt>
      <trkpt lat="48.55437" lon="-0.44925">
        <ele>191.92028808594</ele>
        <time>2013-07-17T15:45:25Z</time>
      </trkpt>
      <trkpt lat="48.55401" lon="-0.44926">
        <ele>191.92028808594</ele>
        <time>2013-07-17T15:45:32Z</time>
      </trkpt>
      <trkpt lat="48.5536" lon="-0.44931">
        <ele>190.47839355469</ele>
        <time>2013-07-17T15:45:39Z</time>
      </trkpt>
      <trkpt lat="48.55347" lon="-0.44934">
        <ele>189.03637695312</ele>
        <time>2013-07-17T15:45:41Z</time>
      </trkpt>
      <trkpt lat="48.55333" lon="-0.44936">
        <ele>189.03637695312</ele>
        <time>2013-07-17T15:45:43Z</time>
      </trkpt>
      <trkpt lat="48.55294" lon="-0.44933">
        <ele>187.11376953125</ele>
        <time>2013-07-17T15:45:48Z</time>
      </trkpt>
      <trkpt lat="48.55276" lon="-0.44924">
        <ele>186.63317871094</ele>
        <time>2013-07-17T15:45:51Z</time>
      </trkpt>
      <trkpt lat="48.5526" lon="-0.44923">
        <ele>186.15246582031</ele>
        <time>2013-07-17T15:45:54Z</time>
      </trkpt>
      <trkpt lat="48.55243" lon="-0.44922">
        <ele>185.67175292969</ele>
        <time>2013-07-17T15:45:57Z</time>
      </trkpt>
      <trkpt lat="48.55228" lon="-0.44911">
        <ele>185.19116210938</ele>
        <time>2013-07-17T15:46:01Z</time>
      </trkpt>
      <trkpt lat="48.55224" lon="-0.4489">
        <ele>185.19116210938</ele>
        <time>2013-07-17T15:46:05Z</time>
      </trkpt>
      <trkpt lat="48.55224" lon="-0.44884">
        <ele>185.19116210938</ele>
        <time>2013-07-17T15:46:06Z</time>
      </trkpt>
      <trkpt lat="48.55222" lon="-0.44856">
        <ele>186.15246582031</ele>
        <time>2013-07-17T15:46:10Z</time>
      </trkpt>
      <trkpt lat="48.5522" lon="-0.4483">
        <ele>185.67175292969</ele>
        <time>2013-07-17T15:46:14Z</time>
      </trkpt>
      <trkpt lat="48.55217" lon="-0.44817">
        <ele>185.19116210938</ele>
        <time>2013-07-17T15:46:16Z</time>
      </trkpt>
      <trkpt lat="48.55201" lon="-0.4479">
        <ele>184.22985839844</ele>
        <time>2013-07-17T15:46:21Z</time>
      </trkpt>
      <trkpt lat="48.5518" lon="-0.44758">
        <ele>183.26843261719</ele>
        <time>2013-07-17T15:46:27Z</time>
      </trkpt>
      <trkpt lat="48.55159" lon="-0.44719">
        <ele>179.42321777344</ele>
        <time>2013-07-17T15:46:32Z</time>
      </trkpt>
      <trkpt lat="48.55153" lon="-0.44711">
        <ele>179.42321777344</ele>
        <time>2013-07-17T15:46:33Z</time>
      </trkpt>
      <trkpt lat="48.55146" lon="-0.44704">
        <ele>178.94262695312</ele>
        <time>2013-07-17T15:46:34Z</time>
      </trkpt>
      <trkpt lat="48.55111" lon="-0.44691">
        <ele>177.98120117188</ele>
        <time>2013-07-17T15:46:39Z</time>
      </trkpt>
      <trkpt lat="48.55072" lon="-0.44716">
        <ele>177.50061035156</ele>
        <time>2013-07-17T15:46:46Z</time>
      </trkpt>
      <trkpt lat="48.55053" lon="-0.44727">
        <ele>178.4619140625</ele>
        <time>2013-07-17T15:46:51Z</time>
      </trkpt>
      <trkpt lat="48.55038" lon="-0.44735">
        <ele>179.42321777344</ele>
        <time>2013-07-17T15:46:57Z</time>
      </trkpt>
      <trkpt lat="48.55008" lon="-0.44748">
        <ele>179.90380859375</ele>
        <time>2013-07-17T15:47:06Z</time>
      </trkpt>
      <trkpt lat="48.5498" lon="-0.44759">
        <ele>181.82641601562</ele>
        <time>2013-07-17T15:47:14Z</time>
      </trkpt>
      <trkpt lat="48.54963" lon="-0.44766">
        <ele>183.26843261719</ele>
        <time>2013-07-17T15:47:19Z</time>
      </trkpt>
      <trkpt lat="48.54931" lon="-0.44779">
        <ele>184.71057128906</ele>
        <time>2013-07-17T15:47:28Z</time>
      </trkpt>
      <trkpt lat="48.54901" lon="-0.44786">
        <ele>186.15246582031</ele>
        <time>2013-07-17T15:47:37Z</time>
      </trkpt>
      <trkpt lat="48.54876" lon="-0.44791">
        <ele>185.19116210938</ele>
        <time>2013-07-17T15:47:44Z</time>
      </trkpt>
      <trkpt lat="48.5485" lon="-0.44801">
        <ele>183.7490234375</ele>
        <time>2013-07-17T15:47:49Z</time>
      </trkpt>
      <trkpt lat="48.54819" lon="-0.44822">
        <ele>182.78784179688</ele>
        <time>2013-07-17T15:47:55Z</time>
      </trkpt>
      <trkpt lat="48.54798" lon="-0.44846">
        <ele>181.82641601562</ele>
        <time>2013-07-17T15:48:00Z</time>
      </trkpt>
      <trkpt lat="48.54785" lon="-0.44865">
        <ele>181.82641601562</ele>
        <time>2013-07-17T15:48:05Z</time>
      </trkpt>
      <trkpt lat="48.54769" lon="-0.44881">
        <ele>181.34582519531</ele>
        <time>2013-07-17T15:48:10Z</time>
      </trkpt>
      <trkpt lat="48.54753" lon="-0.44894">
        <ele>178.4619140625</ele>
        <time>2013-07-17T15:48:13Z</time>
      </trkpt>
      <trkpt lat="48.54718" lon="-0.44936">
        <ele>176.05859375</ele>
        <time>2013-07-17T15:48:19Z</time>
      </trkpt>
      <trkpt lat="48.54698" lon="-0.44956">
        <ele>173.6552734375</ele>
        <time>2013-07-17T15:48:22Z</time>
      </trkpt>
      <trkpt lat="48.54691" lon="-0.44961">
        <ele>173.6552734375</ele>
        <time>2013-07-17T15:48:23Z</time>
      </trkpt>
      <trkpt lat="48.5466" lon="-0.45004">
        <ele>172.69396972656</ele>
        <time>2013-07-17T15:48:29Z</time>
      </trkpt>
      <trkpt lat="48.54648" lon="-0.45022">
        <ele>173.6552734375</ele>
        <time>2013-07-17T15:48:33Z</time>
      </trkpt>
      <trkpt lat="48.54632" lon="-0.45043">
        <ele>175.57788085938</ele>
        <time>2013-07-17T15:48:39Z</time>
      </trkpt>
      <trkpt lat="48.54622" lon="-0.45066">
        <ele>177.02001953125</ele>
        <time>2013-07-17T15:48:44Z</time>
      </trkpt>
      <trkpt lat="48.5461" lon="-0.4509">
        <ele>177.50061035156</ele>
        <time>2013-07-17T15:48:49Z</time>
      </trkpt>
      <trkpt lat="48.54589" lon="-0.45111">
        <ele>177.50061035156</ele>
        <time>2013-07-17T15:48:55Z</time>
      </trkpt>
      <trkpt lat="48.54571" lon="-0.45127">
        <ele>177.50061035156</ele>
        <time>2013-07-17T15:49:00Z</time>
      </trkpt>
      <trkpt lat="48.54543" lon="-0.4515">
        <ele>178.4619140625</ele>
        <time>2013-07-17T15:49:08Z</time>
      </trkpt>
      <trkpt lat="48.54536" lon="-0.45156">
        <ele>179.42321777344</ele>
        <time>2013-07-17T15:49:11Z</time>
      </trkpt>
      <trkpt lat="48.54529" lon="-0.45174">
        <ele>180.865234375</ele>
        <time>2013-07-17T15:49:16Z</time>
      </trkpt>
      <trkpt lat="48.54527" lon="-0.45185">
        <ele>180.865234375</ele>
        <time>2013-07-17T15:49:18Z</time>
      </trkpt>
      <trkpt lat="48.54525" lon="-0.45213">
        <ele>180.38452148438</ele>
        <time>2013-07-17T15:49:24Z</time>
      </trkpt>
      <trkpt lat="48.54512" lon="-0.45235">
        <ele>179.90380859375</ele>
        <time>2013-07-17T15:49:29Z</time>
      </trkpt>
      <trkpt lat="48.54505" lon="-0.45247">
        <ele>178.94262695312</ele>
        <time>2013-07-17T15:49:31Z</time>
      </trkpt>
      <trkpt lat="48.54475" lon="-0.45276">
        <ele>177.02001953125</ele>
        <time>2013-07-17T15:49:37Z</time>
      </trkpt>
      <trkpt lat="48.54454" lon="-0.45289">
        <ele>176.05859375</ele>
        <time>2013-07-17T15:49:40Z</time>
      </trkpt>
      <trkpt lat="48.54433" lon="-0.45299">
        <ele>175.57788085938</ele>
        <time>2013-07-17T15:49:43Z</time>
      </trkpt>
      <trkpt lat="48.54398" lon="-0.45302">
        <ele>175.57788085938</ele>
        <time>2013-07-17T15:49:48Z</time>
      </trkpt>
      <trkpt lat="48.54387" lon="-0.45296">
        <ele>176.53930664062</ele>
        <time>2013-07-17T15:49:50Z</time>
      </trkpt>
      <trkpt lat="48.54364" lon="-0.45288">
        <ele>177.98120117188</ele>
        <time>2013-07-17T15:49:56Z</time>
      </trkpt>
      <trkpt lat="48.54335" lon="-0.45286">
        <ele>180.38452148438</ele>
        <time>2013-07-17T15:50:04Z</time>
      </trkpt>
      <trkpt lat="48.54318" lon="-0.45287">
        <ele>181.34582519531</ele>
        <time>2013-07-17T15:50:10Z</time>
      </trkpt>
      <trkpt lat="48.543" lon="-0.45308">
        <ele>181.34582519531</ele>
        <time>2013-07-17T15:50:17Z</time>
      </trkpt>
      <trkpt lat="48.54293" lon="-0.45316">
        <ele>181.34582519531</ele>
        <time>2013-07-17T15:50:19Z</time>
      </trkpt>
      <trkpt lat="48.54271" lon="-0.4533">
        <ele>180.38452148438</ele>
        <time>2013-07-17T15:50:24Z</time>
      </trkpt>
      <trkpt lat="48.54224" lon="-0.45347">
        <ele>176.05859375</ele>
        <time>2013-07-17T15:50:31Z</time>
      </trkpt>
      <trkpt lat="48.54208" lon="-0.45351">
        <ele>175.57788085938</ele>
        <time>2013-07-17T15:50:33Z</time>
      </trkpt>
      <trkpt lat="48.5418" lon="-0.45356">
        <ele>173.17468261719</ele>
        <time>2013-07-17T15:50:36Z</time>
      </trkpt>
      <trkpt lat="48.54129" lon="-0.45367">
        <ele>170.77136230469</ele>
        <time>2013-07-17T15:50:41Z</time>
      </trkpt>
      <trkpt lat="48.54085" lon="-0.45384">
        <ele>166.92602539062</ele>
        <time>2013-07-17T15:50:45Z</time>
      </trkpt>
      <trkpt lat="48.54052" lon="-0.454">
        <ele>165.48413085938</ele>
        <time>2013-07-17T15:50:48Z</time>
      </trkpt>
      <trkpt lat="48.54021" lon="-0.45417">
        <ele>165.48413085938</ele>
        <time>2013-07-17T15:50:51Z</time>
      </trkpt>
      <trkpt lat="48.53983" lon="-0.45439">
        <ele>165.00341796875</ele>
        <time>2013-07-17T15:50:55Z</time>
      </trkpt>
      <trkpt lat="48.53976" lon="-0.45442">
        <ele>165.00341796875</ele>
        <time>2013-07-17T15:50:56Z</time>
      </trkpt>
      <trkpt lat="48.53969" lon="-0.45446">
        <ele>165.48413085938</ele>
        <time>2013-07-17T15:50:57Z</time>
      </trkpt>
      <trkpt lat="48.53958" lon="-0.45473">
        <ele>165.48413085938</ele>
        <time>2013-07-17T15:51:01Z</time>
      </trkpt>
      <trkpt lat="48.53958" lon="-0.45488">
        <ele>165.48413085938</ele>
        <time>2013-07-17T15:51:04Z</time>
      </trkpt>
      <trkpt lat="48.53958" lon="-0.45502">
        <ele>166.4453125</ele>
        <time>2013-07-17T15:51:09Z</time>
      </trkpt>
      <trkpt lat="48.53957" lon="-0.45519">
        <ele>168.36804199219</ele>
        <time>2013-07-17T15:51:15Z</time>
      </trkpt>
      <trkpt lat="48.53955" lon="-0.45536">
        <ele>169.32946777344</ele>
        <time>2013-07-17T15:51:20Z</time>
      </trkpt>
      <trkpt lat="48.53955" lon="-0.45538">
        <ele>169.32946777344</ele>
        <time>2013-07-17T15:51:21Z</time>
      </trkpt>
      <trkpt lat="48.53955" lon="-0.45554">
        <ele>170.77136230469</ele>
        <time>2013-07-17T15:51:27Z</time>
      </trkpt>
      <trkpt lat="48.53955" lon="-0.45573">
        <ele>172.21325683594</ele>
        <time>2013-07-17T15:51:33Z</time>
      </trkpt>
      <trkpt lat="48.53956" lon="-0.45575">
        <ele>172.21325683594</ele>
        <time>2013-07-17T15:51:34Z</time>
      </trkpt>
      <trkpt lat="48.53957" lon="-0.45596">
        <ele>173.17468261719</ele>
        <time>2013-07-17T15:51:41Z</time>
      </trkpt>
      <trkpt lat="48.53957" lon="-0.45602">
        <ele>173.6552734375</ele>
        <time>2013-07-17T15:51:44Z</time>
      </trkpt>
      <trkpt lat="48.53958" lon="-0.45614">
        <ele>175.09729003906</ele>
        <time>2013-07-17T15:51:50Z</time>
      </trkpt>
      <trkpt lat="48.53958" lon="-0.45615">
        <ele>174.61657714844</ele>
        <time>2013-07-17T15:51:51Z</time>
      </trkpt>
      <trkpt lat="48.53957" lon="-0.45623">
        <ele>174.61657714844</ele>
        <time>2013-07-17T15:52:36Z</time>
      </trkpt>
      <trkpt lat="48.53958" lon="-0.45624">
        <ele>174.61657714844</ele>
        <time>2013-07-17T15:52:37Z</time>
      </trkpt>
      <trkpt lat="48.53957" lon="-0.45623">
        <ele>174.61657714844</ele>
        <time>2013-07-17T15:52:38Z</time>
      </trkpt>
      <trkpt lat="48.53959" lon="-0.45625">
        <ele>174.61657714844</ele>
        <time>2013-07-17T15:52:44Z</time>
      </trkpt>
      <trkpt lat="48.53959" lon="-0.45628">
        <ele>175.09729003906</ele>
        <time>2013-07-17T15:52:46Z</time>
      </trkpt>
      <trkpt lat="48.5396" lon="-0.45632">
        <ele>175.09729003906</ele>
        <time>2013-07-17T15:52:52Z</time>
      </trkpt>
      <trkpt lat="48.53959" lon="-0.4564">
        <ele>176.53930664062</ele>
        <time>2013-07-17T15:52:58Z</time>
      </trkpt>
      <trkpt lat="48.53959" lon="-0.45647">
        <ele>177.50061035156</ele>
        <time>2013-07-17T15:53:02Z</time>
      </trkpt>
      <trkpt lat="48.53959" lon="-0.45657">
        <ele>177.98120117188</ele>
        <time>2013-07-17T15:53:08Z</time>
      </trkpt>
      <trkpt lat="48.5396" lon="-0.45669">
        <ele>178.94262695312</ele>
        <time>2013-07-17T15:53:13Z</time>
      </trkpt>
      <trkpt lat="48.53962" lon="-0.45685">
        <ele>180.38452148438</ele>
        <time>2013-07-17T15:53:20Z</time>
      </trkpt>
      <trkpt lat="48.53963" lon="-0.45698">
        <ele>181.82641601562</ele>
        <time>2013-07-17T15:53:26Z</time>
      </trkpt>
      <trkpt lat="48.53964" lon="-0.45712">
        <ele>182.78784179688</ele>
        <time>2013-07-17T15:53:32Z</time>
      </trkpt>
      <trkpt lat="48.53965" lon="-0.45726">
        <ele>182.78784179688</ele>
        <time>2013-07-17T15:53:38Z</time>
      </trkpt>
      <trkpt lat="48.53967" lon="-0.4574">
        <ele>183.7490234375</ele>
        <time>2013-07-17T15:53:44Z</time>
      </trkpt>
      <trkpt lat="48.53968" lon="-0.45755">
        <ele>184.22985839844</ele>
        <time>2013-07-17T15:53:50Z</time>
      </trkpt>
      <trkpt lat="48.5397" lon="-0.45769">
        <ele>184.71057128906</ele>
        <time>2013-07-17T15:53:56Z</time>
      </trkpt>
      <trkpt lat="48.53972" lon="-0.45785">
        <ele>185.19116210938</ele>
        <time>2013-07-17T15:54:02Z</time>
      </trkpt>
      <trkpt lat="48.53973" lon="-0.45798">
        <ele>186.63317871094</ele>
        <time>2013-07-17T15:54:07Z</time>
      </trkpt>
      <trkpt lat="48.53974" lon="-0.45813">
        <ele>186.63317871094</ele>
        <time>2013-07-17T15:54:14Z</time>
      </trkpt>
      <trkpt lat="48.53974" lon="-0.45815">
        <ele>187.11376953125</ele>
        <time>2013-07-17T15:54:15Z</time>
      </trkpt>
      <trkpt lat="48.53977" lon="-0.45837">
        <ele>188.07507324219</ele>
        <time>2013-07-17T15:54:23Z</time>
      </trkpt>
      <trkpt lat="48.53978" lon="-0.4585">
        <ele>189.03637695312</ele>
        <time>2013-07-17T15:54:28Z</time>
      </trkpt>
      <trkpt lat="48.53979" lon="-0.4586">
        <ele>189.51696777344</ele>
        <time>2013-07-17T15:54:32Z</time>
      </trkpt>
      <trkpt lat="48.5398" lon="-0.45867">
        <ele>189.51696777344</ele>
        <time>2013-07-17T15:54:35Z</time>
      </trkpt>
      <trkpt lat="48.53985" lon="-0.45883">
        <ele>189.51696777344</ele>
        <time>2013-07-17T15:54:42Z</time>
      </trkpt>
      <trkpt lat="48.53986" lon="-0.45886">
        <ele>189.99768066406</ele>
        <time>2013-07-17T15:54:43Z</time>
      </trkpt>
      <trkpt lat="48.53986" lon="-0.45894">
        <ele>190.47839355469</ele>
        <time>2013-07-17T15:54:46Z</time>
      </trkpt>
      <trkpt lat="48.53979" lon="-0.45902">
        <ele>190.47839355469</ele>
        <time>2013-07-17T15:54:53Z</time>
      </trkpt>
      <trkpt lat="48.5397" lon="-0.45913">
        <ele>190.958984375</ele>
        <time>2013-07-17T15:54:59Z</time>
      </trkpt>
      <trkpt lat="48.5396" lon="-0.45923">
        <ele>190.47839355469</ele>
        <time>2013-07-17T15:55:04Z</time>
      </trkpt>
      <trkpt lat="48.53951" lon="-0.45931">
        <ele>190.958984375</ele>
        <time>2013-07-17T15:55:09Z</time>
      </trkpt>
      <trkpt lat="48.53938" lon="-0.45941">
        <ele>191.43957519531</ele>
        <time>2013-07-17T15:55:15Z</time>
      </trkpt>
      <trkpt lat="48.53926" lon="-0.45949">
        <ele>191.43957519531</ele>
        <time>2013-07-17T15:55:20Z</time>
      </trkpt>
      <trkpt lat="48.53912" lon="-0.45958">
        <ele>191.92028808594</ele>
        <time>2013-07-17T15:55:25Z</time>
      </trkpt>
      <trkpt lat="48.53893" lon="-0.45973">
        <ele>191.92028808594</ele>
        <time>2013-07-17T15:55:32Z</time>
      </trkpt>
      <trkpt lat="48.5387" lon="-0.45986">
        <ele>191.43957519531</ele>
        <time>2013-07-17T15:55:38Z</time>
      </trkpt>
      <trkpt lat="48.53853" lon="-0.45999">
        <ele>190.958984375</ele>
        <time>2013-07-17T15:55:43Z</time>
      </trkpt>
      <trkpt lat="48.53835" lon="-0.46013">
        <ele>190.47839355469</ele>
        <time>2013-07-17T15:55:48Z</time>
      </trkpt>
      <trkpt lat="48.53818" lon="-0.46032">
        <ele>189.99768066406</ele>
        <time>2013-07-17T15:55:54Z</time>
      </trkpt>
      <trkpt lat="48.53785" lon="-0.46049">
        <ele>188.07507324219</ele>
        <time>2013-07-17T15:56:02Z</time>
      </trkpt>
      <trkpt lat="48.53752" lon="-0.46055">
        <ele>186.63317871094</ele>
        <time>2013-07-17T15:56:08Z</time>
      </trkpt>
      <trkpt lat="48.53707" lon="-0.46043">
        <ele>184.71057128906</ele>
        <time>2013-07-17T15:56:15Z</time>
      </trkpt>
      <trkpt lat="48.53666" lon="-0.46033">
        <ele>181.82641601562</ele>
        <time>2013-07-17T15:56:21Z</time>
      </trkpt>
      <trkpt lat="48.53658" lon="-0.46032">
        <ele>181.34582519531</ele>
        <time>2013-07-17T15:56:22Z</time>
      </trkpt>
      <trkpt lat="48.53649" lon="-0.4603">
        <ele>181.34582519531</ele>
        <time>2013-07-17T15:56:23Z</time>
      </trkpt>
      <trkpt lat="48.53619" lon="-0.46025">
        <ele>179.90380859375</ele>
        <time>2013-07-17T15:56:27Z</time>
      </trkpt>
      <trkpt lat="48.53579" lon="-0.45998">
        <ele>177.98120117188</ele>
        <time>2013-07-17T15:56:32Z</time>
      </trkpt>
      <trkpt lat="48.53546" lon="-0.45977">
        <ele>175.09729003906</ele>
        <time>2013-07-17T15:56:36Z</time>
      </trkpt>
      <trkpt lat="48.53529" lon="-0.45967">
        <ele>174.13586425781</ele>
        <time>2013-07-17T15:56:38Z</time>
      </trkpt>
      <trkpt lat="48.53503" lon="-0.45934">
        <ele>172.69396972656</ele>
        <time>2013-07-17T15:56:42Z</time>
      </trkpt>
      <trkpt lat="48.53489" lon="-0.45902">
        <ele>170.77136230469</ele>
        <time>2013-07-17T15:56:46Z</time>
      </trkpt>
      <trkpt lat="48.53468" lon="-0.45906">
        <ele>168.84875488281</ele>
        <time>2013-07-17T15:56:49Z</time>
      </trkpt>
      <trkpt lat="48.5346" lon="-0.45909">
        <ele>167.40673828125</ele>
        <time>2013-07-17T15:56:50Z</time>
      </trkpt>
      <trkpt lat="48.53407" lon="-0.45932">
        <ele>163.08081054688</ele>
        <time>2013-07-17T15:56:56Z</time>
      </trkpt>
      <trkpt lat="48.53387" lon="-0.45944">
        <ele>162.11950683594</ele>
        <time>2013-07-17T15:57:01Z</time>
      </trkpt>
      <trkpt lat="48.53385" lon="-0.45954">
        <ele>162.11950683594</ele>
        <time>2013-07-17T15:57:03Z</time>
      </trkpt>
      <trkpt lat="48.53384" lon="-0.46012">
        <ele>162.11950683594</ele>
        <time>2013-07-17T15:57:11Z</time>
      </trkpt>
      <trkpt lat="48.53387" lon="-0.46102">
        <ele>162.11950683594</ele>
        <time>2013-07-17T15:57:21Z</time>
      </trkpt>
      <trkpt lat="48.53388" lon="-0.46149">
        <ele>161.63891601562</ele>
        <time>2013-07-17T15:57:26Z</time>
      </trkpt>
      <trkpt lat="48.53392" lon="-0.4619">
        <ele>161.63891601562</ele>
        <time>2013-07-17T15:57:31Z</time>
      </trkpt>
      <trkpt lat="48.53407" lon="-0.46263">
        <ele>162.11950683594</ele>
        <time>2013-07-17T15:57:40Z</time>
      </trkpt>
      <trkpt lat="48.53408" lon="-0.4627">
        <ele>162.11950683594</ele>
        <time>2013-07-17T15:57:41Z</time>
      </trkpt>
      <trkpt lat="48.53415" lon="-0.46299">
        <ele>161.158203125</ele>
        <time>2013-07-17T15:57:45Z</time>
      </trkpt>
      <trkpt lat="48.53423" lon="-0.46329">
        <ele>160.19689941406</ele>
        <time>2013-07-17T15:57:49Z</time>
      </trkpt>
      <trkpt lat="48.53416" lon="-0.46358">
        <ele>160.19689941406</ele>
        <time>2013-07-17T15:57:53Z</time>
      </trkpt>
      <trkpt lat="48.53408" lon="-0.46366">
        <ele>160.19689941406</ele>
        <time>2013-07-17T15:57:55Z</time>
      </trkpt>
      <trkpt lat="48.53368" lon="-0.46395">
        <ele>160.67749023438</ele>
        <time>2013-07-17T15:58:03Z</time>
      </trkpt>
      <trkpt lat="48.53362" lon="-0.46399">
        <ele>160.67749023438</ele>
        <time>2013-07-17T15:58:04Z</time>
      </trkpt>
      <trkpt lat="48.53352" lon="-0.46407">
        <ele>160.67749023438</ele>
        <time>2013-07-17T15:58:06Z</time>
      </trkpt>
      <trkpt lat="48.53327" lon="-0.46428">
        <ele>160.19689941406</ele>
        <time>2013-07-17T15:58:12Z</time>
      </trkpt>
      <trkpt lat="48.53304" lon="-0.46447">
        <ele>160.67749023438</ele>
        <time>2013-07-17T15:58:19Z</time>
      </trkpt>
      <trkpt lat="48.53284" lon="-0.46463">
        <ele>160.67749023438</ele>
        <time>2013-07-17T15:58:25Z</time>
      </trkpt>
      <trkpt lat="48.53255" lon="-0.46491">
        <ele>160.19689941406</ele>
        <time>2013-07-17T15:58:32Z</time>
      </trkpt>
      <trkpt lat="48.53216" lon="-0.46527">
        <ele>159.71618652344</ele>
        <time>2013-07-17T15:58:40Z</time>
      </trkpt>
      <trkpt lat="48.53197" lon="-0.46545">
        <ele>159.23547363281</ele>
        <time>2013-07-17T15:58:44Z</time>
      </trkpt>
      <trkpt lat="48.53155" lon="-0.46592">
        <ele>158.75476074219</ele>
        <time>2013-07-17T15:58:53Z</time>
      </trkpt>
      <trkpt lat="48.53126" lon="-0.46628">
        <ele>157.79357910156</ele>
        <time>2013-07-17T15:59:00Z</time>
      </trkpt>
      <trkpt lat="48.53113" lon="-0.46641">
        <ele>157.31286621094</ele>
        <time>2013-07-17T15:59:03Z</time>
      </trkpt>
      <trkpt lat="48.531" lon="-0.46653">
        <ele>156.83215332031</ele>
        <time>2013-07-17T15:59:06Z</time>
      </trkpt>
      <trkpt lat="48.53079" lon="-0.46658">
        <ele>156.3515625</ele>
        <time>2013-07-17T15:59:10Z</time>
      </trkpt>
      <trkpt lat="48.53069" lon="-0.46657">
        <ele>156.3515625</ele>
        <time>2013-07-17T15:59:12Z</time>
      </trkpt>
      <trkpt lat="48.53034" lon="-0.46644">
        <ele>155.87097167969</ele>
        <time>2013-07-17T15:59:19Z</time>
      </trkpt>
      <trkpt lat="48.53019" lon="-0.46648">
        <ele>155.39025878906</ele>
        <time>2013-07-17T15:59:23Z</time>
      </trkpt>
      <trkpt lat="48.53012" lon="-0.46675">
        <ele>155.87097167969</ele>
        <time>2013-07-17T15:59:28Z</time>
      </trkpt>
      <trkpt lat="48.53013" lon="-0.46702">
        <ele>156.3515625</ele>
        <time>2013-07-17T15:59:34Z</time>
      </trkpt>
      <trkpt lat="48.53009" lon="-0.46715">
        <ele>156.3515625</ele>
        <time>2013-07-17T15:59:37Z</time>
      </trkpt>
      <trkpt lat="48.52992" lon="-0.46716">
        <ele>155.87097167969</ele>
        <time>2013-07-17T15:59:41Z</time>
      </trkpt>
      <trkpt lat="48.52972" lon="-0.46719">
        <ele>154.90954589844</ele>
        <time>2013-07-17T15:59:45Z</time>
      </trkpt>
      <trkpt lat="48.52958" lon="-0.46732">
        <ele>154.90954589844</ele>
        <time>2013-07-17T15:59:48Z</time>
      </trkpt>
      <trkpt lat="48.5295" lon="-0.46743">
        <ele>154.90954589844</ele>
        <time>2013-07-17T15:59:50Z</time>
      </trkpt>
      <trkpt lat="48.52941" lon="-0.46751">
        <ele>154.42895507812</ele>
        <time>2013-07-17T15:59:52Z</time>
      </trkpt>
      <trkpt lat="48.52906" lon="-0.4679">
        <ele>153.94836425781</ele>
        <time>2013-07-17T16:00:00Z</time>
      </trkpt>
      <trkpt lat="48.529" lon="-0.46819">
        <ele>152.98693847656</ele>
        <time>2013-07-17T16:00:04Z</time>
      </trkpt>
      <trkpt lat="48.52903" lon="-0.46826">
        <ele>153.46765136719</ele>
        <time>2013-07-17T16:00:05Z</time>
      </trkpt>
      <trkpt lat="48.52931" lon="-0.46903">
        <ele>153.46765136719</ele>
        <time>2013-07-17T16:00:15Z</time>
      </trkpt>
      <trkpt lat="48.52953" lon="-0.46958">
        <ele>152.50634765625</ele>
        <time>2013-07-17T16:00:23Z</time>
      </trkpt>
      <trkpt lat="48.52961" lon="-0.4698">
        <ele>152.50634765625</ele>
        <time>2013-07-17T16:00:26Z</time>
      </trkpt>
      <trkpt lat="48.52983" lon="-0.47037">
        <ele>150.58361816406</ele>
        <time>2013-07-17T16:00:34Z</time>
      </trkpt>
      <trkpt lat="48.52999" lon="-0.47084">
        <ele>149.1416015625</ele>
        <time>2013-07-17T16:00:40Z</time>
      </trkpt>
      <trkpt lat="48.53011" lon="-0.47113">
        <ele>149.1416015625</ele>
        <time>2013-07-17T16:00:44Z</time>
      </trkpt>
      <trkpt lat="48.53029" lon="-0.47153">
        <ele>148.66101074219</ele>
        <time>2013-07-17T16:00:50Z</time>
      </trkpt>
      <trkpt lat="48.53027" lon="-0.47169">
        <ele>148.18041992188</ele>
        <time>2013-07-17T16:00:53Z</time>
      </trkpt>
      <trkpt lat="48.53025" lon="-0.47173">
        <ele>148.18041992188</ele>
        <time>2013-07-17T16:00:54Z</time>
      </trkpt>
      <trkpt lat="48.5301" lon="-0.47197">
        <ele>147.21899414062</ele>
        <time>2013-07-17T16:00:59Z</time>
      </trkpt>
      <trkpt lat="48.53007" lon="-0.4721">
        <ele>147.21899414062</ele>
        <time>2013-07-17T16:01:01Z</time>
      </trkpt>
      <trkpt lat="48.53008" lon="-0.47256">
        <ele>146.2578125</ele>
        <time>2013-07-17T16:01:07Z</time>
      </trkpt>
      <trkpt lat="48.53012" lon="-0.47271">
        <ele>146.2578125</ele>
        <time>2013-07-17T16:01:09Z</time>
      </trkpt>
      <trkpt lat="48.53034" lon="-0.47325">
        <ele>145.77709960938</ele>
        <time>2013-07-17T16:01:17Z</time>
      </trkpt>
      <trkpt lat="48.53055" lon="-0.47373">
        <ele>144.81579589844</ele>
        <time>2013-07-17T16:01:24Z</time>
      </trkpt>
      <trkpt lat="48.53078" lon="-0.47424">
        <ele>144.33520507812</ele>
        <time>2013-07-17T16:01:32Z</time>
      </trkpt>
      <trkpt lat="48.5309" lon="-0.47451">
        <ele>144.33520507812</ele>
        <time>2013-07-17T16:01:36Z</time>
      </trkpt>
      <trkpt lat="48.53114" lon="-0.47508">
        <ele>142.41247558594</ele>
        <time>2013-07-17T16:01:44Z</time>
      </trkpt>
      <trkpt lat="48.53136" lon="-0.47559">
        <ele>141.45104980469</ele>
        <time>2013-07-17T16:01:51Z</time>
      </trkpt>
      <trkpt lat="48.53165" lon="-0.47625">
        <ele>140.00915527344</ele>
        <time>2013-07-17T16:02:00Z</time>
      </trkpt>
      <trkpt lat="48.53188" lon="-0.47677">
        <ele>139.0478515625</ele>
        <time>2013-07-17T16:02:07Z</time>
      </trkpt>
      <trkpt lat="48.53212" lon="-0.47732">
        <ele>137.60583496094</ele>
        <time>2013-07-17T16:02:14Z</time>
      </trkpt>
      <trkpt lat="48.53231" lon="-0.47776">
        <ele>136.64465332031</ele>
        <time>2013-07-17T16:02:20Z</time>
      </trkpt>
      <trkpt lat="48.53252" lon="-0.47819">
        <ele>138.56726074219</ele>
        <time>2013-07-17T16:02:26Z</time>
      </trkpt>
      <trkpt lat="48.53265" lon="-0.47846">
        <ele>139.52844238281</ele>
        <time>2013-07-17T16:02:30Z</time>
      </trkpt>
      <trkpt lat="48.53268" lon="-0.47852">
        <ele>139.0478515625</ele>
        <time>2013-07-17T16:02:31Z</time>
      </trkpt>
      <trkpt lat="48.53266" lon="-0.4787">
        <ele>139.52844238281</ele>
        <time>2013-07-17T16:02:34Z</time>
      </trkpt>
      <trkpt lat="48.53258" lon="-0.47877">
        <ele>139.0478515625</ele>
        <time>2013-07-17T16:02:36Z</time>
      </trkpt>
      <trkpt lat="48.53249" lon="-0.47882">
        <ele>138.56726074219</ele>
        <time>2013-07-17T16:02:38Z</time>
      </trkpt>
      <trkpt lat="48.53239" lon="-0.47895">
        <ele>138.56726074219</ele>
        <time>2013-07-17T16:02:41Z</time>
      </trkpt>
      <trkpt lat="48.53218" lon="-0.47931">
        <ele>137.60583496094</ele>
        <time>2013-07-17T16:02:48Z</time>
      </trkpt>
      <trkpt lat="48.53204" lon="-0.47957">
        <ele>137.12524414062</ele>
        <time>2013-07-17T16:02:53Z</time>
      </trkpt>
      <trkpt lat="48.53191" lon="-0.47979">
        <ele>136.64465332031</ele>
        <time>2013-07-17T16:02:57Z</time>
      </trkpt>
      <trkpt lat="48.53152" lon="-0.48002">
        <ele>135.68310546875</ele>
        <time>2013-07-17T16:03:05Z</time>
      </trkpt>
      <trkpt lat="48.53113" lon="-0.48021">
        <ele>134.2412109375</ele>
        <time>2013-07-17T16:03:12Z</time>
      </trkpt>
      <trkpt lat="48.5309" lon="-0.48031">
        <ele>133.76049804688</ele>
        <time>2013-07-17T16:03:16Z</time>
      </trkpt>
      <trkpt lat="48.53051" lon="-0.48033">
        <ele>133.27990722656</ele>
        <time>2013-07-17T16:03:23Z</time>
      </trkpt>
      <trkpt lat="48.53032" lon="-0.4803">
        <ele>133.76049804688</ele>
        <time>2013-07-17T16:03:27Z</time>
      </trkpt>
    </trkseg>
  </trk>
</gpx>